<<back to data home page
Ready for rain this Winter season?? Stay in touch!! - DONATE ANY AMOUNT BY CLICKING THIS LINK!!!


    Month/Day/Year       Maximum   Minimum    Rel    Dew       Rainfall  Seasonal  Soil     Soil      Baro       Wind    Wind        Peak     Peak Speed    Leaf     Net       EvapPan  EvapPan    EvapPan   EvapPan
    and                  Air Temp  Air Temp   Hum    Point     Inches    Rainfall  Temp     Moisture  Pressure   Speed   Direction   Speed    Direction    Wetness  Radiation   Wind    WindRun    H20Temp   Level  
    Local Time           Deg F     Deg F      %      Deg F               Inches    Deg F    dS/m      mbar       MPH     comp  deg   MPH      comp  deg      mV        W_m2     MPH      Miles     Deg F     Inches
---------------------------------------------------------------------------------------------------------------------------------------------------------------------------------------------------------------------
   02/23/2020 04:40      45.5      44.8       92     43.0      0.00      7.87      61.1     0.47      1022.5     1.0      SW   221   2.2     WSW     244     378       -28       0.5       0.6      52.1      9.35
   02/23/2020 04:30      45.6      45.1       92     43.2      0.00      7.87      60.9     0.47      1022.4     0.4     SSE   166   1.4     SSW     211     373       -29       0.0       0.6      52.0      9.35
   02/23/2020 04:20      45.6      45.3       92     43.3      0.00      7.87      61.2     0.47      1022.2     0.9     SSW   195   1.6     SSW     196     367       -30       0.2       0.5      52.5      9.35
   02/23/2020 04:10      45.7      45.2       91     43.1      0.00      7.87      61.2     0.47      1022.1     0.2      SE   132   0.7      SE     131     361       -33       0.0       0.5      52.6      9.35
   02/23/2020 04:00      46.2      45.6       91     43.5      0.00      7.87      61.2     0.47      1022.0     0.0     SSE   155   0.6     SSE     158     354       -34       0.0       0.5      52.8      9.35
   02/23/2020 03:50      46.7      46.1       91     44.0      0.00      7.87      61.2     0.47      1021.9     1.2     SSW   198   1.7      SW     228     350       -35       0.5       0.5      53.0      9.35
   02/23/2020 03:40      46.6      46.3       91     43.9      0.00      7.87      61.3     0.47      1021.9     0.4     ENE    72   1.4      SW     228     343       -39       0.1       0.4      53.2      9.35
   02/23/2020 03:30      47.2      46.4       90     44.1      0.00      7.87      61.3     0.47      1021.8     0.6     SSE   149   1.3     SSE     158     334       -41       0.0       0.4      53.3      9.35
   02/23/2020 03:20      47.6      47.1       90     44.6      0.00      7.87      61.3     0.47      1021.8     0.3     SSE   157   1.4      SE     146     326       -44       0.0       0.4      53.5      9.35
   02/23/2020 03:10      47.7      47.3       90     44.8      0.00      7.87      61.3     0.47      1021.8     1.3     SSE   169   1.8       S     170     321       -47       0.3       0.4      53.6      9.35
   02/23/2020 03:00      48.1      47.2       89     44.5      0.00      7.87      61.3     0.47      1021.7     0.8     SSE   167   1.8     SSE     165     315       -52       0.6       0.4      53.9      9.35
   02/23/2020 02:50      48.4      47.9       89     45.2      0.00      7.87      61.4     0.47      1021.8     0.7     SSE   150   1.4      SE     138     308       -56       0.2       0.3      54.1      9.35
   02/23/2020 02:40      48.7      48.2       88     45.0      0.00      7.87      61.4     0.47      1021.8     0.0     ESE   124   0.8     ESE     120     303       -59       0.0       0.2      54.3      9.35
   02/23/2020 02:30      49.6      48.6       87     45.4      0.00      7.87      61.4     0.47      1021.8     0.4       S   169   1.6     SSW     208     295       -60       0.0       0.2      54.4      9.35
   02/23/2020 02:20      49.9      49.5       88     46.3      0.00      7.87      61.4     0.47      1021.9     1.4     SSW   209   2.2     SSW     209     288       -58       0.5       0.2      54.6      9.35
   02/23/2020 02:10      50.6      49.8       88     46.8      0.00      7.87      61.4     0.47      1021.9     0.5     SSW   206   1.3       S     184     283       -58       0.0       0.2      54.8      9.36
   02/23/2020 02:00      50.9      50.5       88     47.1      0.00      7.87      61.5     0.47      1021.9     0.0     SSE   163   0.5     SSE     163     276       -57       0.0       0.2      55.0      9.36
   02/23/2020 01:50      51.4      50.7       87     47.3      0.00      7.87      61.5     0.47      1021.9     0.0     SSE   149   0.1     SSE     149     271       -43       0.0       0.2      55.2      9.36
   02/23/2020 01:40      51.7      51.2       87     47.7      0.00      7.87      61.5     0.47      1021.9     0.2     SSW   205   0.7     SSW     196     272       -41       0.0       0.2      55.3      9.36
   02/23/2020 01:30      51.9      51.6       87     48.0      0.00      7.87      61.5     0.47      1021.9     0.0       N     0   0.0       E      80     273       -33       0.0       0.2      55.4      9.36
   02/23/2020 01:20      51.9      51.7       87     47.9      0.00      7.87      61.6     0.47      1021.8     0.0     SSE   149   0.5      SE     142     273       -22       0.0       0.2      55.4      9.36
   02/23/2020 01:10      52.0      51.7       87     48.1      0.00      7.87      61.6     0.47      1021.8     0.6       S   187   1.3     SSW     212     273       -19       0.2       0.2      55.5      9.36
   02/23/2020 01:00      51.8      51.4       88     48.1      0.00      7.87      61.6     0.47      1021.8     0.4      SW   215   1.3      SW     218     273       -13       0.0       0.1      55.6      9.36
   02/23/2020 00:50      51.5      51.3       87     47.7      0.00      7.87      61.7     0.48      1021.7     0.1      SE   130   1.0      SE     129     273       -11       0.0       0.1      55.5      9.36
   02/23/2020 00:40      51.4      51.1       87     47.6      0.00      7.87      61.7     0.47      1021.6     0.0      SE   131   0.4      SE     131     273       -13       0.0       0.1      55.6      9.36
   02/23/2020 00:30      51.4      51.1       87     47.4      0.00      7.87      61.7     0.47      1021.6     0.1     SSE   163   0.9       S     180     273       -17       0.3       0.1      55.7      9.36
   02/23/2020 00:20      51.6      51.2       86     47.5      0.00      7.87      61.7     0.47      1021.6     0.5       S   186   1.2     WSW     243     273       -18       0.0       0.0      55.8      9.36
   02/23/2020 00:10      51.4      51.1       86     47.2      0.00      7.87      61.7     0.48      1021.5     0.9      SW   232   1.7     WSW     243     273       -19       0.5       0.0      55.9      9.36
   02/23/2020 00:00      51.8      51.1       85     46.9      0.00      7.87      61.8     0.48      1021.4     0.2     ESE   115   1.1     ENE      76     273       -22       0.0      23.6      55.9      9.36
   02/22/2020 23:50      51.9      51.5       85     47.3      0.00      7.87      61.8     0.48      1021.3     1.1     SSW   206   2.3     SSW     211     273       -39       0.4      23.6      56.1      9.36
   02/22/2020 23:40      52.4      51.7       85     47.6      0.00      7.87      61.8     0.48      1021.3     0.0     SSE   156   0.6       S     175     273       -40       0.0      23.5      56.2      9.36
   02/22/2020 23:30      52.2      51.8       85     47.8      0.00      7.87      61.9     0.47      1021.3     0.6     ESE   120   2.1       S     174     273       -30       0.2      23.5      56.3      9.36
   02/22/2020 23:20      52.4      51.9       86     48.0      0.00      7.87      61.9     0.48      1021.3     0.9     SSE   157   2.2     SSE     167     273       -27       0.4      23.5      56.4      9.36
   02/22/2020 23:10      52.5      52.1       85     47.9      0.00      7.87      61.9     0.48      1021.2     0.7     SSE   168   1.4       S     191     273       -22       0.1      23.4      56.5      9.36
   02/22/2020 23:00      52.7      52.2       84     47.8      0.00      7.87      61.9     0.48      1021.3     0.5       E    81   1.2     ENE      60     272       -19       0.0      23.4      56.5      9.36
   02/22/2020 22:50      52.7      52.4       84     47.8      0.00      7.87      62.0     0.48      1021.2     0.7     SSW   214   1.9      SW     220     272       -15       0.2      23.4      56.6      9.36
   02/22/2020 22:40      52.6      52.2       84     47.8      0.00      7.87      61.9     0.48      1021.2     0.2     ENE    70   1.0      NE      36     272       -10       0.0      23.4      56.7      9.36
   02/22/2020 22:30      52.5      52.1       84     47.7      0.00      7.87      62.0     0.48      1021.2     0.4      NE    46   1.3      NE      37     272        -8       0.0      23.4      56.6      9.36
   02/22/2020 22:20      52.4      52.1       84     47.6      0.00      7.87      62.0     0.48      1021.1     0.5     ENE    58   1.1     ENE      70     272        -7       0.0      23.4      56.7      9.36
   02/22/2020 22:10      52.2      51.7       84     47.4      0.00      7.87      62.0     0.48      1021.0     0.7     SSE   148   1.4     SSW     211     272        -7       0.0      23.4      56.8      9.36
   02/22/2020 22:00      51.9      51.4       85     47.4      0.00      7.87      62.0     0.48      1020.9     1.1     SSE   161   1.9     ENE      73     272        -7       0.4      23.4      56.8      9.36
   02/22/2020 21:50      51.4      50.7       87     47.4      0.00      7.87      62.1     0.48      1020.7     0.9       S   179   1.9       S     183     272        -7       0.4      23.3      56.8      9.36
   02/22/2020 21:40      50.9      50.1       89     47.3      0.00      7.87      62.1     0.48      1020.6     0.8     ESE   121   1.5      SE     141     273        -6       0.0      23.2      56.9      9.36
   02/22/2020 21:30      50.2      49.7       89     46.9      0.00      7.87      62.1     0.48      1020.5     0.8       S   185   2.0       S     179     274        -5       0.3      23.2      57.0      9.36
   02/22/2020 21:20      49.7      48.9       89     46.2      0.00      7.87      62.1     0.48      1020.6     0.6     ESE   115   2.0      SE     132     281        -4       0.0      23.2      57.0      9.36
   02/22/2020 21:10      48.9      48.7       88     45.4      0.00      7.87      62.1     0.48      1020.5     0.7     SSE   157   1.7      SE     140     290        -7       0.0      23.2      57.2      9.36
   02/22/2020 21:00      49.0      48.7       86     45.0      0.00      7.87      62.2     0.48      1020.4     0.0      SE   125   0.6     ESE     122     292       -51       0.0      23.1      57.3      9.36
   02/22/2020 20:50      49.7      48.9       85     44.9      0.00      7.87      62.2     0.48      1020.3     0.7       S   182   1.9       S     185     285       -63       0.0      23.1      57.5      9.36
   02/22/2020 20:40      51.0      49.7       81     44.8      0.00      7.87      62.2     0.48      1020.1     0.0     SSE   167   0.7       S     177     277       -65       0.0      23.1      57.7      9.36
   02/22/2020 20:30      51.8      50.9       79     45.2      0.00      7.87      62.2     0.48      1019.9     1.5     SSW   200   2.3     SSW     207     273       -64       0.9      23.1      58.0      9.36
   02/22/2020 20:20      52.9      51.7       77     45.1      0.00      7.87      62.3     0.48      1019.7     1.1       S   188   1.8       S     189     274       -61       0.4      23.0      58.2      9.36
   02/22/2020 20:10      53.0      52.6       75     45.3      0.00      7.87      62.2     0.48      1019.7     1.3     WSW   237   3.1     WSW     253     275       -61       0.4      22.9      58.4      9.36
   02/22/2020 20:00      53.0      52.6       75     45.0      0.00      7.87      62.3     0.48      1019.7     1.6      SW   231   3.3     WSW     241     278       -32       0.6      22.9      58.6      9.36
   02/22/2020 19:50      53.0      52.6       74     44.7      0.00      7.87      62.3     0.48      1019.6     1.8      SW   221   3.2      SW     231     282       -20       0.8      22.8      58.7      9.36
   02/22/2020 19:40      53.3      52.7       74     44.8      0.00      7.87      62.3     0.48      1019.6     2.4      SW   221   3.6      SW     225     287       -13       1.3      22.6      59.0      9.36
   02/22/2020 19:30      53.8      53.2       74     45.5      0.00      7.87      62.3     0.48      1019.4     1.8      SW   230   2.9     WSW     242     291        -9       0.8      22.4      59.2      9.36
   02/22/2020 19:20      54.2      53.7       74     46.0      0.00      7.87      62.3     0.48      1019.2     1.0      SW   215   2.8      SW     233     294        -8       0.5      22.3      59.4      9.36
   02/22/2020 19:10      54.5      54.0       74     46.0      0.00      7.87      62.3     0.48      1019.3     2.3      SW   218   4.5      SW     230     297        -7       1.5      22.2      59.6      9.36
   02/22/2020 19:00      54.7      54.1       73     45.7      0.00      7.87      62.3     0.48      1019.2     3.1     SSW   204   5.7      SW     229     301        -6       2.1      22.0      59.8      9.36
   02/22/2020 18:50      54.8      54.4       70     44.9      0.00      7.87      62.3     0.48      1019.1     2.7      SW   226   5.9      SW     224     306        -6       1.7      21.6      60.0      9.36
   02/22/2020 18:40      54.9      54.6       68     44.4      0.00      7.87      62.3     0.48      1019.0     3.8      SW   232   7.0      SW     221     311        -7       2.5      21.3      60.2      9.36
   02/22/2020 18:30      55.1      54.6       73     46.3      0.00      7.87      62.3     0.48      1018.9     3.0      SW   230   5.9      SW     219     317        -8       2.0      20.9      60.4      9.36
   02/22/2020 18:20      54.9      54.7       75     47.1      0.00      7.87      62.1     0.48      1018.6     1.4     WSW   253   4.1      SW     229     320        -8       0.6      20.6      60.3      9.36
   02/22/2020 18:10      55.1      54.6       74     46.7      0.00      7.87      61.7     0.48      1018.4     1.1      SW   218   2.7     WSW     243     323        -9       0.4      20.5      59.9      9.36
   02/22/2020 18:00      55.1      54.8       73     46.5      0.00      7.87      61.8     0.48      1018.4     1.6      SW   232   3.5      SW     230     325       -10       0.9      20.4      60.1      9.36
   02/22/2020 17:50      55.1      54.8       73     46.5      0.00      7.87      61.7     0.48      1018.4     2.4      SW   232   3.6     WSW     255     330        -8       1.5      20.3      60.2      9.36
   02/22/2020 17:40      55.2      55.0       73     46.5      0.01      7.87      61.8     0.48      1018.4     2.8     WSW   241   5.7     WNW     297     345        -5       1.9      20.0      60.5      9.36
   02/22/2020 17:30      55.3      55.0       72     46.3      0.00      7.86      61.8     0.48      1018.3     2.6      SW   235   4.4     SSW     202     336        -2       1.7      19.7      60.6      9.36
   02/22/2020 17:20      55.4      55.1       72     46.6      0.00      7.86      61.8     0.48      1018.3     1.9      SW   231   3.4      SW     214     333         3       1.1      19.4      60.8      9.36
   02/22/2020 17:10      55.7      55.3       71     46.2      0.00      7.86      61.7     0.48      1018.1     1.5     SSW   203   2.7     SSW     203     359        18       0.7      19.2      61.0      9.36
   02/22/2020 17:00      56.0      55.6       68     45.3      0.00      7.86      61.8     0.48      1018.1     2.0      SW   222   3.4      SW     216     337         9       1.2      19.1      61.2      9.36
   02/22/2020 16:50      56.2      55.9       65     44.6      0.00      7.86      61.7     0.48      1018.0     2.8      SW   218   6.1     SSW     212     317        -6       1.8      18.9      61.5      9.36
   02/22/2020 16:40      56.3      56.0       66     44.9      0.00      7.86      61.6     0.48      1017.9     3.9      SW   231   7.9     WSW     257     269        -6       2.5      18.6      61.6      9.36
   02/22/2020 16:30      56.3      55.9       67     45.1      0.00      7.86      61.6     0.48      1017.7     4.0     WSW   244   7.5     WSW     252     270        16       2.6      18.2      61.8      9.36
   02/22/2020 16:20      56.4      55.9       66     45.1      0.00      7.86      61.6     0.48      1017.7     5.7     WSW   237  10.6      SW     225     269        16       3.8      17.7      62.0      9.36
   02/22/2020 16:10      57.7      56.4       64     44.7      0.00      7.86      61.6     0.48      1017.6     6.4      SW   236  10.4      SW     223     269        15       4.5      17.1      62.5      9.36
   02/22/2020 16:00      57.9      57.4       63     45.1      0.00      7.86      62.2     0.48      1017.4     4.4     WSW   255  11.3     SSW     213     269        50       3.0      16.4      63.3      9.36
   02/22/2020 15:50      58.2      57.4       63     45.4      0.00      7.86      62.1     0.48      1017.1     3.2      SW   230   6.6     WSW     248     269        40       2.3      15.9      63.5      9.36
   02/22/2020 15:40      59.0      58.2       61     45.3      0.00      7.86      62.1     0.48      1017.0     4.2     WSW   242   6.7      SW     217     269       119       3.1      15.5      63.5      9.36
   02/22/2020 15:30      58.5      57.4       66     46.6      0.00      7.86      62.1     0.48      1017.0     4.3      SW   219   7.3      SW     224     269       202       3.0      15.0      63.4      9.36
   02/22/2020 15:20      57.6      56.7       70     47.3      0.00      7.86      62.1     0.48      1017.0     3.8     SSW   206   7.3     WSW     241     269       149       2.6      14.5      63.4      9.36
   02/22/2020 15:10      57.5      56.6       69     46.7      0.00      7.86      62.0     0.48      1017.0     5.2     SSW   205   9.5     SSE     160     270        51       3.3      14.0      63.5      9.36
   02/22/2020 15:00      58.3      57.4       67     46.9      0.00      7.86      62.1     0.48      1016.9     5.2      SW   233   8.9     WSW     242     270        74       3.4      13.5      63.6      9.36
   02/22/2020 14:50      58.5      58.0       69     48.2      0.00      7.86      62.0     0.48      1016.9     2.2     SSW   213   6.0       W     275     271        59       1.7      12.9      63.8      9.36
   02/22/2020 14:40      60.4      58.4       67     48.5      0.00      7.86      62.0     0.48      1016.9     3.8     SSE   169   8.3     SSW     205     273       247       2.5      12.6      63.6      9.36
   02/22/2020 14:30      60.0      58.3       71     49.5      0.00      7.86      62.0     0.48      1016.9     1.3     ESE   113   4.8      SE     139     283       474       0.5      12.2      63.4      9.36
   02/22/2020 14:20      58.6      57.3       75     50.0      0.00      7.86      62.0     0.48      1017.0     0.8       E   101   2.6     ESE     105     292       234       0.5      12.1      63.3      9.36
   02/22/2020 14:10      57.5      56.6       81     51.5      0.00      7.86      62.0     0.48      1017.1     1.1     ESE   101   2.3     ENE      78     296       205       0.5      12.1      63.1      9.36
   02/22/2020 14:00      56.8      56.2       83     51.4      0.00      7.86      61.9     0.48      1017.2     1.0     ENE    69   1.9     ENE      69     301       173       0.2      12.0      63.0      9.36
   02/22/2020 13:50      56.3      55.5       82     50.5      0.00      7.86      62.0     0.48      1017.3     0.7       E    79   2.1     ENE      75     305       161       0.4      11.9      62.9      9.36
   02/22/2020 13:40      55.8      54.7       83     50.3      0.00      7.86      61.9     0.48      1017.2     0.5       E    83   1.7       E      97     311       217       0.1      11.9      62.8      9.36
   02/22/2020 13:30      54.9      53.6       83     48.9      0.00      7.86      61.9     0.48      1017.2     0.1     SSE   155   1.2     SSE     156     318       163       0.0      11.8      62.4      9.36
   02/22/2020 13:20      54.0      53.3       85     49.4      0.00      7.86      61.8     0.48      1017.2     0.4     NNE    19   2.3     NNE      28     355       117       0.1      11.8      62.2      9.36
   02/22/2020 13:10      53.6      52.9       84     48.4      0.01      7.86      61.9     0.48      1017.2     0.7      NE    51   1.8      NE      55     414        79       0.0      11.8      62.1      9.35
   02/22/2020 13:00      53.1      52.6       78     46.2      0.03      7.85      61.8     0.48      1017.3     1.1     SSE   146   2.5     SSE     169     447        49       0.2      11.8      62.2      9.35
   02/22/2020 12:50      54.1      52.9       74     45.6      0.13      7.82      61.7     0.47      1017.3     2.8     WSW   241   5.5      SW     223     467        34       1.7      11.8      62.8      9.32
   02/22/2020 12:40      56.4      54.1       69     44.9      0.13      7.69      61.7     0.47      1017.3     2.5     SSW   206   6.7      SW     221     464        28       1.4      11.5      63.2      9.21
   02/22/2020 12:30      60.5      56.4       53     41.9      0.02      7.56      61.7     0.46      1017.2     5.5     SSW   212  11.3      SW     224     347        -0       3.6      11.2      64.1      9.12
   02/22/2020 12:20      61.0      60.3       49     41.1      0.00      7.54      61.7     0.46      1017.2     1.6     SSW   193   3.3     SSW     213     271       -11       1.0      10.6      64.3      9.11
   02/22/2020 12:10      61.9      60.9       47     40.9      0.00      7.54      61.6     0.46      1017.2     1.4     ESE   111   4.2     SSW     191     267        19       0.7      10.5      64.4      9.11
   02/22/2020 12:00      63.1      61.9       44     40.5      0.00      7.54      61.6     0.46      1017.3     1.6       E    91   4.9       E      81     267        43       1.2      10.4      64.3      9.12
   02/22/2020 11:50      64.0      62.6       44     41.1      0.00      7.54      61.6     0.46      1017.3     2.8      NE    54   5.3     NNE      19     266       360       1.3      10.2      63.9      9.12
   02/22/2020 11:40      62.7      61.3       47     41.2      0.00      7.54      61.6     0.46      1017.4     2.8     ESE   111   5.1       E      87     267       448       1.4       9.9      63.3      9.12
   02/22/2020 11:30      62.5      61.3       47     41.6      0.00      7.54      61.5     0.46      1017.5     2.9      SE   143   5.5      SE     136     267       203       1.9       9.7      62.9      9.12
   02/22/2020 11:20      62.6      61.6       48     42.1      0.00      7.54      61.5     0.46      1017.5     2.0     ESE   121   5.7       S     188     266       232       1.2       9.4      62.3      9.12
   02/22/2020 11:10      63.1      62.3       48     42.5      0.00      7.54      61.5     0.46      1017.6     3.2      SE   138   7.5      SE     135     266       521       2.1       9.2      61.6      9.12
   02/22/2020 11:00      64.1      63.1       47     43.1      0.00      7.54      61.5     0.46      1017.6     2.3     ESE   110   7.5      SE     140     266       526       1.3       8.8      60.9      9.12
   02/22/2020 10:50      63.0      60.3       50     42.5      0.00      7.54      61.5     0.46      1017.6     1.5     ENE    75   5.8     ENE      67     266       363       0.9       8.6      60.2      9.12
   02/22/2020 10:40      61.8      60.8       50     42.5      0.00      7.54      61.4     0.46      1017.7     2.8     SSE   156   6.8     WSW     254     267       246       2.1       8.5      59.6      9.12
   02/22/2020 10:30      61.9      61.2       52     43.8      0.00      7.54      61.5     0.46      1017.9     2.5     WSW   239   4.6     WSW     252     266       469       2.3       8.1      59.1      9.12
   02/22/2020 10:20      61.9      60.4       51     42.8      0.00      7.54      61.5     0.46      1018.0     2.2      SE   132   5.2      SE     130     266       458       1.4       7.7      58.5      9.12
   02/22/2020 10:10      61.2      59.8       52     43.0      0.00      7.54      61.4     0.46      1018.0     1.0       S   174   3.8       S     186     267       312       1.1       7.5      58.0      9.12
   02/22/2020 10:00      59.8      57.4       57     43.2      0.00      7.54      61.4     0.46      1018.1     1.5     SSE   151   4.0      SE     146     267       330       1.1       7.3      57.6      9.12
   02/22/2020 09:50      57.9      57.2       61     44.2      0.00      7.54      61.5     0.46      1018.1     2.2       S   189   4.5      SW     218     268        40       1.6       7.1      57.4      9.12
   02/22/2020 09:40      58.6      57.9       60     44.4      0.00      7.54      61.4     0.46      1018.1     2.7     SSW   207   4.8     SSW     199     268       127       2.0       6.9      57.2      9.12
   02/22/2020 09:30      58.5      57.4       61     44.6      0.00      7.54      61.4     0.46      1018.1     1.8       S   180   4.5     SSW     199     268       157       1.3       6.5      57.0      9.12
   02/22/2020 09:20      59.3      57.5       56     42.6      0.00      7.54      61.4     0.46      1018.1     2.5     ESE   112   6.3      SE     136     268        54       1.1       6.3      56.7      9.12
   02/22/2020 09:10      61.5      59.6       53     43.7      0.00      7.54      61.3     0.46      1018.1     2.2     ESE   113   5.4       E     100     267       259       1.2       6.1      56.5      9.12
   02/22/2020 09:00      60.4      59.4       57     44.4      0.00      7.54      61.4     0.46      1018.1     2.4       E    96   5.2      NE      54     267       345       1.4       5.9      56.2      9.12
   02/22/2020 08:50      59.5      57.6       60     44.6      0.00      7.54      61.4     0.46      1018.1     2.2     ESE   114   5.1     ENE      71     268       294       1.1       5.7      55.8      9.12
   02/22/2020 08:40      58.1      57.4       62     44.8      0.00      7.54      61.5     0.46      1018.0     3.5      SE   144   6.8      SE     127     268       234       1.7       5.5      55.6      9.12
   02/22/2020 08:30      59.7      57.9       64     46.5      0.00      7.54      61.4     0.46      1017.9     1.4     ESE   116   5.1      SE     130     269       155       0.6       5.2      55.3      9.12
   02/22/2020 08:20      58.1      55.9       68     46.6      0.00      7.54      61.5     0.46      1017.9     1.5     ESE   113   3.6     ESE     113     269       183       1.0       5.1      55.2      9.12
   02/22/2020 08:10      56.9      55.6       70     46.6      0.00      7.54      61.5     0.46      1017.9     2.7      SE   135   5.0     SSE     153     271        91       1.1       4.9      55.1      9.12
   02/22/2020 08:00      57.0      55.9       71     47.1      0.00      7.54      61.4     0.47      1017.8     1.1     ESE   113   3.1      SE     146     271        82       0.4       4.7      55.0      9.12
   02/22/2020 07:50      55.9      54.0       77     47.8      0.00      7.54      61.5     0.47      1017.5     0.3     ESE   104   1.7      SE     133     271        24       0.0       4.7      55.0      9.12
   02/22/2020 07:40      54.0      52.7       81     47.6      0.00      7.54      61.5     0.47      1017.4     0.4     SSW   214   1.1      SW     222     271        -6       0.0       4.7      55.0      9.12
   02/22/2020 07:30      52.9      52.1       83     47.5      0.00      7.54      61.5     0.47      1017.4     0.2      SE   143   1.1      SE     142     272        21       0.0       4.7      54.9      9.12
   02/22/2020 07:20      52.1      51.6       85     47.4      0.00      7.54      61.5     0.47      1017.3     0.0      SE   132   0.7      SE     131     272         6       0.0       4.7      54.8      9.12
   02/22/2020 07:10      51.6      50.8       86     47.0      0.00      7.54      61.8     0.47      1017.1     0.0      SE   143   0.8      SE     141     272         8       0.0       4.7      55.0      9.12
   02/22/2020 07:00      50.9      50.3       86     46.6      0.00      7.54      62.2     0.47      1017.0     0.4     SSW   193   2.0       S     177     273         5       0.2       4.7      55.3      9.12
   02/22/2020 06:50      50.3      49.8       86     46.0      0.00      7.54      62.2     0.47      1017.0     0.3       E    85   1.6       N       0     263       -21       0.0       4.6      55.4      9.12
   02/22/2020 06:40      50.3      49.7       86     45.8      0.00      7.54      62.3     0.47      1016.9     1.1     SSE   168   2.4     SSW     212     265       -28       0.5       4.6      55.5      9.12
   02/22/2020 06:30      50.5      50.0       85     45.9      0.00      7.54      62.3     0.47      1016.7     0.9     WSW   242   2.0       W     262     263       -38       0.1       4.6      55.6      9.12
   02/22/2020 06:20      50.9      50.1       85     46.2      0.00      7.54      62.3     0.47      1016.5     0.7      SW   219   1.9      SW     236     263       -50       0.1       4.5      55.8      9.12
   02/22/2020 06:10      51.0      50.6       85     46.3      0.00      7.54      62.3     0.47      1016.4     0.4       W   266   1.3       W     269     261       -46       0.2       4.5      55.9      9.12
   02/22/2020 06:00      51.4      50.9       84     46.5      0.00      7.54      62.3     0.47      1016.4     0.0       S   174   0.6       S     174     260       -49       0.0       4.5      56.2      9.12
   02/22/2020 05:50      51.5      51.1       84     46.5      0.00      7.54      62.3     0.47      1016.4     1.0     SSW   207   2.3      SW     216     265       -50       0.4       4.5      56.3      9.12
   02/22/2020 05:40      51.3      50.8       84     46.4      0.00      7.54      62.5     0.47      1016.4     1.6      SW   216   2.2      SW     220     273       -33       0.5       4.4      56.5      9.12
   02/22/2020 05:30      51.4      50.8       83     46.1      0.00      7.54      62.5     0.47      1016.4     0.1     SSE   148   0.9     SSE     147     271       -37       0.0       4.3      56.6      9.12
   02/22/2020 05:20      51.8      51.2       82     46.3      0.00      7.54      62.5     0.47      1016.5     0.3     SSE   148   1.5      SE     144     272       -35       0.0       4.3      56.8      9.12
   02/22/2020 05:10      52.2      51.5       81     46.2      0.00      7.54      62.5     0.47      1016.5     0.0     ENE    68   0.3     ENE      76     272       -26       0.0       4.3      56.8      9.12
   02/22/2020 05:00      52.4      52.0       81     46.4      0.00      7.54      62.5     0.47      1016.4     0.6      SW   230   1.5     WSW     247     272       -38       0.1       4.3      57.0      9.12
   02/22/2020 04:50      53.1      52.2       80     46.5      0.00      7.54      62.6     0.47      1016.4     1.6      SW   225   2.5     WSW     244     272       -44       0.6       4.3      57.2      9.13
   02/22/2020 04:40      53.3      53.0       79     46.9      0.00      7.54      61.8     0.47      1016.3     0.9     SSW   206   2.0       S     185     271       -44       0.5       4.2      56.6      9.13
   02/22/2020 04:30      53.6      53.2       80     47.1      0.00      7.54      61.7     0.47      1016.1     0.4      SE   125   1.7     ENE      74     271       -36       0.1       4.1      56.7      9.13
   02/22/2020 04:20      53.6      53.1       81     47.4      0.00      7.54      61.8     0.47      1016.2     0.5     ESE   107   1.8       E      98     271       -29       0.0       4.1      56.8      9.13
   02/22/2020 04:10      53.4      53.0       81     47.6      0.00      7.54      61.8     0.47      1016.3     0.9       S   175   1.8       S     176     271       -25       0.4       4.1      56.9      9.13
   02/22/2020 04:00      53.5      53.2       81     47.6      0.00      7.54      61.8     0.47      1016.2     0.5     ESE   123   1.8       E      97     271       -28       0.1       4.0      57.0      9.13
   02/22/2020 03:50      53.8      53.3       81     47.7      0.00      7.54      61.9     0.47      1016.1     0.4       E    80   1.4     ENE      63     272       -34       0.0       4.0      57.1      9.13
   02/22/2020 03:40      53.9      53.5       80     47.6      0.00      7.54      61.8     0.47      1016.1     0.9       E    98   2.4       E      90     271       -47       0.6       4.0      57.2      9.13
   02/22/2020 03:30      53.9      53.6       78     47.3      0.00      7.54      61.9     0.47      1016.0     1.3       E    95   2.1      SE     129     271       -53       0.2       3.9      57.3      9.13
   02/22/2020 03:20      54.2      53.7       76     46.8      0.00      7.54      61.8     0.47      1016.0     1.2       E    98   3.0       E      82     271       -53       0.5       3.9      57.4      9.13
   02/22/2020 03:10      54.5      54.1       76     46.8      0.00      7.54      61.9     0.47      1016.1     1.5       E    86   3.8      NE      53     270       -46       0.5       3.8      57.6      9.13
   02/22/2020 03:00      54.8      54.3       76     47.0      0.00      7.54      61.9     0.47      1016.2     1.6       E    87   3.7     ENE      71     270       -52       0.6       3.7      57.8      9.13
   02/22/2020 02:50      55.1      54.6       75     47.1      0.00      7.54      61.9     0.47      1016.2     1.8      NE    55   3.1      NE      49     270       -62       0.4       3.6      57.9      9.13
   02/22/2020 02:40      55.3      54.9       75     47.3      0.00      7.54      61.9     0.47      1016.4     2.9      SE   132   7.6      SE     134     270       -51       1.3       3.5      58.0      9.13
   02/22/2020 02:30      55.3      54.9       76     47.5      0.00      7.54      61.9     0.47      1016.6     2.7     SSE   151   6.7     SSW     200     270       -41       1.7       3.3      58.2      9.13
   02/22/2020 02:20      55.5      55.0       75     47.6      0.00      7.54      61.9     0.47      1016.7     1.2     ESE   119   6.1     SSE     164     270       -49       0.6       3.0      58.5      9.13
   02/22/2020 02:10      55.7      55.3       74     47.5      0.00      7.54      61.9     0.47      1016.8     2.1     ESE   102   4.8     ENE      68     270       -43       1.0       2.9      58.6      9.13
   02/22/2020 02:00      55.9      55.4       74     47.4      0.00      7.54      61.9     0.47      1016.9     3.2     ESE   122   6.7      SE     128     270       -44       1.6       2.8      58.8      9.13
   02/22/2020 01:50      56.2      55.8       73     47.6      0.00      7.54      61.9     0.47      1017.0     2.5       E    93   4.3       E      97     270       -42       1.3       2.5      59.0      9.13
   02/22/2020 01:40      56.3      56.0       72     47.2      0.00      7.54      62.0     0.47      1017.0     1.6     ESE   105   5.3       E     100     270       -22       0.6       2.3      59.1      9.13
   02/22/2020 01:30      56.3      56.0       71     46.9      0.00      7.54      62.0     0.47      1017.1     2.5     ESE   120   4.6       E     100     270       -19       1.2       2.2      59.3      9.13
   02/22/2020 01:20      56.3      56.0       70     46.6      0.00      7.54      62.0     0.47      1017.0     3.5     ESE   117   7.6      SE     125     270       -35       2.0       2.0      59.3      9.13
   02/22/2020 01:10      56.5      56.0       72     47.3      0.00      7.54      62.4     0.47      1016.9     3.3     ESE   110   6.8      SE     136     270       -43       1.6       1.7      60.0      9.13
   02/22/2020 01:00      56.7      56.4       72     47.7      0.00      7.54      62.5     0.47      1016.7     3.2     ESE   116   8.1     ESE     102     270       -42       1.5       1.4      60.4      9.13
   02/22/2020 00:50      56.7      56.5       72     47.8      0.00      7.54      62.5     0.47      1016.7     4.9      SE   138  10.2      SE     140     270       -30       2.0       1.1      60.4      9.14
   02/22/2020 00:40      56.8      56.5       72     47.8      0.00      7.54      62.5     0.47      1016.5     2.9     ESE   121   6.1      SE     133     270       -27       1.3       0.8      60.6      9.14
   02/22/2020 00:30      56.6      56.3       75     48.5      0.00      7.54      62.5     0.47      1016.5     3.3     ESE   123   9.4     ESE     121     270       -30       1.7       0.6      60.8      9.14
   02/22/2020 00:20      56.4      56.0       78     49.4      0.00      7.54      62.5     0.47      1016.4     1.8     ESE   105   4.6     SSE     157     270       -15       0.9       0.3      60.9      9.14
   02/22/2020 00:10      56.2      55.9       79     49.6      0.00      7.54      62.5     0.47      1016.4     2.2     ESE   108   6.1      SE     124     270       -27       1.0       0.2      61.0      9.14
   02/22/2020 00:00      56.4      55.9       79     49.6      0.00      7.54      62.5     0.47      1016.5     2.4     ESE   103   5.2     ENE      70     270       -52       1.3      21.4      61.2      9.14
   02/21/2020 23:50      56.3      56.0       79     49.7      0.00      7.54      62.5     0.47      1016.4     2.8       E    99   5.4     ESE     115     270       -61       1.4      21.2      61.4      9.14
   02/21/2020 23:40      56.5      56.2       79     49.8      0.00      7.54      62.5     0.47      1016.4     1.5       E    86   3.5     ENE      69     270       -49       0.6      20.9      61.5      9.14
   02/21/2020 23:30      56.7      56.4       79     49.9      0.00      7.54      62.5     0.47      1016.5     2.2       E    93   4.8       E     100     270       -48       1.3      20.8      61.8      9.14
   02/21/2020 23:20      56.6      56.4       79     50.0      0.00      7.54      62.5     0.47      1016.6     2.4       E    80   5.0       E      84     270       -47       1.1      20.6      62.0      9.14
   02/21/2020 23:10      56.8      56.4       79     50.2      0.00      7.54      62.5     0.47      1016.6     2.2     ENE    64   4.4     ENE      68     270       -50       0.8      20.4      62.2      9.14
   02/21/2020 23:00      56.8      56.5       79     50.2      0.00      7.54      62.5     0.47      1016.7     1.9     ENE    75   4.0     ESE     108     270       -47       0.7      20.3      62.3      9.14
   02/21/2020 22:50      57.0      56.6       78     50.2      0.00      7.54      62.5     0.47      1016.9     2.2       E    81   4.8       E      80     270       -45       0.9      20.2      62.5      9.14
   02/21/2020 22:40      57.1      56.9       78     50.2      0.00      7.54      62.5     0.47      1017.0     2.8       E    96   5.5       E      93     270       -48       1.4      20.0      62.6      9.14
   02/21/2020 22:30      57.2      57.0       78     50.3      0.00      7.54      62.5     0.47      1017.1     2.3       E    87   6.4      NE      53     270       -47       0.9      19.8      62.9      9.14
   02/21/2020 22:20      57.3      57.0       78     50.3      0.00      7.54      62.5     0.47      1017.3     1.7       E    93   3.2     ENE      58     270       -37       0.7      19.6      63.1      9.14
   02/21/2020 22:10      57.4      57.1       77     50.2      0.00      7.54      62.5     0.47      1017.5     1.4     ESE   119   2.8     ESE     111     270       -37       0.5      19.5      63.3      9.14
   02/21/2020 22:00      57.6      57.2       76     50.1      0.00      7.54      62.6     0.47      1017.4     1.7       E    80   3.8     ENE      77     270       -34       0.6      19.4      63.4      9.15
   02/21/2020 21:50      57.6      57.4       75     49.8      0.00      7.54      62.6     0.47      1017.5     1.8       E    99   3.5     ENE      76     270       -35       0.7      19.4      63.5      9.15
   02/21/2020 21:40      57.7      57.4       74     49.4      0.00      7.54      62.6     0.47      1017.4     1.5       E    89   3.1       E      88     272       -37       0.6      19.2      63.7      9.15
   02/21/2020 21:30      57.7      57.5       74     49.2      0.00      7.54      62.6     0.47      1017.4     1.5       E    90   3.8      NE      55     269       -35       0.8      19.1      63.9      9.15
   02/21/2020 21:20      57.7      57.5       73     49.0      0.00      7.54      62.6     0.47      1017.5     0.5       E    87   2.1     ENE      75     269       -36       0.0      19.0      64.1      9.15
   02/21/2020 21:10      57.9      57.4       73     48.9      0.00      7.54      62.6     0.47      1017.4     0.5      SE   134   1.8       S     184     269       -31       0.1      19.0      64.2      9.15
   02/21/2020 21:00      57.9      57.6       72     48.9      0.00      7.54      62.6     0.47      1017.4     0.8     SSE   154   2.5      SE     145     269       -29       0.2      19.0      64.3      9.15
   02/21/2020 20:50      57.7      57.4       73     48.9      0.00      7.54      62.6     0.47      1017.5     1.7       S   179   3.2       S     191     269       -21       1.1      18.9      64.5      9.15
   02/21/2020 20:40      58.0      57.7       72     48.8      0.00      7.54      62.5     0.47      1017.4     0.8       S   185   2.6       S     186     269       -23       0.3      18.8      64.7      9.15
   02/21/2020 20:30      57.9      57.6       72     48.8      0.00      7.54      62.5     0.47      1017.5     0.6     SSW   209   1.5      SW     219     269       -30       0.2      18.7      64.9      9.15
   02/21/2020 20:20      57.9      57.6       72     48.8      0.00      7.54      62.5     0.47      1017.4     1.5     SSW   193   2.4       S     191     269       -24       0.9      18.7      65.1      9.15
   02/21/2020 20:10      57.9      57.5       73     49.0      0.00      7.54      62.5     0.47      1017.5     2.0     SSW   213   3.4       S     179     269       -20       1.3      18.5      65.3      9.15
   02/21/2020 20:00      57.9      57.5       73     49.2      0.00      7.54      62.5     0.47      1017.5     1.4       S   171   3.5     SSW     192     269       -28       1.1      18.3      65.5      9.15
   02/21/2020 19:50      58.2      57.7       74     49.5      0.00      7.54      62.5     0.47      1017.2     2.4      SW   231   4.2     SSW     198     269       -27       1.6      18.1      65.7      9.15
   02/21/2020 19:40      58.2      57.9       73     49.4      0.00      7.54      62.5     0.47      1017.1     1.8     SSE   163   4.9     SSE     159     268       -29       1.0      17.9      65.8      9.15
   02/21/2020 19:30      58.2      57.8       72     49.2      0.00      7.54      62.5     0.47      1016.9     3.1       S   179   5.0       S     170     268       -31       2.2      17.7      66.1      9.16
   02/21/2020 19:20      58.5      58.1       71     48.9      0.00      7.54      62.5     0.47      1017.0     2.8     SSE   168   5.7      SE     146     268       -32       1.8      17.3      66.4      9.16
   02/21/2020 19:10      58.7      58.3       69     48.5      0.00      7.54      62.4     0.47      1016.6     2.0      SE   145   3.7       S     190     268       -32       1.1      17.0      66.7      9.16
   02/21/2020 19:00      58.8      58.4       69     48.6      0.00      7.54      62.4     0.47      1016.5     3.9     SSE   152   7.5      SE     145     268       -33       2.1      16.8      67.0      9.16
   02/21/2020 18:50      59.4      58.8       66     47.9      0.00      7.54      62.3     0.47      1016.5     5.7      SE   145   9.9      SE     130     267       -30       2.5      16.5      67.2      9.16
   02/21/2020 18:40      60.0      59.1       65     47.7      0.00      7.54      62.3     0.47      1016.3     3.7       S   175   7.7       S     189     267       -32       2.3      16.1      67.6      9.16
   02/21/2020 18:30      61.6      59.9       57     45.3      0.00      7.54      62.3     0.47      1016.2     3.8     SSW   198   8.5       S     180     267       -36       2.5      15.7      68.0      9.17
   02/21/2020 18:20      63.0      61.5       47     42.2      0.00      7.54      62.3     0.47      1015.6     3.3     SSW   199  10.2       S     184     266       -49       2.2      15.3      68.4      9.17
   02/21/2020 18:10      63.9      62.9       46     41.9      0.00      7.54      62.3     0.47      1015.4     2.0     SSE   165   9.4     SSW     204     266       -38       1.4      14.9      68.8      9.17
   02/21/2020 18:00      65.5      64.0       45     42.9      0.00      7.54      62.2     0.47      1015.5     4.1       S   184   8.9       S     178     266       -43       2.7      14.7      69.2      9.17
   02/21/2020 17:50      67.3      65.5       39     41.0      0.00      7.54      62.2     0.47      1014.9     2.8     SSW   196   5.0       S     176     266       -57       1.7      14.2      69.6      9.18
   02/21/2020 17:40      68.1      67.3       35     38.7      0.00      7.54      62.1     0.47      1014.8     2.6       S   169   4.7     SSE     147     265       -45       1.4      13.9      70.0      9.18
   02/21/2020 17:30      68.5      67.8       33     37.9      0.00      7.54      62.0     0.47      1014.5     3.0     ESE   110   5.8     ESE     120     265       -62       1.4      13.7      70.3      9.18
   02/21/2020 17:20      69.1      68.5       30     36.6      0.00      7.54      62.0     0.47      1014.4     1.5       E    80   4.7     ENE      76     265       -58       1.0      13.5      70.6      9.18
   02/21/2020 17:10      69.8      69.1       29     36.0      0.00      7.54      62.0     0.46      1014.5     2.5     ESE   102   6.4       E      79     264       -37       1.1      13.3      71.0      9.18
   02/21/2020 17:00      70.4      69.7       28     35.5      0.00      7.54      61.9     0.46      1014.4     2.5       E   100   6.2       E      93     264       -20       1.5      13.1      71.3      9.19
   02/21/2020 16:50      70.8      70.2       27     35.0      0.00      7.54      61.9     0.46      1014.5     3.2     ESE   106   6.8     SSE     149     264        -2       1.4      12.9      71.5      9.19
   02/21/2020 16:40      71.5      70.7       26     34.6      0.00      7.54      61.8     0.46      1014.5     2.3     ESE   121   6.6      SE     131     264        -1       0.9      12.6      71.7      9.19
   02/21/2020 16:30      71.6      71.3       25     33.6      0.00      7.54      61.9     0.46      1014.3     2.1       E    97   5.4     ENE      70     264        -1       1.0      12.5      71.9      9.19
   02/21/2020 16:20      72.9      71.5       23     32.4      0.00      7.54      61.8     0.46      1014.2     4.3       E    83   7.7       E      86     264         2       1.9      12.3      72.2      9.19
   02/21/2020 16:10      74.2      72.9       22     32.4      0.00      7.54      61.7     0.46      1014.3     2.8       E    88   5.6       E      80     263        27       1.6      12.0      72.3      9.20
   02/21/2020 16:00      74.0      73.3       22     32.6      0.00      7.54      61.6     0.46      1014.4     2.9       E    86   6.6     ESE     101     263       156       1.8      11.7      72.4      9.20
   02/21/2020 15:50      73.4      73.0       23     32.9      0.00      7.54      61.6     0.46      1014.5     3.6       E    92   7.3       E      88     264        94       1.9      11.4      72.4      9.20
   02/21/2020 15:40      74.0      72.9       23     33.4      0.00      7.54      61.5     0.46      1014.5     3.8       E    85   7.2     ENE      64     263       146       1.9      11.1      72.5      9.21
   02/21/2020 15:30      73.7      72.8       23     33.6      0.00      7.54      61.5     0.46      1014.6     5.3     ESE   111  11.6      SE     143     263       173       2.6      10.8      72.4      9.21
   02/21/2020 15:20      75.2      73.8       23     34.6      0.00      7.54      61.4     0.46      1014.6     4.3     ESE   109   8.8      SE     141     264       247       2.2      10.4      72.1      9.21
   02/21/2020 15:10      74.8      74.2       24     34.9      0.00      7.54      61.4     0.46      1014.8     4.2      SE   128   9.6     SSE     147     263       295       2.3      10.0      71.9      9.21
   02/21/2020 15:00      76.7      74.7       22     34.0      0.00      7.54      61.2     0.46      1014.9     4.2     ESE   116   9.0       N       8     263       256       2.2       9.6      71.6      9.22
   02/21/2020 14:50      76.4      74.8       22     33.6      0.00      7.54      61.1     0.46      1014.9     3.6       E    96  10.9     ESE     123     263       374       2.0       9.3      71.2      9.22
   02/21/2020 14:40      76.1      74.4       22     34.2      0.00      7.54      61.1     0.46      1014.8     2.4      SE   124   5.7      SE     124     263       266       1.7       8.9      70.9      9.22
   02/21/2020 14:30      74.8      74.3       22     33.2      0.00      7.54      60.9     0.46      1014.9     4.9       E   101  12.0       E      86     263       266       2.6       8.6      70.5      9.22
   02/21/2020 14:20      75.1      74.3       23     33.9      0.00      7.54      60.9     0.46      1015.0     4.4     ESE   103   8.2     ENE      72     263       234       2.4       8.2      70.3      9.22
   02/21/2020 14:10      76.5      75.0       22     34.5      0.00      7.54      60.7     0.46      1014.9     5.3     ESE   119  11.4       E      89     263       357       2.7       7.8      69.7      9.23
   02/21/2020 14:00      77.1      75.8       22     35.3      0.00      7.54      60.7     0.46      1014.9     3.7     ESE   105   7.5     ESE     115     263       387       2.1       7.3      69.3      9.23
   02/21/2020 13:50      76.9      75.9       23     35.8      0.00      7.54      60.6     0.46      1015.0     3.9     ESE   109   9.9     ESE     106     263       390       2.2       7.0      68.8      9.23
   02/21/2020 13:40      77.0      74.6       22     34.8      0.00      7.54      60.6     0.46      1015.0     3.0       E    88   7.8      SE     134     263       376       1.3       6.6      68.3      9.23
   02/21/2020 13:30      76.2      74.6       21     33.2      0.00      7.54      60.5     0.46      1015.2     4.7       E    93   9.3     ENE      69     264       271       2.5       6.4      67.8      9.23
   02/21/2020 13:20      76.5      75.7       20     32.5      0.00      7.54      60.4     0.46      1015.4     4.4       E    89   8.4     ESE     119     263       423       2.2       6.0      67.2      9.24
   02/21/2020 13:10      76.1      74.2       20     31.6      0.00      7.54      60.3     0.46      1015.5     5.1       E    79  11.4     SSE     147     263       528       2.3       5.6      66.5      9.24
   02/21/2020 13:00      75.9      74.3       19     30.7      0.00      7.54      60.2     0.46      1015.7     4.9       E    93  10.6     ENE      66     263       337       2.4       5.2      65.9      9.24
   02/21/2020 12:50      76.3      75.3       19     30.6      0.00      7.54      60.1     0.46      1015.8     4.4     ENE    60   8.9      NE      53     263       424       1.8       4.8      65.3      9.25
   02/21/2020 12:40      76.6      74.8       19     30.7      0.00      7.54      60.0     0.46      1015.9     4.0     ENE    65   8.1     ESE     110     263       548       1.9       4.5      64.5      9.25
   02/21/2020 12:30      74.8      74.3       20     30.3      0.00      7.54      59.9     0.46      1016.1     4.1     ENE    75  10.1      NE      52     263       388       1.8       4.2      63.7      9.25
   02/21/2020 12:20      74.7      74.0       19     29.7      0.00      7.54      59.9     0.46      1016.3     4.3       E    87   7.8       E      95     263       345       1.9       3.9      63.0      9.25
   02/21/2020 12:10      75.2      74.7       18     28.9      0.00      7.54      59.9     0.46      1016.6     5.2       E    85   9.2       E      84     263       445       3.0       3.6      62.3      9.25
   02/21/2020 12:00      75.6      74.8       18     28.3      0.00      7.54      59.8     0.46      1016.7     3.7       E    87   6.8     ENE      57     263       376       2.0       3.1      61.5      9.25
   02/21/2020 11:50      75.9      74.6       18     28.0      0.00      7.54      59.7     0.46      1016.9     3.4     ENE    69  10.1       E      91     263       241       1.2       2.8      60.7      9.25
   02/21/2020 11:40      76.3      74.2       19     30.0      0.00      7.54      59.7     0.46      1017.1     2.8     ENE    62   6.9     ENE      74     263       442       1.1       2.6      60.0      9.26
   02/21/2020 11:30      75.3      74.3       19     29.9      0.00      7.54      59.6     0.46      1017.3     2.7     ENE    68   5.8     ENE      58     263       376       1.1       2.4      59.4      9.25
   02/21/2020 11:20      75.1      73.4       20     29.9      0.00      7.54      59.7     0.46      1017.4     1.7      NE    52   4.6     ENE      73     263       319       0.8       2.2      58.8      9.26
   02/21/2020 11:10      73.8      73.1       19     29.0      0.00      7.54      59.6     0.46      1017.5     1.9      NE    52   4.2     NNE      12     263       300       0.8       2.1      58.1      9.26
   02/21/2020 11:00      73.5      72.2       20     29.0      0.00      7.54      59.6     0.46      1017.6     2.5      NE    39   5.5     ENE      57     263       332       0.8       2.0      57.5      9.26
   02/21/2020 10:50      73.1      71.2       20     28.9      0.00      7.54      59.6     0.46      1017.8     2.4      NE    42   5.0     ENE      57     263       385       0.6       1.8      56.9      9.26
   02/21/2020 10:40      72.0      71.4       21     29.5      0.00      7.54      59.6     0.46      1017.8     2.3      NE    43   4.1       E      89     264       273       0.6       1.7      56.4      9.26
   02/21/2020 10:30      72.4      70.9       21     29.8      0.00      7.54      59.7     0.46      1017.8     1.9       E    81   4.3     ESE     112     264       332       0.9       1.6      55.9      9.25
   02/21/2020 10:20      70.9      70.2       22     30.0      0.00      7.54      59.6     0.46      1017.8     1.5      NE    44   2.8       E      87     264       252       0.5       1.5      55.5      9.25
   02/21/2020 10:10      70.3      69.4       23     29.9      0.00      7.54      59.7     0.46      1017.8     1.4      NE    37   2.9       N       4     264       255       0.3       1.4      55.0      9.25
   02/21/2020 10:00      70.4      69.5       23     30.3      0.00      7.54      59.7     0.46      1017.8     1.3      NE    44   2.6     NNE      23     264       246       0.2       1.3      54.5      9.25
   02/21/2020 09:50      70.3      68.8       23     30.0      0.00      7.54      59.7     0.46      1017.8     1.1       E    84   2.9      SE     134     264       301       0.6       1.3      54.1      9.25
   02/21/2020 09:40      68.9      67.0       25     31.3      0.00      7.54      59.9     0.46      1017.9     2.0       E    96   5.2     ESE     119     264       364       0.9       1.2      53.5      9.26
   02/21/2020 09:30      67.1      65.5       30     34.3      0.00      7.54      59.8     0.46      1017.9     1.7       E    92   4.7     ENE      67     266       237       0.6       1.1      53.2      9.26
   02/21/2020 09:20      65.5      64.5       34     35.8      0.00      7.54      59.8     0.46      1018.0     1.6     ESE   104   3.8       E      81     266       170       0.8       1.0      52.8      9.25
   02/21/2020 09:10      64.6      62.8       39     37.9      0.00      7.54      59.9     0.46      1017.9     0.7       E    88   2.5     ENE      70     266       171       0.3       0.8      52.6      9.25
   02/21/2020 09:00      63.0      62.3       39     37.7      0.00      7.54      59.9     0.46      1017.9     1.4     ENE    78   2.6     ENE      77     266       152       0.4       0.8      52.3      9.25
   02/21/2020 08:50      62.5      61.4       41     38.1      0.00      7.54      60.0     0.46      1018.0     1.0     ENE    61   2.2      NE      46     266       159       0.0       0.7      52.0      9.26
   02/21/2020 08:40      61.7      60.5       43     38.4      0.00      7.54      60.0     0.46      1018.1     0.5     NNE    18   1.9       N       7     266       141       0.0       0.7      51.8      9.26
   02/21/2020 08:30      60.5      58.4       47     39.1      0.00      7.54      60.0     0.46      1018.1     0.2      SE   131   1.6     ESE     121     267       147       0.0       0.7      51.7      9.26
   02/21/2020 08:20      58.6      57.8       50     39.5      0.00      7.54      60.0     0.46      1018.1     1.2     SSE   147   2.5     SSW     201     268       116       0.7       0.7      51.5      9.26
   02/21/2020 08:10      57.9      55.5       53     39.8      0.00      7.54      60.1     0.46      1018.0     0.0       N     0   0.0       E      82     268       116       0.0       0.6      51.3      9.26
   02/21/2020 08:00      55.6      54.0       56     39.4      0.00      7.54      60.1     0.46      1018.0     0.3     NNE    21   1.2      NE      53     268        95       0.1       0.6      51.1      9.26
   02/21/2020 07:50      54.1      53.0       57     38.8      0.00      7.54      60.2     0.46      1018.0     0.4     NNE    17   1.4      NE      38     268        59       0.0       0.5      51.1      9.26
   02/21/2020 07:40      53.0      51.8       59     38.5      0.00      7.54      60.1     0.46      1017.8     0.5      NE    36   1.2      NE      51     269        34       0.0       0.5      51.0      9.26
   02/21/2020 07:30      51.9      50.5       62     38.6      0.00      7.54      60.2     0.46      1017.6     0.4       N     5   1.4     NNE      29     269        24       0.0       0.5      50.8      9.26
   02/21/2020 07:20      50.6      49.7       64     38.3      0.00      7.54      60.2     0.46      1017.6     0.0       N     8   0.5       N       8     269        14       0.0       0.5      50.8      9.26
   02/21/2020 07:10      49.9      48.8       64     37.9      0.00      7.54      60.3     0.46      1017.5     0.7     SSE   151   1.4      SE     142     270         0       0.0       0.5      50.7      9.26
   02/21/2020 07:00      48.9      48.3       65     37.5      0.00      7.54      60.3     0.46      1017.4     0.4       S   179   1.0     SSW     210     270       -11       0.0       0.5      50.7      9.26
   02/21/2020 06:50      48.6      48.2       66     37.6      0.00      7.54      60.9     0.46      1017.3     0.2      SE   145   0.9      SE     137     270       -20       0.0       0.5      51.3      9.26
   02/21/2020 06:40      48.6      48.3       65     37.2      0.00      7.54      61.0     0.46      1017.1     0.0      SE   129   0.7      SE     131     270       -26       0.0       0.5      51.5      9.26
   02/21/2020 06:30      48.3      48.0       66     37.3      0.00      7.54      60.8     0.46      1017.1     0.4       S   179   1.2      SE     143     270       -22       0.0       0.5      51.4      9.26
   02/21/2020 06:20      48.2      47.7       67     37.5      0.00      7.54      60.9     0.46      1017.0     0.2     SSE   161   0.8     SSE     168     270       -17       0.0       0.5      51.4      9.26
   02/21/2020 06:10      48.0      47.7       66     37.1      0.00      7.54      60.9     0.46      1017.0     0.0      SE   141   0.8      SE     139     270       -17       0.0       0.5      51.4      9.26
   02/21/2020 06:00      48.0      47.2       67     37.1      0.00      7.54      60.9     0.46      1016.9     0.2     SSW   193   1.1       S     190     270       -26       0.2       0.5      51.6      9.26
   02/21/2020 05:50      47.5      47.0       67     37.0      0.00      7.54      61.0     0.46      1016.9     0.1     SSE   161   0.6       S     173     270       -32       0.0       0.5      51.7      9.26
   02/21/2020 05:40      47.5      47.1       67     36.8      0.00      7.54      60.9     0.46      1016.9     0.4      SE   142   1.1       S     172     270       -25       0.0       0.5      51.7      9.26
   02/21/2020 05:30      47.2      46.9       68     36.9      0.00      7.54      60.8     0.46      1016.9     0.1     NNW   328   0.7      NW     315     270       -31       0.0       0.5      51.7      9.26
   02/21/2020 05:20      47.4      46.9       66     36.5      0.00      7.54      60.9     0.46      1016.9     0.2     SSE   152   1.1     SSE     158     270       -34       0.1       0.5      51.8      9.26
   02/21/2020 05:10      47.4      47.0       66     36.4      0.00      7.54      61.2     0.46      1016.9     0.0     SSE   165   0.5     SSE     165     270       -30       0.0       0.5      52.2      9.26
   02/21/2020 05:00      47.4      46.9       66     36.6      0.00      7.54      61.3     0.46      1016.8     0.4     SSE   150   1.8      SE     139     270       -32       0.0       0.5      52.4      9.26
   02/21/2020 04:50      46.9      46.0       68     36.4      0.00      7.54      61.3     0.46      1016.8     1.1     SSE   147   2.2      SE     144     270       -33       0.5       0.5      52.5      9.26
   02/21/2020 04:40      46.7      46.3       68     36.4      0.00      7.54      61.4     0.46      1016.8     0.3     SSE   160   1.2     SSE     159     270       -51       0.2       0.4      52.7      9.26
   02/21/2020 04:30      46.7      46.1       70     37.2      0.00      7.54      61.4     0.46      1016.8     0.6     SSE   153   1.8     SSE     150     270       -58       0.1       0.4      53.0      9.26
   02/21/2020 04:20      47.2      46.1       68     36.8      0.00      7.54      61.5     0.46      1016.8     0.7     SSE   153   1.2      SE     133     270       -58       0.1       0.3      53.1      9.26
   02/21/2020 04:10      48.0      47.2       66     36.9      0.00      7.54      61.5     0.46      1017.0     0.4     SSE   147   1.4     SSE     150     270       -57       0.2       0.3      53.4      9.26
   02/21/2020 04:00      48.8      47.9       64     36.9      0.00      7.54      61.5     0.46      1017.1     0.2     SSE   152   1.1     ESE     123     270       -51       0.0       0.3      53.7      9.26
   02/21/2020 03:50      49.0      48.5       64     37.3      0.00      7.54      61.5     0.46      1017.2     0.1     ESE   107   1.2     ESE     107     270       -46       0.0       0.3      53.8      9.26
   02/21/2020 03:40      48.8      48.4       65     37.5      0.00      7.54      61.5     0.46      1017.2     0.3     SSW   212   1.3      SE     133     270       -39       0.2       0.3      54.0      9.26
   02/21/2020 03:30      48.9      48.5       65     37.4      0.00      7.54      61.6     0.46      1017.3     0.5     ESE   115   1.8      SE     126     270       -27       0.0       0.2      54.1      9.26
   02/21/2020 03:20      48.5      48.0       66     37.6      0.00      7.54      61.6     0.46      1017.2     0.5     SSE   166   1.3     SSW     206     270       -30       0.2       0.2      54.2      9.26
   02/21/2020 03:10      48.2      47.8       66     37.1      0.00      7.54      61.2     0.46      1017.4     0.9      SE   144   2.1      SE     143     270       -16       0.0       0.2      53.9      9.26
   02/21/2020 03:00      48.0      47.7       65     36.5      0.00      7.54      61.3     0.46      1017.4     0.7       S   189   1.5     SSW     191     270       -27       0.0       0.2      53.9      9.26
   02/21/2020 02:50      47.9      47.5       68     37.5      0.00      7.54      61.3     0.46      1017.5     0.4       S   180   1.1       S     186     270       -35       0.0       0.2      54.2      9.26
   02/21/2020 02:40      48.0      47.6       68     37.9      0.00      7.54      61.3     0.46      1017.7     0.0     SSE   165   0.8     SSE     160     270       -43       0.0       0.2      54.3      9.26
   02/21/2020 02:30      48.0      47.6       69     38.1      0.00      7.54      61.4     0.46      1017.7     0.5      SE   145   1.7      SE     137     270       -51       0.0       0.2      54.5      9.27
   02/21/2020 02:20      48.1      47.7       69     38.2      0.00      7.54      61.4     0.46      1017.7     0.6       S   184   2.0     SSE     150     270       -38       0.0       0.2      54.7      9.27
   02/21/2020 02:10      48.0      47.6       69     38.3      0.00      7.54      61.4     0.46      1017.9     0.4     SSE   164   1.0       S     182     270       -34       0.0       0.2      54.8      9.27
   02/21/2020 02:00      48.2      47.9       68     38.0      0.00      7.54      61.1     0.46      1018.1     0.0       N     0   0.0       S     176     270       -38       0.0       0.2      54.6      9.27
   02/21/2020 01:50      48.0      47.5       70     38.5      0.00      7.54      61.2     0.46      1018.1     0.3     SSW   205   1.0     SSW     205     270       -37       0.0       0.2      54.8      9.27
   02/21/2020 01:40      48.1      47.7       72     39.2      0.00      7.54      61.2     0.46      1018.1     0.0     SSE   153   0.4     SSE     153     270       -40       0.0       0.2      55.0      9.27
   02/21/2020 01:30      48.1      47.3       73     39.3      0.00      7.54      61.2     0.46      1018.2     0.6     SSE   161   1.0     SSE     153     270       -47       0.0       0.2      55.2      9.27
   02/21/2020 01:20      48.3      47.4       71     38.9      0.00      7.54      61.3     0.46      1018.3     0.4      SE   144   1.2      SE     143     270       -54       0.0       0.2      55.5      9.27
   02/21/2020 01:10      48.6      48.3       70     39.1      0.00      7.54      61.5     0.46      1018.4     0.2     SSW   196   1.2     SSW     205     270       -55       0.0       0.2      55.8      9.27
   02/21/2020 01:00      48.7      48.3       71     39.6      0.00      7.54      61.7     0.46      1018.3     0.5     SSE   146   1.2     SSE     155     270       -56       0.0       0.2      56.5      9.27
   02/21/2020 00:50      49.6      48.8       70     39.6      0.00      7.54      61.8     0.46      1018.4     0.0       N     0   0.0     ESE     106     270       -56       0.0       0.2      56.8      9.27
   02/21/2020 00:40      49.6      48.8       70     39.8      0.00      7.54      61.8     0.46      1018.4     0.5       S   173   1.4     SSE     161     270       -55       0.2       0.2      56.9      9.27
   02/21/2020 00:30      49.1      48.7       70     39.5      0.00      7.54      61.8     0.46      1018.4     0.4       S   183   1.0      SW     220     270       -56       0.0       0.1      57.2      9.27
   02/21/2020 00:20      50.0      49.0       67     39.2      0.00      7.54      61.9     0.46      1018.5     0.8     SSE   149   2.0      SE     126     270       -57       0.1       0.1      57.4      9.27
   02/21/2020 00:10      50.0      48.8       68     39.3      0.00      7.54      61.9     0.46      1018.6     1.0     SSW   204   3.0     SSW     200     269       -56       0.6       0.1      57.7      9.27
   02/21/2020 00:00      49.9      49.3       67     39.2      0.00      7.54      61.9     0.46      1018.7     0.7     SSE   151   1.4      SE     145     269       -57       0.4      11.2      58.0      9.27
   02/20/2020 23:50      49.4      49.1       68     39.1      0.00      7.54      61.9     0.46      1018.7     0.9     SSE   164   1.9       S     178     269       -58       0.4      11.1      58.2      9.27
   02/20/2020 23:40      50.5      49.1       66     38.7      0.00      7.54      61.9     0.46      1018.7     0.5     SSE   155   1.1      SE     142     269       -58       0.1      11.0      58.5      9.27
   02/20/2020 23:30      50.8      50.2       64     38.9      0.00      7.54      61.9     0.46      1018.8     0.6     SSE   159   1.3     SSE     159     269       -58       0.1      11.0      58.8      9.27
   02/20/2020 23:20      50.3      49.6       66     39.0      0.00      7.54      61.9     0.46      1018.9     0.2       S   174   1.0     SSE     160     269       -58       0.0      11.0      59.2      9.27
   02/20/2020 23:10      51.0      50.0       64     38.8      0.00      7.54      62.0     0.46      1019.0     1.1     SSE   161   1.8       S     184     269       -54       0.1      11.0      59.4      9.28
   02/20/2020 23:00      51.2      50.5       64     38.9      0.00      7.54      62.0     0.46      1018.9     0.6     SSE   162   2.0       S     175     269       -53       0.1      10.9      59.7      9.28
   02/20/2020 22:50      51.4      50.8       64     39.2      0.00      7.54      62.1     0.46      1019.0     0.3       S   185   1.2     SSW     195     268       -54       0.0      10.9      60.0      9.28
   02/20/2020 22:40      51.8      51.3       62     39.2      0.00      7.54      62.4     0.46      1019.0     0.0      SE   132   0.9      SE     128     268       -58       0.0      10.9      60.6      9.28
   02/20/2020 22:30      51.9      51.6       63     39.5      0.00      7.54      62.4     0.46      1019.0     0.2      SE   141   0.9     SSE     146     268       -59       0.0      10.9      60.8      9.28
   02/20/2020 22:20      52.0      51.6       62     39.2      0.00      7.54      62.4     0.46      1019.1     0.7       S   175   1.8       S     188     268       -60       0.3      10.9      61.1      9.28
   02/20/2020 22:10      52.6      51.9       62     39.6      0.00      7.54      62.5     0.46      1019.1     0.5     SSE   157   1.5      SE     132     268       -61       0.3      10.9      61.4      9.28
   02/20/2020 22:00      52.5      52.2       62     39.6      0.00      7.54      62.4     0.46      1019.1     0.6       S   179   1.6       S     172     268       -61       0.0      10.8      61.7      9.28
   02/20/2020 21:50      53.3      52.2       61     39.8      0.00      7.54      62.5     0.46      1018.9     0.7     SSE   159   1.6      SE     141     268       -62       0.3      10.8      62.0      9.28
   02/20/2020 21:40      53.8      52.6       59     39.4      0.00      7.54      62.4     0.46      1018.9     1.5       S   180   3.0     SSW     199     268       -61       0.8      10.8      62.4      9.28
   02/20/2020 21:30      53.3      52.5       61     39.7      0.00      7.54      62.4     0.46      1018.7     1.0     SSE   154   2.0      SE     136     268       -62       0.0      10.7      62.8      9.28
   02/20/2020 21:20      53.7      53.0       60     39.9      0.00      7.54      62.4     0.46      1018.6     0.4     SSE   152   1.4      SE     137     268       -63       0.1      10.7      63.0      9.29
   02/20/2020 21:10      54.6      53.1       58     39.1      0.00      7.54      62.4     0.46      1018.6     0.6       S   172   2.2       S     176     268       -64       0.1      10.6      63.4      9.29
   02/20/2020 21:00      55.7      54.5       55     39.2      0.00      7.54      62.4     0.46      1018.5     0.4      SE   144   1.1       E      91     267       -65       0.1      10.6      63.7      9.29
   02/20/2020 20:50      56.2      55.7       53     39.0      0.00      7.54      62.4     0.46      1018.5     1.1     SSW   200   2.6       S     185     267       -64       0.7      10.6      64.1      9.29
   02/20/2020 20:40      56.7      56.0       51     38.6      0.00      7.54      62.4     0.46      1018.4     0.5       S   180   2.1       S     180     267       -65       0.0      10.5      64.3      9.29
   02/20/2020 20:30      56.9      56.5       50     38.1      0.00      7.54      62.4     0.46      1018.3     0.3      SE   142   1.8       S     186     267       -65       0.2      10.5      64.6      9.29
   02/20/2020 20:20      57.8      56.6       48     37.8      0.00      7.54      62.3     0.46      1018.2     0.6     ENE    56   2.1      SW     227     267       -66       0.3      10.4      65.0      9.29
   02/20/2020 20:10      58.1      57.0       47     37.7      0.00      7.54      62.3     0.46      1018.1     1.3     SSE   159   2.3       S     185     267       -65       0.6      10.4      65.3      9.29
   02/20/2020 20:00      58.4      57.5       45     36.6      0.00      7.54      62.3     0.46      1018.0     0.7      SE   144   2.0       S     173     266       -65       0.2      10.3      65.6      9.29
   02/20/2020 19:50      57.9      57.0       46     36.6      0.00      7.54      62.3     0.46      1018.0     0.9       S   188   3.1     SSW     206     267       -65       0.6      10.2      66.0      9.30
   02/20/2020 19:40      58.6      57.6       45     36.6      0.00      7.54      62.3     0.46      1017.8     0.4      SE   130   1.4     ESE     117     266       -67       0.0      10.1      66.3      9.30
   02/20/2020 19:30      59.8      58.3       43     36.2      0.00      7.54      62.2     0.46      1017.7     1.1     SSE   153   2.0      SE     143     266       -67       0.5      10.1      66.6      9.30
   02/20/2020 19:20      59.6      58.8       41     35.6      0.00      7.54      62.2     0.46      1017.6     0.8     SSE   159   1.4      SE     135     266       -67       0.3      10.0      67.0      9.30
   02/20/2020 19:10      59.8      59.1       41     35.8      0.00      7.54      62.1     0.46      1017.6     0.9       S   179   2.5     SSW     195     266       -68       0.6      10.0      67.4      9.30
   02/20/2020 19:00      60.1      59.3       41     35.9      0.00      7.54      62.0     0.46      1017.5     0.3      SE   143   1.3      SE     138     266       -70       0.0       9.9      67.7      9.30
   02/20/2020 18:50      61.6      59.9       39     35.8      0.00      7.54      62.0     0.46      1017.4     0.6     SSE   153   1.3       S     180     266       -72       0.4       9.9      68.0      9.31
   02/20/2020 18:40      63.4      61.6       35     34.8      0.00      7.54      61.9     0.47      1017.4     1.0     SSW   195   1.9      SW     217     266       -71       0.2       9.8      68.4      9.31
   02/20/2020 18:30      63.8      62.5       34     34.7      0.00      7.54      61.9     0.46      1017.3     2.0      SW   215   2.5      SW     223     266       -71       0.4       9.8      68.8      9.31
   02/20/2020 18:20      62.7      62.0       36     35.4      0.00      7.54      61.9     0.46      1017.3     0.5      SW   232   2.1     WSW     238     266       -74       0.2       9.7      69.2      9.31
   02/20/2020 18:10      63.7      62.6       37     36.4      0.00      7.54      61.8     0.46      1017.3     0.1       S   173   0.8       S     174     266       -76       0.0       9.7      69.4      9.31
   02/20/2020 18:00      65.0      63.7       36     36.5      0.00      7.54      61.7     0.46      1017.2     0.7     SSE   166   1.5       S     180     265       -78       0.3       9.7      69.8      9.32
   02/20/2020 17:50      67.8      65.2       32     35.5      0.00      7.54      61.6     0.46      1017.2     0.9     SSE   169   1.6       S     180     265       -78       0.9       9.7      70.2      9.32
   02/20/2020 17:40      69.7      67.7       29     34.8      0.00      7.54      61.5     0.46      1017.1     1.8       S   191   2.4       S     190     264       -77       1.5       9.5      70.7      9.32
   02/20/2020 17:30      70.9      69.5       26     34.1      0.00      7.54      61.5     0.46      1017.1     2.2       S   186   3.1       S     186     264       -77       1.8       9.2      71.2      9.32
   02/20/2020 17:20      71.9      70.9       25     33.5      0.00      7.54      61.3     0.46      1017.1     2.5       S   183   4.1       S     188     264       -74       1.6       8.9      71.7      9.33
   02/20/2020 17:10      73.4      71.8       23     32.5      0.00      7.54      61.3     0.46      1017.1     3.1       S   186   4.7       S     181     263       -76       1.9       8.7      72.2      9.33
   02/20/2020 17:00      74.9      73.4       20     30.9      0.00      7.54      61.2     0.46      1017.1     2.1       S   179   4.1     SSW     202     263       -44       1.6       8.3      72.5      9.33
   02/20/2020 16:50      75.9      74.7       19     30.5      0.00      7.54      61.0     0.46      1017.2     2.3      SE   137   4.7      SE     130     263       -12       1.2       8.1      72.5      9.34
   02/20/2020 16:40      76.1      75.6       19     30.1      0.00      7.54      60.9     0.46      1017.2     1.2     SSE   165   2.5       S     181     263        10       0.8       7.9      72.6      9.34
   02/20/2020 16:30      76.7      75.6       17     28.2      0.00      7.54      60.8     0.46      1017.2     1.6     ESE   108   3.9      SE     145     263        32       0.6       7.8      72.2      9.34
   02/20/2020 16:20      76.6      76.0       17     27.9      0.00      7.54      60.7     0.46      1017.2     1.4       E    89   4.8     ESE     111     263        57       0.6       7.7      72.2      9.34
   02/20/2020 16:10      77.2      76.4       16     26.9      0.00      7.54      60.6     0.46      1017.2     2.0     ESE   101   4.7     ENE      60     263        81       1.2       7.5      72.1      9.35
   02/20/2020 16:00      77.3      76.9       16     26.9      0.00      7.54      60.5     0.46      1017.2     1.7       E    83   3.8     ESE     104     263       105       0.9       7.4      72.1      9.35
   02/20/2020 15:50      77.6      77.2       14     25.1      0.00      7.54      60.4     0.46      1017.3     2.1       E    83   5.0     ENE      77     263       130       0.9       7.2      71.9      9.35
   02/20/2020 15:40      77.6      76.4       15     26.5      0.00      7.54      60.4     0.46      1017.2     1.9       E    81   4.4       E      99     263       155       1.1       7.0      71.8      9.35
   02/20/2020 15:30      77.9      77.0       15     26.6      0.00      7.54      60.3     0.46      1017.3     2.6       E    85   5.9       E      82     263       178       1.2       6.9      71.5      9.35
   02/20/2020 15:20      78.5      77.3       15     25.7      0.00      7.54      60.2     0.46      1017.3     2.3      SE   141   5.3     SSE     152     263       200       1.4       6.7      71.3      9.36
   02/20/2020 15:10      78.7      77.7       14     25.8      0.00      7.54      60.1     0.46      1017.3     1.5     SSE   156   4.2      SE     140     263       207       1.4       6.4      71.0      9.36
   02/20/2020 15:00      77.9      76.9       15     26.8      0.00      7.54      60.1     0.46      1017.3     1.7     ESE   104   4.1       E      82     263       218       1.1       6.2      70.7      9.36
   02/20/2020 14:50      77.6      76.5       15     26.6      0.00      7.54      60.0     0.46      1017.3     2.7      SE   130   6.0      SE     141     263       243       1.5       6.0      70.5      9.36
   02/20/2020 14:40      77.9      77.0       16     27.2      0.00      7.54      59.9     0.46      1017.4     3.6      SE   127   6.2      SE     138     263       264       2.2       5.8      70.2      9.36
   02/20/2020 14:30      78.6      77.7       16     27.6      0.00      7.54      59.9     0.46      1017.4     1.8      SE   132   4.3      SE     130     263       284       1.2       5.4      69.7      9.37
   02/20/2020 14:20      78.4      77.3       16     28.7      0.00      7.54      59.8     0.46      1017.6     2.2       E    89   4.5     ENE      61     263       306       1.1       5.2      69.3      9.37
   02/20/2020 14:10      78.1      77.3       17     28.7      0.00      7.54      59.7     0.46      1017.6     2.0     ESE   106   7.6     SSE     149     263       332       1.4       5.0      68.9      9.37
   02/20/2020 14:00      77.6      76.5       17     29.2      0.00      7.54      59.8     0.46      1017.7     3.2      SE   133   6.2       S     176     263       343       2.2       4.8      68.5      9.37
   02/20/2020 13:50      78.0      77.4       17     28.8      0.00      7.54      59.8     0.46      1017.8     2.5     ESE   104   5.4     SSE     149     263       358       1.3       4.4      68.0      9.37
   02/20/2020 13:40      77.8      77.2       17     28.7      0.00      7.54      59.9     0.46      1017.9     2.5       E    88   5.3     SSE     154     263       367       1.7       4.2      67.5      9.37
   02/20/2020 13:30      77.6      77.1       17     29.3      0.00      7.54      59.8     0.46      1018.0     2.2     ENE    73   4.3      SE     141     263       373       1.1       3.9      67.0      9.37
   02/20/2020 13:20      77.6      77.1       18     30.1      0.00      7.54      59.7     0.46      1018.2     2.8     ENE    78   5.1      NE      44     263       383       1.3       3.8      66.5      9.38
   02/20/2020 13:10      78.0      77.1       18     31.1      0.00      7.54      59.7     0.46      1018.3     1.8     NNE    13   5.5     NNW     342     263       385       0.7       3.5      65.9      9.38
   02/20/2020 13:00      77.3      76.6       19     31.3      0.00      7.54      59.7     0.46      1018.6     2.1     NNE    21   5.0     NNE      17     263       399       0.8       3.4      65.4      9.38
   02/20/2020 12:50      77.3      76.0       19     31.1      0.00      7.54      59.7     0.46      1018.7     1.6       N   351   3.8     NNE      15     263       408       0.9       3.3      64.7      9.38
   02/20/2020 12:40      77.7      76.1       19     31.4      0.00      7.54      59.8     0.46      1019.0     2.3     ENE    77   4.8     ENE      62     263       414       1.1       3.1      64.1      9.38
   02/20/2020 12:30      77.5      75.6       19     31.5      0.00      7.54      59.8     0.46      1019.1     1.0      NE    55   3.9      NE      52     263       422       0.7       3.0      63.5      9.38
   02/20/2020 12:20      76.2      75.4       19     31.0      0.00      7.54      59.9     0.46      1019.3     2.2      NE    55   4.9     ENE      71     263       425       1.1       2.8      62.9      9.38
   02/20/2020 12:10      75.6      75.0       19     30.7      0.00      7.54      59.8     0.46      1019.5     1.9      NE    49   4.8     ESE     117     263       429       0.7       2.6      62.2      9.38
   02/20/2020 12:00      75.5      74.3       19     30.4      0.00      7.54      59.9     0.46      1019.7     1.8       E    86   6.4       E      84     263       428       1.2       2.5      61.5      9.38
   02/20/2020 11:50      74.5      73.3       20     29.8      0.00      7.54      59.9     0.46      1019.9     2.2     ENE    69   6.4       E     101     263       429       1.3       2.3      60.8      9.38
   02/20/2020 11:40      73.7      72.7       20     29.6      0.00      7.54      59.9     0.46      1020.1     3.0     ENE    75   6.8       E      80     264       426       1.6       2.1      60.1      9.38
   02/20/2020 11:30      73.4      72.3       20     29.5      0.00      7.54      60.0     0.46      1020.2     2.5     ENE    66   5.3     SSW     200     263       421       1.2       1.9      59.4      9.39
   02/20/2020 11:20      73.6      72.9       20     29.4      0.00      7.54      60.0     0.46      1020.4     2.6     ENE    65   6.0      NE      47     264       415       1.1       1.7      58.7      9.39
   02/20/2020 11:10      73.5      72.6       20     29.3      0.00      7.54      60.0     0.46      1020.5     1.8     ENE    76   6.0     ESE     106     263       409       0.9       1.5      58.0      9.39
   02/20/2020 11:00      72.9      72.1       20     29.7      0.00      7.54      60.0     0.46      1020.6     1.8     NNE    31   4.6      NW     309     264       401       1.0       1.3      57.2      9.39
   02/20/2020 10:50      72.5      71.3       22     30.2      0.00      7.54      60.1     0.46      1020.7     1.6      NE    46   3.6       N       4     264       392       0.6       1.2      56.5      9.39
   02/20/2020 10:40      71.7      71.0       23     31.8      0.00      7.54      60.1     0.46      1020.7     1.6     NNE    29   3.5      NE      47     264       384       0.4       1.1      55.7      9.39
   02/20/2020 10:30      71.5      70.2       26     33.8      0.00      7.54      60.1     0.46      1020.9     1.1       N   353   2.4       N       5     264       374       0.4       1.0      55.1      9.39
   02/20/2020 10:20      70.8      69.4       28     35.2      0.00      7.54      60.2     0.46      1020.8     0.9     NNE    30   3.2     NNE      32     265       363       0.4       0.9      54.5      9.39
   02/20/2020 10:10      70.1      69.1       29     35.8      0.00      7.54      60.2     0.46      1020.8     1.1     NNE    23   2.6     ENE      78     265       350       0.6       0.9      54.0      9.39
   02/20/2020 10:00      69.1      68.1       30     36.3      0.00      7.54      60.2     0.46      1020.7     1.0       W   280   2.5       N     353     265       336       0.7       0.8      53.5      9.39
   02/20/2020 09:50      68.6      67.5       31     36.1      0.00      7.54      60.2     0.46      1020.7     1.0     NNE    12   3.2     NNE      14     265       323       0.2       0.6      52.9      9.39
   02/20/2020 09:40      68.4      66.6       35     38.9      0.00      7.54      60.2     0.46      1020.8     0.8      NE    52   2.3     ENE      72     266       315       0.6       0.6      52.4      9.39
   02/20/2020 09:30      66.4      63.9       47     44.2      0.00      7.54      60.3     0.46      1020.9     0.4      NW   321   2.2       N       0     266       295       0.2       0.5      52.0      9.39
   02/20/2020 09:20      64.1      63.0       52     45.9      0.00      7.54      60.4     0.46      1020.8     0.9     NNE    15   2.3      NW     307     267       278       0.0       0.5      51.6      9.39
   02/20/2020 09:10      63.0      61.9       55     45.9      0.00      7.54      60.3     0.46      1020.8     0.6     NNE    14   1.6     NNE      13     268       298       0.2       0.5      51.2      9.39
   02/20/2020 09:00      61.9      60.3       57     45.9      0.00      7.54      60.3     0.46      1020.9     0.3       N    11   1.3     NNW     348     268       308       0.2       0.5      50.9      9.39
   02/20/2020 08:50      60.4      57.9       62     46.1      0.00      7.54      60.4     0.46      1020.8     0.2     NNW   331   1.0     WSW     255     269       291       0.0       0.4      50.7      9.39
   02/20/2020 08:40      58.0      56.5       66     46.0      0.00      7.54      60.4     0.46      1020.8     0.6     WNW   297   2.5     WSW     258     273       271       0.3       0.4      50.5      9.39
   02/20/2020 08:30      56.6      54.3       74     47.2      0.00      7.54      60.5     0.46      1020.7     0.3       N   358   1.3      NW     323     297       246       0.0       0.4      50.2      9.39
   02/20/2020 08:20      54.3      53.7       82     48.6      0.00      7.54      60.5     0.46      1020.6     0.3       N     2   1.4     NNW     340     348       213       0.0       0.4      50.1      9.39
   02/20/2020 08:10      54.1      52.0       90     49.9      0.00      7.54      60.6     0.46      1020.5     0.0     ENE    63   0.8       E      79     368       154       0.0       0.4      49.9      9.39
   02/20/2020 08:00      51.9      48.8       93     49.0      0.00      7.54      60.6     0.46      1020.4     0.0       N     0   0.0      NE      42     378       138       0.0       0.4      49.8      9.39
   02/20/2020 07:50      48.8      46.5       95     46.2      0.00      7.54      60.8     0.46      1020.4     0.0     SSE   148   0.6     SSE     148     382        61       0.0       0.4      49.6      9.39
   02/20/2020 07:40      46.4      44.6       95     44.1      0.00      7.54      60.7     0.46      1020.2     0.3      SE   143   1.2      SE     142     385        21       0.0       0.4      49.6      9.39
   02/20/2020 07:30      44.7      43.8       95     42.7      0.00      7.54      60.8     0.46      1020.0     0.2     SSE   149   0.9      SE     142     390        19       0.0       0.4      49.5      9.39
   02/20/2020 07:20      44.1      43.1       95     42.2      0.00      7.54      60.8     0.46      1019.9     0.0     SSE   152   0.8      SE     145     391        15       0.0       0.4      49.5      9.39
   02/20/2020 07:10      43.5      43.1       95     41.8      0.00      7.54      60.9     0.46      1019.9     0.1     ENE    57   0.9      SE     134     392        10       0.0       0.4      49.5      9.39
   02/20/2020 07:00      43.3      42.3       95     41.3      0.00      7.54      60.9     0.46      1019.8     0.0       N     0   0.0     SSE     150     391         3       0.0       0.4      49.6      9.39
   02/20/2020 06:50      42.9      42.5       94     41.2      0.00      7.54      60.9     0.46      1019.7     0.0     SSE   161   0.7     SSE     161     390        -4       0.0       0.4      49.8      9.39
   02/20/2020 06:40      43.2      42.3       95     41.3      0.00      7.54      60.9     0.46      1019.7     0.0     SSE   168   0.6     SSE     165     391        -8       0.0       0.4      49.9      9.39
   02/20/2020 06:30      43.3      42.1       94     41.0      0.00      7.54      60.7     0.46      1019.6     0.3     SSE   162   1.2      SE     144     390       -11       0.0       0.4      49.7      9.39
   02/20/2020 06:20      43.3      43.0       94     41.6      0.00      7.54      60.7     0.46      1019.5     0.1       S   173   0.9       S     186     399       -13       0.0       0.4      49.8      9.39
   02/20/2020 06:10      43.4      42.5       94     41.3      0.00      7.54      60.7     0.46      1019.3     0.7       S   183   1.7     SSW     192     417       -13       0.0       0.4      50.0      9.39
   02/20/2020 06:00      43.3      42.9       94     41.6      0.00      7.54      60.4     0.46      1019.0     0.0       N     0   0.0      SE     143     419       -14       0.0       0.4      49.9      9.39
   02/20/2020 05:50      43.6      43.1       94     41.7      0.00      7.54      60.3     0.46      1018.9     0.0       N     0   0.0      SE     143     418       -14       0.0       0.4      50.1      9.39
   02/20/2020 05:40      44.0      43.3       94     42.1      0.00      7.54      60.6     0.46      1018.9     0.4       S   172   1.8       S     181     414       -14       0.0       0.4      50.5      9.39
   02/20/2020 05:30      43.6      43.0       94     41.5      0.00      7.54      60.9     0.46      1018.9     0.3     SSW   199   1.5     SSW     209     415       -15       0.1       0.4      51.0      9.39
   02/20/2020 05:20      44.1      43.1       94     42.0      0.00      7.54      60.5     0.46      1018.8     0.0       S   191   0.9     SSW     195     410       -15       0.0       0.3      50.7      9.39
   02/20/2020 05:10      44.2      43.6       94     42.1      0.00      7.54      61.1     0.46      1018.8     0.2       S   174   1.0     SSW     195     413       -15       0.0       0.3      51.5      9.39
   02/20/2020 05:00      44.7      44.0       94     42.6      0.00      7.54      61.1     0.46      1018.8     0.0       N     0   0.0       S     181     407       -15       0.0       0.3      51.7      9.39
   02/20/2020 04:50      44.7      44.2       94     42.8      0.00      7.54      61.1     0.46      1018.7     0.0       S   181   0.6       S     181     455       -15       0.0       0.3      51.9      9.39
   02/20/2020 04:40      44.8      44.2       93     42.6      0.00      7.54      61.1     0.46      1018.7     0.0     SSE   161   0.4     SSE     161     455       -15       0.0       0.3      52.1      9.39
   02/20/2020 04:30      45.1      44.7       94     43.1      0.00      7.54      61.1     0.46      1018.6     0.1       S   173   0.7       S     170     451       -15       0.0       0.3      52.1      9.40
   02/20/2020 04:20      45.1      44.5       93     43.0      0.00      7.54      61.0     0.46      1018.6     0.4       S   174   1.2       S     184     450       -16       0.0       0.3      52.3      9.40
   02/20/2020 04:10      45.1      44.5       93     43.0      0.00      7.54      60.7     0.46      1018.5     0.0     SSE   165   0.6       S     179     447       -16       0.0       0.3      52.2      9.40
   02/20/2020 04:00      45.1      44.4       93     42.9      0.00      7.54      61.0     0.46      1018.5     0.5     SSE   159   1.1     SSW     193     443       -17       0.0       0.3      52.6      9.40
   02/20/2020 03:50      45.0      44.0       93     42.5      0.00      7.54      61.2     0.46      1018.6     0.5       S   185   1.1     SSW     193     443       -17       0.0       0.3      53.0      9.40
   02/20/2020 03:40      44.4      44.0       92     42.1      0.00      7.54      61.2     0.46      1018.6     0.1       S   175   0.9       S     170     440       -18       0.0       0.3      53.3      9.40
   02/20/2020 03:30      45.1      44.0       92     42.6      0.00      7.54      61.2     0.46      1018.7     0.5       S   173   1.4       S     177     437       -18       0.2       0.3      53.5      9.40
   02/20/2020 03:20      45.6      45.0       92     43.1      0.00      7.54      61.4     0.46      1018.7     0.1     SSE   164   0.9     SSE     168     434       -18       0.0       0.3      53.8      9.40
   02/20/2020 03:10      45.7      45.1       92     43.3      0.00      7.54      61.7     0.46      1018.7     0.0       N     0   0.0     SSE     149     435       -19       0.0       0.2      54.4      9.40
   02/20/2020 03:00      45.9      45.1       92     43.2      0.00      7.54      61.6     0.46      1018.7     0.0       N     0   0.0     SSE     149     428       -20       0.0       0.2      54.5      9.40
   02/20/2020 02:50      46.2      45.9       92     43.7      0.00      7.54      61.7     0.46      1018.7     0.0       S   178   0.5     SSE     149     424       -20       0.0       0.2      54.7      9.40
   02/20/2020 02:40      46.4      45.9       92     43.8      0.00      7.54      61.7     0.46      1018.7     0.0     SSE   159   0.4     SSE     160     421       -20       0.0       0.2      55.0      9.40
   02/20/2020 02:30      46.4      45.8       91     43.6      0.00      7.54      61.6     0.46      1018.8     0.3     SSE   159   1.3       S     185     421       -21       0.0       0.2      55.1      9.40
   02/20/2020 02:20      46.5      46.1       91     43.7      0.00      7.54      61.3     0.46      1018.9     0.2     SSW   204   1.1     SSW     208     413       -22       0.0       0.2      55.1      9.40
   02/20/2020 02:10      46.6      45.9       91     43.7      0.00      7.54      61.4     0.46      1018.9     0.4     SSW   199   1.2       S     179     417       -23       0.0       0.2      55.4      9.40
   02/20/2020 02:00      47.0      46.1       90     43.9      0.00      7.54      61.4     0.46      1019.0     0.2     SSE   151   0.7     SSE     149     412       -24       0.0       0.2      55.6      9.41
   02/20/2020 01:50      47.3      46.9       90     44.1      0.00      7.54      61.4     0.46      1019.0     0.0     SSE   150   0.7     SSE     149     407       -25       0.0       0.2      55.8      9.41
   02/20/2020 01:40      47.7      47.1       89     44.3      0.00      7.54      61.4     0.46      1019.1     0.1       S   174   0.8       S     177     401       -26       0.0       0.2      56.2      9.41
   02/20/2020 01:30      47.7      47.5       89     44.5      0.00      7.54      61.5     0.46      1019.2     0.0     SSE   150   0.5     SSE     158     395       -28       0.0       0.2      56.4      9.41
   02/20/2020 01:20      47.5      46.9       88     44.0      0.00      7.54      61.5     0.46      1019.3     0.8     SSE   146   1.9      SE     142     384       -29       0.1       0.2      56.6      9.41
   02/20/2020 01:10      47.8      47.0       87     43.8      0.00      7.54      61.5     0.46      1019.4     0.9     SSE   157   1.9      SE     138     374       -30       0.3       0.2      56.8      9.41
   02/20/2020 01:00      48.3      47.7       86     44.3      0.00      7.54      61.6     0.46      1019.4     0.7       S   190   1.6       S     190     357       -29       0.1       0.1      57.3      9.41
   02/20/2020 00:50      48.5      48.1       87     44.5      0.00      7.54      61.7     0.46      1019.4     0.0      SW   226   0.7     WSW     236     342       -30       0.0       0.1      57.6      9.41
   02/20/2020 00:40      48.6      48.2       87     44.6      0.00      7.54      61.7     0.46      1019.4     0.2     NNE    30   0.9     NNE      18     338       -32       0.0       0.1      57.8      9.41
   02/20/2020 00:30      48.9      48.5       87     44.9      0.00      7.54      61.7     0.46      1019.4     0.7      SE   145   1.1     SSE     147     322       -33       0.2       0.1      58.0      9.41
   02/20/2020 00:20      48.9      48.3       87     44.9      0.00      7.54      61.7     0.46      1019.5     0.8     SSE   155   1.5     SSE     148     315       -34       0.4       0.0      58.3      9.41
   02/20/2020 00:10      49.8      48.5       85     44.9      0.00      7.54      61.8     0.46      1019.5     0.3     SSE   162   1.1       S     176     306       -35       0.1       0.0      58.6      9.41
   02/20/2020 00:00      50.0      49.4       86     45.8      0.00      7.54      61.5     0.46      1019.7     0.2       S   170   1.0       S     170     298       -36       0.0      14.7      58.6      9.41
   02/19/2020 23:50      49.5      49.0       86     45.3      0.00      7.54      61.4     0.46      1019.5     0.2     SSE   166   0.7     SSE     165     291       -38       0.0      14.7      58.5      9.41
   02/19/2020 23:40      49.4      49.0       86     45.1      0.00      7.54      61.4     0.46      1019.5     1.1     SSE   150   1.8     SSE     148     284       -39       0.4      14.7      58.8      9.42
   02/19/2020 23:30      50.1      49.1       85     45.3      0.00      7.54      61.5     0.46      1019.5     0.3      SE   146   1.4      SE     145     279       -40       0.0      14.6      59.0      9.42
   02/19/2020 23:20      50.3      50.0       85     45.8      0.00      7.54      61.4     0.46      1019.5     0.2     SSE   157   0.8     SSE     147     272       -41       0.0      14.6      59.3      9.42
   02/19/2020 23:10      50.4      50.0       84     45.6      0.00      7.54      61.4     0.46      1019.4     0.2     SSE   156   1.0      SE     142     263       -44       0.0      14.6      59.6      9.42
   02/19/2020 23:00      50.5      50.0       83     45.4      0.00      7.54      61.4     0.46      1019.3     0.2       S   179   1.1       S     184     255       -46       0.0      14.6      59.8      9.42
   02/19/2020 22:50      50.7      50.3       84     45.9      0.00      7.54      61.5     0.46      1019.3     0.2     SSE   161   0.9     SSE     164     253       -46       0.0      14.6      60.0      9.42
   02/19/2020 22:40      50.9      50.6       84     46.1      0.00      7.54      61.5     0.46      1019.2     0.4     SSE   155   1.0     SSE     163     250       -47       0.0      14.6      60.3      9.42
   02/19/2020 22:30      50.9      50.5       84     45.9      0.00      7.54      61.5     0.46      1019.2     0.5     SSE   165   1.0     SSW     194     249       -49       0.0      14.6      60.6      9.42
   02/19/2020 22:20      51.1      50.6       83     45.9      0.00      7.54      61.5     0.46      1019.2     0.5     SSE   163   1.1     SSE     155     249       -50       0.0      14.6      60.8      9.42
   02/19/2020 22:10      51.0      50.7       83     45.8      0.00      7.54      61.5     0.46      1019.1     0.2     SSE   156   1.2     SSE     158     250       -52       0.0      14.6      61.1      9.42
   02/19/2020 22:00      51.5      50.9       82     45.9      0.00      7.54      61.5     0.46      1019.0     0.5     SSE   161   1.2      SE     143     252       -55       0.2      14.6      61.4      9.42
   02/19/2020 21:50      51.9      51.1       81     45.9      0.00      7.54      61.5     0.46      1019.0     0.7     SSE   157   1.5       E     101     258       -57       0.2      14.6      61.7      9.43
   02/19/2020 21:40      52.0      51.6       80     45.8      0.00      7.54      61.5     0.46      1018.9     0.3       S   181   1.4     SSE     166     260       -56       0.0      14.6      62.0      9.43
   02/19/2020 21:30      52.4      51.8       79     45.8      0.00      7.54      61.5     0.46      1018.8     1.1     SSW   202   1.9      SW     232     266       -57       0.4      14.5      62.2      9.43
   02/19/2020 21:20      52.8      52.1       78     45.8      0.00      7.54      61.5     0.46      1018.7     0.8       S   171   1.3      SE     141     266       -58       0.2      14.5      62.5      9.43
   02/19/2020 21:10      52.9      52.4       78     46.0      0.00      7.54      61.5     0.46      1018.7     1.1     SSW   195   2.1     SSW     207     268       -57       0.2      14.4      62.8      9.43
   02/19/2020 21:00      53.1      52.2       78     45.8      0.00      7.54      61.4     0.46      1018.6     0.7       S   179   1.8      SW     235     269       -58       0.0      14.4      63.1      9.43
   02/19/2020 20:50      53.7      53.1       76     46.1      0.00      7.54      61.5     0.46      1018.5     0.2     SSE   158   1.2     SSE     158     268       -59       0.0      14.4      63.4      9.43
   02/19/2020 20:40      53.9      53.5       76     46.2      0.00      7.54      61.5     0.46      1018.4     0.3       S   190   1.7       S     188     270       -59       0.2      14.4      63.7      9.43
   02/19/2020 20:30      53.8      53.2       76     46.1      0.00      7.54      61.6     0.46      1018.3     0.2     SSE   161   1.1      SE     144     270       -60       0.0      14.3      64.2      9.44
   02/19/2020 20:20      53.8      53.3       75     45.8      0.00      7.54      61.8     0.46      1018.3     0.4     SSE   160   1.5       S     176     270       -61       0.2      14.3      64.7      9.44
   02/19/2020 20:10      54.3      53.6       73     45.5      0.00      7.54      61.8     0.47      1018.2     0.5     SSE   161   1.2      SE     145     270       -61       0.3      14.3      65.0      9.44
   02/19/2020 20:00      55.4      54.2       70     45.3      0.00      7.54      61.8     0.46      1018.0     0.9       S   173   2.0       S     190     270       -62       0.5      14.3      65.3      9.44
   02/19/2020 19:50      55.7      55.4       69     45.4      0.00      7.54      61.7     0.46      1018.0     1.1     SSW   208   2.2      SW     227     270       -62       0.5      14.2      65.6      9.44
   02/19/2020 19:40      56.0      55.5       67     45.0      0.00      7.54      61.6     0.46      1017.9     0.6     SSE   163   1.7       S     183     270       -64       0.3      14.1      65.9      9.44
   02/19/2020 19:30      56.4      55.5       65     44.3      0.00      7.54      61.7     0.46      1017.8     0.3     SSE   157   1.4       S     183     269       -65       0.1      14.1      66.3      9.44
   02/19/2020 19:20      56.6      55.9       64     44.2      0.00      7.54      61.6     0.46      1017.7     0.6      SW   227   2.4      SW     226     269       -65       0.3      14.0      66.6      9.44
   02/19/2020 19:10      56.5      55.7       63     43.8      0.00      7.54      61.6     0.46      1017.7     0.5       S   177   1.1     SSW     192     268       -67       0.2      14.0      67.0      9.45
   02/19/2020 19:00      57.5      56.2       61     43.6      0.00      7.54      61.6     0.47      1017.6     0.5       S   174   1.2       S     181     268       -68       0.0      14.0      67.3      9.45
   02/19/2020 18:50      59.0      57.4       58     43.5      0.00      7.54      61.6     0.46      1017.5     0.5       S   178   1.5       S     174     268       -70       0.5      13.9      67.7      9.45
   02/19/2020 18:40      60.6      58.9       54     43.5      0.00      7.54      61.5     0.46      1017.5     1.4     SSW   206   1.9     SSW     211     268       -71       0.3      13.9      68.0      9.45
   02/19/2020 18:30      61.6      60.5       53     43.9      0.00      7.54      61.5     0.46      1017.4     1.5      SW   230   2.3      SW     233     267       -74       0.5      13.8      68.5      9.45
   02/19/2020 18:20      62.4      61.5       53     44.4      0.00      7.54      61.4     0.46      1017.3     1.9      SW   230   2.9     SSW     204     267       -76       1.0      13.7      68.9      9.46
   02/19/2020 18:10      63.5      62.2       50     44.1      0.00      7.54      61.3     0.46      1017.1     2.3      SW   235   3.4      SW     235     267       -78       1.2      13.6      69.3      9.46
   02/19/2020 18:00      64.3      63.4       48     43.9      0.00      7.54      61.3     0.46      1017.0     1.6       W   273   3.4      NW     312     267       -80       1.1      13.4      69.6      9.46
   02/19/2020 17:50      65.0      64.3       45     43.1      0.00      7.54      61.2     0.46      1017.0     2.2       W   279   5.7     WNW     287     267       -80       1.5      13.2      70.0      9.46
   02/19/2020 17:40      65.8      65.0       42     41.6      0.00      7.54      61.3     0.46      1016.9     1.5     WNW   294   4.8     WNW     294     266       -78       1.2      12.9      70.5      9.47
   02/19/2020 17:30      66.5      65.6       40     41.4      0.00      7.54      61.5     0.46      1016.8     2.1      NW   309   5.7     NNW     328     266       -74       0.6      12.7      71.3      9.47
   02/19/2020 17:20      67.4      66.4       40     41.5      0.00      7.54      61.4     0.46      1016.7     2.6      NW   307   5.6     NNW     333     266       -67       1.0      12.6      71.6      9.47
   02/19/2020 17:10      68.1      67.2       40     42.1      0.00      7.54      61.4     0.46      1016.6     1.9     WNW   299   5.1      NW     312     266       -68       0.8      12.5      72.0      9.47
   02/19/2020 17:00      69.2      68.0       38     42.1      0.00      7.54      61.4     0.46      1016.5     2.3      NW   322   4.9     WNW     294     266       -38       0.9      12.3      72.5      9.48
   02/19/2020 16:50      69.5      69.2       38     42.4      0.00      7.54      61.3     0.46      1016.5     1.8      NW   320   4.7      NW     319     266       -11       1.1      12.2      72.7      9.48
   02/19/2020 16:40      69.8      69.3       38     42.5      0.00      7.54      61.2     0.46      1016.4     2.1      NW   318   4.1     WNW     299     266        12       0.9      12.0      72.9      9.48
   02/19/2020 16:30      70.4      69.6       37     42.8      0.00      7.54      61.2     0.46      1016.4     2.4      NW   320   5.5     WNW     294     266        38       1.0      11.8      73.1      9.48
   02/19/2020 16:20      71.0      69.9       37     43.2      0.00      7.54      61.2     0.46      1016.4     2.4     WNW   302   5.9      NW     325     266        64       0.9      11.7      73.2      9.49
   02/19/2020 16:10      71.0      70.4       38     43.8      0.00      7.54      61.1     0.46      1016.4     1.9      NW   316   5.4      NW     304     266        88       0.7      11.5      73.2      9.49
   02/19/2020 16:00      71.3      70.8       38     44.5      0.00      7.54      61.1     0.46      1016.4     2.0      NW   318   4.3     WNW     299     266       113       1.3      11.4      73.2      9.49
   02/19/2020 15:50      71.5      71.1       38     44.7      0.00      7.54      61.1     0.46      1016.4     2.0      NW   311   5.4     NNE      19     266       139       1.1      11.2      73.2      9.49
   02/19/2020 15:40      72.0      71.2       39     45.1      0.00      7.54      60.9     0.46      1016.4     2.9      NW   307   6.5      NW     307     266       162       1.5      11.0      73.3      9.49
   02/19/2020 15:30      72.5      71.8       39     45.8      0.00      7.54      60.9     0.46      1016.4     2.6      NW   308   6.0     WNW     296     266       186       1.7      10.7      73.2      9.50
   02/19/2020 15:20      72.9      72.2       39     46.4      0.00      7.54      60.9     0.46      1016.4     2.9     WNW   294   6.0     NNW     341     265       207       2.1      10.4      73.1      9.50
   02/19/2020 15:10      73.0      71.5       40     46.5      0.00      7.54      60.8     0.46      1016.4     3.2     WNW   285   7.7       W     259     265       219       2.1      10.1      72.9      9.50
   02/19/2020 15:00      73.6      71.5       39     46.4      0.00      7.54      60.7     0.46      1016.4     4.8     WSW   253   8.0     WSW     245     265       227       3.3       9.7      72.8      9.50
   02/19/2020 14:50      73.5      72.5       38     45.9      0.00      7.54      60.6     0.46      1016.4     2.4      NW   305   5.0     WSW     240     265       241       1.6       9.2      72.5      9.50
   02/19/2020 14:40      74.8      73.4       35     44.9      0.00      7.54      60.6     0.46      1016.4     2.1      NW   325   4.8     NNE      16     265       260       1.4       8.9      72.2      9.50
   02/19/2020 14:30      75.2      73.7       34     44.2      0.00      7.54      60.5     0.46      1016.5     1.6     WNW   286   5.4      SW     214     265       277       1.6       8.7      71.9      9.51
   02/19/2020 14:20      75.2      74.0       34     44.6      0.00      7.54      60.4     0.46      1016.6     1.0     NNE    27   2.7     NNE      31     265       290       0.8       8.4      71.5      9.51
   02/19/2020 14:10      74.0      72.2       35     43.6      0.00      7.54      60.3     0.46      1016.6     1.3     SSW   212   4.0       S     183     265       309       1.3       8.3      71.1      9.51
   02/19/2020 14:00      73.5      72.0       35     43.8      0.00      7.54      60.2     0.46      1016.7     1.9      SE   144   6.0      SE     139     265       335       1.2       8.1      70.7      9.51
   02/19/2020 13:50      72.7      71.5       35     43.4      0.00      7.54      60.1     0.46      1016.8     1.4       S   171   2.8     WSW     241     265       343       1.3       7.9      70.3      9.51
   02/19/2020 13:40      72.0      71.3       36     43.2      0.00      7.54      60.0     0.46      1016.9     2.2     SSE   162   3.7      SE     128     265       362       1.7       7.7      69.7      9.51
   02/19/2020 13:30      72.5      71.8       36     43.6      0.00      7.54      59.9     0.46      1017.0     1.9       N     4   5.3      NE      47     265       368       1.1       7.4      69.3      9.52
   02/19/2020 13:20      73.3      72.4       36     44.1      0.00      7.54      59.9     0.46      1017.1     1.2     NNE    27   4.4       N       0     265       374       0.8       7.2      68.8      9.52
   02/19/2020 13:10      72.6      70.5       38     44.4      0.00      7.54      59.8     0.46      1017.2     1.1      NW   318   4.3     WSW     251     265       393       0.9       7.1      68.3      9.52
   02/19/2020 13:00      71.5      70.5       38     44.6      0.00      7.54      59.7     0.46      1017.4     2.0     ENE    78   3.9       S     183     265       398       1.4       6.9      67.6      9.52
   02/19/2020 12:50      71.5      70.2       39     44.7      0.00      7.54      59.7     0.46      1017.6     1.9     NNE    29   3.9      NE      44     265       407       1.2       6.7      67.0      9.52
   02/19/2020 12:40      70.5      70.0       40     44.5      0.00      7.54      59.6     0.46      1017.8     1.7     NNW   330   5.4     NNW     339     265       406       1.3       6.5      66.4      9.52
   02/19/2020 12:30      70.4      68.2       40     44.6      0.00      7.54      59.6     0.46      1018.0     1.4     NNE    31   4.4       E     101     265       410       1.1       6.3      65.7      9.52
   02/19/2020 12:20      69.8      68.0       42     44.9      0.00      7.54      59.5     0.46      1018.2     2.0     NNE    15   4.5     NNE      28     266       418       0.9       6.1      65.1      9.53
   02/19/2020 12:10      69.3      68.4       42     45.0      0.00      7.54      59.5     0.46      1018.3     1.3       N     5   2.9       N      10     266       415       1.0       5.9      64.5      9.53
   02/19/2020 12:00      68.7      67.2       44     45.2      0.00      7.54      59.4     0.46      1018.5     1.2      NE    46   2.8     SSW     192     266       417       1.1       5.8      63.8      9.53
   02/19/2020 11:50      69.0      67.8       44     45.8      0.00      7.54      59.4     0.46      1018.5     1.7     NNE    26   4.1     NNW     334     266       419       0.9       5.6      63.1      9.53
   02/19/2020 11:40      67.9      66.1       46     45.3      0.00      7.54      59.3     0.46      1018.7     1.5     WNW   302   4.5       W     260     267       416       1.2       5.4      62.4      9.53
   02/19/2020 11:30      67.3      66.2       46     45.1      0.00      7.54      59.3     0.46      1018.8     1.1       E    84   2.7       N       4     266       408       0.9       5.2      61.8      9.53
   02/19/2020 11:20      66.4      65.7       47     45.4      0.00      7.54      59.3     0.46      1018.9     2.0     NNE    14   4.0       N       0     266       407       0.7       5.1      61.1      9.53
   02/19/2020 11:10      66.2      64.7       48     45.5      0.00      7.54      59.3     0.46      1019.0     1.7     ENE    63   3.0     NNE      32     266       402       0.9       5.0      60.4      9.53
   02/19/2020 11:00      65.5      64.8       49     45.5      0.00      7.54      59.2     0.46      1019.0     1.9     ENE    75   4.3       E      81     266       390       1.0       4.8      59.8      9.53
   02/19/2020 10:50      65.4      64.4       50     45.7      0.00      7.54      59.2     0.46      1019.1     1.2     NNE    17   2.7     NNE      33     267       381       0.7       4.7      59.1      9.53
   02/19/2020 10:40      64.5      62.7       52     45.8      0.00      7.54      59.2     0.46      1019.1     1.7     NNE    26   4.2       N     354     266       374       0.5       4.5      58.5      9.53
   02/19/2020 10:30      63.7      62.6       53     46.0      0.00      7.54      59.2     0.46      1019.1     2.0     NNE    27   5.6      NE      54     267       363       0.8       4.5      58.0      9.53
   02/19/2020 10:20      63.2      62.3       56     46.9      0.00      7.54      59.0     0.46      1019.1     1.8      NW   308   6.1     NNE      27     267       352       1.5       4.3      57.5      9.53
   02/19/2020 10:10      62.4      61.0       57     46.3      0.00      7.54      59.3     0.46      1019.1     1.3     NNE    30   2.8       W     268     267       338       0.9       4.1      57.1      9.53
   02/19/2020 10:00      61.2      60.7       60     46.8      0.00      7.54      59.4     0.46      1019.2     1.6     NNE    15   3.9     NNE      22     267       320       0.4       3.9      56.6      9.53
   02/19/2020 09:50      61.8      61.0       60     47.5      0.00      7.54      59.3     0.46      1019.3     1.6      NE    34   3.2     ESE     104     267       304       0.6       3.9      56.1      9.53
   02/19/2020 09:40      61.4      58.8       65     48.2      0.00      7.54      59.3     0.46      1019.3     0.5     NNE    26   1.4      NE      52     268       288       0.5       3.7      55.7      9.54
   02/19/2020 09:30      59.9      58.8       65     47.9      0.00      7.54      59.3     0.46      1019.2     1.4     WSW   254   4.0       W     278     268       266       1.1       3.7      55.4      9.54
   02/19/2020 09:20      59.8      58.8       66     47.9      0.00      7.54      59.3     0.46      1019.1     0.6       E    99   2.8     WSW     249     268       242       0.8       3.5      55.0      9.54
   02/19/2020 09:10      58.6      57.0       70     48.3      0.00      7.54      59.4     0.46      1019.1     0.6       N     0   3.2      NE      47     268       231       0.6       3.4      54.8      9.54
   02/19/2020 09:00      57.6      56.9       71     48.1      0.00      7.54      59.4     0.46      1019.1     1.5     NNW   345   3.3     NNE      11     268       223       0.7       3.3      54.6      9.54
   02/19/2020 08:50      57.8      56.7       71     48.2      0.00      7.54      59.4     0.46      1019.1     1.3     NNE    15   3.1       N       8     269       199       0.7       3.1      54.3      9.54
   02/19/2020 08:40      56.7      55.4       75     48.3      0.00      7.54      59.5     0.46      1019.0     1.2     WSW   257   3.3       W     268     269       167       1.0       3.0      54.2      9.54
   02/19/2020 08:30      55.7      55.1       76     48.0      0.00      7.54      59.5     0.46      1018.9     1.9     WSW   250   3.1       W     262     270       152       1.3       2.9      54.0      9.54
   02/19/2020 08:20      56.1      55.3       76     48.2      0.00      7.54      59.5     0.46      1018.8     1.0     WSW   252   3.6     WSW     253     271        91       0.8       2.6      53.9      9.54
   02/19/2020 08:10      55.4      54.1       79     48.1      0.00      7.54      59.5     0.46      1018.7     0.3      SE   138   1.7      SE     135     272        63       0.1       2.5      53.8      9.54
   02/19/2020 08:00      54.1      53.1       82     48.2      0.00      7.54      59.5     0.46      1018.6     1.0     SSE   148   1.8     SSW     196     273        58       0.5       2.5      53.7      9.54
   02/19/2020 07:50      53.1      52.0       85     48.3      0.00      7.54      59.5     0.46      1018.6     1.1     SSE   157   2.2     SSE     152     264        48       0.4       2.4      53.6      9.54
   02/19/2020 07:40      52.0      50.6       88     48.0      0.00      7.54      59.6     0.46      1018.5     0.4     SSE   155   1.7     SSE     147     285        27       0.1       2.3      53.6      9.54
   02/19/2020 07:30      50.8      49.8       90     47.3      0.00      7.54      59.5     0.46      1018.4     0.6      SE   139   1.8      SE     143     297         9       0.0       2.3      53.5      9.54
   02/19/2020 07:20      49.9      49.0       90     46.7      0.00      7.54      59.5     0.46      1018.3     0.5      SE   134   2.1      SE     138     303        -1       0.0       2.3      53.4      9.54
   02/19/2020 07:10      49.2      48.7       90     46.1      0.00      7.54      59.5     0.46      1018.2     0.3     SSE   166   1.3      SE     139     304        -7       0.0       2.3      53.4      9.54
   02/19/2020 07:00      48.8      47.5       89     44.9      0.00      7.54      59.6     0.46      1018.1     0.3     SSE   167   0.9       S     170     300       -16       0.4       2.3      53.4      9.55
   02/19/2020 06:50      48.1      47.6       88     44.4      0.00      7.54      59.5     0.46      1018.0     0.5     SSE   163   1.4       S     174     296       -47       0.3       2.2      53.6      9.55
   02/19/2020 06:40      49.7      48.0       86     45.2      0.00      7.54      59.6     0.46      1017.9     1.0       S   173   2.0     SSW     197     284       -58       0.6       2.2      53.8      9.55
   02/19/2020 06:30      51.3      49.7       84     45.5      0.00      7.54      59.7     0.46      1017.8     0.7     SSE   168   1.5     SSE     166     270       -63       0.3       2.1      54.2      9.55
   02/19/2020 06:20      52.8      51.3       83     47.3      0.00      7.54      59.9     0.46      1017.7     0.9      NE    55   2.1      NW     313     251       -62       0.5       2.0      54.7      9.55
   02/19/2020 06:10      52.9      52.5       83     47.7      0.00      7.54      59.9     0.46      1017.6     0.8       N     0   2.3      NE      44     249       -58       0.3       2.0      54.9      9.55
   02/19/2020 06:00      52.9      52.7       83     47.6      0.00      7.54      60.0     0.46      1017.6     0.8      SW   228   2.8     WNW     291     259       -48       0.3       1.9      55.0      9.55
   02/19/2020 05:50      53.3      52.9       82     47.8      0.00      7.54      60.0     0.46      1017.5     0.1       S   173   0.9     WSW     240     264       -28       0.0       1.9      55.1      9.55
   02/19/2020 05:40      53.3      53.0       82     47.8      0.00      7.54      60.0     0.46      1017.5     0.0       N     0   0.0       E      86     269       -18       0.0       1.8      55.3      9.56
   02/19/2020 05:30      53.5      53.0       82     48.0      0.00      7.54      60.0     0.46      1017.4     0.0       E   100   0.9       E     101     269       -17       0.0       1.8      55.2      9.56
   02/19/2020 05:20      53.2      52.7       83     48.1      0.00      7.54      60.0     0.46      1017.5     0.7       N   355   1.8      NE      43     271       -14       0.2       1.8      55.2      9.56
   02/19/2020 05:10      52.9      52.6       84     47.9      0.00      7.54      60.1     0.46      1017.4     0.3       S   173   1.0      SE     138     270       -13       0.0       1.8      55.3      9.56
   02/19/2020 05:00      52.7      52.4       84     47.9      0.00      7.54      60.1     0.46      1017.3     0.5       S   179   1.9     WSW     237     270       -12       0.3       1.8      55.4      9.56
   02/19/2020 04:50      52.6      52.4       84     47.8      0.00      7.54      60.5     0.46      1017.3     0.6     SSE   164   2.0       S     178     270       -11       0.3       1.8      55.8      9.56
   02/19/2020 04:40      52.6      52.4       84     47.9      0.00      7.54      60.5     0.46      1017.3     0.6     SSE   160   1.4       S     180     270        -9       0.2       1.7      55.9      9.56
   02/19/2020 04:30      52.7      52.4       84     47.9      0.00      7.54      60.5     0.46      1017.3     0.3     SSW   195   1.0     SSW     212     270        -9       0.0       1.7      55.9      9.56
   02/19/2020 04:20      52.6      52.4       85     47.9      0.00      7.54      60.5     0.46      1017.2     0.0       E    84   0.7       E      85     270       -14       0.0       1.7      55.9      9.56
   02/19/2020 04:10      52.5      52.2       85     48.0      0.00      7.54      60.6     0.46      1017.3     0.8     SSW   210   1.5      SW     223     270       -11       0.2       1.7      56.0      9.57
   02/19/2020 04:00      52.4      52.1       86     48.1      0.00      7.54      60.5     0.46      1017.3     0.0      NE    45   0.7      NE      46     269       -12       0.0       1.6      56.0      9.57
   02/19/2020 03:50      52.2      51.8       86     48.0      0.00      7.54      60.6     0.46      1017.3     1.3     SSW   194   2.3     SSW     204     269       -10       0.8       1.6      56.2      9.57
   02/19/2020 03:40      52.1      51.7       87     48.0      0.00      7.54      60.6     0.46      1017.3     1.1     SSW   194   1.8       S     189     269        -7       0.6       1.5      56.3      9.57
   02/19/2020 03:30      51.9      51.5       87     48.0      0.00      7.54      60.6     0.46      1017.3     0.0       N     0   0.0      SW     227     269        -7       0.0       1.4      56.3      9.57
   02/19/2020 03:20      51.8      51.3       88     48.0      0.00      7.54      60.6     0.46      1017.4     0.4       S   182   1.4       S     181     268        -7       0.1       1.4      56.3      9.57
   02/19/2020 03:10      51.5      51.1       89     48.0      0.00      7.54      60.7     0.46      1017.4     0.6      SE   142   1.5     ESE     106     269        -7       0.2       1.4      56.4      9.57
   02/19/2020 03:00      51.3      51.0       89     48.0      0.00      7.54      60.7     0.46      1017.4     1.5      SW   217   2.3     WSW     237     268       -10       0.9       1.3      56.4      9.57
   02/19/2020 02:50      51.1      50.9       90     48.1      0.00      7.54      60.7     0.46      1017.4     1.6      SW   220   2.1      SW     226     265       -14       1.0       1.2      56.6      9.57
   02/19/2020 02:40      51.4      51.0       90     48.3      0.00      7.54      60.7     0.46      1017.4     0.2      SW   221   1.5     SSW     203     258       -25       0.0       1.0      56.6      9.58
   02/19/2020 02:30      51.7      51.1       90     48.6      0.00      7.54      60.7     0.46      1017.4     0.9     ENE    68   2.8     ENE      67     255       -29       0.3       1.0      56.7      9.58
   02/19/2020 02:20      51.9      51.5       90     49.0      0.00      7.54      60.7     0.46      1017.3     1.2     ESE   113   3.1     SSE     148     262        -8       0.7       1.0      56.8      9.58
   02/19/2020 02:10      52.1      51.8       90     49.2      0.00      7.54      60.8     0.46      1017.4     0.8       E    93   2.9     ENE      70     260        -7       0.3       0.9      56.9      9.58
   02/19/2020 02:00      52.6      51.9       90     49.4      0.00      7.54      60.8     0.46      1017.3     2.6      SE   146   4.5      SE     135     261        -6       1.2       0.8      57.0      9.58
   02/19/2020 01:50      52.9      52.5       89     49.6      0.00      7.54      60.8     0.46      1017.2     1.2      SE   144   2.6       E      84     263        -6       0.7       0.6      57.0      9.58
   02/19/2020 01:40      53.2      52.5       89     49.5      0.00      7.54      60.8     0.46      1017.1     2.1     SSW   199   3.8     SSW     210     262        -6       1.4       0.5      57.1      9.58
   02/19/2020 01:30      53.2      53.0       88     49.6      0.00      7.54      60.8     0.46      1017.1     1.2     SSE   148   2.5      SE     128     262        -6       0.5       0.3      57.1      9.58
   02/19/2020 01:20      53.5      53.1       87     49.6      0.00      7.54      60.8     0.46      1017.2     1.7      SE   137   3.2     SSE     149     266        -6       0.4       0.2      57.2      9.59
   02/19/2020 01:10      53.4      53.1       87     49.5      0.00      7.54      60.9     0.46      1017.1     0.1     ESE   110   0.8      SE     136     265        -5       0.0       0.1      57.1      9.59
   02/19/2020 01:00      53.3      53.0       86     49.3      0.00      7.54      60.9     0.46      1017.0     0.5     SSE   158   1.4      SE     143     265        -5       0.0       0.1      57.2      9.59
   02/19/2020 00:50      53.3      52.9       86     49.0      0.00      7.54      60.9     0.46      1017.0     0.5      SE   139   1.3      SE     135     266        -4       0.0       0.1      57.2      9.59
   02/19/2020 00:40      53.1      52.7       86     48.9      0.00      7.54      60.9     0.46      1017.0     0.8      SE   128   2.2       E      91     267        -3       0.3       0.1      57.2      9.59
   02/19/2020 00:30      52.9      52.2       85     48.2      0.00      7.54      61.0     0.46      1017.2     0.2       S   177   1.2     SSW     205     266        -3       0.0       0.0      57.2      9.59
   02/19/2020 00:20      52.4      52.0       86     48.0      0.00      7.54      61.0     0.46      1017.2     0.2       S   170   1.4       S     172     268        -2       0.1       0.0      57.3      9.59
   02/19/2020 00:10      52.3      51.8       86     48.1      0.00      7.54      61.0     0.46      1017.2     0.3     SSW   192   1.0     SSW     203     269        -3       0.1       0.0      57.3      9.59
   02/19/2020 00:00      51.9      50.3       85     46.7      0.00      7.54      61.0     0.46      1017.3     0.3      SW   220   1.3      SW     225     266        -6       0.0      16.3      57.4      9.59
   02/18/2020 23:50      50.4      49.8       83     45.2      0.00      7.54      61.0     0.46      1017.4     0.3      SE   144   0.9      SE     131     269       -10       0.0      16.3      57.4      9.60
   02/18/2020 23:40      49.8      48.4       83     44.1      0.00      7.54      61.0     0.46      1017.5     0.3       S   169   1.3     SSE     155     268       -12       0.0      16.3      57.5      9.60
   02/18/2020 23:30      48.8      48.0       85     43.9      0.00      7.54      61.1     0.46      1017.5     0.8     SSE   147   2.1      SE     141     269       -15       0.0      16.3      57.6      9.60
   02/18/2020 23:20      48.9      48.5       85     44.4      0.00      7.54      61.1     0.46      1017.5     0.6     SSE   164   1.1     SSE     162     263       -32       0.5      16.3      57.8      9.60
   02/18/2020 23:10      49.3      48.6       83     44.0      0.00      7.54      61.1     0.46      1017.4     0.7     SSW   195   1.9      SW     222     259       -53       0.1      16.2      58.1      9.60
   02/18/2020 23:00      49.4      48.8       82     43.8      0.00      7.54      61.0     0.46      1017.4     0.9     SSW   197   1.9     SSW     209     262       -54       0.3      16.2      58.3      9.60
   02/18/2020 22:50      49.1      48.5       77     41.9      0.00      7.54      61.2     0.46      1017.4     0.5       S   190   1.2      SW     236     263       -58       0.2      16.1      58.7      9.61
   02/18/2020 22:40      49.5      49.1       74     41.5      0.00      7.54      61.1     0.46      1017.3     0.9       S   179   2.1     SSW     209     266       -59       0.2      16.1      58.9      9.61
   02/18/2020 22:30      49.9      49.2       70     40.4      0.00      7.54      61.1     0.46      1017.3     0.9     SSE   160   2.0     SSW     206     266       -58       0.0      16.1      59.1      9.61
   02/18/2020 22:20      49.9      49.2       69     39.9      0.00      7.54      61.1     0.46      1017.2     0.7     SSE   153   1.4      SE     144     266       -58       0.2      16.1      59.4      9.61
   02/18/2020 22:10      49.8      49.2       68     39.4      0.00      7.54      61.1     0.46      1017.1     0.6     SSE   157   1.3     SSE     153     266       -58       0.2      16.1      59.7      9.62
   02/18/2020 22:00      50.5      49.5       66     38.9      0.00      7.54      61.1     0.46      1017.2     0.8     SSE   152   1.2     SSE     148     267       -58       0.0      16.0      60.0      9.62
   02/18/2020 21:50      50.9      50.3       64     38.8      0.00      7.54      61.1     0.46      1017.0     0.9     SSW   210   1.4     WSW     243     268       -59       0.2      16.0      60.4      9.62
   02/18/2020 21:40      51.0      50.5       65     39.4      0.00      7.54      61.1     0.46      1016.9     0.1     SSE   147   0.9     WSW     248     268       -60       0.0      16.0      60.7      9.62
   02/18/2020 21:30      51.4      50.8       65     39.5      0.00      7.54      61.2     0.46      1016.9     0.0       S   182   0.5       S     188     267       -61       0.0      16.0      60.9      9.62
   02/18/2020 21:20      51.4      51.0       64     39.5      0.00      7.54      61.1     0.46      1016.7     0.4     SSE   152   1.1      SE     137     268       -61       0.0      16.0      61.2      9.63
   02/18/2020 21:10      52.7      51.3       62     39.4      0.00      7.54      61.1     0.46      1016.6     0.6     SSE   160   1.6     SSE     148     268       -61       0.3      16.0      61.5      9.63
   02/18/2020 21:00      52.9      52.2       60     39.2      0.00      7.54      61.1     0.46      1016.6     0.6       S   170   1.1     SSE     159     268       -61       0.3      15.9      61.8      9.63
   02/18/2020 20:50      53.3      52.7       58     39.0      0.00      7.54      61.1     0.46      1016.4     0.6       S   184   1.6     SSW     201     268       -61       0.4      15.9      62.1      9.64
   02/18/2020 20:40      53.6      53.1       59     39.4      0.00      7.54      61.0     0.46      1016.3     0.5     SSW   191   1.4     SSW     192     268       -61       0.0      15.8      62.5      9.64
   02/18/2020 20:30      53.7      53.2       60     40.0      0.00      7.54      61.1     0.46      1016.0     0.3     SSE   166   0.8       S     169     268       -62       0.0      15.8      62.9      9.64
   02/18/2020 20:20      54.1      53.2       59     39.7      0.00      7.54      61.0     0.46      1016.0     0.3     SSE   147   1.4      SE     134     268       -63       0.0      15.8      63.1      9.65
   02/18/2020 20:10      55.7      54.2       55     39.2      0.00      7.54      61.0     0.46      1016.0     0.4      SE   140   1.1      SE     128     268       -64       0.0      15.8      63.4      9.65
   02/18/2020 20:00      56.2      55.4       53     39.0      0.00      7.54      61.0     0.46      1015.8     0.7       S   179   1.8       S     190     268       -64       0.5      15.8      63.7      9.65
   02/18/2020 19:50      56.1      55.8       53     39.3      0.00      7.54      60.9     0.46      1015.6     1.0       S   177   1.9     SSW     198     268       -64       0.4      15.7      64.0      9.66
   02/18/2020 19:40      57.1      56.0       52     39.2      0.00      7.54      60.9     0.46      1015.5     0.5     SSE   153   1.6       S     183     267       -66       0.2      15.7      64.4      9.66
   02/18/2020 19:30      59.0      57.1       48     38.5      0.00      7.54      60.9     0.46      1015.4     0.3       S   182   1.5     SSW     207     267       -67       0.0      15.6      64.6      9.66
   02/18/2020 19:20      59.1      58.4       47     38.5      0.00      7.54      60.8     0.46      1015.3     1.4      SW   215   2.5     SSW     213     267       -66       0.7      15.6      65.0      9.67
   02/18/2020 19:10      59.6      58.5       46     38.2      0.00      7.54      60.8     0.46      1015.3     0.1     SSW   207   1.0     SSW     197     267       -69       0.2      15.5      65.3      9.67
   02/18/2020 19:00      60.4      59.4       44     38.1      0.00      7.54      60.7     0.46      1015.3     0.5     SSE   164   1.6     SSW     194     267       -70       0.1      15.4      65.7      9.67
   02/18/2020 18:50      61.6      60.4       42     37.8      0.00      7.54      60.6     0.46      1015.2     1.1     SSW   202   2.1     SSW     198     266       -70       0.4      15.4      66.0      9.68
   02/18/2020 18:40      62.5      61.6       40     37.6      0.00      7.54      60.5     0.46      1015.1     0.7       S   188   2.9      SW     221     266       -73       0.4      15.4      66.2      9.68
   02/18/2020 18:30      63.2      62.5       38     37.1      0.00      7.54      60.5     0.46      1015.2     1.6     SSW   201   4.2     SSW     200     266       -75       0.8      15.3      66.6      9.68
   02/18/2020 18:20      63.7      63.1       37     36.5      0.00      7.54      60.5     0.46      1015.1     2.4     SSW   208   5.3      SW     226     266       -76       1.4      15.2      66.9      9.69
   02/18/2020 18:10      64.4      63.5       34     35.2      0.00      7.54      60.4     0.46      1015.1     2.1     SSW   212   3.8     SSW     208     266       -77       1.4      14.9      67.2      9.69
   02/18/2020 18:00      65.1      64.3       35     36.0      0.00      7.54      60.3     0.46      1014.9     2.2     SSW   203   4.4     SSW     197     266       -78       1.4      14.7      67.6      9.70
   02/18/2020 17:50      65.9      65.0       34     36.6      0.00      7.54      60.2     0.46      1014.8     1.7     SSW   211   2.9     SSW     202     266       -78       0.8      14.5      67.9      9.70
   02/18/2020 17:40      66.9      65.9       34     37.1      0.00      7.54      60.1     0.46      1014.6     3.2      SW   230   5.3      SW     221     266       -76       2.1      14.3      68.3      9.71
   02/18/2020 17:30      67.9      66.7       35     38.5      0.00      7.54      60.0     0.46      1014.5     5.1     WSW   238   7.4     WSW     255     266       -72       3.4      14.0      68.7      9.72
   02/18/2020 17:20      68.8      67.8       36     40.1      0.00      7.54      59.9     0.46      1014.4     4.4     WSW   244   6.4       W     267     266       -65       2.9      13.4      68.9      9.73
   02/18/2020 17:10      69.8      68.6       36     41.1      0.00      7.54      59.9     0.46      1014.3     2.8      SW   232   5.6     WSW     240     266       -64       1.7      12.9      69.3      9.74
   02/18/2020 17:00      70.3      69.7       37     42.3      0.00      7.54      59.7     0.46      1014.2     3.7      SW   235   5.9     WSW     241     266       -35       2.3      12.7      69.6      9.74
   02/18/2020 16:50      71.0      70.2       36     42.6      0.00      7.54      59.6     0.46      1014.2     4.8     WSW   240   6.9      SW     227     266        -9       3.3      12.3      69.8      9.75
   02/18/2020 16:40      71.5      70.9       34     41.2      0.00      7.54      59.5     0.46      1014.1     3.7     WSW   237   6.8      SW     235     266        13       2.4      11.7      69.8      9.76
   02/18/2020 16:30      71.5      70.9       35     42.1      0.00      7.54      59.4     0.46      1014.0     4.3     WSW   244   6.7     WSW     257     266        39       2.9      11.3      70.0      9.77
   02/18/2020 16:20      71.5      70.9       36     42.8      0.00      7.54      59.3     0.46      1014.0     4.8      SW   224   7.7      SW     225     266        63       3.3      10.8      70.1      9.78
   02/18/2020 16:10      71.8      71.3       38     44.5      0.00      7.54      59.1     0.46      1014.0     4.4     WSW   236   7.4      SW     231     266        89       3.2      10.3      70.2      9.79
   02/18/2020 16:00      72.0      71.3       42     47.1      0.00      7.54      59.1     0.46      1014.0     5.3      SW   227   9.6     WSW     256     266       114       3.7       9.8      70.4      9.51
   02/18/2020 15:50      72.9      71.8       43     48.5      0.00      7.54      59.0     0.46      1014.0     5.6      SW   222   8.5      SW     228     266       144       4.0       9.2      70.3      8.95
   02/18/2020 15:40      73.9      72.8       42     48.9      0.00      7.54      58.9     0.46      1014.0     5.8     WSW   241  10.5       W     259     266       161       4.4       8.5      70.1      8.95
   02/18/2020 15:30      74.6      73.3       41     48.6      0.00      7.54      58.7     0.46      1013.9     5.2       W   273  10.6     WNW     300     265       185       4.0       7.8      69.9      8.95
   02/18/2020 15:20      75.6      74.1       39     47.8      0.00      7.54      59.0     0.46      1013.9     5.9       W   263  10.1      SW     231     265       204       4.2       7.1      70.2      8.95
   02/18/2020 15:10      77.4      75.7       34     45.7      0.00      7.54      59.0     0.46      1013.9     5.0       W   262  10.3      SW     233     264       219       3.5       6.4      70.2      8.95
   02/18/2020 15:00      78.4      76.4       30     43.9      0.00      7.54      58.9     0.46      1013.8     1.8       W   271   5.8       W     260     264       228       1.3       5.8      69.9      8.96
   02/18/2020 14:50      77.6      76.1       26     39.5      0.00      7.54      58.9     0.46      1013.7     4.0      SW   233   6.8     WSW     237     264       252       2.9       5.6      69.4      8.96
   02/18/2020 14:40      78.1      77.3       26     39.5      0.00      7.54      58.8     0.46      1013.7     2.9     WSW   252   7.5      SW     217     264       255       2.2       5.1      69.0      8.96
   02/18/2020 14:30      78.5      77.5       23     37.6      0.00      7.54      58.8     0.46      1013.7     1.6     WNW   296   5.5     WSW     247     263       274       1.2       4.7      68.5      8.96
   02/18/2020 14:20      78.1      76.5       23     37.1      0.00      7.54      59.1     0.46      1013.8     3.4      SW   231   7.3     SSW     211     264       296       2.7       4.5      68.3      8.96
   02/18/2020 14:10      78.5      77.0       25     39.5      0.00      7.54      59.1     0.46      1013.9     2.0      SW   230   5.2     WNW     282     263       314       1.6       4.1      68.0      8.96
   02/18/2020 14:00      78.5      77.7       23     37.7      0.00      7.54      59.2     0.46      1014.0     1.5     NNW   344   3.8       N       5     263       324       0.8       3.8      67.6      8.96
   02/18/2020 13:50      78.0      77.4       23     36.6      0.00      7.54      59.1     0.46      1014.1     1.8       N   358   4.2      NE      39     263       339       1.0       3.7      67.0      8.96
   02/18/2020 13:40      78.7      77.3       23     36.9      0.00      7.54      59.1     0.46      1014.1     1.5       W   281   3.4     NNE      32     263       352       1.1       3.5      66.5      8.96
   02/18/2020 13:30      77.7      77.1       23     37.1      0.00      7.54      59.0     0.45      1014.2     1.7       E    91   3.9     ENE      67     264       372       0.9       3.4      65.9      8.96
   02/18/2020 13:20      77.8      76.2       24     37.4      0.00      7.54      59.0     0.45      1014.3     1.3     ENE    61   4.5      NE      46     263       402       0.5       3.2      65.4      8.96
   02/18/2020 13:10      76.2      75.1       24     36.2      0.00      7.54      58.9     0.45      1014.5     1.5       E    89   4.1      NW     323     264       371       1.2       3.1      64.8      8.96
   02/18/2020 13:00      77.6      75.3       24     37.6      0.00      7.54      58.8     0.45      1014.6     1.7      SE   130   4.6       S     181     264       359       1.0       2.9      64.2      8.96
   02/18/2020 12:50      77.6      75.3       24     37.6      0.00      7.54      58.8     0.45      1014.7     0.8     ENE    78   3.6      SE     129     264       438       0.7       2.7      63.4      8.97
   02/18/2020 12:40      75.3      74.3       26     37.4      0.00      7.54      58.7     0.45      1014.9     1.3      NE    39   3.1      NE      37     264       403       0.6       2.6      62.7      8.97
   02/18/2020 12:30      75.1      73.3       27     38.0      0.00      7.54      58.7     0.45      1015.0     1.4     ESE   120   3.3       N       7     265       375       1.0       2.5      62.1      8.97
   02/18/2020 12:20      73.9      72.3       28     38.5      0.00      7.54      58.7     0.45      1015.1     1.1      NE    54   2.9     SSE     156     265       320       0.6       2.4      61.4      8.97
   02/18/2020 12:10      72.8      72.1       30     39.1      0.00      7.54      58.6     0.45      1015.3     1.8      NE    54   3.7       N     350     265       404       0.6       2.3      60.8      8.97
   02/18/2020 12:00      72.3      70.4       31     39.2      0.00      7.54      58.6     0.45      1015.4     0.9       N    10   2.2      NE      44     266       324       0.5       2.2      60.1      8.97
   02/18/2020 11:50      71.4      70.3       33     39.8      0.00      7.54      58.5     0.45      1015.6     1.7     NNE    18   4.3     NNE      18     266       388       0.8       2.1      59.4      8.97
   02/18/2020 11:40      70.7      69.3       35     41.0      0.00      7.54      58.4     0.45      1015.7     1.5     NNE    15   3.6       N       0     266       455       0.6       2.0      58.7      8.97
   02/18/2020 11:30      69.7      68.8       37     41.7      0.00      7.54      58.6     0.45      1015.8     1.1      NE    34   3.0      NE      54     266       344       0.4       1.9      58.2      8.97
   02/18/2020 11:20      68.8      67.9       39     42.2      0.00      7.54      59.2     0.45      1015.9     1.1     ENE    65   3.0     ENE      78     266       319       0.6       1.8      57.9      8.97
   02/18/2020 11:10      68.2      66.3       41     42.4      0.00      7.54      59.2     0.45      1016.1     1.0     ENE    79   2.6     ESE     107     266       337       0.6       1.7      57.3      8.97
   02/18/2020 11:00      66.5      66.0       43     43.1      0.00      7.54      59.1     0.45      1016.3     1.3      NE    37   2.6       N     355     266       220       0.4       1.6      56.6      8.97
   02/18/2020 10:50      66.5      66.0       45     44.4      0.00      7.54      59.0     0.45      1016.4     0.9       N     2   2.0     SSW     211     267       177       0.5       1.6      56.1      8.97
   02/18/2020 10:40      66.5      64.2       48     45.2      0.00      7.54      59.1     0.45      1016.6     0.9     NNE    17   3.1      NE      52     266       392       0.4       1.5      55.5      8.97
   02/18/2020 10:30      64.8      63.8       50     45.4      0.00      7.54      59.1     0.45      1016.7     1.2       N   357   3.2     NNE      16     266       365       0.7       1.4      54.8      8.97
   02/18/2020 10:20      64.1      63.1       52     45.6      0.00      7.54      59.1     0.45      1016.7     1.0       N     2   2.7       N       4     267       327       0.4       1.3      54.3      8.97
   02/18/2020 10:10      63.4      62.1       54     46.1      0.00      7.54      59.1     0.45      1016.7     1.2      NE    38   2.9       N     355     267       352       0.4       1.2      53.6      8.97
   02/18/2020 10:00      62.0      60.5       58     46.3      0.00      7.54      59.0     0.45      1016.7     1.3       N     0   3.4      NE      37     294       332       0.5       1.2      53.1      8.97
   02/18/2020 09:50      61.8      59.9       60     46.8      0.00      7.54      59.0     0.45      1016.8     1.2     NNE    30   3.5     NNE      19     308       318       0.7       1.1      52.5      8.97
   02/18/2020 09:40      59.9      58.8       63     46.7      0.00      7.54      59.0     0.46      1016.9     0.8     NNW   333   2.4      NW     313     318       274       0.4       1.0      52.0      8.97
   02/18/2020 09:30      59.0      58.2       65     46.8      0.00      7.54      59.1     0.46      1016.9     0.6      NE    54   1.8      NE      51     323       153       0.3       0.9      51.7      8.97
   02/18/2020 09:20      58.6      58.0       65     46.8      0.00      7.54      59.0     0.46      1016.9     1.2      NE    52   2.4      NE      44     324       211       0.4       0.9      51.4      8.97
   02/18/2020 09:10      58.1      56.4       67     46.4      0.00      7.54      59.0     0.46      1016.9     0.6       W   272   1.8       N       5     329       256       0.3       0.8      51.0      8.97
   02/18/2020 09:00      56.8      55.2       69     46.1      0.00      7.54      59.1     0.46      1016.8     0.7       S   177   2.2       S     185     331       260       0.5       0.7      50.8      8.97
   02/18/2020 08:50      55.3      54.1       72     45.7      0.00      7.54      59.1     0.46      1016.8     0.7     WSW   240   1.6     WSW     239     335       203       0.6       0.7      50.5      8.97
   02/18/2020 08:40      54.2      53.0       74     45.7      0.00      7.54      59.1     0.46      1016.8     0.7     NNW   348   2.8       N       0     337       245       0.4       0.6      50.3      8.97
   02/18/2020 08:30      53.3      52.1       79     46.3      0.00      7.54      59.1     0.46      1016.8     0.7     NNW   332   2.5      NW     318     356       216       0.0       0.5      50.2      8.97
   02/18/2020 08:20      52.4      52.0       83     47.2      0.00      7.54      59.2     0.46      1016.7     0.6       N     8   1.9      NW     312     390       127       0.0       0.5      50.0      8.97
   02/18/2020 08:10      52.6      50.8       89     48.7      0.00      7.54      59.2     0.46      1016.7     0.0       N     6   0.6       N      11     394        86       0.0       0.5      49.9      8.97
   02/18/2020 08:00      50.7      49.0       92     47.3      0.00      7.54      59.2     0.46      1016.8     0.0       N     0   0.0     SSE     169     399       130       0.0       0.5      49.8      8.97
   02/18/2020 07:50      49.0      46.9       93     45.8      0.00      7.54      59.3     0.46      1016.7     0.2       S   177   0.9       S     178     406        87       0.0       0.5      49.8      8.97
   02/18/2020 07:40      46.9      46.0       93     44.6      0.00      7.54      59.3     0.46      1016.5     0.0     ESE   122   0.8       S     176     408        64       0.0       0.5      49.6      8.97
   02/18/2020 07:30      46.1      45.0       94     43.9      0.00      7.54      59.4     0.46      1016.4     0.0       N     0   0.0     SSE     161     409        33       0.0       0.5      49.6      8.97
   02/18/2020 07:20      45.0      44.6       93     43.0      0.00      7.54      59.3     0.46      1016.2     0.4     SSE   147   0.9     SSE     147     408        30       0.0       0.5      49.5      8.97
   02/18/2020 07:10      44.7      43.9       94     42.6      0.00      7.54      59.4     0.46      1016.1     0.2       S   182   0.7       S     190     408        23       0.0       0.5      49.4      8.97
   02/18/2020 07:00      44.0      43.4       94     42.0      0.00      7.54      59.4     0.46      1016.0     0.0       S   190   0.3       S     189     409        15       0.0       0.5      49.5      8.97
   02/18/2020 06:50      43.7      43.2       93     41.6      0.00      7.54      59.4     0.46      1016.0     0.0       N     0   0.0     SSE     148     410         3       0.0       0.5      49.6      8.97
   02/18/2020 06:40      43.8      43.3       93     41.8      0.00      7.54      59.5     0.46      1015.8     0.5      SE   145   1.5      SE     144     410       -10       0.0       0.5      49.7      8.97
   02/18/2020 06:30      43.7      43.0       93     41.5      0.00      7.54      59.5     0.46      1015.9     0.0     SSE   165   0.8       S     176     410       -14       0.0       0.5      49.9      8.97
   02/18/2020 06:20      43.3      43.0       93     41.3      0.00      7.54      59.5     0.46      1015.9     1.0     SSE   159   1.9      SW     222     408       -15       0.2       0.5      50.0      8.97
   02/18/2020 06:10      43.6      42.9       93     41.4      0.00      7.54      59.6     0.46      1015.8     0.4       S   176   1.1      SW     215     404       -14       0.1       0.4      50.2      8.97
   02/18/2020 06:00      43.3      42.3       93     40.8      0.00      7.54      59.6     0.46      1015.7     0.5     SSW   200   1.5     WSW     241     403       -15       0.1       0.4      50.4      8.97
   02/18/2020 05:50      44.0      42.7       92     41.2      0.00      7.54      59.7     0.46      1015.6     1.0     SSE   149   1.7      SE     142     397       -15       0.0       0.4      50.6      8.97
   02/18/2020 05:40      44.3      43.9       93     42.2      0.00      7.54      59.7     0.46      1015.6     1.6      SW   218   2.5      SW     215     412       -15       0.2       0.4      50.8      8.97
   02/18/2020 05:30      43.9      43.4       93     41.7      0.00      7.54      59.8     0.46      1015.5     0.1      SW   217   0.7      SW     220     413       -17       0.1       0.4      51.1      8.97
   02/18/2020 05:20      44.4      43.9       93     42.2      0.00      7.54      59.8     0.46      1015.4     0.3     ENE    69   1.3       E      81     420       -17       0.0       0.3      51.3      8.97
   02/18/2020 05:10      44.8      44.2       93     42.4      0.00      7.54      59.8     0.46      1015.3     0.2     SSE   151   1.1      SE     136     419       -17       0.0       0.3      51.5      8.97
   02/18/2020 05:00      45.3      44.6       93     42.8      0.00      7.54      59.9     0.46      1015.5     0.6     SSE   159   1.1     ESE     123     427       -17       0.0       0.3      51.7      8.97
   02/18/2020 04:50      45.3      44.9       93     43.1      0.00      7.54      59.9     0.46      1015.5     0.1       S   180   0.8       S     182     427       -17       0.0       0.3      51.8      8.97
   02/18/2020 04:40      45.0      44.3       93     42.8      0.00      7.54      59.7     0.46      1015.4     0.4     SSW   201   1.4     SSW     193     427       -18       0.0       0.3      52.1      8.97
   02/18/2020 04:30      45.1      44.2       92     42.5      0.00      7.54      59.6     0.46      1015.2     0.7     SSE   159   1.4     WSW     243     424       -18       0.4       0.3      52.3      8.97
   02/18/2020 04:20      45.0      44.5       92     42.6      0.00      7.54      59.7     0.46      1015.3     0.2      SE   143   1.0      SE     136     425       -18       0.0       0.3      52.5      8.97
   02/18/2020 04:10      45.4      45.0       92     42.9      0.00      7.54      59.8     0.46      1015.1     0.6       S   175   1.3      SW     230     421       -19       0.0       0.3      52.7      8.97
   02/18/2020 04:00      45.6      44.9       92     43.0      0.00      7.54      59.8     0.46      1015.0     0.9     SSW   205   1.7     SSW     199     420       -18       0.3       0.2      52.9      8.97
   02/18/2020 03:50      45.6      45.0       91     42.9      0.00      7.54      59.8     0.46      1015.0     0.0       N     0   0.0       S     176     406       -19       0.0       0.2      53.2      8.97
   02/18/2020 03:40      45.9      45.3       92     43.4      0.00      7.54      59.9     0.46      1015.0     0.2       S   187   1.0     SSW     196     410       -19       0.0       0.2      53.4      8.97
   02/18/2020 03:30      46.0      45.1       91     43.1      0.00      7.54      59.9     0.46      1014.9     0.0     SSE   160   0.6       S     189     414       -20       0.0       0.2      53.5      8.97
   02/18/2020 03:20      46.1      45.4       91     43.3      0.00      7.54      59.9     0.46      1014.9     0.5     SSW   210   1.3     WSW     242     410       -20       0.0       0.2      53.8      8.97
   02/18/2020 03:10      46.5      45.5       91     43.5      0.00      7.54      59.9     0.46      1014.9     0.4      SE   138   1.3      SE     144     409       -21       0.0       0.2      54.0      8.97
   02/18/2020 03:00      46.6      46.3       91     43.9      0.00      7.54      60.0     0.46      1014.9     0.3      SE   135   1.4       E      89     413       -22       0.0       0.2      54.2      8.97
   02/18/2020 02:50      46.6      46.3       91     43.8      0.00      7.54      60.0     0.46      1014.9     0.0       N     0   0.0     SSW     211     410       -21       0.0       0.2      54.5      8.97
   02/18/2020 02:40      46.6      46.3       90     43.7      0.00      7.54      59.9     0.46      1014.9     0.1       S   174   0.9      SE     145     402       -23       0.0       0.2      54.6      8.97
   02/18/2020 02:30      47.6      46.5       90     44.2      0.00      7.54      60.0     0.46      1015.0     0.4     SSE   160   0.8      SE     146     395       -24       0.0       0.2      54.8      8.97
   02/18/2020 02:20      47.5      47.3       90     44.6      0.00      7.54      60.0     0.46      1014.9     0.0     SSE   162   0.8     SSE     163     387       -26       0.0       0.2      55.0      8.97
   02/18/2020 02:10      47.6      47.3       90     44.6      0.00      7.54      59.5     0.46      1014.9     0.0       S   181   0.6       S     175     380       -27       0.0       0.2      54.4      8.97
   02/18/2020 02:00      47.5      46.7       90     44.2      0.00      7.54      60.1     0.46      1014.9     0.4       S   189   1.0       S     178     362       -29       0.0       0.2      55.5      8.97
   02/18/2020 01:50      47.5      46.9       89     44.2      0.00      7.54      60.2     0.46      1014.9     0.5     SSE   156   1.3     SSE     162     347       -30       0.2       0.2      55.6      8.97
   02/18/2020 01:40      48.5      47.1       89     44.7      0.00      7.54      60.1     0.46      1015.0     0.8      SE   146   1.6      SE     138     333       -31       0.1       0.1      55.9      8.97
   02/18/2020 01:30      48.3      47.8       89     44.9      0.00      7.54      60.1     0.46      1015.0     0.7       S   187   1.4     SSW     200     321       -31       0.2       0.1      56.2      8.98
   02/18/2020 01:20      48.9      47.8       88     45.0      0.00      7.54      59.9     0.46      1015.0     0.9     SSE   158   1.7      SE     139     309       -33       0.0       0.0      56.0      8.98
   02/18/2020 01:10      48.9      48.5       88     45.4      0.00      7.54      59.5     0.46      1015.0     0.7       S   179   1.4      SW     219     298       -36       0.0       0.0      55.7      8.98
   02/18/2020 01:00      49.1      48.6       87     45.1      0.00      7.54      59.5     0.46      1015.0     0.0       W   265   0.1     WNW     298     289       -41       0.0       0.0      56.0      8.98
   02/18/2020 00:50      49.5      48.8       86     45.2      0.00      7.54      59.6     0.46      1015.1     0.5     SSE   158   1.6      SE     138     276       -43       0.0       0.0      56.2      8.98
   02/18/2020 00:40      49.8      49.3       85     45.3      0.00      7.54      59.6     0.46      1015.1     0.3     SSE   159   0.8     SSE     150     263       -45       0.0       0.0      56.4      8.98
   02/18/2020 00:30      50.0      49.5       85     45.4      0.00      7.54      59.6     0.46      1015.0     0.4     SSE   162   1.2     ESE     124     254       -46       0.0       0.0      56.6      8.98
   02/18/2020 00:20      49.9      49.4       85     45.2      0.00      7.54      59.6     0.46      1015.0     0.3       S   175   2.4     SSE     167     251       -46       0.0       0.0      56.9      8.98
   02/18/2020 00:10      50.3      49.5       85     45.4      0.00      7.54      59.7     0.46      1015.0     0.8     SSE   155   2.3      SE     136     253       -44       0.1       0.0      57.1      8.98
   02/18/2020 00:00      50.3      49.8       83     45.2      0.00      7.54      59.6     0.46      1015.0     0.2     SSE   159   1.0     SSE     155     253       -44       0.0      11.1      57.3      8.98
   02/17/2020 23:50      50.5      50.2       82     45.2      0.00      7.54      59.6     0.46      1015.2     0.3     SSE   150   1.2      SE     141     257       -42       0.0      11.1      57.4      8.98
   02/17/2020 23:40      50.5      49.9       82     44.9      0.00      7.54      59.6     0.46      1015.1     0.6       S   181   1.5     SSW     192     260       -43       0.3      11.1      57.6      8.98
   02/17/2020 23:30      50.9      49.9       80     44.5      0.00      7.54      59.8     0.46      1015.0     0.5     SSE   156   1.2     SSE     159     262       -48       0.0      11.1      57.9      8.98
   02/17/2020 23:20      50.9      49.8       81     44.6      0.00      7.54      59.7     0.46      1015.0     0.8     SSW   211   1.6      SW     217     264       -49       0.2      11.1      58.1      8.98
   02/17/2020 23:10      50.4      49.7       79     43.7      0.00      7.54      59.7     0.46      1014.9     0.4       S   181   0.8       S     171     263       -43       0.0      11.0      58.3      8.98
   02/17/2020 23:00      50.6      50.3       78     43.7      0.00      7.54      59.6     0.46      1014.8     0.6       S   171   1.5     SSW     200     265       -41       0.0      11.0      58.5      8.98
   02/17/2020 22:50      50.6      50.2       77     43.5      0.00      7.54      59.7     0.46      1014.8     0.8       S   186   1.4     SSW     193     266       -45       0.3      11.0      58.7      8.98
   02/17/2020 22:40      50.9      50.5       76     43.5      0.00      7.54      59.8     0.46      1014.8     0.0       S   172   0.6     SSW     212     264       -47       0.0      10.9      59.0      8.98
   02/17/2020 22:30      51.4      50.7       76     43.5      0.00      7.54      59.8     0.46      1014.8     0.3     SSE   157   0.9       S     179     265       -51       0.0      10.9      59.4      8.98
   02/17/2020 22:20      51.8      51.2       74     43.3      0.00      7.54      59.8     0.46      1014.7     0.5       S   185   1.6       S     170     265       -53       0.1      10.9      59.6      8.98
   02/17/2020 22:10      51.8      50.5       75     43.4      0.00      7.54      59.8     0.46      1014.7     0.7     SSW   204   1.2     SSW     200     266       -52       0.0      10.9      60.0      8.98
   02/17/2020 22:00      51.1      50.6       75     43.1      0.00      7.54      59.9     0.46      1014.6     0.3     SSE   147   1.0       S     172     265       -55       0.0      10.9      60.2      8.98
   02/17/2020 21:50      51.4      50.8       74     43.0      0.00      7.54      59.9     0.46      1014.6     0.1       S   174   0.8       S     182     264       -56       0.0      10.9      60.5      8.99
   02/17/2020 21:40      51.9      51.4       72     43.1      0.00      7.54      59.8     0.46      1014.5     0.0     SSE   166   0.6     SSE     165     266       -56       0.0      10.9      60.8      8.99
   02/17/2020 21:30      52.1      51.6       71     42.8      0.00      7.54      59.8     0.46      1014.3     0.3       S   178   0.7       S     186     266       -57       0.2      10.9      61.1      8.99
   02/17/2020 21:20      53.2      52.1       69     42.8      0.00      7.54      59.8     0.46      1014.2     0.7      SE   136   1.5     ENE      76     266       -58       0.0      10.9      61.3      8.99
   02/17/2020 21:10      53.8      53.1       67     42.7      0.00      7.54      59.8     0.46      1014.1     0.7     SSE   163   1.5       S     188     267       -59       0.0      10.9      61.7      8.99
   02/17/2020 21:00      53.6      53.1       67     42.5      0.00      7.54      59.8     0.46      1014.0     0.6     SSW   194   1.8     SSW     210     268       -59       0.2      10.9      62.0      8.99
   02/17/2020 20:50      53.6      53.2       67     42.8      0.00      7.54      59.8     0.46      1013.9     0.1       S   185   0.8     SSW     191     267       -61       0.0      10.8      62.4      8.99
   02/17/2020 20:40      54.5      53.5       65     42.7      0.00      7.54      59.8     0.46      1013.8     1.0     SSE   156   2.4       S     178     267       -62       0.3      10.8      62.7      8.99
   02/17/2020 20:30      54.6      54.0       65     42.8      0.00      7.54      59.8     0.46      1013.7     0.2       S   187   1.3     SSW     198     267       -62       0.0      10.8      63.0      8.99
   02/17/2020 20:20      55.6      54.4       63     42.6      0.00      7.54      59.7     0.46      1013.7     0.5     SSE   157   1.4       S     179     268       -63       0.0      10.8      63.3      8.99
   02/17/2020 20:10      55.9      55.4       62     42.9      0.00      7.54      59.7     0.46      1013.7     0.4       S   174   1.8       S     183     267       -63       0.3      10.8      63.7      8.99
   02/17/2020 20:00      56.4      55.6       61     42.6      0.00      7.54      59.7     0.46      1013.6     0.4     SSW   201   1.5     SSW     198     268       -64       0.1      10.7      64.0      9.00
   02/17/2020 19:50      57.7      56.5       59     42.7      0.00      7.54      59.7     0.46      1013.5     0.0       E   100   0.7       E      98     267       -65       0.0      10.7      64.3      9.00
   02/17/2020 19:40      58.7      57.6       56     42.5      0.00      7.54      59.7     0.46      1013.5     0.3     SSE   155   1.9     SSW     193     268       -66       0.0      10.7      64.7      9.00
   02/17/2020 19:30      59.0      57.9       56     42.9      0.00      7.54      59.6     0.46      1013.4     1.2     SSE   166   2.5     SSW     201     268       -66       0.3      10.7      65.0      9.00
   02/17/2020 19:20      59.6      58.7       54     42.6      0.00      7.54      59.5     0.46      1013.3     1.0       S   173   2.3       S     178     267       -68       0.3      10.6      65.3      9.00
   02/17/2020 19:10      59.8      58.8       55     42.9      0.00      7.54      59.5     0.46      1013.1     0.6     SSE   160   2.7     ESE     122     268       -68       0.1      10.6      65.6      9.00
   02/17/2020 19:00      59.6      59.3       55     43.2      0.00      7.54      59.5     0.46      1013.1     0.7      SW   228   2.0     WSW     237     268       -66       0.2      10.6      66.0      9.00
   02/17/2020 18:50      60.2      59.3       55     43.5      0.00      7.54      59.5     0.46      1013.1     0.2     SSW   209   1.3      SW     217     267       -69       0.0      10.5      66.3      9.00
   02/17/2020 18:40      61.3      60.1       52     43.3      0.00      7.54      59.4     0.46      1013.0     1.2       S   190   2.0     SSW     208     267       -69       0.1      10.5      66.7      9.00
   02/17/2020 18:30      62.2      61.1       52     43.7      0.00      7.54      59.3     0.46      1013.0     0.3       S   186   1.5      SW     233     267       -70       0.2      10.5      67.1      9.01
   02/17/2020 18:20      63.8      62.2       49     43.8      0.00      7.54      59.3     0.46      1012.9     0.2       S   189   0.9     SSW     198     267       -73       0.0      10.5      67.5      9.01
   02/17/2020 18:10      65.0      63.8       47     44.0      0.00      7.54      59.3     0.46      1012.8     0.4     SSE   162   2.3       S     190     267       -76       0.2      10.5      67.8      9.01
   02/17/2020 18:00      65.7      64.9       46     44.1      0.00      7.54      59.2     0.46      1012.7     2.4     SSW   211   5.4     SSW     213     266       -77       1.5      10.4      68.2      9.01
   02/17/2020 17:50      66.3      65.7       45     44.3      0.00      7.54      59.2     0.46      1012.6     2.7     SSW   201   4.8     SSW     196     266       -75       1.6      10.2      68.7      9.01
   02/17/2020 17:40      66.8      66.2       45     44.6      0.00      7.54      59.2     0.46      1012.5     4.0     SSW   207   7.0     WSW     252     266       -72       2.7       9.9      69.1      9.01
   02/17/2020 17:30      67.8      66.7       45     45.2      0.00      7.54      59.1     0.46      1012.5     3.0      SW   220   6.0     SSW     211     266       -69       1.9       9.5      69.4      9.02
   02/17/2020 17:20      69.1      67.8       44     45.9      0.00      7.54      59.0     0.46      1012.4     4.4     WSW   243   8.3     WSW     256     266       -62       2.9       9.1      70.0      9.02
   02/17/2020 17:10      70.9      69.1       43     46.4      0.00      7.54      59.0     0.46      1012.4     1.6      SW   218   3.8     WSW     238     266       -61       0.9       8.7      70.3      9.02
   02/17/2020 17:00      74.2      70.9       37     44.4      0.00      7.54      59.0     0.46      1012.2     2.9     WSW   238   5.7      SW     233     265       -43       1.8       8.5      70.6      9.02
   02/17/2020 16:50      74.2      73.7       30     40.8      0.00      7.54      58.9     0.46      1012.1     0.0       W   278   0.8     WSW     246     265       -23       0.3       8.2      70.8      9.03
   02/17/2020 16:40      73.6      73.2       30     40.2      0.00      7.54      58.9     0.46      1012.1     0.3     NNE    22   1.4     NNE      29     265        -2       0.0       8.2      70.8      9.03
   02/17/2020 16:30      73.7      72.9       30     40.2      0.00      7.54      59.0     0.46      1012.1     1.1     NNW   347   2.9     NNE      12     265        26       0.6       8.1      71.0      9.03
   02/17/2020 16:20      73.9      73.3       30     40.2      0.00      7.54      58.9     0.46      1012.1     1.0     ENE    74   3.2      SE     125     265        50       0.5       8.0      71.0      9.03
   02/17/2020 16:10      75.3      73.7       29     40.5      0.00      7.54      58.9     0.46      1012.1     1.6      NE    46   4.0     NNE      17     265        74       0.7       8.0      71.0      9.03
   02/17/2020 16:00      75.3      74.0       30     41.1      0.00      7.54      58.8     0.46      1012.1     0.5     SSE   164   1.9       E      88     265        99       0.6       7.8      71.0      9.03
   02/17/2020 15:50      74.8      74.0       30     40.8      0.00      7.54      58.8     0.46      1012.1     1.4     ENE    76   2.7     ENE      60     265       118       0.7       7.7      70.9      9.04
   02/17/2020 15:40      75.7      74.7       29     40.5      0.00      7.54      58.6     0.46      1012.1     1.6     ENE    64   3.5      NE      42     265       153       0.7       7.6      70.7      9.04
   02/17/2020 15:30      76.4      74.3       29     41.0      0.00      7.54      58.6     0.46      1012.2     0.7       E    92   3.6       E      83     265       178       0.5       7.5      70.5      9.04
   02/17/2020 15:20      74.7      73.7       29     40.2      0.00      7.54      58.6     0.46      1012.2     1.2      SE   132   3.0     ENE      77     264       181       0.7       7.4      70.4      9.04
   02/17/2020 15:10      75.0      74.1       30     40.9      0.00      7.54      58.5     0.46      1012.2     1.4     NNE    22   3.6      NE      52     264       147       0.7       7.3      70.3      9.04
   02/17/2020 15:00      74.8      73.7       30     41.3      0.00      7.54      58.4     0.46      1012.1     1.6     NNE    17   3.8       N       0     264       206       0.6       7.2      70.0      9.04
   02/17/2020 14:50      74.9      73.4       31     41.5      0.00      7.54      58.4     0.46      1012.2     1.8       E    83   4.0     ENE      66     265       150       1.0       7.1      69.7      9.04
   02/17/2020 14:40      75.2      74.1       31     41.6      0.00      7.54      58.3     0.46      1012.3     1.4      NE    55   3.5       E      84     264       227       0.8       6.9      69.5      9.04
   02/17/2020 14:30      74.3      73.5       31     41.2      0.00      7.54      58.2     0.46      1012.3     1.7      NE    48   4.4     ESE     115     264       179       0.9       6.8      69.1      9.04
   02/17/2020 14:20      74.9      74.0       31     41.4      0.00      7.54      58.2     0.46      1012.4     1.5      NE    44   4.7     ENE      78     263       288       0.7       6.6      68.5      9.05
   02/17/2020 14:10      75.0      74.3       30     41.5      0.00      7.54      58.0     0.46      1012.5     1.9     NNE    28   5.4       N     355     264       314       0.6       6.5      68.1      9.05
   02/17/2020 14:00      75.3      73.8       30     41.3      0.00      7.54      58.0     0.46      1012.6     1.5       N     0   3.9      NE      44     264       341       0.9       6.4      67.4      9.05
   02/17/2020 13:50      74.6      73.3       31     41.8      0.00      7.54      57.9     0.46      1012.7     1.8     ENE    62   4.1      NE      42     264       344       0.9       6.3      67.0      9.05
   02/17/2020 13:40      74.5      73.3       33     42.9      0.00      7.54      57.9     0.46      1012.7     1.9       E    88   4.5       E      90     264       333       1.2       6.1      66.3      9.05
   02/17/2020 13:30      74.0      72.7       32     42.0      0.00      7.54      57.8     0.45      1012.7     1.7       E    95   4.0      SE     141     264       377       1.2       5.9      65.8      9.05
   02/17/2020 13:20      73.5      72.6       32     41.6      0.00      7.54      57.8     0.45      1012.9     1.8     ENE    77   4.9      SE     125     264       386       1.0       5.7      65.2      9.05
   02/17/2020 13:10      74.0      73.3       32     42.1      0.00      7.54      57.7     0.45      1012.9     1.7     ENE    61   4.4       E      85     264       392       1.1       5.5      64.3      9.05
   02/17/2020 13:00      73.6      72.4       35     43.4      0.00      7.54      57.6     0.45      1013.1     1.9     ENE    74   3.9     ESE     102     265       397       1.3       5.3      63.6      9.05
   02/17/2020 12:50      72.4      71.2       35     42.9      0.00      7.54      57.6     0.45      1013.3     1.4     ENE    61   4.1     ESE     110     265       402       1.0       5.1      62.9      9.05
   02/17/2020 12:40      71.8      70.9       36     43.1      0.00      7.54      57.6     0.45      1013.4     2.2     NNE    32   4.7      NE      35     265       402       0.9       5.0      62.2      9.05
   02/17/2020 12:30      71.9      70.6       37     43.8      0.00      7.54      57.6     0.45      1013.6     2.1       N    11   5.6      NE      41     265       408       1.1       4.8      61.5      9.05
   02/17/2020 12:20      71.4      70.7       38     43.9      0.00      7.54      57.6     0.45      1013.8     2.5     NNE    25   4.8      NE      34     265       414       1.0       4.6      60.8      9.05
   02/17/2020 12:10      71.6      70.6       38     44.1      0.00      7.54      57.7     0.45      1014.0     1.9      NE    46   5.4      NE      36     265       414       0.8       4.5      60.4      9.05
   02/17/2020 12:00      70.8      70.1       36     42.5      0.00      7.54      57.8     0.45      1014.3     1.8       E    98   4.2     ENE      78     265       416       1.2       4.3      60.1      9.05
   02/17/2020 11:50      70.9      70.2       32     39.7      0.00      7.54      57.9     0.45      1014.4     1.5     ENE    60   4.0     SSE     151     265       415       0.9       4.1      59.3      9.05
   02/17/2020 11:40      70.8      69.8       32     39.5      0.00      7.54      57.9     0.45      1014.6     2.0      NE    52   3.9      NE      40     266       413       1.2       4.0      58.6      9.05
   02/17/2020 11:30      70.5      69.9       32     39.1      0.00      7.54      57.9     0.45      1014.7     1.6       N     6   4.1      NE      37     264       405       0.9       3.8      57.9      9.05
   02/17/2020 11:20      70.3      69.1       34     39.8      0.00      7.54      57.9     0.45      1014.8     1.1       N   354   2.8     ENE      59     264       406       0.6       3.6      57.1      9.05
   02/17/2020 11:10      69.3      68.4       34     39.7      0.00      7.54      58.0     0.45      1014.9     1.9     NNE    33   4.5      NE      46     265       402       1.0       3.5      56.3      9.05
   02/17/2020 11:00      69.2      68.6       35     40.5      0.00      7.54      57.8     0.45      1015.0     1.8     NNE    25   3.7     NNE      23     265       394       0.7       3.4      55.5      9.05
   02/17/2020 10:50      69.3      68.4       36     40.5      0.00      7.54      57.9     0.45      1015.1     1.4     NNE    27   4.1     NNE      17     266       386       0.8       3.2      54.8      9.05
   02/17/2020 10:40      68.7      68.1       36     40.6      0.00      7.54      57.9     0.45      1015.2     1.3     ENE    58   3.8       E      91     266       375       0.6       3.1      54.1      9.05
   02/17/2020 10:30      68.2      66.3       39     41.4      0.00      7.54      57.9     0.45      1015.2     1.2       E    93   4.1     ENE      79     266       371       0.7       3.0      53.4      9.05
   02/17/2020 10:20      66.3      64.9       44     42.6      0.00      7.54      57.9     0.45      1015.3     2.0     ENE    57   3.7     ENE      60     266       356       0.8       2.9      52.9      9.05
   02/17/2020 10:10      65.4      64.4       45     43.4      0.00      7.54      57.9     0.45      1015.3     2.3      NE    39   4.2      NE      42     266       344       0.6       2.8      52.2      9.05
   02/17/2020 10:00      65.1      64.4       46     43.8      0.00      7.54      58.6     0.45      1015.3     2.0      NE    56   3.4       N       8     266       329       0.6       2.6      52.0      9.05
   02/17/2020 09:50      64.8      63.8       48     44.1      0.00      7.54      58.5     0.45      1015.4     1.4     ENE    66   4.2      NE      48     267       315       0.4       2.5      51.4      9.05
   02/17/2020 09:40      64.3      63.1       48     43.6      0.00      7.54      58.3     0.45      1015.6     1.2      NE    49   3.1      NE      44     267       299       0.3       2.5      50.7      9.05
   02/17/2020 09:30      63.3      62.3       49     43.1      0.00      7.54      58.2     0.45      1015.5     0.8      NE    41   3.1       E      85     298       283       0.3       2.4      50.0      9.05
   02/17/2020 09:20      62.3      60.4       51     43.1      0.00      7.54      58.2     0.45      1015.5     0.9     NNW   340   2.9     WNW     294     309       266       0.5       2.4      49.5      9.05
   02/17/2020 09:10      60.4      59.3       54     42.9      0.00      7.54      58.4     0.45      1015.6     1.4     WNW   289   3.2       W     261     318       251       0.7       2.3      49.2      9.05
   02/17/2020 09:00      59.5      58.0       56     42.9      0.00      7.54      57.7     0.45      1015.7     1.1       W   265   3.7      SW     223     323       235       0.8       2.1      48.3      9.05
   02/17/2020 08:50      58.1      57.5       57     42.8      0.00      7.54      57.7     0.45      1015.6     2.4       W   262   4.9       W     262     328       242       1.5       2.0      48.0      9.05
   02/17/2020 08:40      58.6      56.5       59     43.4      0.00      7.54      58.2     0.45      1015.6     0.5       W   273   2.5     WSW     250     333       249       0.4       1.8      48.1      9.05
   02/17/2020 08:30      56.5      55.0       62     43.1      0.00      7.54      58.6     0.45      1015.7     0.3     NNW   344   1.3     NNW     349     336       226       0.0       1.7      48.4      9.05
   02/17/2020 08:20      55.1      53.4       65     42.6      0.00      7.54      58.6     0.46      1015.8     0.5       E   100   1.2      NE      44     368       201       0.2       1.7      48.1      9.05
   02/17/2020 08:10      53.8      52.0       67     42.3      0.00      7.54      58.5     0.45      1015.7     0.3     ENE    75   1.1     NNE      26     391        78       0.0       1.6      47.9      9.05
   02/17/2020 08:00      52.0      49.5       73     42.7      0.00      7.54      58.7     0.45      1015.7     0.3      NE    54   1.1       E      82     398       115       0.0       1.6      47.8      9.05
   02/17/2020 07:50      49.4      45.6       84     42.8      0.00      7.54      58.7     0.45      1015.8     0.0       E    87   1.1     ENE      78     405        79       0.0       1.6      47.7      9.05
   02/17/2020 07:40      45.6      44.1       88     41.5      0.00      7.54      58.7     0.45      1015.8     0.1     ENE    71   1.2     ENE      74     410        45       0.0       1.6      47.6      9.05
   02/17/2020 07:30      44.2      43.3       89     40.8      0.00      7.54      58.8     0.46      1015.9     0.0     NNE    31   1.0     NNE      30     412        12       0.0       1.6      47.5      9.05
   02/17/2020 07:20      43.6      43.0       89     40.3      0.00      7.54      58.8     0.46      1015.9     0.4       S   187   1.5     SSW     213     411         7       0.0       1.6      47.6      9.05
   02/17/2020 07:10      43.5      42.2       90     40.2      0.00      7.54      58.8     0.46      1015.8     0.8     SSE   147   2.2      SE     130     410         2       0.0       1.6      47.6      9.05
   02/17/2020 07:00      42.7      42.1       90     39.7      0.00      7.54      59.0     0.46      1015.9     1.3     SSE   149   2.7      SE     140     410        -2       0.2       1.6      47.7      9.05
   02/17/2020 06:50      42.3      41.9       90     39.4      0.00      7.54      58.9     0.46      1015.9     1.0     SSE   166   2.3      SE     144     410        -7       0.2       1.6      47.8      9.05
   02/17/2020 06:40      42.1      41.3       90     38.9      0.00      7.54      59.0     0.46      1015.9     0.9     SSE   152   2.2      SE     138     407       -11       0.4       1.5      48.0      9.05
   02/17/2020 06:30      41.8      41.4       90     38.9      0.00      7.54      59.0     0.46      1015.8     0.9     SSE   157   2.1      SE     139     425       -13       0.2       1.5      48.1      9.05
   02/17/2020 06:20      41.9      41.5       90     38.8      0.00      7.54      58.9     0.46      1015.8     0.5     SSE   147   1.4      SE     137     425       -14       0.1       1.5      48.3      9.05
   02/17/2020 06:10      42.3      41.7       89     39.1      0.00      7.54      59.0     0.46      1015.8     0.9      SE   145   1.6      SE     135     424       -14       0.2       1.4      48.4      9.05
   02/17/2020 06:00      42.3      42.0       89     39.3      0.00      7.54      59.0     0.46      1015.6     0.7       S   172   1.8       S     187     423       -14       0.4       1.4      48.6      9.05
   02/17/2020 05:50      42.3      41.7       89     39.0      0.00      7.54      59.0     0.46      1015.6     0.4       S   171   1.9       S     186     421       -14       0.3       1.3      48.8      9.05
   02/17/2020 05:40      42.3      41.9       89     39.1      0.00      7.54      59.1     0.46      1015.5     0.4       S   178   1.2     SSE     161     418       -14       0.2       1.3      49.0      9.05
   02/17/2020 05:30      42.6      42.1       89     39.5      0.00      7.54      59.2     0.46      1015.4     0.3       N     3   1.2     NNE      22     416       -14       0.0       1.2      49.3      9.05
   02/17/2020 05:20      42.5      42.1       90     39.5      0.00      7.54      59.1     0.46      1015.2     0.4     WSW   244   1.2       W     265     416       -14       0.2       1.2      49.4      9.05
   02/17/2020 05:10      42.9      42.3       90     39.9      0.00      7.54      59.3     0.46      1015.1     0.9     SSE   154   2.6      SE     134     418       -14       0.3       1.2      49.6      9.05
   02/17/2020 05:00      42.8      42.3       90     39.8      0.00      7.54      59.2     0.46      1015.1     0.7       S   179   2.0     SSW     209     423       -14       0.3       1.1      49.8      9.05
   02/17/2020 04:50      43.2      42.1       90     40.0      0.00      7.54      59.2     0.46      1015.2     0.9     SSW   201   1.9      SW     218     419       -14       0.2       1.1      50.0      9.06
   02/17/2020 04:40      43.1      42.0       89     39.5      0.00      7.54      59.2     0.46      1015.1     0.4      SE   126   1.2       E      94     417       -15       0.1       1.1      50.1      9.06
   02/17/2020 04:30      43.6      42.8       89     40.3      0.00      7.54      59.3     0.46      1015.3     0.2     ESE   110   1.3       E      98     417       -15       0.0       1.0      50.3      9.06
   02/17/2020 04:20      43.4      43.1       90     40.5      0.00      7.54      59.3     0.46      1015.2     0.7      SW   227   1.5     WSW     242     414       -15       0.2       1.0      50.5      9.06
   02/17/2020 04:10      43.3      42.8       90     40.2      0.00      7.54      59.3     0.46      1015.1     0.3     SSE   162   1.3      SE     135     414       -15       0.2       1.0      50.7      9.06
   02/17/2020 04:00      43.2      42.7       90     40.1      0.00      7.54      59.4     0.46      1015.2     0.8     SSE   159   1.9      SE     142     413       -16       0.4       1.0      50.9      9.06
   02/17/2020 03:50      43.6      42.8       90     40.4      0.00      7.54      59.4     0.46      1015.3     1.4       S   173   3.2     SSW     211     414       -15       0.6       0.9      51.1      9.06
   02/17/2020 03:40      43.3      42.8       90     40.2      0.00      7.54      59.4     0.46      1015.4     0.8     SSW   205   2.4      SW     229     413       -16       0.5       0.8      51.3      9.06
   02/17/2020 03:30      43.9      43.2       89     40.5      0.00      7.54      59.4     0.46      1015.3     0.4      SE   134   1.3      NE      56     412       -16       0.2       0.7      51.6      9.06
   02/17/2020 03:20      44.3      43.9       89     41.2      0.00      7.54      59.5     0.46      1015.3     0.2     SSW   197   1.5     SSW     203     410       -16       0.2       0.7      51.7      9.06
   02/17/2020 03:10      45.0      43.9       90     41.6      0.00      7.54      59.4     0.46      1015.4     0.5      SE   133   1.5     SSW     202     414       -17       0.4       0.7      52.0      9.06
   02/17/2020 03:00      45.0      44.5       91     42.2      0.00      7.54      59.5     0.46      1015.5     0.3     SSE   150   1.3     SSE     156     411       -17       0.0       0.6      52.2      9.06
   02/17/2020 02:50      44.7      44.2       91     42.0      0.00      7.54      59.5     0.46      1015.5     0.8     SSE   165   1.9       S     182     409       -17       0.2       0.6      52.3      9.06
   02/17/2020 02:40      44.6      44.1       91     41.7      0.00      7.54      59.5     0.46      1015.5     1.1      SE   146   2.3     ESE     114     411       -17       0.7       0.6      52.5      9.06
   02/17/2020 02:30      44.7      44.2       91     41.9      0.00      7.54      59.5     0.46      1015.5     0.8       S   179   1.7       S     182     409       -18       0.5       0.5      52.9      9.06
   02/17/2020 02:20      44.3      43.7       90     41.4      0.00      7.54      59.5     0.46      1015.5     0.7      SW   229   1.6     ENE      56     414       -18       0.5       0.4      53.1      9.06
   02/17/2020 02:10      45.0      44.4       91     42.3      0.00      7.54      59.6     0.46      1015.4     0.5      SE   125   1.1       S     181     390       -18       0.0       0.3      53.3      9.06
   02/17/2020 02:00      45.1      44.6       91     42.3      0.00      7.54      59.6     0.46      1015.4     0.4      NE    35   1.3      SE     142     384       -18       0.1       0.3      53.5      9.06
   02/17/2020 01:50      45.1      44.8       91     42.5      0.00      7.54      59.6     0.46      1015.5     0.6      SW   220   1.5     WSW     240     381       -19       0.1       0.3      53.8      9.06
   02/17/2020 01:40      45.1      44.5       91     42.2      0.00      7.54      59.6     0.46      1015.6     0.3     SSE   161   1.4     SSE     148     375       -19       0.0       0.2      53.9      9.06
   02/17/2020 01:30      45.6      44.8       91     42.7      0.00      7.54      59.6     0.46      1015.7     0.7      NW   320   1.6       W     264     376       -20       0.2       0.2      54.2      9.06
   02/17/2020 01:20      45.8      45.0       91     42.7      0.00      7.54      59.8     0.46      1015.8     0.3       S   190   1.3       S     186     369       -21       0.0       0.2      54.5      9.06
   02/17/2020 01:10      45.4      45.0       91     42.6      0.00      7.54      59.9     0.46      1015.9     0.6     SSE   147   1.5      SE     139     368       -21       0.3       0.2      54.9      9.06
   02/17/2020 01:00      45.8      45.3       90     42.7      0.00      7.54      59.8     0.46      1016.0     0.5     SSE   160   1.5      SE     134     367       -22       0.3       0.1      55.1      9.06
   02/17/2020 00:50      45.8      45.4       90     42.9      0.00      7.54      59.9     0.46      1016.1     0.8       S   185   1.6       S     185     361       -23       0.4       0.0      55.4      9.06
   02/17/2020 00:40      46.0      45.4       90     42.8      0.00      7.54      59.9     0.46      1016.2     0.2      SE   128   1.1     SSE     156     354       -24       0.0       0.0      55.7      9.06
   02/17/2020 00:30      46.2      45.5       89     42.7      0.00      7.54      60.5     0.46      1016.3     0.5       S   171   1.6     SSW     198     346       -25       0.0       0.0      56.4      9.06
   02/17/2020 00:20      46.6      46.1       89     43.1      0.00      7.54      60.8     0.46      1016.3     0.2      SE   141   1.2      SE     141     345       -26       0.0       0.0      56.8      9.06
   02/17/2020 00:10      47.1      46.5       89     43.6      0.00      7.54      60.6     0.46      1016.5     0.2       S   189   1.2     SSW     195     340       -27       0.1       0.0      57.1      9.07
   02/17/2020 00:00      47.1      46.9       88     43.7      0.00      7.54      60.7     0.46      1016.5     0.4     SSE   156   1.1      SE     136     333       -28       0.0      17.9      57.2      9.07
   02/16/2020 23:50      47.4      47.0       88     43.8      0.00      7.54      60.6     0.46      1016.6     0.6     SSE   154   1.2     SSE     148     325       -30       0.3      17.9      57.5      9.07
   02/16/2020 23:40      47.4      46.8       88     43.7      0.00      7.54      60.6     0.46      1016.7     0.8     SSE   166   1.7     SSE     148     320       -31       0.2      17.8      57.7      9.07
   02/16/2020 23:30      47.4      46.9       88     43.6      0.00      7.54      60.8     0.46      1016.8     1.0       S   169   1.6       S     179     316       -32       0.7      17.8      58.0      9.07
   02/16/2020 23:20      47.5      46.7       87     43.2      0.00      7.54      60.8     0.46      1016.8     1.1       S   176   2.3     SSE     154     312       -34       0.6      17.6      58.3      9.07
   02/16/2020 23:10      48.0      47.6       87     44.1      0.00      7.54      60.7     0.46      1016.9     0.5     SSE   164   1.4      SE     139     307       -35       0.6      17.6      58.6      9.07
   02/16/2020 23:00      48.3      47.8       86     44.1      0.00      7.54      60.7     0.46      1016.9     0.6     SSE   159   1.5     SSE     147     302       -37       0.3      17.4      58.8      9.07
   02/16/2020 22:50      49.1      48.3       85     44.5      0.00      7.54      60.6     0.46      1017.0     0.5     SSE   155   1.6      SE     141     293       -38       0.1      17.4      59.3      9.07
   02/16/2020 22:40      49.1      48.7       84     44.3      0.00      7.54      60.8     0.46      1016.9     0.5     SSE   167   1.1       S     176     283       -41       0.2      17.4      59.6      9.07
   02/16/2020 22:30      49.4      49.1       84     44.5      0.00      7.54      60.7     0.46      1017.0     0.3     SSW   202   1.3      SW     220     279       -43       0.0      17.4      59.8      9.07
   02/16/2020 22:20      49.5      49.1       84     44.6      0.00      7.54      60.8     0.46      1017.0     0.3     WSW   256   1.9       W     260     277       -44       0.0      17.4      60.1      9.07
   02/16/2020 22:10      49.7      49.1       85     44.9      0.00      7.54      60.7     0.46      1017.0     1.1     SSE   165   2.0      SE     141     275       -45       0.6      17.4      60.4      9.07
   02/16/2020 22:00      49.8      49.4       85     45.3      0.00      7.54      60.6     0.46      1017.0     0.2      SW   219   1.7      SW     218     273       -47       0.0      17.3      60.8      9.07
   02/16/2020 21:50      49.8      49.3       85     45.2      0.00      7.54      60.8     0.46      1017.0     0.5     SSE   148   1.2     SSE     148     270       -50       0.0      17.2      61.0      9.07
   02/16/2020 21:40      50.0      49.5       84     45.2      0.00      7.54      60.8     0.46      1017.1     0.4     SSE   153   1.2     SSE     148     260       -53       0.0      17.2      61.4      9.07
   02/16/2020 21:30      50.1      49.8       84     45.3      0.00      7.54      60.7     0.46      1017.1     0.7     SSE   150   1.6     SSE     154     252       -54       0.4      17.2      61.5      9.07
   02/16/2020 21:20      50.5      49.9       83     45.2      0.00      7.54      60.7     0.46      1017.2     0.7     SSE   159   1.5     SSW     194     253       -56       0.2      17.2      61.8      9.08
   02/16/2020 21:10      51.0      50.3       82     45.3      0.00      7.54      60.7     0.46      1017.2     0.7     SSE   157   2.0      SE     142     259       -57       0.3      17.1      62.4      9.08
   02/16/2020 21:00      51.1      50.6       83     45.7      0.00      7.54      60.7     0.46      1017.2     1.2       S   179   2.1     SSW     201     266       -56       0.5      17.1      62.5      9.08
   02/16/2020 20:50      50.9      50.3       83     45.5      0.00      7.54      60.6     0.46      1017.3     0.4     SSE   157   1.2     SSE     168     253       -59       0.0      17.0      62.9      9.08
   02/16/2020 20:40      51.4      50.7       82     45.8      0.00      7.54      60.6     0.46      1017.3     0.4       S   175   1.4     SSE     149     256       -60       0.2      17.0      63.0      9.08
   02/16/2020 20:30      52.0      51.3       82     46.3      0.00      7.54      60.6     0.46      1017.4     0.8     SSE   163   1.6     SSW     197     260       -58       0.3      17.0      63.4      9.08
   02/16/2020 20:20      52.1      51.8       83     46.9      0.00      7.54      60.5     0.46      1017.3     0.4       S   169   1.5     SSW     196     256       -58       0.2      16.9      63.8      9.08
   02/16/2020 20:10      52.5      51.7       82     46.6      0.00      7.54      60.5     0.46      1017.2     0.4     SSE   160   1.3     SSE     152     255       -61       0.0      16.9      64.0      9.08
   02/16/2020 20:00      53.0      52.4       81     47.1      0.00      7.54      60.5     0.46      1017.2     0.3       S   172   1.2       S     173     258       -62       0.2      16.9      64.4      9.09
   02/16/2020 19:50      53.3      52.6       80     46.9      0.00      7.54      60.4     0.46      1017.2     0.8     SSW   195   1.9     SSW     191     264       -63       0.0      16.9      64.7      9.09
   02/16/2020 19:40      53.8      52.7       78     46.6      0.00      7.54      59.7     0.46      1017.3     0.4       S   177   1.4       S     177     268       -65       0.2      16.9      64.4      9.09
   02/16/2020 19:30      54.5      53.7       77     47.1      0.00      7.54      59.6     0.46      1017.1     2.2      SW   214   2.5      SW     223     269       -63       1.2      16.8      64.9      9.09
   02/16/2020 19:20      55.0      54.2       77     47.4      0.00      7.54      59.6     0.46      1017.1     1.2       S   186   2.1     SSW     194     269       -65       0.5      16.6      65.2      9.09
   02/16/2020 19:10      56.1      54.9       74     47.5      0.00      7.54      59.5     0.46      1017.0     1.0     SSW   193   1.8     SSW     206     269       -65       0.4      16.5      65.6      9.09
   02/16/2020 19:00      56.7      56.1       73     47.9      0.00      7.54      59.5     0.46      1016.9     0.0      SE   127   0.5       E      90     269       -69       0.0      16.5      65.9      9.09
   02/16/2020 18:50      57.7      56.7       71     48.0      0.00      7.54      59.4     0.46      1016.9     0.4       E    90   1.8       E      93     269       -71       0.1      16.5      66.3      9.09
   02/16/2020 18:40      58.5      57.4       71     48.5      0.00      7.54      59.4     0.46      1016.9     0.6     ENE    74   1.8     ENE      59     269       -71       0.0      16.5      66.5      9.10
   02/16/2020 18:30      59.5      58.4       69     48.7      0.00      7.54      59.3     0.46      1016.9     1.1      NE    56   1.9      NE      36     269       -72       0.0      16.4      66.8      9.10
   02/16/2020 18:20      60.5      59.4       66     48.5      0.00      7.54      59.2     0.46      1016.9     0.7      NE    51   2.2      NE      56     269       -73       0.0      16.4      67.1      9.10
   02/16/2020 18:10      61.1      60.3       64     48.4      0.00      7.54      59.1     0.46      1016.8     0.8     NNE    33   3.0     NNE      24     268       -74       0.2      16.4      67.4      9.10
   02/16/2020 18:00      62.0      61.0       62     48.1      0.00      7.54      59.1     0.46      1016.8     1.0      NE    41   2.8      NE      46     268       -75       0.1      16.4      67.7      9.10
   02/16/2020 17:50      62.7      61.7       60     48.0      0.00      7.54      59.1     0.46      1016.6     1.2     NNE    12   2.7     NNW     327     268       -75       0.1      16.4      68.0      9.10
   02/16/2020 17:40      63.8      62.6       58     48.3      0.00      7.54      58.9     0.46      1016.5     0.7     NNE    17   2.8       N       6     268       -74       0.0      16.4      68.3      9.10
   02/16/2020 17:30      64.4      63.7       57     48.7      0.00      7.54      58.8     0.46      1016.5     0.4     NNE    18   1.8       N     350     267       -70       0.0      16.4      68.5      9.11
   02/16/2020 17:20      65.5      64.3       56     48.8      0.00      7.54      58.8     0.46      1016.5     1.1      NE    35   2.5     NNE      22     267       -67       0.2      16.4      68.9      9.11
   02/16/2020 17:10      67.6      65.4       52     48.4      0.00      7.54      58.7     0.46      1016.4     2.2      NE    34   3.8     NNE      28     266       -64       0.7      16.3      69.1      9.11
   02/16/2020 17:00      69.4      67.6       48     48.0      0.00      7.54      58.6     0.46      1016.3     1.8     NNE    31   4.1     NNE      12     266       -37       0.4      16.2      69.3      9.11
   02/16/2020 16:50      70.0      68.7       43     46.1      0.00      7.54      58.5     0.46      1016.2     1.4     NNW   329   3.9     WNW     287     266        -9       1.2      16.2      69.5      9.11
   02/16/2020 16:40      69.0      68.2       48     48.0      0.00      7.54      58.7     0.46      1016.1     3.0     SSW   194   5.0     SSE     162     266        12       2.1      15.9      69.6      9.12
   02/16/2020 16:30      70.4      68.7       46     48.0      0.00      7.54      59.3     0.46      1016.2     2.9       S   188   5.0     SSW     193     266        36       2.2      15.6      70.4      9.12
   02/16/2020 16:20      70.8      70.4       43     47.0      0.00      7.54      59.2     0.46      1016.2     2.0      SW   227   6.5     SSW     196     266        59       1.5      15.2      70.3      9.12
   02/16/2020 16:10      71.8      70.5       39     45.0      0.00      7.54      59.1     0.46      1016.2     3.5      SW   232   5.3     WSW     244     266        85       2.5      15.0      70.3      9.12
   02/16/2020 16:00      72.4      71.9       36     43.5      0.00      7.54      59.0     0.46      1016.2     2.7      SW   217   6.1      SW     224     266       108       2.0      14.6      70.2      9.12
   02/16/2020 15:50      72.8      72.0       36     43.9      0.00      7.54      58.9     0.46      1016.1     3.5     WSW   255   7.5     WSW     245     266       134       2.6      14.2      70.0      9.13
   02/16/2020 15:40      73.6      72.3       35     43.9      0.00      7.54      58.8     0.46      1016.0     3.3     WNW   282   6.7       W     260     266       156       2.3      13.8      69.8      9.13
   02/16/2020 15:30      74.5      73.5       33     43.5      0.00      7.54      58.6     0.46      1016.0     2.8       W   280   7.4       W     260     265       178       2.1      13.4      69.5      9.13
   02/16/2020 15:20      75.0      74.3       32     42.5      0.00      7.54      58.5     0.46      1015.9     2.9     WNW   287   5.3     NNW     328     265       200       1.9      13.1      69.2      9.13
   02/16/2020 15:10      74.6      74.0       31     41.7      0.00      7.54      58.3     0.46      1015.9     2.9     WNW   291   6.3     WSW     253     265       221       2.0      12.8      68.9      9.13
   02/16/2020 15:00      74.5      73.7       28     39.4      0.00      7.54      58.2     0.45      1015.9     3.7     WNW   287   7.2       W     279     264       236       2.6      12.4      68.6      9.13
   02/16/2020 14:50      75.1      73.8       27     38.0      0.00      7.54      58.1     0.45      1015.9     5.0       W   272  10.5     WNW     293     264       256       3.4      12.0      68.1      9.13
   02/16/2020 14:40      75.4      74.8       26     38.3      0.00      7.54      57.9     0.45      1016.1     2.9     WNW   297   6.7      SW     234     264       268       1.6      11.4      67.8      9.14
   02/16/2020 14:30      75.7      74.7       27     39.3      0.00      7.54      57.9     0.45      1016.1     4.2     WSW   256   8.6      SW     225     264       293       3.3      11.2      67.3      9.14
   02/16/2020 14:20      75.1      73.8       27     38.7      0.00      7.54      57.7     0.45      1016.1     3.9     WSW   244   8.7     WNW     282     264       311       2.7      10.6      67.0      9.14
   02/16/2020 14:10      74.4      73.7       28     38.9      0.00      7.54      57.5     0.45      1016.1     4.6     SSW   195   7.9       S     177     264       325       3.3      10.2      66.3      9.14
   02/16/2020 14:00      74.0      73.3       28     38.9      0.00      7.54      57.4     0.45      1016.2     4.4     SSW   203   7.6     SSW     208     265       339       3.0       9.6      65.8      9.14
   02/16/2020 13:50      74.0      73.1       29     39.7      0.00      7.54      57.2     0.45      1016.4     4.2      SW   222   9.6     WSW     253     264       351       3.1       9.1      65.2      9.14
   02/16/2020 13:40      74.0      73.0       30     39.9      0.00      7.54      57.0     0.45      1016.5     3.8      SW   215   7.2      SW     236     265       361       2.8       8.6      64.6      9.15
   02/16/2020 13:30      74.0      73.0       30     39.9      0.00      7.54      57.1     0.45      1016.7     4.2      SW   220   9.0     SSW     197     264       372       3.1       8.1      64.0      9.15
   02/16/2020 13:20      73.5      72.8       30     40.0      0.00      7.54      56.9     0.45      1016.9     3.3     SSW   211   8.1      SW     223     265       379       2.5       7.6      63.4      9.15
   02/16/2020 13:10      73.5      72.8       30     40.2      0.00      7.54      56.9     0.45      1017.1     2.8      SW   235   6.5     SSW     210     264       387       2.1       7.2      62.6      9.15
   02/16/2020 13:00      73.2      72.1       31     40.3      0.00      7.54      56.9     0.45      1017.3     3.0       W   276   7.3      SW     220     264       395       2.2       6.8      62.0      9.15
   02/16/2020 12:50      72.4      71.5       30     38.7      0.00      7.54      56.8     0.45      1017.6     2.4     SSW   210   6.2     WSW     242     264       403       1.8       6.5      61.4      9.15
   02/16/2020 12:40      72.0      70.9       30     38.2      0.00      7.54      56.8     0.45      1017.8     3.8      SW   235   8.3     WSW     248     265       411       2.6       6.2      60.7      9.15
   02/16/2020 12:30      72.0      70.8       29     37.3      0.00      7.54      56.8     0.45      1018.0     2.7     WSW   242   8.1     SSW     210     264       415       2.1       5.7      60.1      9.15
   02/16/2020 12:20      71.1      70.2       28     36.4      0.00      7.54      56.8     0.45      1018.3     3.5      SW   234   5.8      SW     230     265       421       2.6       5.4      59.4      9.15
   02/16/2020 12:10      70.5      69.3       29     36.6      0.00      7.54      56.8     0.45      1018.4     2.9     SSW   195   7.4      SW     217     265       424       2.1       5.0      58.6      9.15
   02/16/2020 12:00      69.5      68.6       32     37.6      0.00      7.54      56.8     0.45      1018.7     3.5     WSW   240   6.3       S     178     266       423       2.5       4.6      58.0      9.15
   02/16/2020 11:50      69.1      68.1       32     37.3      0.00      7.54      56.9     0.45      1018.9     2.9     SSW   213   6.6      SW     219     265       423       2.1       4.2      57.4      9.15
   02/16/2020 11:40      68.5      67.7       32     37.5      0.00      7.54      56.9     0.45      1019.3     3.7      SW   220   6.7      SW     227     266       419       2.8       3.8      56.5      9.15
   02/16/2020 11:30      68.8      66.9       33     37.5      0.00      7.54      56.9     0.45      1019.6     2.2      SW   224   5.2      SW     228     265       414       1.6       3.4      55.9      9.15
   02/16/2020 11:20      67.5      66.7       36     39.0      0.00      7.54      56.9     0.45      1019.8     3.1      SW   234   5.7      SW     219     266       408       2.3       3.1      55.1      9.15
   02/16/2020 11:10      67.1      66.0       38     39.8      0.00      7.54      57.0     0.45      1020.0     1.9      SW   215   4.8      SW     217     266       400       1.4       2.7      54.5      9.15
   02/16/2020 11:00      66.9      65.5       38     40.1      0.00      7.54      57.0     0.45      1020.2     1.1       W   267   4.5       S     177     266       391       0.8       2.5      53.8      9.15
   02/16/2020 10:50      65.5      64.4       41     40.5      0.00      7.54      57.1     0.45      1020.3     1.1     NNW   330   2.2      NW     315     266       381       0.6       2.4      53.2      9.15
   02/16/2020 10:40      65.1      64.6       41     40.9      0.00      7.54      57.1     0.45      1020.5     1.3       N   359   3.3     NNW     343     266       373       0.6       2.3      52.5      9.15
   02/16/2020 10:30      64.8      63.4       42     40.6      0.00      7.54      57.2     0.45      1020.6     0.6      NW   323   2.6     NNE      15     266       363       0.6       2.2      52.0      9.15
   02/16/2020 10:20      63.5      61.9       45     40.7      0.00      7.54      57.3     0.45      1020.8     0.8       W   280   2.6      SW     230     266       350       0.7       2.1      51.4      9.15
   02/16/2020 10:10      62.4      61.8       46     40.8      0.00      7.54      57.3     0.45      1020.9     1.4     WNW   282   2.5       W     262     266       338       1.0       2.0      51.0      9.15
   02/16/2020 10:00      61.8      60.5       48     41.0      0.00      7.54      57.4     0.45      1021.1     0.8     NNW   337   2.7     NNW     339     266       323       0.4       1.8      50.5      9.15
   02/16/2020 09:50      60.5      59.9       49     41.2      0.00      7.54      57.4     0.45      1021.3     1.0       N   349   2.5       W     264     266       308       0.8       1.7      50.0      9.15
   02/16/2020 09:40      60.2      59.3       52     41.9      0.00      7.54      57.5     0.45      1021.5     0.8     NNW   330   2.2      NW     325     266       292       0.4       1.6      49.6      9.15
   02/16/2020 09:30      59.8      58.7       53     41.9      0.00      7.54      57.5     0.45      1021.5     0.5       N   357   2.1       N       2     266       275       0.5       1.5      49.2      9.15
   02/16/2020 09:20      59.2      58.0       54     42.1      0.00      7.54      57.6     0.45      1021.5     0.7     NNE    15   2.4     ENE      58     267       257       0.4       1.4      48.8      9.15
   02/16/2020 09:10      58.0      56.6       56     41.8      0.00      7.54      57.6     0.45      1021.7     0.5      NW   304   2.4     WNW     288     267       241       0.3       1.4      48.5      9.15
   02/16/2020 09:00      57.0      55.5       58     41.5      0.00      7.54      57.7     0.45      1021.8     0.7      NW   308   2.1      NW     309     267       221       0.3       1.3      48.3      9.15
   02/16/2020 08:50      55.7      55.3       60     41.7      0.00      7.54      57.8     0.45      1021.9     1.5     WNW   284   3.6       W     278     268       197       0.9       1.3      48.1      9.15
   02/16/2020 08:40      55.7      54.1       60     41.4      0.00      7.54      57.8     0.45      1022.0     0.5     NNW   345   2.0     WNW     294     268       171       0.0       1.1      47.9      9.15
   02/16/2020 08:30      54.3      53.5       64     41.9      0.00      7.54      57.8     0.45      1022.2     0.6     NNW   342   1.8      NW     308     275       163       0.0       1.1      47.8      9.15
   02/16/2020 08:20      53.9      53.3       65     42.2      0.00      7.54      57.8     0.45      1022.0     0.6     NNW   346   1.9       N     350     291       158       0.1       1.1      47.5      9.15
   02/16/2020 08:10      54.5      52.5       66     42.4      0.00      7.54      57.9     0.45      1022.0     0.3       N    11   1.4     NNE      11     318        78       0.0       1.1      47.4      9.15
   02/16/2020 08:00      52.5      48.8       75     43.1      0.00      7.54      57.9     0.45      1022.0     0.0     ESE   109   0.4     ESE     109     344       122       0.0       1.1      47.3      9.15
   02/16/2020 07:50      48.8      45.6       84     42.4      0.00      7.54      57.9     0.45      1022.0     0.4      SE   130   1.1      SE     128     360       114       0.0       1.1      47.1      9.15
   02/16/2020 07:40      45.6      43.6       89     41.3      0.00      7.54      58.0     0.45      1021.9     1.0      SE   136   1.8      SE     134     376       100       0.0       1.1      47.0      9.15
   02/16/2020 07:30      43.6      42.3       90     40.2      0.00      7.54      58.0     0.45      1021.8     1.2      SE   145   2.0      SE     138     385        10       0.0       1.1      46.9      9.15
   02/16/2020 07:20      42.3      41.4       90     39.3      0.00      7.54      58.0     0.45      1021.8     1.1      SE   145   1.8      SE     143     385         6       0.0       1.1      46.9      9.15
   02/16/2020 07:10      42.0      41.5       90     39.2      0.00      7.54      58.0     0.45      1021.6     1.0     SSE   159   1.8      SE     133     384         0       0.3       1.0      47.0      9.15
   02/16/2020 07:00      41.7      41.2       91     38.9      0.00      7.54      58.1     0.45      1021.5     0.5      SW   228   1.3     WSW     243     378        -6       0.1       1.0      47.1      9.15
   02/16/2020 06:50      41.7      41.2       90     38.9      0.00      7.54      58.1     0.45      1021.4     0.4     SSW   196   1.5     SSW     199     387       -11       0.3       1.0      47.2      9.15
   02/16/2020 06:40      41.9      41.3       90     38.9      0.00      7.54      58.1     0.45      1021.2     0.0      SE   136   1.1      SE     136     389       -16       0.0       0.9      47.3      9.15
   02/16/2020 06:30      42.0      41.5       90     39.0      0.00      7.54      58.2     0.45      1021.1     0.6     SSE   152   1.2      SE     136     382       -18       0.2       0.9      47.5      9.15
   02/16/2020 06:20      42.3      41.8       89     39.1      0.00      7.54      58.1     0.45      1021.3     0.2     SSE   166   1.2      SE     143     373       -18       0.0       0.9      47.7      9.15
   02/16/2020 06:10      42.5      42.1       89     39.4      0.00      7.54      58.2     0.45      1021.4     0.3     SSW   207   1.2     SSW     201     368       -19       0.0       0.9      47.8      9.16
   02/16/2020 06:00      42.6      42.1       89     39.5      0.00      7.54      58.2     0.45      1021.3     0.1     NNE    18   1.0     NNE      18     365       -19       0.0       0.9      48.0      9.16
   02/16/2020 05:50      42.8      42.1       90     39.9      0.00      7.54      58.3     0.45      1021.0     0.8     ESE   115   2.4      SE     142     369       -20       0.2       0.9      48.1      9.16
   02/16/2020 05:40      42.3      41.5       90     39.5      0.00      7.54      58.3     0.45      1021.0     1.4     SSE   153   2.3      SE     137     364       -20       0.2       0.9      48.2      9.16
   02/16/2020 05:30      42.1      41.4       89     38.8      0.00      7.54      58.3     0.45      1021.1     0.5     SSE   162   1.3     SSE     157     358       -20       0.3       0.8      48.4      9.16
   02/16/2020 05:20      42.8      41.8       89     39.1      0.00      7.54      58.3     0.45      1021.1     0.5       S   174   1.2       S     188     352       -21       0.3       0.8      48.6      9.16
   02/16/2020 05:10      42.8      42.3       88     39.3      0.00      7.54      58.3     0.45      1021.2     0.0       N     0   0.0       E      87     350       -21       0.0       0.7      48.8      9.16
   02/16/2020 05:00      43.3      42.6       88     39.4      0.00      7.54      58.4     0.46      1021.2     0.0     ENE    73   0.8       E      96     347       -22       0.0       0.7      49.0      9.16
   02/16/2020 04:50      43.6      43.2       89     40.3      0.00      7.54      58.3     0.46      1021.1     0.3      SE   126   1.0       E      81     346       -21       0.0       0.7      49.1      9.16
   02/16/2020 04:40      43.5      43.1       89     40.2      0.00      7.54      58.4     0.46      1021.2     0.0       W   260   0.2       W     260     339       -22       0.0       0.7      49.3      9.16
   02/16/2020 04:30      43.7      43.1       89     40.3      0.00      7.54      58.4     0.46      1021.2     0.7     SSE   150   1.2       S     173     337       -23       0.0       0.7      49.4      9.16
   02/16/2020 04:20      43.7      43.2       89     40.3      0.00      7.54      58.4     0.46      1021.4     0.8     SSE   155   1.6      SE     141     331       -23       0.4       0.7      49.6      9.16
   02/16/2020 04:10      43.4      42.6       89     40.0      0.00      7.54      58.5     0.46      1021.5     0.3     SSE   160   1.3     SSE     159     327       -24       0.1       0.6      49.7      9.16
   02/16/2020 04:00      43.4      42.7       88     39.8      0.00      7.54      58.5     0.46      1021.4     0.6     SSE   155   1.9       S     175     323       -25       0.2       0.6      49.9      9.16
   02/16/2020 03:50      43.7      43.0       88     39.7      0.00      7.54      58.5     0.46      1021.4     1.0     SSE   166   2.5       S     175     320       -26       0.8       0.6      50.0      9.16
   02/16/2020 03:40      43.9      43.6       88     40.3      0.00      7.54      58.5     0.46      1021.4     0.4       S   182   1.5     SSW     194     316       -25       0.1       0.4      50.3      9.16
   02/16/2020 03:30      44.0      43.6       88     40.4      0.00      7.54      58.6     0.46      1021.4     0.2     ESE   116   0.9       N       8     314       -27       0.0       0.4      50.5      9.16
   02/16/2020 03:20      43.9      43.6       87     40.2      0.00      7.54      58.6     0.46      1021.5     0.4     SSE   162   2.5      SE     141     308       -29       0.0       0.4      50.6      9.16
   02/16/2020 03:10      44.2      43.6       87     40.3      0.00      7.54      58.7     0.46      1021.7     1.2     SSE   155   2.6      SE     141     304       -29       0.2       0.4      50.9      9.16
   02/16/2020 03:00      44.1      43.7       88     40.6      0.00      7.54      58.5     0.46      1021.6     0.2       S   181   1.2     SSW     198     302       -30       0.3       0.4      50.8      9.16
   02/16/2020 02:50      44.2      43.7       87     40.2      0.00      7.54      58.5     0.46      1021.5     0.5     SSE   156   1.0     SSE     147     298       -31       0.2       0.3      51.0      9.16
   02/16/2020 02:40      44.4      44.0       87     40.5      0.00      7.54      58.5     0.46      1021.6     0.3       S   186   1.1      SE     141     292       -32       0.0       0.3      51.2      9.16
   02/16/2020 02:30      44.4      44.0       87     40.5      0.00      7.54      58.5     0.46      1021.7     0.2     SSW   200   1.0       S     180     289       -34       0.0       0.3      51.4      9.16
   02/16/2020 02:20      44.4      44.0       86     40.2      0.00      7.54      58.6     0.46      1021.6     0.0     SSE   148   0.8     SSE     148     285       -37       0.0       0.3      51.6      9.16
   02/16/2020 02:10      44.8      44.2       86     40.5      0.00      7.54      58.6     0.46      1021.7     0.0       S   182   0.5     WSW     238     278       -38       0.0       0.3      51.8      9.16
   02/16/2020 02:00      44.8      44.5       86     40.7      0.00      7.54      58.6     0.46      1021.7     0.1      SW   218   0.8      SW     218     272       -39       0.0       0.3      52.0      9.16
   02/16/2020 01:50      45.0      44.5       86     40.7      0.00      7.54      58.6     0.46      1021.7     0.0      SE   138   0.5      SE     138     269       -42       0.0       0.3      52.2      9.16
   02/16/2020 01:40      45.1      44.7       85     40.8      0.00      7.54      58.7     0.46      1021.6     0.7     SSE   158   1.3      SE     144     262       -43       0.3       0.3      52.3      9.16
   02/16/2020 01:30      45.1      44.6       85     40.6      0.00      7.54      58.7     0.46      1021.6     0.4     SSE   164   1.6       S     179     258       -45       0.2       0.3      52.6      9.16
   02/16/2020 01:20      45.8      44.8       84     40.4      0.00      7.54      58.7     0.46      1021.5     0.6       S   175   1.6       S     181     253       -47       0.4       0.2      52.8      9.16
   02/16/2020 01:10      46.1      45.6       83     40.9      0.00      7.54      58.7     0.46      1021.6     0.5       S   191   1.3       S     186     251       -47       0.3       0.2      53.1      9.16
   02/16/2020 01:00      46.3      45.9       83     41.1      0.00      7.54      58.8     0.46      1021.6     0.3     SSW   206   1.0     SSW     206     257       -49       0.0       0.1      53.3      9.16
   02/16/2020 00:50      46.1      45.6       82     40.8      0.00      7.54      58.8     0.46      1021.6     0.3       S   178   1.2       S     189     256       -50       0.1       0.1      53.5      9.16
   02/16/2020 00:40      46.4      45.9       82     40.9      0.00      7.54      58.8     0.46      1021.5     0.6       S   181   1.1       S     171     261       -51       0.2       0.0      53.7      9.16
   02/16/2020 00:30      46.4      45.5       83     41.2      0.00      7.54      58.8     0.46      1021.6     1.1     SSW   193   2.2      SW     227     266       -50       0.1       0.0      53.9      9.16
   02/16/2020 00:20      45.9      45.4       83     40.6      0.00      7.54      58.8     0.46      1021.5     1.0     SSE   159   1.7      SE     140     260       -52       0.2       0.0      54.1      9.16
   02/16/2020 00:10      46.6      45.5       81     40.5      0.00      7.54      58.8     0.46      1021.4     0.6     SSE   167   1.8       S     179     261       -52       0.0       0.0      54.4      9.16
   02/16/2020 00:00      47.0      46.4       80     40.7      0.00      7.54      59.6     0.46      1021.5     0.5     SSW   194   1.8     SSW     197     266       -52       0.3      14.9      55.3      9.17
   02/15/2020 23:50      47.4      46.9       79     40.9      0.00      7.54      59.9     0.46      1021.4     0.1     SSE   164   0.9     SSE     154     265       -52       0.0      14.8      55.8      9.17
   02/15/2020 23:40      47.5      47.0       79     41.0      0.00      7.54      59.9     0.46      1021.4     0.3       S   172   0.8       S     184     268       -52       0.0      14.8      56.0      9.17
   02/15/2020 23:30      48.0      47.2       77     40.8      0.00      7.54      59.5     0.46      1021.3     0.0       S   170   1.0       S     172     268       -52       0.0      14.8      55.9      9.17
   02/15/2020 23:20      48.1      47.8       78     41.2      0.00      7.54      59.0     0.46      1021.1     0.2     SSE   154   0.7     SSE     158     267       -52       0.0      14.8      55.7      9.17
   02/15/2020 23:10      48.1      47.8       78     41.2      0.00      7.54      59.0     0.46      1021.2     0.3       S   182   1.3     SSW     195     268       -52       0.0      14.8      56.0      9.17
   02/15/2020 23:00      48.3      47.8       77     41.1      0.00      7.54      59.0     0.46      1021.3     0.4      SE   143   1.6      SE     138     267       -53       0.0      14.8      56.1      9.17
   02/15/2020 22:50      48.1      47.5       78     41.4      0.00      7.54      59.0     0.46      1021.3     0.7     SSE   150   1.5      SE     133     268       -53       0.0      14.8      56.4      9.17
   02/15/2020 22:40      47.8      47.3       77     40.7      0.00      7.54      58.9     0.46      1021.4     0.3     SSE   162   1.1       S     170     267       -54       0.1      14.8      56.6      9.17
   02/15/2020 22:30      48.5      47.6       75     40.4      0.00      7.54      59.0     0.46      1021.4     0.7       S   173   1.6     SSW     209     268       -54       0.0      14.8      56.8      9.17
   02/15/2020 22:20      49.2      48.3       74     41.0      0.00      7.54      59.0     0.46      1021.5     0.8     SSE   167   1.5     SSE     168     268       -54       0.4      14.8      57.1      9.17
   02/15/2020 22:10      49.7      48.8       72     40.8      0.00      7.54      59.0     0.46      1021.4     1.1     SSE   167   2.1     SSW     196     268       -55       0.4      14.7      57.3      9.17
   02/15/2020 22:00      49.5      49.2       73     41.0      0.00      7.54      59.0     0.46      1021.4     1.1     SSW   204   2.1     SSW     198     269       -54       0.4      14.6      57.7      9.17
   02/15/2020 21:50      49.9      49.3       73     41.2      0.00      7.54      59.0     0.46      1021.3     0.3      SE   129   1.1      SE     140     268       -55       0.0      14.6      57.9      9.17
   02/15/2020 21:40      49.7      49.3       73     41.2      0.00      7.54      59.0     0.46      1021.3     0.8     SSE   155   1.5      SE     145     268       -55       0.0      14.6      58.1      9.17
   02/15/2020 21:30      50.1      49.3       71     40.6      0.00      7.54      59.0     0.46      1021.3     0.6     SSE   165   2.2       S     178     268       -56       0.1      14.6      58.4      9.17
   02/15/2020 21:20      50.9      50.0       70     41.1      0.00      7.54      58.9     0.46      1021.4     0.8     SSE   163   1.8       S     185     268       -56       0.3      14.5      58.6      9.17
   02/15/2020 21:10      51.4      50.8       69     41.1      0.00      7.54      59.0     0.46      1021.4     0.6       S   177   1.6     SSW     196     268       -56       0.2      14.5      59.0      9.17
   02/15/2020 21:00      51.6      51.1       68     41.2      0.00      7.54      59.0     0.46      1021.3     0.7       S   178   1.9     SSW     203     268       -57       0.2      14.5      59.2      9.18
   02/15/2020 20:50      52.4      51.3       66     40.9      0.00      7.54      59.0     0.46      1021.3     1.0     SSE   162   1.8      SE     141     268       -57       0.1      14.4      59.4      9.18
   02/15/2020 20:40      52.5      52.0       65     40.7      0.00      7.54      58.9     0.46      1021.4     0.6     SSW   206   1.6      SW     216     268       -57       0.3      14.4      59.7      9.18
   02/15/2020 20:30      53.3      52.4       64     40.9      0.00      7.54      59.1     0.46      1021.4     0.5       S   180   1.7      SW     231     268       -58       0.1      14.3      60.3      9.18
   02/15/2020 20:20      54.0      53.2       62     40.8      0.00      7.54      59.2     0.46      1021.4     0.6       S   183   2.0       S     178     268       -58       0.3      14.3      60.6      9.18
   02/15/2020 20:10      54.5      53.7       60     40.5      0.00      7.54      59.1     0.46      1021.3     0.6      SW   221   3.1      SW     218     268       -58       0.3      14.3      60.9      9.18
   02/15/2020 20:00      54.0      53.5       61     40.4      0.00      7.54      59.1     0.46      1021.2     0.9      SW   220   3.0     SSW     208     268       -58       0.6      14.2      61.2      9.18
   02/15/2020 19:50      55.4      53.7       58     40.0      0.00      7.54      59.1     0.46      1021.1     0.4     ESE   114   1.6      SE     138     268       -61       0.0      14.1      61.5      9.18
   02/15/2020 19:40      56.4      55.4       55     40.0      0.00      7.54      59.1     0.46      1021.1     1.3       S   184   3.0     SSW     207     268       -60       0.8      14.1      61.7      9.18
   02/15/2020 19:30      55.7      55.4       55     39.6      0.00      7.54      59.0     0.46      1020.9     1.6      SW   235   2.3      SW     226     268       -59       0.5      14.0      62.1      9.18
   02/15/2020 19:20      57.3      55.5       54     39.9      0.00      7.54      59.0     0.46      1020.6     0.5       E   100   1.2     ENE      77     267       -62       0.1      13.9      62.3      9.18
   02/15/2020 19:10      57.7      56.4       52     39.6      0.00      7.54      58.9     0.46      1020.3     1.1     SSW   201   2.7      SW     227     267       -63       0.6      13.9      62.6      9.18
   02/15/2020 19:00      57.4      56.3       55     40.5      0.00      7.54      58.9     0.46      1020.1     1.3     SSE   165   4.0     SSW     200     267       -63       1.0      13.8      62.9      9.19
   02/15/2020 18:50      58.0      57.4       51     39.9      0.00      7.54      58.8     0.46      1020.3     1.7     SSW   201   2.6      SW     218     267       -62       0.9      13.6      63.2      9.19
   02/15/2020 18:40      58.6      57.4       50     39.6      0.00      7.54      58.8     0.46      1020.3     1.1     SSW   196   2.0      SW     218     267       -63       1.1      13.5      63.5      9.19
   02/15/2020 18:30      59.8      58.7       47     39.1      0.00      7.54      58.7     0.46      1020.2     0.4     SSE   159   1.3     SSE     165     267       -66       0.1      13.3      63.8      9.19
   02/15/2020 18:20      60.1      59.4       46     38.6      0.00      7.54      58.6     0.46      1020.0     1.9     SSW   204   2.6     SSW     206     266       -65       1.1      13.3      64.2      9.19
   02/15/2020 18:10      61.1      59.9       44     38.5      0.00      7.54      58.6     0.46      1020.0     1.6      SW   220   2.3      SW     214     266       -68       0.7      13.1      64.5      9.19
   02/15/2020 18:00      61.8      61.0       44     39.1      0.00      7.54      58.5     0.46      1020.0     2.0      SW   233   3.9     WSW     238     266       -70       1.2      13.0      64.9      9.19
   02/15/2020 17:50      62.6      61.8       45     40.5      0.00      7.54      58.4     0.46      1019.8     2.3     WSW   240   3.7       W     262     266       -70       1.2      12.8      65.1      9.20
   02/15/2020 17:40      63.5      62.5       47     42.4      0.00      7.54      58.3     0.46      1019.9     1.3     WSW   240   2.7     WSW     246     266       -68       0.8      12.6      65.4      9.20
   02/15/2020 17:30      63.8      63.2       46     42.5      0.00      7.54      58.2     0.46      1019.7     1.6     WSW   252   3.0     WSW     241     266       -66       0.9      12.5      65.7      9.20
   02/15/2020 17:20      64.2      63.6       46     42.7      0.00      7.54      58.1     0.46      1019.5     3.0      SW   229   5.2       W     261     266       -63       1.9      12.3      66.0      9.20
   02/15/2020 17:10      65.4      64.2       45     43.0      0.00      7.54      58.0     0.46      1019.5     2.9      SW   232   4.7     WSW     237     266       -59       1.9      12.0      66.4      9.20
   02/15/2020 17:00      66.5      65.4       44     43.3      0.00      7.54      57.9     0.46      1019.5     2.8       W   270   5.1       W     276     266       -32       1.9      11.7      66.6      9.20
   02/15/2020 16:50      66.8      66.2       44     43.6      0.00      7.54      57.9     0.46      1019.6     2.1     WNW   298   5.6       W     274     266        -6       1.2      11.4      66.7      9.21
   02/15/2020 16:40      66.8      66.2       44     44.1      0.00      7.54      57.8     0.46      1019.6     2.5     WNW   295   5.3       N     355     266         7       1.8      11.2      66.8      9.21
   02/15/2020 16:30      66.9      66.3       45     44.4      0.00      7.54      57.8     0.46      1019.5     3.1     WNW   290   6.8       N     351     266        -0       1.7      10.9      66.9      9.21
   02/15/2020 16:20      67.9      66.8       45     45.0      0.00      7.54      57.7     0.46      1019.5     2.8      NW   306   6.0       W     273     266         0       1.3      10.6      67.0      9.21
   02/15/2020 16:10      69.3      67.8       43     45.2      0.00      7.54      57.8     0.46      1019.5     2.6     WNW   303   6.9       W     274     266         3       1.9      10.4      67.1      9.21
   02/15/2020 16:00      70.1      69.3       40     44.5      0.00      7.54      57.7     0.46      1019.6     3.2     WSW   258   8.1     WSW     245     266       103       2.3      10.1      67.1      9.22
   02/15/2020 15:50      70.4      69.6       36     41.8      0.00      7.54      57.6     0.45      1019.6     3.4     WSW   244   7.2       W     268     265       135       2.5       9.7      66.9      9.22
   02/15/2020 15:40      70.5      69.7       34     40.4      0.00      7.54      57.6     0.46      1019.6     2.2     SSW   210   5.4     WSW     256     265       163       1.6       9.3      66.8      9.22
   02/15/2020 15:30      69.9      69.3       35     41.0      0.00      7.54      57.5     0.45      1019.5     3.3       S   182   6.2     SSW     202     265       191       2.5       9.0      66.8      9.22
   02/15/2020 15:20      69.3      68.7       36     41.1      0.00      7.54      57.5     0.45      1019.4     4.0     SSE   166   7.0       S     184     265       167       2.5       8.6      66.6      9.22
   02/15/2020 15:10      69.8      68.9       35     40.9      0.00      7.54      57.5     0.45      1019.4     4.5       S   178   7.6       S     179     265       110       3.2       8.2      66.5      9.22
   02/15/2020 15:00      71.3      69.4       34     40.8      0.00      7.54      57.5     0.45      1019.4     5.1     SSE   159   8.9      SE     134     264       248       3.1       7.6      66.3      9.23
   02/15/2020 14:50      71.6      70.7       33     40.3      0.00      7.54      57.4     0.45      1019.5     3.6     SSW   196   7.8      SE     142     264       237       2.5       7.1      65.9      9.23
   02/15/2020 14:40      72.9      71.3       30     39.1      0.00      7.54      57.5     0.45      1019.5     3.4      SW   223   5.9     SSE     160     263       293       2.7       6.7      65.4      9.23
   02/15/2020 14:30      73.0      72.2       29     38.8      0.00      7.54      57.4     0.45      1019.6     1.3      NW   325   2.7       W     279     263       283       1.2       6.2      64.9      9.23
   02/15/2020 14:20      72.3      71.0       30     38.8      0.00      7.54      57.5     0.45      1019.7     1.3       N   351   3.2       N       6     263       289       0.8       6.0      64.6      9.23
   02/15/2020 14:10      72.2      71.2       30     38.5      0.00      7.54      57.5     0.45      1019.7     2.5     NNE    14   4.4      NE      36     263       303       0.9       5.9      64.2      9.23
   02/15/2020 14:00      72.3      71.5       30     39.0      0.00      7.54      57.4     0.45      1019.8     1.9     NNE    19   4.8       N      11     263       320       1.0       5.8      63.7      9.23
   02/15/2020 13:50      73.1      71.9       30     39.7      0.00      7.54      57.5     0.45      1019.9     1.3      NE    39   5.0      NE      41     263       303       1.0       5.6      63.2      9.23
   02/15/2020 13:40      72.3      71.4       30     38.7      0.00      7.54      57.4     0.45      1020.0     1.6     ENE    74   3.9       N       0     263       351       0.9       5.4      62.6      9.23
   02/15/2020 13:30      72.4      71.2       29     37.5      0.00      7.54      57.4     0.45      1020.2     1.4     ENE    62   3.8      SE     141     263       358       0.9       5.3      62.2      9.23
   02/15/2020 13:20      72.5      71.0       29     38.2      0.00      7.54      57.5     0.45      1020.3     1.3       N     2   4.9     NNE      20     264       373       0.8       5.1      61.6      9.23
   02/15/2020 13:10      70.9      69.8       30     37.8      0.00      7.54      57.5     0.45      1020.5     1.3       N     0   4.3      NE      47     264       338       1.2       5.0      61.1      9.23
   02/15/2020 13:00      70.6      69.3       31     37.7      0.00      7.54      57.6     0.45      1020.6     1.9      NE    51   4.3       E      88     264       391       0.8       4.8      60.5      9.23
   02/15/2020 12:50      70.4      69.2       31     37.7      0.00      7.54      57.5     0.45      1020.9     3.1       E    82   5.8     ENE      75     264       396       1.6       4.7      59.9      9.24
   02/15/2020 12:40      70.4      69.1       31     37.5      0.00      7.54      57.6     0.45      1021.1     1.5       E    91   3.9     SSE     159     264       406       1.0       4.4      59.5      9.24
   02/15/2020 12:30      69.6      68.7       31     37.4      0.00      7.54      57.5     0.45      1021.3     1.6     ESE   122   3.7     ENE      66     264       378       1.2       4.2      58.8      9.24
   02/15/2020 12:20      70.1      68.8       30     37.1      0.00      7.54      57.6     0.45      1021.4     2.3     ENE    69   4.4     NNW     343     264       343       0.9       4.0      58.2      9.24
   02/15/2020 12:10      70.1      68.5       31     37.2      0.00      7.54      57.6     0.45      1021.6     1.4     NNE    25   3.9     NNE      24     264       415       0.7       3.9      57.5      9.24
   02/15/2020 12:00      69.1      67.6       31     36.7      0.00      7.54      57.7     0.45      1021.7     1.2     NNE    13   3.1       N     355     264       414       0.8       3.8      56.8      9.24
   02/15/2020 11:50      68.3      67.4       32     36.6      0.00      7.54      57.7     0.45      1021.7     1.8     NNE    26   4.1     NNE      33     264       410       0.8       3.6      56.2      9.24
   02/15/2020 11:40      68.5      67.4       32     36.9      0.00      7.54      57.7     0.45      1021.9     1.9       N     6   4.6      NW     309     264       399       1.0       3.5      55.4      9.23
   02/15/2020 11:30      68.3      67.1       32     37.0      0.00      7.54      57.6     0.45      1022.1     1.0      NW   307   3.6     ENE      71     264       394       0.6       3.4      54.6      9.23
   02/15/2020 11:20      67.3      66.6       32     36.5      0.00      7.54      57.6     0.45      1022.2     1.3     ESE   123   3.0       E      80     264       395       0.9       3.3      53.9      9.24
   02/15/2020 11:10      66.6      65.3       34     36.7      0.00      7.54      57.6     0.45      1022.3     1.4     WNW   293   3.2     WSW     252     264       392       1.4       3.1      53.0      9.24
   02/15/2020 11:00      65.5      64.4       35     36.6      0.00      7.54      57.4     0.45      1022.4     1.2       N   356   3.4     NNE      12     265       387       0.9       2.9      52.2      9.24
   02/15/2020 10:50      64.7      63.8       35     36.4      0.00      7.54      56.8     0.45      1022.5     1.7       W   277   3.3      NW     311     264       379       1.6       2.7      51.0      9.24
   02/15/2020 10:40      64.0      63.3       36     35.9      0.00      7.54      56.9     0.45      1022.6     1.1       N     6   2.5       N      10     265       368       0.7       2.5      50.4      9.24
   02/15/2020 10:30      63.5      62.7       37     36.3      0.00      7.54      56.9     0.45      1022.7     1.0       N     2   2.6     NNE      12     265       359       0.7       2.3      49.8      9.24
   02/15/2020 10:20      63.1      62.2       38     37.1      0.00      7.54      56.9     0.45      1022.7     1.2       N   360   2.6       N     352     265       348       0.6       2.2      49.2      9.24
   02/15/2020 10:10      62.5      61.5       40     37.3      0.00      7.54      56.8     0.45      1022.9     0.8     NNW   337   2.7     ENE      63     265       333       0.6       2.1      48.7      9.23
   02/15/2020 10:00      61.6      60.4       42     37.9      0.00      7.54      56.9     0.45      1022.9     0.8     NNW   334   2.5     NNW     336     265       320       0.5       2.0      48.1      9.24
   02/15/2020 09:50      60.4      59.1       44     37.5      0.00      7.54      56.9     0.45      1022.9     1.2     NNE    18   3.2     NNE      13     266       305       0.5       2.0      47.6      9.24
   02/15/2020 09:40      60.0      59.2       44     37.7      0.00      7.54      56.9     0.45      1022.9     1.4      NW   317   3.4       W     259     266       290       0.7       1.9      47.2      9.24
   02/15/2020 09:30      60.1      58.7       45     38.1      0.00      7.54      57.0     0.45      1022.9     0.6     WNW   293   1.6     NNE      18     266       273       0.3       1.8      46.7      9.24
   02/15/2020 09:20      58.9      58.0       47     38.4      0.00      7.54      57.0     0.45      1022.9     0.7     NNE    18   1.9     NNE      13     266       258       0.3       1.7      46.3      9.24
   02/15/2020 09:10      57.9      57.3       49     38.8      0.00      7.54      56.7     0.45      1022.9     0.5       N   358   1.7     NNW     329     266       241       0.0       1.7      45.6      9.24
   02/15/2020 09:00      58.0      57.0       48     37.8      0.00      7.54      56.7     0.45      1023.0     0.5       N   359   2.3     NNE      20     266       221       0.2       1.6      45.4      9.24
   02/15/2020 08:50      57.5      55.0       50     38.0      0.00      7.54      56.7     0.45      1023.1     0.2      SE   133   1.0       S     170     267       196       0.2       1.6      45.0      9.24
   02/15/2020 08:40      55.2      52.6       57     38.8      0.00      7.54      56.8     0.45      1023.0     0.6     ESE   116   1.6      SE     132     268       168       0.5       1.6      44.9      9.24
   02/15/2020 08:30      52.8      50.8       62     39.0      0.00      7.54      56.8     0.45      1022.9     1.7      SE   135   2.7      SE     133     284       153       0.9       1.5      44.7      9.24
   02/15/2020 08:20      50.8      50.1       66     39.5      0.00      7.54      56.9     0.45      1022.9     1.8      SE   138   2.7      SE     145     297       157       0.6       1.3      44.4      9.24
   02/15/2020 08:10      50.0      47.8       69     39.1      0.00      7.54      56.9     0.45      1022.9     0.7     WSW   258   1.6     WSW     254     328        72       0.2       1.2      44.3      9.24
   02/15/2020 08:00      47.9      45.5       74     38.8      0.00      7.54      56.9     0.45      1022.7     1.3     WSW   248   2.7     WSW     255     350       125       0.7       1.2      44.1      9.24
   02/15/2020 07:50      45.6      42.6       84     39.5      0.00      7.54      56.9     0.45      1022.5     0.6       W   260   2.2     WSW     251     367       122       0.3       1.1      43.9      9.24
   02/15/2020 07:40      42.5      40.3       89     38.3      0.00      7.54      57.0     0.45      1022.3     0.6     NNW   341   2.1     WNW     296     374        85       0.0       1.0      43.8      9.24
   02/15/2020 07:30      40.4      39.9       90     37.4      0.00      7.54      57.2     0.45      1022.0     0.0     ENE    66   0.2     ENE      66     379         8       0.1       1.0      43.8      9.24
   02/15/2020 07:20      40.0      39.1       91     37.0      0.00      7.54      57.3     0.45      1021.9     0.3     NNE    12   1.4       N       3     378         5       0.0       1.0      44.1      9.24
   02/15/2020 07:10      39.2      38.8       91     36.5      0.00      7.54      57.4     0.45      1021.7     0.5     SSE   155   1.4      SE     135     376        -1       0.0       1.0      44.0      9.24
   02/15/2020 07:00      39.0      37.9       91     36.0      0.00      7.54      57.5     0.45      1021.7     1.2     SSE   158   2.0       S     169     372        -7       0.3       1.0      44.2      9.24
   02/15/2020 06:50      38.9      38.1       91     36.1      0.00      7.54      57.6     0.45      1021.8     1.1       S   181   2.0       S     182     368       -12       0.6       1.0      44.4      9.24
   02/15/2020 06:40      38.7      38.4       91     36.1      0.00      7.54      57.6     0.45      1021.7     0.1       S   187   1.2       S     185     364       -17       0.2       0.9      44.6      9.24
   02/15/2020 06:30      38.7      38.2       90     35.9      0.00      7.54      57.8     0.45      1021.5     0.0       N     0   0.0       E      90     365       -20       0.0       0.8      44.9      9.24
   02/15/2020 06:20      39.0      38.3       91     36.2      0.00      7.54      58.1     0.45      1021.4     0.0     SSW   192   0.7     SSW     199     363       -20       0.0       0.8      45.2      9.24
   02/15/2020 06:10      38.5      38.2       90     35.7      0.00      7.54      58.0     0.45      1021.3     0.0       N     0   0.0      SE     141     360       -21       0.0       0.8      45.4      9.24
   02/15/2020 06:00      39.0      38.0       90     35.7      0.00      7.54      58.1     0.45      1021.3     0.6     SSE   147   1.3      SE     145     356       -21       0.1       0.8      45.5      9.24
   02/15/2020 05:50      39.1      38.7       90     36.2      0.00      7.54      58.1     0.45      1021.3     0.3       S   175   1.3       S     186     352       -21       0.0       0.8      45.8      9.24
   02/15/2020 05:40      39.5      38.9       90     36.4      0.00      7.54      58.2     0.45      1021.3     0.2     SSE   161   0.9     SSE     168     346       -22       0.0       0.8      46.0      9.24
   02/15/2020 05:30      39.6      39.3       89     36.5      0.00      7.54      58.2     0.45      1021.3     0.0       N     0   0.0     SSE     149     342       -23       0.0       0.8      46.2      9.24
   02/15/2020 05:20      40.1      39.5       89     36.9      0.00      7.54      58.2     0.45      1021.1     0.0     SSE   152   0.4     SSE     152     339       -24       0.0       0.8      46.3      9.24
   02/15/2020 05:10      40.1      39.8       89     37.1      0.00      7.54      58.2     0.45      1021.1     0.0     SSW   211   0.7     SSW     213     334       -24       0.0       0.8      46.6      9.24
   02/15/2020 05:00      40.3      39.8       89     37.0      0.00      7.54      58.2     0.45      1021.1     0.0     SSW   207   0.5     SSW     207     329       -26       0.0       0.8      46.7      9.24
   02/15/2020 04:50      40.2      39.8       89     37.1      0.00      7.54      58.3     0.45      1021.2     0.5      SE   138   1.1      SE     133     325       -27       0.0       0.8      46.8      9.24
   02/15/2020 04:40      40.2      39.5       89     36.8      0.00      7.54      58.2     0.45      1021.3     0.5     SSE   168   1.8       S     186     320       -28       0.2       0.8      47.0      9.24
   02/15/2020 04:30      40.4      40.0       88     36.9      0.00      7.54      58.4     0.45      1021.3     0.7       S   176   1.5       S     184     315       -28       0.4       0.7      47.3      9.24
   02/15/2020 04:20      40.5      39.9       87     36.7      0.00      7.54      58.3     0.45      1021.2     0.0     ENE    68   0.4     ENE      68     310       -31       0.0       0.7      47.5      9.24
   02/15/2020 04:10      41.1      40.4       87     37.4      0.00      7.54      58.3     0.45      1021.1     0.6     ESE   118   1.3     SSE     149     307       -32       0.1       0.7      47.7      9.24
   02/15/2020 04:00      41.0      40.5       88     37.4      0.00      7.54      58.3     0.46      1021.1     0.9     SSW   207   1.7     WSW     240     301       -33       0.2       0.6      47.8      9.24
   02/15/2020 03:50      40.8      40.3       88     37.1      0.00      7.54      58.0     0.46      1021.1     0.3     SSE   165   1.0     SSE     168     298       -36       0.2       0.6      47.8      9.24
   02/15/2020 03:40      40.6      40.3       87     36.8      0.00      7.54      58.0     0.46      1021.2     0.4     SSE   159   1.7      SE     143     293       -38       0.2       0.6      48.0      9.24
   02/15/2020 03:30      41.0      40.3       86     36.6      0.00      7.54      58.0     0.45      1021.1     0.4     SSE   152   1.2     SSE     154     288       -40       0.0       0.6      48.2      9.24
   02/15/2020 03:20      41.5      40.8       85     37.0      0.00      7.54      58.0     0.46      1021.2     0.7     SSE   157   0.9     SSE     162     282       -42       0.0       0.6      48.4      9.24
   02/15/2020 03:10      41.9      41.3       85     37.4      0.00      7.54      58.1     0.46      1021.1     0.0     SSE   158   0.5     SSE     158     275       -44       0.0       0.6      48.6      9.24
   02/15/2020 03:00      41.7      41.3       85     37.2      0.00      7.54      58.1     0.46      1021.0     0.0       N     0   0.0     SSE     152     271       -47       0.0       0.6      48.8      9.24
   02/15/2020 02:50      41.9      41.4       84     37.3      0.00      7.54      58.1     0.46      1020.9     0.3     SSE   148   1.2      SE     144     263       -49       0.0       0.6      49.0      9.24
   02/15/2020 02:40      42.4      41.5       84     37.4      0.00      7.54      58.1     0.46      1021.0     0.8     SSE   164   1.7       S     181     256       -51       0.2       0.6      49.2      9.24
   02/15/2020 02:30      42.0      41.5       82     36.8      0.00      7.54      58.1     0.46      1021.0     1.0     SSE   147   2.7     SSE     152     255       -54       0.2       0.5      49.4      9.24
   02/15/2020 02:20      43.0      42.0       81     37.0      0.00      7.54      58.1     0.46      1021.0     1.3      SE   146   2.1      SE     142     259       -53       0.4       0.5      49.6      9.24
   02/15/2020 02:10      43.3      42.1       83     37.9      0.00      7.54      58.2     0.46      1021.0     1.5     SSW   208   3.0      SW     224     266       -52       0.7       0.4      49.9      9.24
   02/15/2020 02:00      42.8      42.0       81     36.8      0.00      7.54      58.2     0.46      1021.0     0.6     SSE   157   1.6      SE     135     258       -55       0.0       0.3      50.1      9.24
   02/15/2020 01:50      42.9      42.3       81     37.2      0.00      7.54      58.2     0.46      1021.0     0.7     SSW   205   2.1      SW     219     270       -54       0.2       0.3      50.4      9.24
   02/15/2020 01:40      42.9      42.4       80     36.9      0.00      7.54      58.2     0.46      1021.0     0.0     ENE    66   0.5     ENE      65     262       -55       0.2       0.3      50.5      9.24
   02/15/2020 01:30      43.7      42.8       80     37.5      0.00      7.54      58.3     0.46      1021.0     0.8      SE   137   1.8      SE     143     262       -55       0.1       0.2      50.8      9.24
   02/15/2020 01:20      43.7      43.1       81     37.9      0.00      7.54      58.3     0.46      1021.0     0.6     SSE   159   1.5     SSE     147     265       -54       0.0       0.2      50.9      9.24
   02/15/2020 01:10      43.3      42.8       80     37.5      0.00      7.54      58.3     0.46      1021.0     0.9       S   176   2.0      SE     142     267       -55       0.0       0.2      51.1      9.24
   02/15/2020 01:00      43.3      43.0       80     37.5      0.00      7.54      58.3     0.46      1021.0     0.8     SSE   165   2.0      SE     140     269       -55       0.5       0.2      51.4      9.25
   02/15/2020 00:50      44.3      43.1       79     37.8      0.00      7.54      58.4     0.46      1020.9     0.7     SSE   147   1.5     SSE     150     264       -55       0.3       0.1      51.7      9.25
   02/15/2020 00:40      44.3      44.0       80     38.4      0.00      7.54      58.3     0.46      1020.8     0.3       S   179   1.1       S     191     263       -54       0.2       0.0      51.9      9.25
   02/15/2020 00:30      44.5      43.9       80     38.3      0.00      7.54      58.4     0.46      1020.8     0.2     SSE   166   0.9     SSE     165     266       -55       0.0       0.0      52.1      9.25
   02/15/2020 00:20      44.8      44.5       78     38.3      0.00      7.54      58.4     0.46      1020.7     0.5     SSE   161   1.1      SE     145     269       -55       0.0       0.0      52.4      9.25
   02/15/2020 00:10      45.1      44.6       78     38.5      0.00      7.54      58.5     0.46      1020.6     0.5       S   179   1.6      SE     136     271       -56       0.2       0.0      52.6      9.25
   02/15/2020 00:00      45.1      44.4       79     38.5      0.00      7.54      58.4     0.46      1020.5     0.5       S   186   1.1      NW     318     267       -55       0.1      14.7      52.8      9.25
   02/14/2020 23:50      45.6      44.7       76     38.1      0.00      7.54      58.4     0.46      1020.6     0.3      SE   131   1.1      SE     137     269       -56       0.0      14.7      53.1      9.25
   02/14/2020 23:40      46.1      45.5       75     38.4      0.00      7.54      58.5     0.46      1020.6     0.2     SSE   148   1.2      SE     137     270       -56       0.0      14.7      53.4      9.25
   02/14/2020 23:30      46.1      45.4       75     38.1      0.00      7.54      58.5     0.46      1020.8     0.3     SSW   193   2.6     SSW     201     271       -56       0.1      14.7      53.6      9.25
   02/14/2020 23:20      46.1      45.5       73     37.7      0.00      7.54      58.5     0.46      1020.8     0.1     ESE   101   0.8       E      94     270       -56       0.0      14.6      53.9      9.25
   02/14/2020 23:10      46.7      45.8       72     37.8      0.00      7.54      58.4     0.46      1020.8     0.2     SSE   156   1.0     SSE     150     270       -57       0.0      14.6      54.1      9.25
   02/14/2020 23:00      46.9      45.9       71     37.6      0.00      7.54      58.5     0.46      1020.7     0.1       S   174   1.1       S     186     270       -58       0.0      14.6      54.4      9.25
   02/14/2020 22:50      47.5      46.3       72     38.2      0.00      7.54      58.5     0.46      1020.7     0.5     SSE   160   1.5       S     189     270       -58       0.0      14.6      54.6      9.25
   02/14/2020 22:40      47.4      46.4       70     37.6      0.00      7.54      58.5     0.46      1020.6     0.7     SSE   153   1.4       S     171     270       -59       0.1      14.6      54.8      9.25
   02/14/2020 22:30      47.8      47.4       69     38.0      0.00      7.54      58.5     0.46      1020.5     0.5      SE   144   1.2     SSE     151     270       -59       0.0      14.6      55.0      9.25
   02/14/2020 22:20      47.6      47.2       70     38.1      0.00      7.54      58.5     0.46      1020.5     0.2     SSW   192   1.0     SSW     196     270       -59       0.2      14.6      55.4      9.25
   02/14/2020 22:10      48.1      47.4       69     38.1      0.00      7.54      58.5     0.46      1020.5     0.3     SSE   162   1.2      SE     141     270       -59       0.0      14.6      55.6      9.25
   02/14/2020 22:00      48.8      47.6       68     37.9      0.00      7.54      58.5     0.46      1020.4     0.2     SSE   160   0.8     SSE     151     269       -60       0.0      14.6      55.9      9.26
   02/14/2020 21:50      49.2      48.7       67     38.3      0.00      7.54      58.5     0.46      1020.4     0.4      SE   143   1.0     SSE     146     269       -60       0.0      14.6      56.1      9.26
   02/14/2020 21:40      49.8      48.8       66     38.4      0.00      7.54      58.5     0.46      1020.3     0.3      SE   145   1.1     SSW     203     269       -60       0.2      14.5      56.4      9.26
   02/14/2020 21:30      49.2      48.8       67     38.3      0.00      7.54      58.5     0.46      1020.3     0.6      SE   142   1.3      SE     144     269       -60       0.0      14.5      56.7      9.26
   02/14/2020 21:20      49.0      48.7       67     38.3      0.00      7.54      58.5     0.46      1020.2     0.0     SSE   151   0.9      SE     143     269       -60       0.1      14.5      56.9      9.26
   02/14/2020 21:10      49.9      48.7       65     38.1      0.00      7.54      58.5     0.46      1020.2     0.4     SSE   155   1.1     SSE     164     268       -61       0.0      14.5      57.1      9.26
   02/14/2020 21:00      50.5      49.8       63     38.3      0.00      7.54      58.4     0.46      1020.2     0.6      SE   146   1.8      SE     137     268       -61       0.3      14.5      57.5      9.26
   02/14/2020 20:50      50.6      50.3       63     38.1      0.00      7.54      58.4     0.46      1020.1     0.3       S   173   1.3       S     183     268       -62       0.3      14.4      57.8      9.26
   02/14/2020 20:40      51.8      50.6       60     37.8      0.00      7.54      58.5     0.46      1020.0     0.9     SSW   213   2.4      SW     224     268       -62       0.2      14.4      58.0      9.26
   02/14/2020 20:30      51.8      51.2       60     38.0      0.00      7.54      58.4     0.46      1019.8     0.4      SW   222   1.9     SSW     212     268       -63       0.1      14.3      58.5      9.26
   02/14/2020 20:20      52.5      51.4       58     37.9      0.00      7.54      58.4     0.46      1019.6     0.0      SE   138   0.6      SE     138     268       -65       0.1      14.3      58.7      9.26
   02/14/2020 20:10      54.1      52.5       56     38.0      0.00      7.54      58.4     0.46      1019.5     0.9     SSE   150   2.3     SSW     200     268       -66       0.0      14.3      59.0      9.26
   02/14/2020 20:00      54.0      51.9       56     37.8      0.00      7.54      58.4     0.46      1019.5     1.5       S   173   2.9       S     187     268       -65       0.7      14.3      59.3      9.27
   02/14/2020 19:50      52.9      52.0       56     37.3      0.00      7.54      58.3     0.46      1019.4     0.5     SSE   149   1.5       S     172     268       -65       0.0      14.2      59.5      9.27
   02/14/2020 19:40      53.3      52.8       56     37.9      0.00      7.54      58.4     0.46      1019.4     0.3     SSE   152   1.3      SE     146     268       -66       0.0      14.2      59.9      9.27
   02/14/2020 19:30      54.2      53.3       55     38.1      0.00      7.54      58.3     0.46      1019.2     0.0       S   184   0.8       S     178     268       -67       0.0      14.2      60.2      9.27
   02/14/2020 19:20      55.1      54.1       55     38.6      0.00      7.54      58.7     0.46      1019.0     0.5     SSW   198   1.5     SSW     202     268       -68       0.2      14.1      60.8      9.27
   02/14/2020 19:10      56.3      55.0       53     38.7      0.00      7.54      58.6     0.46      1018.9     0.3       S   182   1.5     SSW     193     267       -70       0.1      14.1      61.2      9.27
   02/14/2020 19:00      57.1      56.3       50     38.4      0.00      7.54      58.6     0.46      1018.8     0.3      SE   131   1.4     SSE     161     267       -71       0.0      14.1      61.6      9.27
   02/14/2020 18:50      57.3      57.0       48     37.5      0.00      7.54      58.6     0.46      1018.6     1.7     SSW   206   3.2       S     187     267       -72       0.8      14.1      61.8      9.28
   02/14/2020 18:40      57.7      57.0       48     37.7      0.00      7.54      58.5     0.46      1018.6     2.1     SSW   210   3.3      SW     221     267       -72       1.2      13.9      62.1      9.28
   02/14/2020 18:30      57.9      57.4       49     38.4      0.00      7.54      58.4     0.46      1018.5     2.1     WSW   244   4.7     WSW     251     267       -72       0.9      13.7      62.4      9.28
   02/14/2020 18:20      58.3      57.5       51     39.9      0.00      7.54      58.4     0.46      1018.4     1.1     SSW   207   2.1      SW     226     267       -73       0.6      13.6      62.7      9.28
   02/14/2020 18:10      59.6      58.0       48     39.3      0.00      7.54      58.3     0.46      1018.2     1.9     SSW   208   2.8     SSW     195     266       -74       1.2      13.5      63.1      9.28
   02/14/2020 18:00      60.4      59.5       46     39.2      0.00      7.54      58.3     0.46      1018.2     2.4     WSW   243   4.5       W     263     266       -77       1.5      13.3      63.6      9.28
   02/14/2020 17:50      60.6      60.3       45     39.1      0.00      7.54      58.3     0.46      1018.1     2.2     WNW   289   4.1     WNW     288     266       -77       1.2      13.0      63.9      9.29
   02/14/2020 17:40      61.3      60.5       44     38.8      0.00      7.54      58.2     0.46      1018.0     2.4     WNW   286   5.3      NW     315     266       -76       1.7      12.8      64.3      9.29
   02/14/2020 17:30      62.5      61.3       42     38.3      0.00      7.54      58.1     0.46      1017.8     3.2     WNW   296   7.2     WSW     245     266       -73       2.2      12.6      64.7      9.29
   02/14/2020 17:20      63.8      62.3       41     38.8      0.00      7.54      58.0     0.46      1017.5     2.6     WNW   296   5.6     WNW     283     266       -70       2.0      12.2      65.1      9.29
   02/14/2020 17:10      64.6      63.8       41     39.7      0.00      7.54      58.0     0.46      1017.2     2.8     WSW   240   4.7     WSW     239     266       -65       1.8      11.9      65.5      9.30
   02/14/2020 17:00      65.4      64.6       39     39.3      0.00      7.54      58.0     0.46      1017.1     3.7      SW   233   5.3      SW     215     266       -39       2.6      11.6      65.8      9.30
   02/14/2020 16:50      65.6      65.2       37     38.7      0.00      7.54      57.9     0.46      1017.0     3.9      SW   234   6.2     WSW     240     266       -12       2.6      11.1      66.0      9.30
   02/14/2020 16:40      66.3      65.5       36     38.3      0.00      7.54      57.9     0.46      1016.9     4.2      SW   214   6.6      SW     225     265         6       2.9      10.7      66.1      9.31
   02/14/2020 16:30      66.9      66.2       35     38.0      0.00      7.54      57.9     0.46      1016.8     3.7      SW   229   6.6     SSW     203     266        27       2.5      10.2      66.2      9.31
   02/14/2020 16:20      67.1      66.7       35     38.3      0.00      7.54      57.9     0.46      1016.8     3.7     WSW   247   6.4      SW     226     265        52       3.0       9.8      66.3      9.31
   02/14/2020 16:10      67.7      67.1       34     38.4      0.00      7.54      57.8     0.46      1016.8     4.7     WSW   243   7.9      SW     230     265        76       3.3       9.3      66.1      9.31
   02/14/2020 16:00      69.0      67.6       34     38.5      0.00      7.54      57.7     0.46      1016.7     5.3       W   260   8.4     WSW     237     265       101       3.9       8.7      66.1      9.31
   02/14/2020 15:50      70.1      68.7       33     38.8      0.00      7.54      57.4     0.46      1016.7     4.6     WSW   245   7.6       W     262     264       125       3.4       8.1      66.1      9.32
   02/14/2020 15:40      72.0      70.2       27     35.2      0.00      7.54      57.4     0.45      1016.6     3.5       W   277   7.3       W     281     264       145       2.5       7.5      65.8      9.32
   02/14/2020 15:30      72.0      71.5       23     32.4      0.00      7.54      57.3     0.46      1016.6     2.4     WSW   251   4.5     NNW     343     264       164       1.9       7.1      65.6      9.32
   02/14/2020 15:20      71.7      70.7       24     32.8      0.00      7.54      57.0     0.45      1016.6     2.2       S   191   4.4      SW     231     264       184       1.7       6.8      65.3      9.32
   02/14/2020 15:10      72.5      71.0       24     32.8      0.00      7.54      56.9     0.45      1016.6     2.5      SW   217   4.6      SW     228     263       203       1.9       6.5      64.8      9.32
   02/14/2020 15:00      72.6      72.1       24     33.1      0.00      7.54      56.7     0.45      1016.7     2.0     WNW   290   4.5       W     260     263       222       1.4       6.2      64.5      9.33
   02/14/2020 14:50      72.6      72.0       25     34.4      0.00      7.54      56.6     0.45      1016.7     1.5      NW   310   4.2      NW     310     263       239       0.9       5.9      64.0      9.33
   02/14/2020 14:40      72.3      71.2       26     35.5      0.00      7.54      56.6     0.45      1016.7     1.8       W   279   4.8       W     263     263       254       1.7       5.8      63.5      9.33
   02/14/2020 14:30      72.8      71.3       26     35.9      0.00      7.54      56.6     0.45      1016.7     2.3     WNW   295   6.6       W     259     263       266       1.8       5.5      63.1      9.33
   02/14/2020 14:20      72.6      70.7       27     36.3      0.00      7.54      56.5     0.45      1016.8     0.9     WNW   288   2.7      SW     218     263       285       1.0       5.2      62.8      9.33
   02/14/2020 14:10      71.3      70.4       28     36.4      0.00      7.54      56.5     0.45      1016.9     2.3     WNW   298   4.8      NW     305     263       300       1.5       5.0      62.3      9.33
   02/14/2020 14:00      71.3      70.0       28     36.2      0.00      7.54      56.5     0.45      1016.9     3.3     WNW   288   6.0       W     262     263       311       2.2       4.8      61.9      9.33
   02/14/2020 13:50      70.9      70.2       28     35.7      0.00      7.54      57.5     0.45      1017.0     1.8     WSW   251   4.0     SSW     213     263       320       1.5       4.4      62.4      9.33
   02/14/2020 13:40      70.8      70.0       28     35.6      0.00      7.54      57.5     0.45      1017.0     2.0     ESE   113   4.2      SW     225     263       333       1.4       4.2      62.0      9.33
   02/14/2020 13:30      71.5      70.9       27     35.8      0.00      7.54      57.4     0.45      1017.1     1.9       N     9   4.9     NNE      16     263       340       1.0       3.9      61.4      9.33
   02/14/2020 13:20      71.0      69.4       29     36.2      0.00      7.54      57.4     0.45      1017.2     1.5      NW   312   3.7     WNW     303     263       354       1.5       3.8      60.7      9.33
   02/14/2020 13:10      70.9      69.4       28     35.2      0.00      7.54      57.4     0.45      1017.3     2.6     WNW   288   5.1     WNW     283     264       366       2.3       3.5      60.2      9.33
   02/14/2020 13:00      70.3      69.3       27     34.8      0.00      7.54      57.2     0.45      1017.5     1.7     WNW   294   6.9      NE      48     264       374       1.2       3.1      59.4      9.34
   02/14/2020 12:50      70.2      69.3       27     34.8      0.00      7.54      57.1     0.45      1017.7     2.2     WNW   293   4.7      NW     325     263       380       1.3       2.9      58.7      9.34
   02/14/2020 12:40      70.5      69.5       27     34.9      0.00      7.54      57.0     0.45      1017.9     1.5       N     1   3.1       N     349     263       386       0.8       2.7      58.1      9.34
   02/14/2020 12:30      70.1      69.4       27     34.6      0.00      7.54      57.0     0.45      1018.1     1.3     NNE    14   3.6     NNE      18     264       393       0.6       2.6      57.4      9.34
   02/14/2020 12:20      69.6      68.8       27     34.3      0.00      7.54      56.9     0.45      1018.2     1.3       N     5   4.1     NNW     330     264       395       0.4       2.5      56.6      9.34
   02/14/2020 12:10      68.8      67.7       28     33.6      0.00      7.54      56.8     0.45      1018.3     1.2      NE    39   3.5       N      10     264       401       0.6       2.4      55.9      9.34
   02/14/2020 12:00      68.2      67.6       28     33.5      0.00      7.54      56.7     0.45      1018.5     1.7      NE    47   3.9       E      80     264       399       0.6       2.3      55.1      9.34
   02/14/2020 11:50      68.3      67.6       27     33.2      0.00      7.54      56.7     0.45      1018.7     1.8     NNW   342   4.5     NNW     343     264       398       0.6       2.2      54.4      9.34
   02/14/2020 11:40      68.0      66.5       28     32.6      0.00      7.54      56.7     0.45      1018.8     1.3     WSW   258   4.1       W     260     264       399       1.2       2.1      53.7      9.34
   02/14/2020 11:30      68.1      67.3       28     33.4      0.00      7.54      56.6     0.45      1018.9     1.9     WNW   292   5.0       W     266     264       396       1.9       1.9      52.8      9.34
   02/14/2020 11:20      67.6      65.9       29     33.5      0.00      7.54      56.6     0.45      1019.0     0.9      NW   318   4.2     WSW     246     264       390       0.7       1.6      52.2      9.34
   02/14/2020 11:10      66.3      65.8       30     34.1      0.00      7.54      56.6     0.45      1019.1     1.3     NNW   344   3.2     NNW     332     264       382       0.5       1.5      51.6      9.34
   02/14/2020 11:00      66.0      65.2       31     34.0      0.00      7.54      56.5     0.45      1019.1     1.3     ESE   109   3.5     SSE     150     264       375       0.9       1.4      50.8      9.34
   02/14/2020 10:50      65.3      64.6       32     34.0      0.00      7.54      56.5     0.45      1019.1     0.9     NNE    22   2.7     ENE      57     264       365       0.5       1.3      50.1      9.34
   02/14/2020 10:40      64.8      63.7       32     34.0      0.00      7.54      56.5     0.45      1019.2     0.8       N     1   2.2     NNW     339     264       357       0.5       1.2      49.4      9.34
   02/14/2020 10:30      64.0      62.5       34     34.4      0.00      7.54      56.6     0.45      1019.3     1.2      NE    51   3.2       N       5     264       348       0.8       1.1      48.8      9.34
   02/14/2020 10:20      63.0      62.2       35     34.7      0.00      7.54      56.6     0.45      1019.4     0.9     NNE    19   3.5     NNE      17     264       335       0.5       1.0      48.3      9.34
   02/14/2020 10:10      62.3      61.0       35     33.8      0.00      7.54      56.6     0.45      1019.4     0.7     WNW   282   2.1       W     267     264       321       0.7       0.9      47.8      9.34
   02/14/2020 10:00      61.5      60.9       37     34.5      0.00      7.54      56.6     0.45      1019.5     1.1     NNE    28   2.7       N       9     264       310       0.5       0.8      47.3      9.34
   02/14/2020 09:50      61.0      59.4       39     35.0      0.00      7.54      56.7     0.45      1019.5     0.9     ENE    78   2.5       E      96     265       293       0.4       0.7      46.8      9.34
   02/14/2020 09:40      60.0      59.1       41     35.9      0.00      7.54      56.7     0.45      1019.5     1.3      NE    36   2.8     NNE      16     266       277       0.3       0.6      46.3      9.34
   02/14/2020 09:30      59.6      58.8       43     36.9      0.00      7.54      56.7     0.45      1019.4     0.7      NE    54   2.1       E      97     266       262       0.2       0.6      45.9      9.34
   02/14/2020 09:20      58.7      57.1       46     37.4      0.00      7.54      56.8     0.45      1019.5     0.5     NNE    26   2.3      NE      54     266       247       0.2       0.5      45.5      9.34
   02/14/2020 09:10      57.1      56.0       49     37.8      0.00      7.54      56.8     0.45      1019.4     0.6     WNW   286   1.4     WNW     282     266       228       0.4       0.5      45.2      9.34
   02/14/2020 09:00      56.2      54.5       53     38.4      0.00      7.54      56.9     0.45      1019.4     0.4     NNW   329   1.6       N     355     266       211       0.2       0.5      45.0      9.34
   02/14/2020 08:50      54.5      52.7       57     38.6      0.00      7.54      57.0     0.45      1019.3     0.6       N   359   1.5       N      11     267       191       0.0       0.4      44.8      9.34
   02/14/2020 08:40      52.8      51.3       59     38.0      0.00      7.54      57.0     0.45      1019.3     0.5       N     6   1.1       N     355     268       172       0.0       0.4      44.6      9.34
   02/14/2020 08:30      51.4      49.8       61     37.6      0.00      7.54      56.9     0.45      1019.3     0.6     NNE    30   1.1     NNE      23     269       156       0.0       0.4      44.3      9.34
   02/14/2020 08:20      50.0      48.7       63     37.2      0.00      7.54      57.0     0.45      1019.2     0.7     NNE    21   1.8     NNE      27     271       156       0.0       0.4      44.1      9.34
   02/14/2020 08:10      48.7      47.8       64     36.7      0.00      7.54      57.1     0.45      1019.1     0.1     WNW   299   0.6      NW     306     278       114       0.0       0.4      43.9      9.34
   02/14/2020 08:00      47.7      45.4       69     37.0      0.00      7.54      57.1     0.45      1019.0     0.3       E    91   1.3       E      95     294       111       0.0       0.4      43.8      9.34
   02/14/2020 07:50      45.3      42.0       79     37.6      0.00      7.54      57.1     0.45      1019.0     0.0       N     0   0.0     SSW     195     314       102       0.0       0.4      43.7      9.34
   02/14/2020 07:40      42.0      40.2       85     36.7      0.00      7.54      57.2     0.45      1018.8     0.1       S   183   0.7       S     187     329        51       0.0       0.4      43.5      9.34
   02/14/2020 07:30      40.3      39.0       87     35.9      0.00      7.54      57.2     0.45      1018.7     0.0       N     0   0.0     NNE      17     332         5       0.0       0.4      43.5      9.34
   02/14/2020 07:20      39.2      38.5       87     35.2      0.00      7.54      57.3     0.45      1018.6     0.0     ESE   114   0.8      SE     124     333         0       0.0       0.4      43.5      9.34
   02/14/2020 07:10      38.7      37.8       87     34.7      0.00      7.54      57.3     0.45      1018.5     0.7      SE   146   1.5      SE     137     330        -6       0.0       0.4      43.5      9.34
   02/14/2020 07:00      38.5      37.8       86     34.4      0.00      7.54      57.3     0.45      1018.4     1.0      SE   146   1.8      SE     144     328       -12       0.2       0.4      43.6      9.34
   02/14/2020 06:50      38.7      38.3       86     34.7      0.00      7.54      57.3     0.45      1018.3     0.3     SSE   151   1.1     SSE     148     326       -17       0.0       0.4      43.8      9.34
   02/14/2020 06:40      38.8      38.4       86     34.8      0.00      7.54      57.4     0.45      1018.2     0.2       S   173   1.0     SSE     151     323       -22       0.1       0.4      44.0      9.34
   02/14/2020 06:30      39.0      38.5       86     35.0      0.00      7.54      57.5     0.45      1018.0     0.3     SSE   166   1.1     SSE     151     321       -24       0.0       0.3      44.2      9.34
   02/14/2020 06:20      38.9      38.0       87     34.9      0.00      7.54      57.5     0.45      1018.0     0.4      NW   314   1.7     WNW     291     320       -24       0.0       0.3      44.3      9.34
   02/14/2020 06:10      38.5      37.9       86     34.4      0.00      7.54      57.6     0.45      1017.9     0.0       N     0   0.0      NE      49     314       -25       0.0       0.3      44.5      9.34
   02/14/2020 06:00      38.7      38.3       87     34.8      0.00      7.54      57.6     0.45      1017.9     0.2      SE   138   1.4      SE     143     311       -26       0.0       0.3      44.6      9.34
   02/14/2020 05:50      38.8      38.3       86     34.8      0.00      7.54      57.6     0.45      1017.9     0.7     SSE   154   1.5      SE     143     308       -26       0.7       0.3      44.8      9.34
   02/14/2020 05:40      38.9      38.5       86     34.8      0.00      7.54      57.6     0.45      1017.8     0.5      SE   145   1.3      SE     146     305       -27       0.3       0.2      45.0      9.34
   02/14/2020 05:30      39.1      38.8       86     35.1      0.00      7.54      57.7     0.45      1017.8     0.2     SSE   153   1.2      SE     140     302       -27       0.0       0.2      45.2      9.34
   02/14/2020 05:20      39.0      38.7       86     35.0      0.00      7.54      57.7     0.45      1017.8     0.6     SSE   168   1.6     SSE     165     299       -28       0.2       0.1      45.4      9.34
   02/14/2020 05:10      38.9      38.5       86     34.8      0.00      7.54      57.8     0.45      1017.8     0.1      SW   215   1.4      SW     232     295       -30       0.0       0.1      45.6      9.34
   02/14/2020 05:00      39.2      38.8       86     35.2      0.00      7.54      57.8     0.45      1017.7     0.1     SSE   153   0.7     SSE     153     294       -31       0.0       0.1      45.8      9.34
   02/14/2020 04:50      39.2      38.8       87     35.4      0.00      7.54      57.8     0.45      1017.7     0.0       N     0   0.0     SSE     154     290       -32       0.0       0.1      46.0      9.35
   02/14/2020 04:40      39.0      38.1       86     34.6      0.00      7.54      57.8     0.45      1017.7     0.4     SSE   165   1.0       S     170     286       -34       0.0       0.1      46.2      9.35
   02/14/2020 04:30      39.2      38.3       84     34.2      0.00      7.54      57.9     0.45      1017.7     0.4     SSE   155   1.1     SSE     151     280       -35       0.0       0.1      46.5      9.35
   02/14/2020 04:20      39.7      39.3       83     34.8      0.00      7.54      58.0     0.45      1017.9     0.1      SE   140   0.7      SE     139     275       -36       0.0       0.1      46.7      9.35
   02/14/2020 04:10      39.5      39.3       84     35.1      0.00      7.54      58.1     0.45      1017.9     0.1      SW   231   0.7      SW     233     273       -37       0.0       0.1      46.8      9.35
   02/14/2020 04:00      39.8      39.3       84     35.2      0.00      7.54      58.1     0.45      1017.8     0.0     SSE   161   0.2     SSE     161     273       -39       0.0       0.1      47.0      9.35
   02/14/2020 03:50      39.9      39.0       84     34.9      0.00      7.54      58.1     0.45      1017.8     0.4     SSE   163   1.0     SSE     165     269       -41       0.0       0.1      47.3      9.35
   02/14/2020 03:40      39.9      39.3       83     34.9      0.00      7.54      58.1     0.45      1017.8     0.8       S   170   1.5       S     176     265       -42       0.1       0.1      47.5      9.35
   02/14/2020 03:30      39.6      39.3       84     35.2      0.00      7.54      58.2     0.46      1017.8     0.1      SW   217   1.0      SW     223     264       -42       0.0       0.1      47.8      9.35
   02/14/2020 03:20      39.7      39.3       84     35.0      0.00      7.54      58.2     0.46      1017.8     0.0       N     0   0.0     SSE     157     266       -45       0.0       0.1      48.0      9.35
   02/14/2020 03:10      40.4      39.5       82     34.9      0.00      7.54      58.2     0.46      1017.8     0.0     SSE   151   0.7     SSE     148     260       -46       0.0       0.1      48.2      9.35
   02/14/2020 03:00      40.6      40.2       81     35.0      0.00      7.54      58.3     0.46      1017.8     0.1     SSE   160   0.7     SSW     200     259       -47       0.0       0.1      48.4      9.35
   02/14/2020 02:50      40.9      40.3       81     35.1      0.00      7.54      58.3     0.46      1017.8     0.1       S   176   0.7       S     189     265       -48       0.0       0.1      48.6      9.35
   02/14/2020 02:40      41.1      40.7       80     35.1      0.00      7.54      58.3     0.46      1017.7     0.3     SSE   169   1.5     SSW     207     262       -49       0.0       0.1      48.9      9.35
   02/14/2020 02:30      41.4      41.0       81     35.7      0.00      7.54      58.4     0.46      1017.7     0.4       S   184   1.4     SSW     213     263       -48       0.2       0.0      49.1      9.35
   02/14/2020 02:20      41.9      41.2       81     36.0      0.00      7.54      58.4     0.46      1017.8     0.0     SSE   148   1.2      SE     140     260       -50       0.0       0.0      49.4      9.35
   02/14/2020 02:10      41.7      41.4       81     36.3      0.00      7.54      58.4     0.46      1017.8     0.0       N     0   0.0     SSE     165     260       -51       0.0       0.0      49.6      9.35
   02/14/2020 02:00      41.9      41.2       81     36.1      0.00      7.54      58.4     0.46      1017.8     0.2     SSE   156   0.9     SSE     149     262       -53       0.2       0.0      49.8      9.35
   02/14/2020 01:50      42.0      41.4       81     36.1      0.00      7.54      58.5     0.46      1017.8     0.6     SSE   163   0.9     SSE     149     263       -53       0.0       0.0      50.1      9.35
   02/14/2020 01:40      42.0      41.6       80     36.0      0.00      7.54      58.5     0.46      1018.0     0.4       S   178   1.0     SSE     166     265       -55       0.0       0.0      50.3      9.35
   02/14/2020 01:30      42.3      41.7       79     35.9      0.00      7.54      58.5     0.46      1018.0     0.0     SSE   150   0.6     SSE     148     266       -56       0.0       0.0      50.6      9.35
   02/14/2020 01:20      42.6      42.1       78     36.0      0.00      7.54      58.5     0.46      1018.0     0.0       S   174   0.7     SSE     148     271       -57       0.0       0.0      50.8      9.35
   02/14/2020 01:10      43.3      42.5       77     36.4      0.00      7.54      58.6     0.46      1017.9     0.2     SSE   159   0.9     SSE     163     270       -56       0.0       0.0      51.1      9.35
   02/14/2020 01:00      43.4      43.1       77     36.5      0.00      7.54      58.5     0.46      1017.9     0.2     SSE   151   0.7     SSE     158     269       -56       0.0       0.0      51.3      9.35
   02/14/2020 00:50      43.9      43.3       75     36.2      0.00      7.54      58.6     0.46      1018.0     0.0     SSE   153   0.5     SSE     150     271       -57       0.0       0.0      51.5      9.35
   02/14/2020 00:40      44.2      43.6       75     36.3      0.00      7.54      58.5     0.46      1018.0     0.2     SSE   165   1.0     SSE     156     271       -57       0.0       0.0      51.6      9.35
   02/14/2020 00:30      43.9      43.6       74     36.2      0.00      7.54      58.4     0.46      1018.0     0.0       S   180   1.0       S     180     271       -58       0.0       0.0      51.7      9.35
   02/14/2020 00:20      44.2      43.7       74     36.2      0.00      7.54      58.4     0.46      1018.1     0.1      SE   146   1.0      SE     145     271       -58       0.0       0.0      52.0      9.35
   02/14/2020 00:10      44.2      43.9       74     36.1      0.00      7.54      58.4     0.46      1018.1     0.4     SSE   149   1.1     SSE     160     271       -59       0.0       0.0      52.2      9.35
   02/14/2020 00:00      44.3      43.7       72     35.7      0.00      7.54      58.4     0.46      1018.1     0.8     SSE   150   1.4      SE     143     270       -60       0.1      13.8      52.5      9.35
   02/13/2020 23:50      44.3      43.7       71     35.3      0.00      7.54      58.4     0.46      1018.2     0.8     SSE   151   1.6     SSE     147     270       -60       0.1      13.8      52.7      9.35
   02/13/2020 23:40      44.8      44.2       70     35.2      0.00      7.54      58.4     0.46      1018.1     0.8     SSE   151   1.6     SSE     147     269       -60       0.1      13.8      53.0      9.35
   02/13/2020 23:30      45.1      44.6       68     34.9      0.00      7.54      58.5     0.46      1018.2     0.8       S   170   1.6     SSW     199     269       -60       0.4      13.8      53.2      9.36
   02/13/2020 23:20      45.6      44.6       68     35.3      0.00      7.54      58.5     0.46      1018.2     0.4       S   172   0.9       S     177     269       -60       0.3      13.7      53.5      9.36
   02/13/2020 23:10      46.4      45.6       65     35.0      0.00      7.54      58.5     0.46      1018.2     0.6       S   171   1.0     SSE     150     269       -60       0.4      13.6      53.8      9.36
   02/13/2020 23:00      46.7      46.3       64     34.9      0.00      7.54      58.6     0.46      1018.1     0.5       S   174   1.6      SE     146     269       -59       0.0      13.6      54.1      9.36
   02/13/2020 22:50      47.2      46.5       62     34.8      0.00      7.54      58.5     0.46      1018.2     1.9     SSW   206   2.6     SSW     208     269       -58       0.6      13.6      54.3      9.36
   02/13/2020 22:40      47.0      46.4       64     35.3      0.00      7.54      58.6     0.46      1018.1     0.3       S   176   1.6      SW     231     268       -59       0.2      13.5      54.7      9.36
   02/13/2020 22:30      47.7      47.0       63     35.3      0.00      7.54      58.6     0.46      1018.2     0.4     SSE   158   1.5       S     174     268       -60       0.2      13.4      55.0      9.36
   02/13/2020 22:20      48.3      47.6       61     35.3      0.00      7.54      58.6     0.46      1018.1     0.0       S   184   0.5       S     170     268       -61       0.2      13.4      55.3      9.36
   02/13/2020 22:10      49.5      48.2       60     35.5      0.00      7.54      58.6     0.46      1018.1     0.6      SE   127   1.3     SSE     156     268       -61       0.0      13.4      55.5      9.36
   02/13/2020 22:00      50.9      49.5       57     35.6      0.00      7.54      58.6     0.46      1018.1     0.1     ENE    78   0.9      NE      52     268       -62       0.0      13.4      55.8      9.36
   02/13/2020 21:50      51.9      50.8       55     35.8      0.00      7.54      58.6     0.46      1018.0     0.1      SW   231   0.9       N     351     268       -63       0.1      13.4      56.0      9.36
   02/13/2020 21:40      51.9      51.4       55     36.0      0.00      7.54      58.6     0.46      1018.0     0.3      SW   222   2.2      SW     223     268       -63       0.0      13.4      56.2      9.36
   02/13/2020 21:30      51.9      51.0       55     36.1      0.00      7.54      58.6     0.46      1017.9     1.3      SW   229   3.8     WSW     254     269       -64       0.6      13.3      56.5      9.36
   02/13/2020 21:20      51.1      50.3       56     35.5      0.00      7.54      58.6     0.46      1017.8     1.9     WSW   253   3.5     WSW     248     269       -63       0.4      13.2      56.7      9.36
   02/13/2020 21:10      50.9      50.3       56     35.6      0.00      7.54      58.6     0.46      1017.7     0.3      SW   235   2.4     WNW     296     269       -62       0.0      13.2      56.9      9.36
   02/13/2020 21:00      51.0      50.6       57     36.2      0.00      7.54      58.5     0.46      1017.7     0.5     SSW   198   1.4     SSW     195     269       -62       0.2      13.2      57.2      9.36
   02/13/2020 20:50      51.5      50.7       57     36.4      0.00      7.54      58.5     0.46      1017.7     0.2     NNE    12   1.5     NNE      20     270       -64       0.0      13.1      57.5      9.37
   02/13/2020 20:40      52.1      51.3       57     36.9      0.00      7.54      58.5     0.46      1017.6     0.2     ENE    78   1.2     SSW     193     270       -65       0.2      13.1      57.7      9.37
   02/13/2020 20:30      53.3      51.9       56     37.1      0.00      7.54      58.5     0.46      1017.5     0.2     SSE   149   1.5     SSW     196     270       -64       0.3      13.1      58.0      9.37
   02/13/2020 20:20      54.2      53.0       53     37.0      0.00      7.54      58.5     0.46      1017.6     0.2       S   171   0.8     SSE     160     270       -64       0.1      13.0      58.3      9.37
   02/13/2020 20:10      54.6      54.0       51     36.7      0.00      7.54      58.5     0.46      1017.5     1.1     SSW   193   2.1     SSW     201     270       -65       0.7      13.0      58.5      9.37
   02/13/2020 20:00      54.9      54.0       51     36.6      0.00      7.54      58.4     0.46      1017.5     0.6     SSW   193   2.3       S     185     270       -65       0.3      12.9      58.9      9.37
   02/13/2020 19:50      55.5      54.7       50     36.8      0.00      7.54      58.4     0.46      1017.4     0.3       S   175   1.8     SSW     210     270       -64       0.0      12.8      59.1      9.37
   02/13/2020 19:40      55.9      55.4       49     37.0      0.00      7.54      58.5     0.46      1017.4     0.9     SSW   199   1.8     SSW     192     270       -61       0.3      12.8      59.4      9.37
   02/13/2020 19:30      56.2      55.8       49     37.1      0.00      7.54      58.5     0.46      1017.4     1.2      SW   225   3.1      SW     233     271       -60       0.4      12.8      59.7      9.37
   02/13/2020 19:20      56.7      55.9       49     37.3      0.00      7.54      58.3     0.46      1017.2     0.3     SSW   204   1.2     SSW     206     271       -58       0.0      12.7      59.9      9.37
   02/13/2020 19:10      57.2      56.6       48     37.4      0.00      7.54      58.3     0.46      1017.1     0.7       S   186   2.1       S     170     271       -59       0.1      12.7      60.1      9.38
   02/13/2020 19:00      57.3      56.6       48     37.5      0.00      7.54      58.3     0.46      1017.0     2.4     SSW   202   3.8     SSW     213     271       -61       1.3      12.7      60.4      9.38
   02/13/2020 18:50      57.2      56.5       48     37.3      0.00      7.54      58.2     0.46      1017.0     1.3     SSW   198   2.4     SSW     206     271       -61       0.9      12.5      60.6      9.38
   02/13/2020 18:40      58.1      57.0       48     38.0      0.00      7.54      58.2     0.46      1017.0     1.2     SSW   199   1.9     SSW     204     271       -64       0.6      12.3      61.1      9.38
   02/13/2020 18:30      59.3      58.0       46     37.9      0.00      7.54      58.2     0.46      1017.0     1.6      SW   220   2.7     SSW     211     271       -68       0.8      12.2      61.4      9.38
   02/13/2020 18:20      59.9      59.2       44     37.7      0.00      7.54      58.4     0.46      1016.9     2.4     WSW   252   5.0     WNW     287     271       -72       1.6      12.1      61.9      9.38
   02/13/2020 18:10      60.7      59.6       44     38.4      0.00      7.54      58.6     0.46      1016.9     3.0       W   265   5.0       W     261     271       -74       1.9      11.8      62.5      9.38
   02/13/2020 18:00      61.4      60.5       44     38.9      0.00      7.54      58.6     0.46      1016.8     2.2       W   279   4.5     WSW     250     271       -75       1.6      11.5      62.7      9.38
   02/13/2020 17:50      62.4      61.3       43     39.1      0.00      7.54      58.5     0.46      1016.7     1.8     WNW   284   3.9     WSW     243     272       -74       1.2      11.2      63.0      9.39
   02/13/2020 17:40      63.0      62.3       42     39.5      0.00      7.54      58.5     0.46      1016.5     1.8       W   276   3.8     WNW     284     272       -70       1.3      11.0      63.3      9.39
   02/13/2020 17:30      63.7      62.9       38     37.1      0.00      7.54      57.9     0.46      1016.4     2.3     WSW   248   4.5       W     276     272       -62       1.3      10.8      63.0      9.39
   02/13/2020 17:20      64.3      63.5       30     32.0      0.00      7.54      57.7     0.46      1016.3     1.3     SSW   204   2.8     SSW     193     274       -55       0.7      10.6      63.1      9.39
   02/13/2020 17:10      65.2      64.2       30     32.5      0.00      7.54      57.5     0.46      1016.2     1.3       S   182   3.2       S     191     295       -48       0.8      10.5      63.4      9.39
   02/13/2020 17:00      65.7      64.9       31     34.0      0.00      7.54      57.4     0.46      1016.2     3.3     SSW   203   4.8     SSW     207     264       -15       2.1      10.4      63.6      9.40
   02/13/2020 16:50      65.8      65.4       33     35.4      0.00      7.54      57.4     0.46      1016.1     3.1     SSW   207   5.2       S     189     265        22       2.1      10.0      63.6      9.40
   02/13/2020 16:40      65.7      65.2       31     34.3      0.00      7.54      57.4     0.46      1016.1     3.0     SSW   204   5.0     SSW     199     264        48       2.1       9.7      63.8      9.40
   02/13/2020 16:30      65.9      65.0       31     33.8      0.00      7.54      57.3     0.46      1016.2     3.4       S   188   5.9     SSW     204     265        14       2.6       9.3      63.8      9.40
   02/13/2020 16:20      67.8      65.8       27     31.5      0.00      7.54      57.2     0.46      1016.0     4.1       S   189   6.0     SSW     210     264        -0       2.9       8.9      64.0      9.41
   02/13/2020 16:10      67.9      67.4       24     29.9      0.00      7.54      57.1     0.46      1015.9     2.6       S   171   5.3     SSW     198     264        45       1.9       8.4      64.1      9.41
   02/13/2020 16:00      69.0      67.8       23     29.4      0.00      7.54      57.1     0.46      1016.0     2.9     SSE   168   5.5     SSE     156     264        20       2.1       8.1      64.1      9.41
   02/13/2020 15:50      69.7      69.0       23     30.5      0.00      7.54      57.0     0.46      1016.0     2.9     SSE   156   5.5     SSE     169     263        79       1.9       7.7      64.1      9.41
   02/13/2020 15:40      69.6      69.1       22     29.1      0.00      7.54      56.9     0.46      1016.0     3.2     SSE   163   5.9     SSW     208     263       120       2.0       7.4      64.0      9.42
   02/13/2020 15:30      69.6      69.1       23     29.6      0.00      7.54      56.9     0.46      1016.1     3.4       S   174   5.5       S     180     263       116       2.2       7.1      63.9      9.42
   02/13/2020 15:20      69.4      68.5       27     33.2      0.00      7.54      56.9     0.46      1016.1     3.9       S   183   6.1       S     178     264       160       2.9       6.7      63.8      9.42
   02/13/2020 15:10      70.7      69.4       24     31.9      0.00      7.54      56.8     0.45      1016.1     3.0       S   175   6.2     SSW     205     263       103       2.4       6.2      63.6      9.42
   02/13/2020 15:00      71.8      70.5       22     30.3      0.00      7.54      56.8     0.45      1016.1     2.6       S   176   7.5     SSE     168     263       167       1.9       5.8      63.3      9.42
   02/13/2020 14:50      71.7      71.0       20     28.4      0.00      7.54      56.7     0.45      1016.1     1.5     ESE   121   5.6     ESE     121     263       176       1.0       5.5      63.1      9.43
   02/13/2020 14:40      72.3      70.9       21     29.0      0.00      7.54      56.8     0.45      1016.3     2.3       E    79   5.2     ENE      64     263       218       1.1       5.3      62.7      9.43
   02/13/2020 14:30      72.3      71.1       20     28.2      0.00      7.54      56.7     0.45      1016.4     1.3     ENE    61   3.6     ESE     103     263       279       0.9       5.1      62.3      9.43
   02/13/2020 14:20      71.8      70.3       21     29.4      0.00      7.54      56.7     0.45      1016.5     2.3     ESE   111   7.2      SE     133     263       300       1.5       5.0      61.8      9.43
   02/13/2020 14:10      71.7      71.0       22     30.9      0.00      7.54      56.6     0.45      1016.6     1.9     NNE    24   4.4     ENE      71     263       312       0.5       4.8      61.4      9.43
   02/13/2020 14:00      72.1      71.6       24     33.5      0.00      7.54      56.6     0.45      1016.7     1.8      NE    35   4.2       N       0     263       325       1.1       4.7      60.8      9.43
   02/13/2020 13:50      71.9      70.2       25     32.9      0.00      7.54      56.6     0.45      1016.8     1.6      NE    42   3.9      NE      35     263       336       1.2       4.5      60.4      9.43
   02/13/2020 13:40      70.7      69.7       27     35.1      0.00      7.54      56.6     0.45      1016.9     1.8     NNE    22   4.8     NNW     335     263       348       0.8       4.3      59.8      9.43
   02/13/2020 13:30      71.3      69.7       28     35.7      0.00      7.54      56.5     0.45      1017.1     1.9     NNE    12   4.4     NNE      12     263       353       0.8       4.2      59.3      9.43
   02/13/2020 13:20      71.4      70.1       29     36.6      0.00      7.54      56.5     0.45      1017.3     1.1     NNW   328   3.7       N     353     263       366       1.1       4.0      58.6      9.43
   02/13/2020 13:10      70.2      68.8       30     37.1      0.00      7.54      56.5     0.45      1017.5     1.6       N     4   3.8     NNE      21     263       379       0.9       3.8      58.2      9.43
   02/13/2020 13:00      70.2      69.2       30     37.3      0.00      7.54      56.5     0.45      1017.7     1.8       N     5   4.2     ENE      59     263       389       1.0       3.7      57.5      9.43
   02/13/2020 12:50      70.2      68.9       32     38.1      0.00      7.54      56.4     0.45      1017.9     1.5     NNW   330   4.3      NW     311     264       400       1.3       3.5      57.0      9.43
   02/13/2020 12:40      69.0      68.1       32     37.6      0.00      7.54      56.4     0.45      1018.2     1.6      NW   323   3.7     WNW     296     264       408       1.3       3.3      56.4      9.43
   02/13/2020 12:30      68.3      67.6       33     37.5      0.00      7.54      56.4     0.45      1018.3     1.7       W   264   5.4       W     263     264       415       1.4       3.1      55.7      9.43
   02/13/2020 12:20      69.6      67.7       32     37.8      0.00      7.54      56.4     0.45      1018.4     1.5       W   275   6.0       S     186     264       411       1.4       2.8      55.0      9.43
   02/13/2020 12:10      67.7      65.7       34     37.6      0.00      7.54      56.4     0.45      1018.6     1.5       N    10   3.6     NNE      29     264       412       0.6       2.6      54.3      9.43
   02/13/2020 12:00      66.6      65.6       34     36.9      0.00      7.54      56.4     0.45      1018.9     1.9       E    83   4.0     SSW     194     264       403       1.4       2.5      53.5      9.43
   02/13/2020 11:50      67.0      65.2       34     37.3      0.00      7.54      56.4     0.45      1019.0     1.3     WNW   283   4.2     WSW     241     264       395       1.3       2.3      52.9      9.44
   02/13/2020 11:40      65.7      65.3       35     36.9      0.00      7.54      56.4     0.45      1019.2     1.5     NNW   333   3.9     NNE      13     265       370       1.0       2.0      52.1      9.44
   02/13/2020 11:30      65.5      64.7       35     36.7      0.00      7.54      56.4     0.45      1019.3     1.0     NNW   342   3.3       N       0     264       361       0.6       1.9      51.5      9.44
   02/13/2020 11:20      65.9      64.3       35     37.0      0.00      7.54      56.4     0.45      1019.4     1.2       N     0   4.0       N     350     264       348       0.5       1.8      50.9      9.44
   02/13/2020 11:10      64.3      63.0       37     37.0      0.00      7.54      56.5     0.45      1019.5     1.3     WNW   293   4.0       W     277     265       387       0.8       1.7      50.1      9.44
   02/13/2020 11:00      63.3      62.6       39     37.5      0.00      7.54      56.4     0.45      1019.5     1.9     WNW   298   4.1     WNW     286     265       383       1.4       1.6      49.4      9.44
   02/13/2020 10:50      63.5      61.9       39     37.7      0.00      7.54      56.5     0.45      1019.7     1.0       N   358   2.4     WNW     289     265       375       0.5       1.3      48.7      9.44
   02/13/2020 10:40      62.0      61.0       41     37.6      0.00      7.54      56.5     0.45      1019.7     1.2     WNW   289   2.8      SW     216     265       366       1.0       1.2      48.0      9.44
   02/13/2020 10:30      61.1      60.0       41     36.9      0.00      7.54      56.6     0.45      1019.7     0.9       N    10   2.1      NE      48     265       346       0.8       1.1      47.5      9.44
   02/13/2020 10:20      60.7      59.9       43     37.5      0.00      7.54      56.5     0.45      1019.8     1.8     NNE    31   4.1     NNE      29     266       342       0.8       0.9      46.9      9.44
   02/13/2020 10:10      61.1      59.8       44     38.5      0.00      7.54      56.6     0.45      1019.9     1.3      NE    45   2.8       N      10     266       333       0.3       0.8      46.4      9.44
   02/13/2020 10:00      59.9      58.5       46     38.3      0.00      7.54      56.6     0.45      1020.0     0.9       N    11   3.3     NNE      32     266       317       0.3       0.7      45.9      9.44
   02/13/2020 09:50      59.1      58.1       47     38.3      0.00      7.54      56.7     0.45      1019.9     1.2      NE    54   3.3       E      97     266       300       0.3       0.7      45.4      9.44
   02/13/2020 09:40      58.9      57.9       47     38.4      0.00      7.54      56.7     0.45      1019.9     1.2     ENE    72   3.6      SE     144     266       281       0.6       0.6      45.0      9.44
   02/13/2020 09:30      58.1      57.1       49     38.8      0.00      7.54      56.7     0.45      1020.0     0.7     ENE    63   1.8      NE      46     266       265       0.4       0.5      44.6      9.44
   02/13/2020 09:20      57.0      55.4       52     38.7      0.00      7.54      56.8     0.45      1020.0     0.5      SW   229   2.0     WNW     283     266       247       0.4       0.5      44.2      9.44
   02/13/2020 09:10      56.1      55.3       52     38.3      0.00      7.54      56.8     0.45      1019.9     0.8      SW   221   2.0       W     280     266       230       0.6       0.4      43.9      9.44
   02/13/2020 09:00      55.6      54.5       52     37.9      0.00      7.54      57.0     0.45      1020.0     0.4      NE    50   2.0      NE      44     266       214       0.3       0.3      43.7      9.44
   02/13/2020 08:50      55.1      54.0       53     37.7      0.00      7.54      57.2     0.45      1020.0     0.1       S   178   1.2      NE      51     266       195       0.0       0.3      43.6      9.44
   02/13/2020 08:40      54.7      52.8       54     37.5      0.00      7.54      57.3     0.45      1020.1     0.0      SE   133   0.4      SE     129     267       174       0.0       0.2      43.4      9.44
   02/13/2020 08:30      53.1      51.5       56     37.2      0.00      7.54      57.4     0.45      1020.1     0.1     NNE    32   0.9     NNE      13     267       153       0.0       0.2      43.2      9.44
   02/13/2020 08:20      51.5      49.5       59     37.1      0.00      7.54      57.3     0.45      1020.0     0.0     ENE    65   0.8     ENE      58     269       145       0.0       0.2      42.9      9.44
   02/13/2020 08:10      49.4      48.1       63     36.9      0.00      7.54      57.4     0.45      1020.0     0.0       N     0   0.0       S     190     270       128       0.0       0.2      42.7      9.44
   02/13/2020 08:00      48.1      43.9       72     37.4      0.00      7.54      57.4     0.45      1019.9     0.0       N     0   0.0     SSW     191     283        93       0.0       0.2      42.5      9.44
   02/13/2020 07:50      44.1      41.3       81     37.1      0.00      7.54      57.5     0.45      1019.8     0.0       N     0   0.0       S     191     293       104       0.0       0.2      42.3      9.44
   02/13/2020 07:40      41.3      39.3       87     36.4      0.00      7.54      57.5     0.45      1019.7     0.0       N     0   0.0       S     191     301        40       0.0       0.2      42.2      9.44
   02/13/2020 07:30      39.4      38.3       88     35.4      0.00      7.54      57.5     0.45      1019.6     0.0       N     0   0.0     SSE     156     305        -0       0.0       0.2      42.2      9.44
   02/13/2020 07:20      38.4      37.5       88     34.9      0.00      7.54      57.5     0.45      1019.4     0.2     SSE   153   1.0     SSE     153     303        -5       0.0       0.2      42.2      9.44
   02/13/2020 07:10      37.7      36.9       88     34.1      0.00      7.54      57.5     0.45      1019.3     0.6       S   182   1.4     SSW     201     300       -11       0.0       0.2      42.3      9.44
   02/13/2020 07:00      37.4      36.8       88     33.8      0.00      7.54      57.6     0.45      1019.1     0.0       N     0   0.0       S     182     297       -19       0.0       0.2      42.4      9.44
   02/13/2020 06:50      37.4      37.0       87     33.6      0.00      7.54      57.6     0.45      1019.1     0.1       S   180   0.8     SSW     205     294       -25       0.0       0.2      42.5      9.44
   02/13/2020 06:40      37.7      37.3       87     34.0      0.00      7.54      57.5     0.45      1019.0     0.0       N     0   0.0     SSE     157     290       -30       0.0       0.2      42.6      9.44
   02/13/2020 06:30      37.5      36.7       87     33.4      0.00      7.54      57.6     0.45      1018.9     0.4     SSE   167   1.1       S     176     284       -33       0.0       0.2      42.8      9.44
   02/13/2020 06:20      36.8      36.5       85     32.5      0.00      7.54      57.6     0.45      1018.8     0.3       S   171   0.9     SSE     167     279       -36       0.0       0.2      42.9      9.44
   02/13/2020 06:10      37.7      36.7       83     32.4      0.00      7.54      57.6     0.45      1018.7     0.7     SSE   162   1.1      SW     224     275       -37       0.0       0.2      43.1      9.44
   02/13/2020 06:00      37.8      37.5       84     33.1      0.00      7.54      57.7     0.45      1018.7     0.6      SW   226   1.5     WSW     240     273       -37       0.0       0.2      43.3      9.44
   02/13/2020 05:50      37.9      37.5       84     33.1      0.00      7.54      57.6     0.45      1018.6     0.0       S   171   0.0       S     171     274       -38       0.0       0.2      43.4      9.44
   02/13/2020 05:40      37.8      37.3       83     33.0      0.00      7.54      57.7     0.45      1018.5     0.0       S   182   0.6       S     182     271       -39       0.0       0.2      43.6      9.44
   02/13/2020 05:30      37.8      37.0       83     32.6      0.00      7.54      57.8     0.45      1018.5     0.3       S   172   0.8     SSE     152     269       -40       0.0       0.2      43.8      9.44
   02/13/2020 05:20      38.5      37.8       82     33.2      0.00      7.54      57.7     0.45      1018.5     0.0       N     0   0.0     SSW     201     268       -41       0.0       0.2      43.9      9.44
   02/13/2020 05:10      38.5      37.9       83     33.5      0.00      7.54      57.4     0.45      1018.4     0.1     SSW   201   0.6     SSW     201     265       -42       0.0       0.2      43.8      9.44
   02/13/2020 05:00      38.1      37.6       82     32.8      0.00      7.54      57.4     0.45      1018.4     0.0       N     0   0.0      SE     142     264       -44       0.0       0.2      43.9      9.44
   02/13/2020 04:50      38.5      37.9       81     33.0      0.00      7.54      57.5     0.45      1018.4     0.0       N     0   0.0      SE     144     262       -46       0.0       0.2      44.1      9.44
   02/13/2020 04:40      38.9      38.5       81     33.2      0.00      7.54      57.5     0.45      1018.4     0.1     SSE   147   0.7      SE     146     260       -47       0.0       0.2      44.3      9.44
   02/13/2020 04:30      39.2      38.9       79     33.1      0.00      7.54      57.5     0.45      1018.4     0.1     SSE   147   0.9     SSE     147     263       -48       0.0       0.2      44.5      9.44
   02/13/2020 04:20      39.0      38.5       80     33.2      0.00      7.54      57.5     0.45      1018.5     0.0       N     0   0.0       S     182     266       -48       0.0       0.2      44.7      9.45
   02/13/2020 04:10      39.0      38.5       80     33.3      0.00      7.54      57.5     0.45      1018.6     0.0       S   182   0.4       S     182     262       -50       0.0       0.2      44.9      9.45
   02/13/2020 04:00      38.9      38.4       81     33.4      0.00      7.54      57.6     0.46      1018.5     0.2       S   178   0.9       S     176     265       -51       0.0       0.2      45.0      9.45
   02/13/2020 03:50      39.0      38.7       81     33.4      0.00      7.54      57.6     0.45      1018.6     0.4     SSE   158   1.0     SSE     164     265       -51       0.0       0.2      45.3      9.45
   02/13/2020 03:40      39.4      38.9       81     33.7      0.00      7.54      57.7     0.46      1018.6     0.7     SSE   153   1.5      SE     141     265       -51       0.2       0.2      45.3      9.45
   02/13/2020 03:30      39.4      38.7       81     33.5      0.00      7.54      57.8     0.46      1018.6     0.8     SSE   151   1.8      SE     145     266       -52       0.1       0.2      45.5      9.45
   02/13/2020 03:20      39.3      38.7       80     33.4      0.00      7.54      57.8     0.46      1018.8     0.7     SSE   155   1.4     SSE     148     266       -53       0.3       0.1      45.8      9.45
   02/13/2020 03:10      39.1      38.7       78     32.8      0.00      7.54      57.7     0.46      1018.8     0.2     SSE   159   1.0     SSE     163     267       -55       0.0       0.0      46.0      9.45
   02/13/2020 03:00      39.8      39.0       78     33.0      0.00      7.54      57.9     0.46      1018.9     1.0       S   174   2.0      SE     138     269       -55       0.0       0.0      46.1      9.45
   02/13/2020 02:50      39.5      39.2       80     33.7      0.00      7.54      57.8     0.46      1018.9     0.5       S   173   1.6      SW     217     269       -54       0.0       0.0      46.4      9.45
   02/13/2020 02:40      39.4      38.9       80     33.5      0.00      7.54      57.9     0.46      1019.0     0.4     SSE   164   1.1     SSE     149     269       -55       0.0       0.0      46.6      9.45
   02/13/2020 02:30      39.5      38.9       79     33.4      0.00      7.54      57.9     0.46      1019.0     0.7       S   174   1.4     SSW     202     269       -55       0.1       0.0      46.8      9.45
   02/13/2020 02:20      39.6      38.9       78     33.0      0.00      7.54      57.9     0.46      1019.1     0.5       S   170   1.0     SSE     160     270       -56       0.0       0.0      47.0      9.45
   02/13/2020 02:10      40.4      39.5       76     33.0      0.00      7.54      58.0     0.46      1019.2     0.5     SSE   153   1.1     SSE     150     270       -56       0.0       0.0      47.2      9.45
   02/13/2020 02:00      40.5      40.1       74     32.7      0.00      7.54      58.0     0.46      1019.3     0.5     SSE   159   1.1     SSE     149     271       -56       0.0       0.0      47.5      9.45
   02/13/2020 01:50      40.6      40.3       75     33.1      0.00      7.54      58.1     0.46      1019.2     0.2     SSE   163   0.9      SE     128     271       -55       0.0       0.0      47.8      9.45
   02/13/2020 01:40      40.8      40.4       75     33.4      0.00      7.54      58.0     0.46      1019.2     0.0       N     0   0.0      SE     139     271       -55       0.0       0.0      48.1      9.45
   02/13/2020 01:30      41.4      40.7       76     33.9      0.00      7.54      58.1     0.46      1019.3     0.0      SE   139   0.9      SE     139     271       -55       0.0       0.0      48.3      9.45
   02/13/2020 01:20      41.1      40.5       77     34.1      0.00      7.54      58.2     0.46      1019.3     0.5     SSE   151   1.2     SSE     150     271       -55       0.0       0.0      48.4      9.45
   02/13/2020 01:10      41.2      40.4       76     33.7      0.00      7.54      58.2     0.46      1019.3     0.3     SSE   160   1.2       S     170     271       -55       0.0       0.0      48.7      9.45
   02/13/2020 01:00      41.8      40.7       75     33.6      0.00      7.54      58.2     0.46      1019.2     0.3       S   173   0.9     SSE     167     270       -56       0.0       0.0      49.0      9.45
   02/13/2020 00:50      41.7      41.0       75     34.0      0.00      7.54      58.3     0.46      1019.2     0.2     SSE   151   1.1     SSE     147     270       -56       0.0       0.0      49.1      9.45
   02/13/2020 00:40      41.8      41.0       73     33.6      0.00      7.54      58.3     0.46      1019.1     0.6     SSE   164   1.1     SSE     161     270       -56       0.0       0.0      49.4      9.45
   02/13/2020 00:30      42.3      41.7       72     33.7      0.00      7.54      58.2     0.46      1019.1     0.2     SSE   150   0.8       S     177     270       -56       0.0       0.0      49.6      9.45
   02/13/2020 00:20      42.3      41.7       72     33.7      0.00      7.54      58.3     0.46      1019.1     0.6     SSE   161   1.2       S     170     270       -56       0.2       0.0      49.9      9.46
   02/13/2020 00:10      42.3      41.6       72     33.4      0.00      7.54      58.4     0.46      1019.1     0.2     SSE   159   0.7     SSE     160     270       -56       0.0       0.0      50.0      9.46
   02/13/2020 00:00      42.9      42.2       69     33.3      0.00      7.54      58.3     0.46      1019.2     0.2     SSE   148   0.8     SSE     157     269       -56       0.0      17.5      50.3      9.46
   02/12/2020 23:50      42.8      42.5       70     33.5      0.00      7.54      58.5     0.46      1019.3     0.0     SSE   165   0.6     SSE     151     269       -56       0.0      17.5      50.5      9.46
   02/12/2020 23:40      43.2      42.7       70     33.8      0.00      7.54      58.3     0.46      1019.3     0.5     SSE   154   1.0     SSE     153     269       -56       0.0      17.5      50.8      9.46
   02/12/2020 23:30      43.5      42.9       68     33.4      0.00      7.54      58.5     0.46      1019.3     0.3     SSE   164   1.1       S     191     269       -57       0.0      17.5      51.1      9.46
   02/12/2020 23:20      43.7      43.2       68     33.5      0.00      7.54      58.4     0.46      1019.3     0.3       S   186   1.2       S     191     269       -57       0.0      17.5      51.3      9.46
   02/12/2020 23:10      43.7      43.4       66     33.1      0.00      7.54      58.5     0.46      1019.3     0.4       S   189   1.4     SSW     191     269       -57       0.2      17.5      51.5      9.46
   02/12/2020 23:00      43.6      43.3       67     33.1      0.00      7.54      58.5     0.46      1019.3     0.6     SSW   194   1.4     SSW     192     269       -57       0.0      17.4      51.8      9.46
   02/12/2020 22:50      43.9      43.3       66     33.1      0.00      7.54      58.5     0.46      1019.2     0.0     SSE   147   0.4     SSE     153     269       -58       0.0      17.4      52.0      9.46
   02/12/2020 22:40      44.8      43.9       65     33.2      0.00      7.54      58.5     0.46      1019.2     0.3      SE   146   1.0     SSE     149     269       -57       0.0      17.4      52.3      9.46
   02/12/2020 22:30      44.8      44.4       63     32.8      0.00      7.54      58.5     0.46      1019.2     0.8     SSE   159   1.2     SSW     195     269       -57       0.1      17.4      52.5      9.46
   02/12/2020 22:20      44.7      44.2       63     32.8      0.00      7.54      58.5     0.46      1019.3     0.7     SSE   160   1.4     SSE     150     269       -58       0.0      17.4      52.8      9.46
   02/12/2020 22:10      44.6      44.1       63     32.4      0.00      7.54      58.5     0.46      1019.3     0.6     SSE   161   1.4     SSE     147     269       -59       0.2      17.4      53.1      9.46
   02/12/2020 22:00      45.1      44.5       61     32.3      0.00      7.54      58.5     0.46      1019.3     0.3     SSE   161   1.2     SSE     159     269       -59       0.0      17.4      53.3      9.46
   02/12/2020 21:50      45.2      44.9       61     32.4      0.00      7.54      58.4     0.46      1019.2     0.5     SSE   159   1.1       S     180     268       -59       0.0      17.4      53.5      9.46
   02/12/2020 21:40      46.1      45.1       61     32.9      0.00      7.54      58.5     0.46      1019.2     0.7      SE   145   1.6     SSE     158     268       -59       0.0      17.4      53.8      9.46
   02/12/2020 21:30      46.6      45.9       58     32.4      0.00      7.54      58.5     0.46      1019.3     0.7       S   177   1.5     SSW     194     268       -59       0.1      17.4      54.0      9.47
   02/12/2020 21:20      46.1      45.8       60     32.7      0.00      7.54      58.8     0.46      1019.3     0.3     SSE   166   1.2      SE     145     268       -59       0.0      17.3      54.5      9.47
   02/12/2020 21:10      46.5      45.9       60     33.0      0.00      7.54      59.0     0.46      1019.3     1.0     SSE   152   1.7      SE     142     268       -59       0.3      17.3      55.1      9.47
   02/12/2020 21:00      46.5      46.1       61     33.4      0.00      7.54      58.7     0.46      1019.3     1.0     SSE   152   1.4     SSE     150     268       -60       0.1      17.3      55.3      9.47
   02/12/2020 20:50      47.5      46.4       59     33.4      0.00      7.54      58.8     0.46      1019.3     0.9     SSE   159   1.3     SSE     151     268       -60       0.2      17.3      55.5      9.47
   02/12/2020 20:40      47.7      47.2       56     32.7      0.00      7.54      58.8     0.46      1019.2     0.9       S   177   2.0       S     189     268       -60       0.2      17.2      55.8      9.47
   02/12/2020 20:30      48.1      47.3       57     33.3      0.00      7.54      58.8     0.46      1019.1     0.6       S   172   1.4       S     185     268       -61       0.1      17.2      56.1      9.47
   02/12/2020 20:20      48.3      47.8       57     33.8      0.00      7.54      58.8     0.46      1019.0     0.2     SSE   147   1.2     SSE     147     268       -61       0.0      17.2      56.4      9.47
   02/12/2020 20:10      48.1      47.5       58     33.9      0.00      7.54      58.9     0.46      1018.9     0.6     SSE   160   1.2       S     177     268       -61       0.0      17.2      56.6      9.47
   02/12/2020 20:00      48.6      47.8       58     33.9      0.00      7.54      58.7     0.46      1018.8     0.3     SSE   153   1.2      SE     142     267       -62       0.0      17.2      56.8      9.47
   02/12/2020 19:50      49.7      48.4       56     33.8      0.00      7.54      58.7     0.46      1018.8     0.9       S   171   2.0     SSW     201     267       -62       0.5      17.2      57.0      9.47
   02/12/2020 19:40      49.2      48.5       56     33.8      0.00      7.54      58.7     0.46      1018.7     1.3       S   182   2.3     SSW     200     267       -61       0.6      17.1      57.5      9.47
   02/12/2020 19:30      50.5      48.8       54     33.9      0.00      7.54      58.7     0.46      1018.7     0.6     SSE   153   1.2      SE     139     267       -62       0.0      17.0      57.8      9.48
   02/12/2020 19:20      50.6      50.0       54     34.3      0.00      7.54      58.6     0.46      1018.6     0.4     SSE   166   0.9     SSE     164     267       -62       0.1      17.0      58.0      9.48
   02/12/2020 19:10      50.8      50.1       54     34.4      0.00      7.54      58.6     0.46      1018.6     0.3       S   169   0.9     SSE     149     267       -63       0.0      17.0      58.2      9.48
   02/12/2020 19:00      51.0      50.4       53     34.5      0.00      7.54      58.7     0.46      1018.5     0.4     SSE   152   1.0     SSE     147     267       -65       0.0      17.0      58.6      9.48
   02/12/2020 18:50      51.3      50.8       52     34.1      0.00      7.54      58.6     0.46      1018.3     0.4      SE   136   1.3      SE     132     266       -66       0.0      17.0      58.9      9.48
   02/12/2020 18:40      54.7      51.3       48     33.2      0.00      7.54      58.6     0.46      1018.2     1.0     SSE   164   1.5     SSE     164     266       -65       0.2      17.0      59.1      9.48
   02/12/2020 18:30      55.8      54.6       41     32.2      0.00      7.54      58.6     0.46      1018.1     2.2     SSW   191   2.9       S     189     266       -66       1.4      16.9      59.5      9.48
   02/12/2020 18:20      55.9      55.3       40     31.6      0.00      7.54      58.4     0.46      1018.1     2.6     SSW   197   3.0     SSW     198     266       -66       1.7      16.7      59.7      9.49
   02/12/2020 18:10      56.1      55.5       40     31.7      0.00      7.54      58.5     0.46      1018.0     2.3       S   190   3.0       S     184     266       -68       1.4      16.4      60.1      9.49
   02/12/2020 18:00      56.3      55.4       42     33.0      0.00      7.54      58.4     0.46      1018.0     2.0       S   179   2.8       S     191     266       -71       1.3      16.2      60.4      9.49
   02/12/2020 17:50      57.4      56.1       41     32.9      0.00      7.54      58.4     0.46      1018.0     1.8       S   183   2.7       S     179     266       -71       1.3      15.9      60.7      9.49
   02/12/2020 17:40      58.0      57.4       39     33.1      0.00      7.54      58.3     0.46      1018.0     2.2     SSW   208   2.7     SSW     209     266       -69       1.2      15.7      61.1      9.49
   02/12/2020 17:30      59.0      57.9       37     32.3      0.00      7.54      58.2     0.46      1017.9     1.7       S   186   2.8       S     182     266       -69       1.2      15.5      61.5      9.49
   02/12/2020 17:20      60.1      58.9       34     31.0      0.00      7.54      58.3     0.46      1017.9     1.0     SSE   162   1.9       S     171     266       -66       0.5      15.3      62.0      9.50
   02/12/2020 17:10      60.6      59.9       33     30.7      0.00      7.54      58.2     0.46      1017.8     1.4     SSE   153   3.0     ESE     105     265       -62       0.4      15.2      62.3      9.50
   02/12/2020 17:00      60.5      60.3       32     30.6      0.00      7.54      58.1     0.46      1017.7     1.6     SSE   155   3.2     SSW     201     265       -40       0.9      15.2      62.6      9.50
   02/12/2020 16:50      61.3      60.4       30     29.4      0.00      7.54      58.1     0.46      1017.7     3.1       S   175   5.8       S     174     265       -25       2.1      15.0      63.0      9.50
   02/12/2020 16:40      61.6      61.1       32     31.0      0.00      7.54      58.0     0.46      1017.7     2.9       S   187   5.8      SW     219     265         0       2.2      14.7      63.3      9.50
   02/12/2020 16:30      61.9      61.4       32     31.2      0.00      7.54      57.9     0.46      1017.8     3.8       S   186   6.4       S     177     266        27       2.7      14.3      63.4      9.51
   02/12/2020 16:20      62.1      61.7       33     32.3      0.00      7.54      57.9     0.46      1017.8     3.9     SSE   168   7.5       S     182     265        50       2.4      13.8      63.5      9.51
   02/12/2020 16:10      62.7      61.9       35     34.5      0.00      7.54      57.8     0.46      1017.8     4.5       S   181   8.9     SSW     195     266        72       3.0      13.5      63.6      9.51
   02/12/2020 16:00      62.9      62.5       36     35.5      0.00      7.54      57.8     0.46      1017.8     3.8     SSE   164   7.1       S     171     266        96       2.6      13.0      63.5      9.51
   02/12/2020 15:50      63.4      62.5       36     35.5      0.00      7.54      57.8     0.46      1017.8     4.4      SE   145   9.3      SE     138     265       121       2.4      12.5      63.5      9.52
   02/12/2020 15:40      63.3      62.8       37     36.6      0.00      7.54      57.8     0.46      1017.8     4.5      SE   138   8.1      SE     132     265       146       2.4      12.1      63.4      9.52
   02/12/2020 15:30      63.3      62.5       36     35.3      0.00      7.54      57.7     0.46      1017.8     4.2     SSE   158   8.1     SSW     200     265       170       2.8      11.7      63.3      9.52
   02/12/2020 15:20      64.3      62.5       33     33.5      0.00      7.54      57.7     0.46      1017.9     5.4       S   173   9.7     SSW     214     265       191       3.4      11.3      63.3      9.52
   02/12/2020 15:10      64.0      63.3       31     32.5      0.00      7.54      57.4     0.46      1017.9     4.8     SSE   149   9.9      SE     143     264       212       2.8      10.7      63.0      9.52
   02/12/2020 15:00      64.4      63.4       32     33.2      0.00      7.54      57.4     0.46      1017.9     5.3     SSE   149   8.3      SE     128     264       232       2.8      10.2      62.9      9.53
   02/12/2020 14:50      64.9      64.1       32     34.1      0.00      7.54      57.2     0.46      1017.9     4.7       S   174   9.0       S     179     264       249       3.4       9.8      62.5      9.53
   02/12/2020 14:40      64.5      63.9       34     34.9      0.00      7.54      57.2     0.46      1018.0     4.7     SSE   162  10.4      SE     142     264       269       3.0       9.2      62.2      9.53
   02/12/2020 14:30      65.3      64.3       36     37.3      0.00      7.54      57.1     0.46      1018.1     4.7     SSE   157   9.0      SE     126     264       281       3.4       8.7      61.8      9.53
   02/12/2020 14:20      66.3      64.9       37     38.5      0.00      7.54      56.9     0.46      1018.1     4.6       S   180   7.3     SSW     195     265       299       3.2       8.1      61.2      9.53
   02/12/2020 14:10      66.0      65.3       38     39.0      0.00      7.54      56.8     0.46      1018.1     3.9      SE   143   8.1      SE     145     264       316       1.9       7.6      60.6      9.54
   02/12/2020 14:00      66.3      65.5       38     39.4      0.00      7.54      56.7     0.46      1018.2     3.4     SSE   169   6.3      SW     216     264       323       2.2       7.3      60.1      9.54
   02/12/2020 13:50      65.9      64.9       38     39.0      0.00      7.54      56.7     0.46      1018.2     3.0     SSE   162   5.9     SSW     201     264       354       2.0       6.9      59.6      9.54
   02/12/2020 13:40      66.1      64.7       39     39.4      0.00      7.54      56.7     0.45      1018.3     3.7       S   176   9.5       S     187     264       362       2.7       6.6      59.0      9.54
   02/12/2020 13:30      65.3      64.5       39     39.4      0.00      7.54      56.5     0.45      1018.4     3.0      SE   132   6.3      SE     128     265       374       2.2       6.1      58.4      9.54
   02/12/2020 13:20      65.3      64.5       40     39.9      0.00      7.54      56.5     0.45      1018.5     4.1       S   177   7.4       S     180     265       379       2.9       5.8      57.7      9.54
   02/12/2020 13:10      66.0      64.7       39     39.8      0.00      7.54      56.5     0.45      1018.6     3.7       S   180   6.4      SW     214     265       382       2.7       5.3      57.1      9.54
   02/12/2020 13:00      66.3      64.6       38     39.5      0.00      7.54      56.4     0.45      1018.7     2.5       S   171   6.5      SE     136     264       385       1.9       4.8      56.5      9.54
   02/12/2020 12:50      65.2      64.4       39     39.1      0.00      7.54      56.4     0.45      1018.9     2.5     SSW   207   6.6      SE     144     265       392       2.1       4.5      55.9      9.55
   02/12/2020 12:40      65.1      63.9       39     38.8      0.00      7.54      56.4     0.45      1019.1     2.5       S   178   8.1     SSE     152     264       396       1.8       4.2      55.3      9.54
   02/12/2020 12:30      64.6      63.7       39     38.8      0.00      7.54      56.4     0.45      1019.3     2.9      SE   144   6.7      SE     134     265       402       1.9       3.9      54.7      9.55
   02/12/2020 12:20      65.7      64.5       39     39.5      0.00      7.54      56.4     0.45      1019.4     3.3      SE   136   8.5      SE     138     265       406       1.9       3.5      54.0      9.55
   02/12/2020 12:10      66.1      65.2       38     39.2      0.00      7.54      56.4     0.45      1019.6     1.7     ENE    67   4.1       W     281     264       404       1.1       3.2      53.2      9.55
   02/12/2020 12:00      65.5      64.8       38     38.9      0.00      7.54      56.3     0.45      1019.8     1.7      NE    39   4.5     NNE      17     265       404       0.9       3.0      52.7      9.55
   02/12/2020 11:50      64.8      63.8       38     38.5      0.00      7.54      56.3     0.45      1019.9     2.8     NNE    26   5.2       N      10     265       401       1.2       2.9      52.0      9.55
   02/12/2020 11:40      64.3      63.1       38     37.8      0.00      7.54      56.6     0.45      1020.0     2.2     NNE    23   5.4     ENE      66     265       400       1.0       2.7      51.6      9.55
   02/12/2020 11:30      64.0      63.3       38     37.5      0.00      7.54      56.8     0.45      1020.2     2.1       N     3   6.1       N     351     265       395       0.8       2.5      51.1      9.55
   02/12/2020 11:20      63.7      61.9       40     37.9      0.00      7.54      56.8     0.45      1020.4     2.0     NNE    23   4.0      NE      50     265       392       1.0       2.4      50.4      9.55
   02/12/2020 11:10      62.1      61.5       41     38.0      0.00      7.54      56.8     0.45      1020.5     2.1      NE    36   4.6      NE      54     265       386       1.3       2.2      49.8      9.55
   02/12/2020 11:00      62.7      61.4       41     38.4      0.00      7.54      56.8     0.45      1020.5     1.8       E    95   4.7     ESE     120     265       380       1.4       2.0      49.1      9.55
   02/12/2020 10:50      61.9      61.1       43     38.6      0.00      7.54      56.9     0.45      1020.5     1.7      NE    43   4.1      NE      55     264       371       0.9       1.8      48.5      9.55
   02/12/2020 10:40      61.3      60.4       44     38.7      0.00      7.54      56.9     0.45      1020.6     1.4      NE    40   3.7     NNE      12     265       362       0.8       1.6      47.8      9.55
   02/12/2020 10:30      60.8      59.8       45     38.8      0.00      7.54      56.9     0.45      1020.6     1.2     NNE    31   3.5     NNE      22     265       351       0.3       1.5      47.3      9.55
   02/12/2020 10:20      60.0      58.8       45     38.1      0.00      7.54      57.0     0.45      1020.6     1.3       E    84   3.6     NNW     343     265       347       0.8       1.4      46.8      9.55
   02/12/2020 10:10      59.0      58.4       45     37.6      0.00      7.54      57.0     0.45      1020.6     1.3      NE    44   3.3     NNE      19     265       314       0.5       1.3      46.3      9.55
   02/12/2020 10:00      58.5      57.6       45     36.7      0.00      7.54      57.0     0.45      1020.6     0.8       N   353   2.3      NW     321     264       272       0.5       1.2      45.8      9.55
   02/12/2020 09:50      58.0      56.8       43     35.1      0.00      7.54      57.1     0.45      1020.6     1.4       W   275   2.8     WSW     249     264       262       1.0       1.1      45.4      9.55
   02/12/2020 09:40      57.2      56.6       42     33.8      0.00      7.54      57.1     0.45      1020.5     0.7      NW   319   2.2      NW     305     264       259       0.4       1.0      45.0      9.55
   02/12/2020 09:30      57.5      56.4       40     32.8      0.00      7.54      57.1     0.45      1020.5     0.6       N   354   3.5       N       4     264       268       0.5       0.9      44.6      9.55
   02/12/2020 09:20      56.5      55.1       39     30.9      0.00      7.54      57.2     0.45      1020.4     0.7       E    92   2.5     ESE     108     264       273       0.4       0.8      44.3      9.55
   02/12/2020 09:10      55.3      54.5       39     30.4      0.00      7.54      57.2     0.45      1020.4     0.6      NE    46   2.0       N       6     265       230       0.5       0.7      44.0      9.55
   02/12/2020 09:00      55.2      54.1       39     30.3      0.00      7.54      57.1     0.45      1020.3     0.7     ENE    67   2.2     NNW     342     265       218       0.3       0.7      43.5      9.55
   02/12/2020 08:50      54.2      53.6       41     30.5      0.00      7.54      57.1     0.45      1020.3     0.4       E    99   1.1       S     191     265       198       0.3       0.6      43.3      9.55
   02/12/2020 08:40      53.5      52.3       41     30.2      0.00      7.54      57.1     0.45      1020.3     0.4     NNE    32   1.8     ENE      73     266       180       0.1       0.6      43.0      9.56
   02/12/2020 08:30      52.3      51.7       44     30.9      0.00      7.54      57.2     0.45      1020.2     0.0       W   277   0.5     WNW     285     266       161       0.0       0.5      42.8      9.56
   02/12/2020 08:20      51.7      50.4       50     33.0      0.00      7.54      57.2     0.45      1020.1     0.2      SE   130   0.7      SE     127     267       142       0.0       0.5      42.5      9.56
   02/12/2020 08:10      50.3      48.7       52     33.0      0.00      7.54      57.6     0.45      1020.0     0.1       E    99   0.8     ENE      69     269       106       0.3       0.5      42.7      9.56
   02/12/2020 08:00      48.8      44.6       58     32.6      0.00      7.54      57.9     0.45      1019.9     0.0       N     0   0.0     ESE     121     269        51       0.0       0.5      42.8      9.56
   02/12/2020 07:50      44.5      41.7       64     31.9      0.00      7.54      58.0     0.45      1019.8     0.2       E    93   0.7     ENE      77     269        69       0.0       0.5      42.6      9.56
   02/12/2020 07:40      41.7      39.0       72     32.0      0.00      7.54      58.0     0.45      1019.7     0.2       E    99   0.8      SE     127     270         5       0.0       0.5      42.4      9.56
   02/12/2020 07:30      39.2      38.2       75     31.2      0.00      7.54      58.0     0.46      1019.5     0.2     SSE   159   1.1      SE     146     271       -32       0.0       0.5      42.3      9.56
   02/12/2020 07:20      38.4      38.0       74     30.8      0.00      7.54      58.1     0.45      1019.4     0.2     SSE   153   1.4      SE     145     270       -34       0.0       0.5      42.5      9.56
   02/12/2020 07:10      38.1      37.0       76     30.8      0.00      7.54      58.2     0.45      1019.3     0.0     SSE   164   0.6       S     174     271       -37       0.0       0.5      42.6      9.56
   02/12/2020 07:00      37.6      36.9       74     29.8      0.00      7.54      58.2     0.46      1019.2     0.4     SSE   154   1.1       S     181     271       -42       0.0       0.5      42.7      9.57
   02/12/2020 06:50      37.6      37.1       74     29.6      0.00      7.54      58.3     0.46      1019.2     0.0     SSE   154   0.6     SSE     153     271       -42       0.0       0.5      42.8      9.57
   02/12/2020 06:40      37.3      36.9       75     29.9      0.00      7.54      58.2     0.46      1018.9     0.0       W   270   0.6       W     272     271       -51       0.0       0.5      42.9      9.57
   02/12/2020 06:30      37.3      36.8       76     30.2      0.00      7.54      58.2     0.46      1018.7     0.1       S   172   0.7       S     178     270       -53       0.0       0.5      43.0      9.57
   02/12/2020 06:20      37.3      37.0       76     30.1      0.00      7.54      58.2     0.46      1018.7     0.0     SSE   158   0.7      SE     142     271       -52       0.0       0.5      43.2      9.57
   02/12/2020 06:10      37.1      36.5       77     30.2      0.00      7.54      58.4     0.46      1018.7     0.0     SSE   158   0.4       S     169     271       -52       0.0       0.5      43.4      9.57
   02/12/2020 06:00      37.3      36.4       76     30.0      0.00      7.54      58.3     0.46      1018.7     0.6     SSE   157   1.4       S     183     270       -54       0.2       0.5      43.5      9.57
   02/12/2020 05:50      37.6      36.9       75     29.9      0.00      7.54      58.4     0.46      1018.7     0.3     SSE   150   1.3     SSE     151     270       -54       0.0       0.4      43.7      9.57
   02/12/2020 05:40      37.7      37.3       73     29.5      0.00      7.54      58.2     0.46      1018.7     0.2     SSE   158   0.9     SSE     161     270       -54       0.0       0.4      43.7      9.57
   02/12/2020 05:30      37.8      37.3       73     29.8      0.00      7.54      58.0     0.46      1018.7     0.0       S   191   0.5     SSW     206     270       -54       0.0       0.4      43.7      9.58
   02/12/2020 05:20      37.8      37.5       74     30.0      0.00      7.54      58.0     0.46      1018.6     0.0     SSE   165   0.6     SSE     165     270       -54       0.0       0.4      44.0      9.58
   02/12/2020 05:10      38.1      37.7       72     29.6      0.00      7.54      58.1     0.46      1018.6     0.0      SW   234   0.4      SW     234     270       -54       0.0       0.4      44.2      9.58
   02/12/2020 05:00      38.0      37.5       74     30.2      0.00      7.54      58.1     0.46      1018.6     0.6      SW   221   2.2     WSW     245     270       -54       0.0       0.4      44.4      9.58
   02/12/2020 04:50      38.5      38.0       73     30.4      0.00      7.54      58.2     0.46      1018.5     0.0     SSE   155   0.7       S     178     270       -54       0.0       0.4      44.6      9.58
   02/12/2020 04:40      38.5      38.1       74     30.7      0.00      7.54      58.2     0.46      1018.5     0.2       S   182   1.1       S     183     270       -55       0.0       0.4      44.8      9.58
   02/12/2020 04:30      38.6      37.8       73     30.1      0.00      7.54      58.3     0.46      1018.6     0.6       S   169   1.0     SSE     148     270       -56       0.0       0.4      45.0      9.58
   02/12/2020 04:20      38.9      38.3       71     30.1      0.00      7.54      58.3     0.46      1018.6     0.0       S   174   0.5       S     178     270       -56       0.0       0.4      45.2      9.59
   02/12/2020 04:10      38.8      38.3       72     30.1      0.00      7.54      58.4     0.46      1018.5     0.1       S   179   0.8       S     179     270       -56       0.0       0.4      45.5      9.59
   02/12/2020 04:00      39.2      38.7       73     31.2      0.00      7.54      58.5     0.46      1018.5     0.0       S   173   0.5       S     174     270       -56       0.0       0.4      45.7      9.59
   02/12/2020 03:50      39.5      39.0       72     31.0      0.00      7.54      58.5     0.46      1018.6     0.0       S   171   0.7       S     171     270       -56       0.0       0.4      45.9      9.59
   02/12/2020 03:40      39.9      39.4       72     31.4      0.00      7.54      58.5     0.46      1018.7     0.2      SE   146   1.1      SE     142     270       -56       0.0       0.4      46.1      9.59
   02/12/2020 03:30      39.6      39.2       73     31.6      0.00      7.54      58.6     0.46      1018.7     0.6     SSE   151   1.6      SE     146     270       -57       0.1       0.4      46.3      9.59
   02/12/2020 03:20      40.1      39.5       73     31.9      0.00      7.54      58.6     0.46      1018.8     0.4     SSE   162   1.1     SSE     158     270       -57       0.2       0.4      46.5      9.59
   02/12/2020 03:10      39.8      39.5       74     32.1      0.00      7.54      58.6     0.46      1018.8     0.2     SSE   165   0.9     SSE     161     270       -57       0.0       0.3      46.8      9.59
   02/12/2020 03:00      40.4      39.5       72     31.8      0.00      7.54      58.7     0.46      1018.7     0.3       S   173   1.3     SSW     201     270       -57       0.0       0.3      47.0      9.60
   02/12/2020 02:50      40.4      40.0       73     32.3      0.00      7.54      58.8     0.46      1018.7     0.0       N     0   0.0     SSE     149     270       -57       0.0       0.3      47.3      9.60
   02/12/2020 02:40      40.4      39.5       75     32.7      0.00      7.54      58.8     0.46      1018.8     0.7     SSE   154   1.3       S     173     270       -57       0.0       0.3      47.5      9.60
   02/12/2020 02:30      40.4      39.6       73     32.1      0.00      7.54      58.9     0.46      1018.9     0.5     SSE   157   1.1       S     170     269       -58       0.0       0.3      47.8      9.60
   02/12/2020 02:20      40.5      40.1       74     32.5      0.00      7.54      58.9     0.46      1018.8     0.3      SW   224   1.3      SW     223     269       -59       0.0       0.3      48.0      9.60
   02/12/2020 02:10      40.4      40.0       73     32.4      0.00      7.54      58.9     0.46      1018.8     0.2     SSW   203   1.1      SW     224     269       -59       0.0       0.3      48.3      9.60
   02/12/2020 02:00      40.8      40.1       73     32.5      0.00      7.54      59.0     0.46      1018.8     0.6     SSE   161   1.5     SSE     147     269       -58       0.0       0.3      48.5      9.60
   02/12/2020 01:50      41.3      40.6       71     32.5      0.00      7.54      59.0     0.46      1018.8     0.2     SSE   151   0.9      SE     144     269       -58       0.0       0.3      48.8      9.60
   02/12/2020 01:40      41.2      40.8       71     32.1      0.00      7.54      59.1     0.46      1018.8     0.6     SSW   198   1.4       S     191     269       -59       0.0       0.3      49.0      9.61
   02/12/2020 01:30      41.3      40.8       70     32.2      0.00      7.54      59.1     0.46      1018.8     0.3     SSE   151   1.0       S     169     269       -60       0.0       0.3      49.3      9.61
   02/12/2020 01:20      41.6      41.0       71     32.5      0.00      7.54      59.1     0.46      1018.9     0.1       S   177   1.0       S     175     269       -60       0.0       0.3      49.5      9.61
   02/12/2020 01:10      41.9      41.4       69     32.1      0.00      7.54      59.1     0.46      1018.8     0.3       S   176   1.4      SE     142     269       -60       0.0       0.3      49.7      9.61
   02/12/2020 01:00      42.2      41.5       69     32.7      0.00      7.54      59.2     0.46      1018.8     0.6     SSE   157   1.4      SE     140     269       -61       0.5       0.3      50.0      9.61
   02/12/2020 00:50      42.3      42.0       70     32.9      0.00      7.54      59.3     0.46      1018.7     0.9     SSE   153   1.3      SE     145     269       -61       0.5       0.2      50.2      9.62
   02/12/2020 00:40      42.5      42.1       69     32.9      0.00      7.54      59.3     0.46      1018.8     0.8     SSE   157   1.9      SE     141     269       -61       0.0       0.1      50.5      9.62
   02/12/2020 00:30      42.4      42.1       69     33.0      0.00      7.54      59.4     0.46      1018.8     0.5     SSE   165   1.2      SE     142     269       -62       0.0       0.1      50.7      9.62
   02/12/2020 00:20      43.0      42.1       67     32.6      0.00      7.54      59.3     0.46      1018.7     1.4     SSE   157   2.3     SSW     200     269       -61       0.5       0.1      51.0      9.62
   02/12/2020 00:10      43.6      42.6       67     32.8      0.00      7.54      59.1     0.46      1018.8     0.9     SSE   166   2.3      SW     216     269       -62       0.2       0.0      51.1      9.62
   02/12/2020 00:00      43.7      43.2       66     32.8      0.00      7.54      59.1     0.46      1018.8     1.0     SSW   213   2.0      SW     215     269       -61       0.5      26.1      51.3      9.63
   02/11/2020 23:50      44.0      43.3       65     32.8      0.00      7.54      59.1     0.46      1018.8     0.3      SW   221   1.4     SSW     210     269       -61       0.2      26.0      51.5      9.63
   02/11/2020 23:40      44.3      43.9       66     33.5      0.00      7.54      59.1     0.46      1018.8     0.5       S   176   1.7       S     179     269       -61       0.2      25.9      51.8      9.63
   02/11/2020 23:30      44.6      43.6       65     32.9      0.00      7.54      59.1     0.46      1018.8     0.5       S   174   1.6       S     184     268       -62       0.0      25.9      52.1      9.63
   02/11/2020 23:20      45.1      44.5       63     33.1      0.00      7.54      59.2     0.46      1018.8     0.4      NE    48   0.9     WSW     256     268       -62       0.0      25.9      52.4      9.64
   02/11/2020 23:10      45.5      44.8       63     33.6      0.00      7.54      59.3     0.46      1018.7     0.2       S   170   1.1     SSE     156     268       -62       0.0      25.9      52.8      9.64
   02/11/2020 23:00      45.4      45.0       63     33.4      0.00      7.54      59.5     0.46      1018.8     0.5     SSE   165   1.0     SSE     159     268       -62       0.1      25.9      53.1      9.64
   02/11/2020 22:50      45.6      45.0       63     33.3      0.00      7.54      59.5     0.46      1018.8     0.3      SE   144   0.9      SE     141     268       -62       0.0      25.9      53.4      9.64
   02/11/2020 22:40      45.8      45.4       62     33.4      0.00      7.54      59.5     0.46      1018.7     0.4      SE   135   1.3      SE     136     268       -63       0.0      25.9      53.7      9.65
   02/11/2020 22:30      46.1      45.6       62     33.8      0.00      7.54      59.5     0.46      1018.7     0.4     SSE   152   1.5     SSE     158     268       -62       0.0      25.9      53.9      9.65
   02/11/2020 22:20      46.5      45.8       62     34.1      0.00      7.54      59.5     0.46      1018.8     0.6     SSE   157   1.5     SSE     147     268       -63       0.2      25.9      54.1      9.65
   02/11/2020 22:10      47.0      46.2       61     33.9      0.00      7.54      59.5     0.46      1018.8     0.7     SSE   164   1.4      SE     141     268       -63       0.2      25.8      54.5      9.65
   02/11/2020 22:00      46.4      46.0       62     34.0      0.00      7.54      59.6     0.46      1018.7     0.5     SSE   168   1.0      SE     142     267       -63       0.0      25.8      54.7      9.66
   02/11/2020 21:50      46.7      45.9       62     34.1      0.00      7.54      59.6     0.46      1018.7     0.4       S   173   1.2     SSE     146     268       -64       0.1      25.8      55.1      9.66
   02/11/2020 21:40      47.5      46.8       61     34.5      0.00      7.54      59.5     0.46      1018.7     0.3     SSE   167   1.1     SSE     151     267       -65       0.2      25.8      55.4      9.67
   02/11/2020 21:30      47.5      47.0       61     34.7      0.00      7.54      59.6     0.46      1018.5     0.5     SSE   165   1.2       S     180     267       -65       0.0      25.8      55.6      9.67
   02/11/2020 21:20      47.8      47.0       61     34.6      0.00      7.54      59.6     0.46      1018.4     1.0     SSE   155   1.6       S     184     267       -67       0.6      25.7      55.9      9.67
   02/11/2020 21:10      47.8      47.3       60     34.5      0.00      7.54      59.6     0.46      1018.4     0.9     SSE   150   2.1     SSE     150     267       -68       0.5      25.6      56.2      9.67
   02/11/2020 21:00      48.1      47.3       60     34.5      0.00      7.54      59.6     0.46      1018.3     0.8       S   174   1.8     SSE     152     267       -68       0.7      25.6      56.5      9.68
   02/11/2020 20:50      48.6      47.8       59     34.6      0.00      7.54      59.6     0.46      1018.2     1.1     SSE   159   2.0     SSE     151     267       -69       0.4      25.4      56.8      9.68
   02/11/2020 20:40      49.3      48.6       57     34.3      0.00      7.54      59.5     0.46      1018.1     1.1       S   185   1.9     WSW     243     267       -69       0.7      25.4      57.1      9.68
   02/11/2020 20:30      49.8      49.2       55     34.2      0.00      7.54      59.6     0.46      1018.1     0.6       S   185   1.2       S     177     266       -69       0.3      25.3      57.5      9.69
   02/11/2020 20:20      49.7      49.2       57     34.7      0.00      7.54      59.6     0.46      1018.0     1.4     SSE   162   2.6      SE     142     266       -70       0.6      25.2      57.8      9.69
   02/11/2020 20:10      51.1      49.4       54     34.5      0.00      7.54      59.5     0.46      1017.8     1.1     SSE   162   1.7      SE     137     266       -70       0.5      25.1      58.2      9.70
   02/11/2020 20:00      51.4      50.8       53     34.5      0.00      7.54      59.5     0.46      1017.7     0.5     SSW   193   1.4      SE     139     266       -71       0.1      25.0      58.5      9.70
   02/11/2020 19:50      53.5      51.5       51     34.9      0.00      7.54      59.6     0.46      1017.6     2.0       S   179   4.7     SSW     197     266       -73       1.0      25.0      58.8      9.71
   02/11/2020 19:40      53.3      51.5       51     35.3      0.00      7.54      59.5     0.46      1017.5     2.0      SW   228   4.9      SW     223     266       -73       1.0      24.8      59.1      9.72
   02/11/2020 19:30      52.4      51.4       51     34.2      0.00      7.54      59.4     0.46      1017.3     0.9     SSE   164   2.3      SE     144     266       -74       0.7      24.7      59.5      9.72
   02/11/2020 19:20      53.6      52.4       49     34.1      0.00      7.54      59.4     0.46      1017.2     0.8     SSE   156   2.3      SE     139     266       -74       0.2      24.6      59.8      9.73
   02/11/2020 19:10      54.3      53.2       48     34.5      0.00      7.54      59.4     0.46      1017.3     0.6       S   171   2.2       S     176     266       -74       0.2      24.5      60.1      9.73
   02/11/2020 19:00      54.3      54.1       46     33.9      0.00      7.54      59.4     0.46      1017.2     1.2     SSW   192   2.3     SSW     203     265       -74       0.5      24.5      60.5      9.74
   02/11/2020 18:50      54.9      54.1       42     31.9      0.00      7.54      59.3     0.46      1017.1     0.5     SSW   201   1.6      SW     214     265       -75       0.4      24.4      60.8      9.74
   02/11/2020 18:40      55.8      54.7       39     30.8      0.00      7.54      59.2     0.46      1017.0     0.5     SSE   160   1.7       S     176     264       -77       0.3      24.3      61.2      9.75
   02/11/2020 18:30      57.3      55.8       39     32.2      0.00      7.54      59.3     0.46      1016.9     1.0     SSE   156   2.1       S     178     264       -78       0.3      24.3      61.5      9.75
   02/11/2020 18:20      59.0      57.1       37     32.2      0.00      7.54      59.1     0.46      1016.8     0.9       S   175   2.4     SSE     149     264       -80       0.2      24.2      61.8      9.76
   02/11/2020 18:10      60.4      58.6       32     29.2      0.00      7.54      59.1     0.46      1016.7     0.7     SSW   197   2.6      SW     234     264       -81       0.4      24.2      62.2      9.77
   02/11/2020 18:00      63.7      60.5       27     28.1      0.00      7.54      58.9     0.46      1016.5     0.6      SE   141   2.8      SE     138     263       -86       0.2      24.1      62.4      9.77
   02/11/2020 17:50      65.6      63.7       20     22.1      0.00      7.54      58.9     0.46      1016.3     0.9       E    86   2.5       E      91     263       -90       0.4      24.1      62.6      9.78
   02/11/2020 17:40      66.0      65.5       11     10.2      0.00      7.54      58.9     0.46      1016.2     1.9       N   357   4.9     NNW     330     262       -92       0.3      24.0      63.0      9.79
   02/11/2020 17:30      66.8      66.0       11      9.5      0.00      7.54      58.8     0.46      1016.2     2.3     NNW   338   6.9     NNW     329     262       -91       0.5      24.0      63.2      9.80
   02/11/2020 17:20      67.0      66.5       10      9.5      0.00      7.54      58.8     0.46      1016.1     3.0       N   349   7.4     NNE      15     262       -89       1.3      23.9      63.6      9.81
   02/11/2020 17:10      67.6      66.8       11     10.0      0.00      7.54      58.7     0.46      1016.0     2.8     NNW   340   8.5     NNW     331     262       -86       0.9      23.7      64.0      9.83
   02/11/2020 17:00      68.0      67.3       10     10.0      0.00      7.54      58.7     0.46      1015.8     3.6       N   351   7.4     NNW     328     262       -62       1.1      23.5      64.3      9.84
   02/11/2020 16:50      68.4      67.8       10     10.0      0.00      7.54      58.6     0.46      1015.7     4.1       N   351  11.3     NNE      26     262       -53       1.0      23.4      64.6      9.86
   02/11/2020 16:40      68.4      68.1       10     10.1      0.00      7.54      58.5     0.46      1015.6     4.4     NNW   343   8.6     NNE      14     261       -19       1.6      23.2      65.1      9.88
   02/11/2020 16:30      68.7      68.2       10     10.2      0.00      7.54      58.5     0.46      1015.6     4.6       N   350   9.6     NNE      18     262        12       1.2      22.9      65.4      9.90
   02/11/2020 16:20      68.8      68.4       10     10.2      0.00      7.54      58.4     0.46      1015.6     4.3       N     1   8.9     NNW     330     262        38       1.5      22.7      65.5      9.93
   02/11/2020 16:10      69.0      68.4       10     10.0      0.00      7.54      58.4     0.46      1015.6     4.7       N   352   9.7     NNW     342     262        64       1.4      22.5      65.8      9.97
   02/11/2020 16:00      69.5      68.7       10     10.2      0.00      7.54      58.3     0.46      1015.7     5.3       N   354  10.0      NW     323     262        89       1.5      22.2      67.0      9.91
   02/11/2020 15:50      69.5      68.8       10     10.6      0.00      7.54      58.2     0.46      1015.7     4.2       N   357   8.6     NNE      26     262       115       1.2      22.0      67.0      9.02
   02/11/2020 15:40      69.5      69.0       10     10.0      0.00      7.54      58.1     0.46      1015.8     5.7       N   349  10.1     NNE      28     262       141       1.7      21.8      67.1      9.02
   02/11/2020 15:30      70.1      69.2       10     10.2      0.00      7.54      57.7     0.46      1015.9     5.7       N   351  12.7     NNE      13     262       164       1.9      21.5      66.5      9.03
   02/11/2020 15:20      70.1      69.3       10     10.8      0.00      7.54      57.7     0.46      1015.8     4.9     NNW   343  12.7       N       2     261       187       2.0      21.2      66.4      9.03
   02/11/2020 15:10      69.9      69.4       10     10.8      0.00      7.54      57.6     0.46      1015.9     5.8       N   351  12.3     WNW     302     261       207       1.5      20.8      66.2      9.03
   02/11/2020 15:00      70.2      69.2       10     10.9      0.00      7.54      57.6     0.46      1016.1     4.7       N   359  10.8     NNW     339     261       228       1.4      20.6      66.1      9.04
   02/11/2020 14:50      70.2      69.3       10     10.6      0.00      7.54      57.5     0.46      1016.2     5.4     NNW   346  10.6      NE      51     261       247       1.8      20.4      65.9      9.04
   02/11/2020 14:40      70.3      69.7       10     11.1      0.00      7.54      57.5     0.46      1016.3     4.3       N   357   9.3      NW     319     261       265       1.5      20.1      65.7      9.04
   02/11/2020 14:30      70.1      69.3       10     10.9      0.00      7.54      57.5     0.46      1016.3     5.4       N   351  11.0       N       9     261       283       1.6      19.8      65.5      9.05
   02/11/2020 14:20      70.1      69.6       10     10.6      0.00      7.54      57.4     0.46      1016.4     5.6       N   360  12.1     NNE      26     261       299       1.5      19.5      65.3      9.05
   02/11/2020 14:10      70.1      69.5       10     10.0      0.00      7.54      57.5     0.46      1016.5     5.5       N   351  12.3     NNE      24     261       315       1.4      19.3      65.0      9.05
   02/11/2020 14:00      70.4      69.4       10     10.3      0.00      7.54      57.4     0.46      1016.6     5.8       N   351  11.9     NNW     349     261       330       1.7      19.1      64.7      9.05
   02/11/2020 13:50      70.1      69.3       10     10.8      0.00      7.54      57.3     0.46      1016.8     4.6     NNW   344   8.8     NNW     346     261       342       1.8      18.8      64.5      9.06
   02/11/2020 13:40      70.2      69.3       10     10.3      0.00      7.54      57.4     0.46      1016.9     5.8       N   359  11.6      NE      35     261       354       2.0      18.5      64.1      9.06
   02/11/2020 13:30      70.1      69.1       10     10.4      0.00      7.54      57.3     0.46      1017.0     6.6       N     4  12.7       N     351     261       363       1.9      18.1      63.8      9.06
   02/11/2020 13:20      70.1      69.0       10     11.0      0.00      7.54      57.4     0.46      1017.1     4.9       N   352  10.2     NNE      32     261       372       1.7      17.8      63.5      9.06
   02/11/2020 13:10      69.5      68.8       10     10.6      0.00      7.54      57.3     0.46      1017.3     5.3     NNW   347  10.0       N     353     261       382       1.5      17.5      63.1      9.07
   02/11/2020 13:00      69.5      68.5       10     10.2      0.00      7.54      57.3     0.46      1017.4     6.3       N   350  12.8     NNE      33     261       390       1.7      17.3      62.8      9.07
   02/11/2020 12:50      69.7      68.7       10     10.8      0.00      7.54      57.3     0.46      1017.4     6.3       N   356  14.3       N       4     261       395       1.9      17.0      62.4      9.07
   02/11/2020 12:40      70.5      69.1       10     10.4      0.00      7.54      57.3     0.46      1017.4     6.6       N     4  13.3     NNW     334     261       398       1.7      16.7      62.0      9.07
   02/11/2020 12:30      70.2      69.4       11     12.0      0.00      7.54      57.3     0.46      1017.5     5.0       N     0   8.5       N       2     261       402       1.3      16.4      61.4      9.07
   02/11/2020 12:20      69.9      69.2       10     10.9      0.00      7.54      57.3     0.45      1017.7     5.0       N     6  10.2      NE      37     261       405       1.4      16.2      60.8      9.07
   02/11/2020 12:10      70.1      68.8       10     11.3      0.00      7.54      57.3     0.46      1017.8     4.9       N   359  11.5     NNW     343     261       409       1.7      16.0      60.3      9.07
   02/11/2020 12:00      69.4      68.3       11     12.6      0.00      7.54      57.4     0.45      1018.0     4.6       N   352   9.6       N     352     261       407       1.4      15.7      59.7      9.08
   02/11/2020 11:50      68.6      67.7       11     11.0      0.00      7.54      57.4     0.45      1018.1     5.7     NNE    17  11.2     NNW     335     261       408       1.8      15.4      59.1      9.08
   02/11/2020 11:40      68.7      67.9       11     11.4      0.00      7.54      57.4     0.45      1018.2     5.5     NNE    15  10.9       E      89     261       406       1.8      15.1      58.5      9.08
   02/11/2020 11:30      68.5      67.7       11     12.5      0.00      7.54      57.1     0.45      1018.2     5.2       N     6  12.7       N       7     261       401       1.6      14.8      57.4      9.08
   02/11/2020 11:20      68.5      67.3       12     12.8      0.00      7.54      57.2     0.45      1018.2     5.9       N     3  11.7      NW     311     261       395       1.6      14.6      56.8      9.08
   02/11/2020 11:10      68.4      67.7       12     13.1      0.00      7.54      57.2     0.45      1018.3     4.5       N   358   8.3       N     352     261       386       1.3      14.3      56.1      9.08
   02/11/2020 11:00      68.4      67.0       12     13.5      0.00      7.54      57.2     0.45      1018.3     3.8       N   356   9.1     NNW     341     261       379       1.4      14.1      55.5      9.09
   02/11/2020 10:50      67.8      67.0       12     12.6      0.00      7.54      57.3     0.45      1018.3     5.4       N     0   9.4     NNW     338     261       370       1.4      13.8      54.9      9.09
   02/11/2020 10:40      67.8      66.8       12     13.2      0.00      7.54      57.3     0.45      1018.4     4.3       N     4  11.1       N     350     261       359       1.0      13.6      54.3      9.09
   02/11/2020 10:30      67.4      66.6       12     13.0      0.00      7.54      57.3     0.45      1018.3     5.2       N   355   9.4     NNW     342     261       348       1.5      13.4      53.7      9.09
   02/11/2020 10:20      67.4      66.2       13     14.1      0.00      7.54      57.4     0.45      1018.2     3.7       N   357  11.1       N       0     261       336       1.3      13.2      53.2      9.09
   02/11/2020 10:10      66.5      65.7       13     13.5      0.00      7.54      57.5     0.45      1018.1     4.4       N   356  10.5       N     350     261       323       1.1      13.0      52.9      9.09
   02/11/2020 10:00      66.0      65.4       13     14.0      0.00      7.54      57.5     0.45      1018.1     4.5     NNW   347  10.0     NNE      18     261       307       1.3      12.8      52.3      9.09
   02/11/2020 09:50      65.6      64.7       14     14.2      0.00      7.54      57.5     0.45      1017.9     4.3     NNW   344  10.1     WSW     243     261       291       1.4      12.6      51.8      9.09
   02/11/2020 09:40      65.2      64.7       14     14.2      0.00      7.54      57.6     0.46      1017.9     4.5       N   356   8.4     NNW     344     262       273       1.4      12.3      51.3      9.09
   02/11/2020 09:30      65.0      63.9       14     14.1      0.00      7.54      57.6     0.46      1018.0     3.9     NNW   344   9.4       N       1     261       256       1.7      12.1      50.8      9.09
   02/11/2020 09:20      64.2      63.8       14     13.5      0.00      7.54      57.6     0.46      1017.8     5.0       N   355  10.1       W     279     262       239       1.5      11.8      50.4      9.10
   02/11/2020 09:10      63.9      63.3       14     13.4      0.00      7.54      57.6     0.46      1017.9     4.6     NNW   340  11.1     NNW     330     262       222       1.7      11.6      50.0      9.10
   02/11/2020 09:00      63.4      62.8       14     13.6      0.00      7.54      57.7     0.46      1017.8     4.2       N   350   7.8       N     351     262       204       1.6      11.3      49.6      9.10
   02/11/2020 08:50      62.9      62.1       15     13.7      0.00      7.54      57.7     0.46      1017.6     4.5     NNW   342  11.2      NW     322     262       186       2.0      11.0      49.4      9.10
   02/11/2020 08:40      62.1      61.4       15     13.7      0.00      7.54      57.7     0.46      1017.4     5.5       N   353  12.7     NNE      18     262       168       1.7      10.7      49.3      9.10
   02/11/2020 08:30      61.5      61.1       15     13.9      0.00      7.54      57.8     0.46      1017.3     5.4       N     3  12.1     NNW     346     262       149       1.5      10.4      49.2      9.10
   02/11/2020 08:20      61.3      60.8       16     13.9      0.00      7.54      57.8     0.46      1017.2     4.6       N   355  12.3       N       0     262       134       1.6      10.2      48.9      9.10
   02/11/2020 08:10      61.1      60.7       16     14.0      0.00      7.54      57.8     0.46      1017.5     3.7     NNW   344   9.2       N       7     263        85       1.2       9.9      48.7      9.10
   02/11/2020 08:00      60.9      60.0       16     13.8      0.00      7.54      57.8     0.46      1017.5     2.9     NNW   343   8.4       N       6     263        30       0.9       9.7      48.6      9.10
   02/11/2020 07:50      60.1      59.2       16     13.5      0.00      7.54      57.9     0.46      1017.5     3.1      NW   318   6.4     WNW     303     264        55       1.4       9.6      48.5      9.10
   02/11/2020 07:40      59.2      58.6       16     13.2      0.00      7.54      57.9     0.46      1017.5     2.3     NNW   332   6.3      NW     319     263       -37       1.3       9.3      48.5      9.11
   02/11/2020 07:30      58.9      58.6       16     12.8      0.00      7.54      57.9     0.46      1017.3     2.6     NNW   348   6.4       N       5     263       -63       0.9       9.1      48.6      9.11
   02/11/2020 07:20      59.0      58.5       16     12.5      0.00      7.54      57.9     0.46      1017.2     3.8       N   355  11.4     NNE      18     264       -66       1.0       9.0      48.6      9.11
   02/11/2020 07:10      59.4      58.9       15     11.9      0.00      7.54      57.9     0.46      1017.2     4.8       N   358  13.0      NE      34     264       -70       1.8       8.8      48.6      9.11
   02/11/2020 07:00      59.5      58.8       15     11.7      0.00      7.54      57.9     0.46      1016.9     5.2       N   358  11.1      SW     233     263       -74       1.5       8.5      48.7      9.11
   02/11/2020 06:50      58.8      58.1       16     12.1      0.00      7.54      58.0     0.46      1016.7     3.2     NNW   344   9.7       N     350     264       -77       1.8       8.2      48.7      9.11
   02/11/2020 06:40      58.8      58.4       16     12.1      0.00      7.54      57.9     0.46      1016.7     1.9     NNW   342   5.4       N       0     263       -80       1.4       7.9      48.8      9.11
   02/11/2020 06:30      59.4      58.6       15     11.9      0.00      7.54      58.0     0.46      1016.6     2.6      NW   306   9.2     WNW     295     264       -81       1.7       7.7      48.9      9.11
   02/11/2020 06:20      59.2      58.9       15     11.9      0.00      7.54      57.9     0.46      1016.5     2.4     WNW   297   6.7     WSW     250     264       -81       1.2       7.4      49.0      9.11
   02/11/2020 06:10      59.5      58.9       15     12.2      0.00      7.54      57.7     0.46      1016.2     2.7     WNW   282   7.5     NNW     340     264       -81       1.7       7.2      48.9      9.11
   02/11/2020 06:00      59.8      59.4       15     12.1      0.00      7.54      57.6     0.46      1016.0     2.8       N   354   9.3     NNE      31     264       -81       1.3       6.9      48.9      9.12
   02/11/2020 05:50      59.7      59.3       15     12.1      0.00      7.54      57.6     0.46      1015.8     4.7     NNE    27  13.0      NW     323     263       -80       1.7       6.7      49.0      9.12
   02/11/2020 05:40      59.5      57.8       16     12.3      0.00      7.54      57.7     0.46      1015.9     3.7       N    11   8.2     NNE      25     264       -78       1.2       6.4      49.0      9.12
   02/11/2020 05:30      58.9      57.9       16     12.5      0.00      7.54      57.7     0.46      1015.8     1.3      SE   134   3.2     WSW     254     264       -78       0.7       6.2      49.2      9.12
   02/11/2020 05:20      58.9      57.9       16     11.9      0.00      7.54      57.6     0.46      1015.7     1.9      SE   141   4.9     ESE     123     264       -79       1.2       6.1      49.3      9.12
   02/11/2020 05:10      59.6      57.9       16     12.0      0.00      7.54      57.7     0.46      1015.7     2.4     SSE   148   4.9       S     182     264       -80       1.5       5.9      49.4      9.12
   02/11/2020 05:00      60.4      59.4       14     11.2      0.00      7.54      57.7     0.46      1015.6     3.6     ESE   112   6.3      SE     128     263       -83       1.8       5.7      49.6      9.12
   02/11/2020 04:50      61.2      60.4       14     10.8      0.00      7.54      57.7     0.46      1015.4     2.7       E    97   6.4      SW     223     263       -84       1.4       5.4      49.7      9.12
   02/11/2020 04:40      61.4      60.9       13     10.3      0.00      7.54      57.7     0.46      1015.0     4.6     NNE    17  12.8     NNE      19     263       -85       1.7       5.1      49.8      9.12
   02/11/2020 04:30      61.3      60.9       13     10.1      0.00      7.54      57.7     0.46      1014.6     7.1       N    10  12.0      NE      54     263       -85       2.1       4.8      49.9      9.12
   02/11/2020 04:20      61.3      60.9       13      9.9      0.00      7.54      57.7     0.46      1014.3     8.9       N     5  14.1     NNW     329     263       -85       2.0       4.5      50.0      9.13
   02/11/2020 04:10      61.6      60.9       13      9.8      0.00      7.54      57.8     0.46      1014.3     8.9       N    11  14.3     NNE      20     263       -84       1.8       4.2      50.1      9.13
   02/11/2020 04:00      61.4      61.0       13      9.7      0.00      7.54      57.9     0.46      1014.8     6.6       N     3  12.6     NNE      17     263       -83       1.3       3.9      50.4      9.13
   02/11/2020 03:50      61.9      61.3       13      9.5      0.00      7.54      57.8     0.46      1014.9     6.3       N     2  10.7      NW     325     263       -83       1.2       3.7      50.4      9.13
   02/11/2020 03:40      62.1      61.1       12      9.3      0.00      7.54      58.1     0.46      1015.1     4.7       N   350   9.7       W     281     263       -81       1.2       3.5      50.8      9.13
   02/11/2020 03:30      61.9      61.4       12      9.1      0.00      7.54      58.5     0.46      1015.1     3.4     NNW   341   7.3       W     265     263       -80       0.8       3.3      51.1      9.13
   02/11/2020 03:20      61.9      61.0       12      8.9      0.00      7.54      58.0     0.46      1015.1     3.1     NNW   342   7.1     NNW     348     263       -79       0.8       3.1      50.9      9.13
   02/11/2020 03:10      62.1      61.1       12      8.8      0.00      7.54      58.1     0.46      1015.0     3.3     NNW   335   7.6       N     349     263       -79       0.6       3.0      50.9      9.13
   02/11/2020 03:00      62.2      61.8       12      8.5      0.00      7.54      58.3     0.46      1015.0     3.3      NW   325   7.5     NNE      33     263       -79       1.2       2.9      51.1      9.13
   02/11/2020 02:50      62.2      61.4       12      8.7      0.00      7.54      57.9     0.46      1014.9     2.4     NNW   334   7.7     WNW     290     263       -78       0.8       2.7      50.9      9.13
   02/11/2020 02:40      62.1      60.8       12      8.5      0.00      7.54      58.0     0.46      1014.8     3.1     NNW   327   7.5      NW     314     263       -77       1.5       2.6      51.1      9.13
   02/11/2020 02:30      61.3      59.9       12      8.3      0.00      7.54      58.0     0.46      1014.8     3.4      NW   317   7.2     NNW     348     263       -76       1.4       2.3      51.3      9.13
   02/11/2020 02:20      60.4      59.7       12      7.9      0.00      7.54      58.3     0.46      1014.8     2.9      NW   326   6.3      NW     307     264       -76       0.8       2.1      51.6      9.14
   02/11/2020 02:10      60.5      58.6       13      8.2      0.00      7.54      58.5     0.46      1014.8     3.4      NW   323   7.9       W     275     264       -76       1.6       2.0      51.9      9.14
   02/11/2020 02:00      59.0      57.4       14      8.8      0.00      7.54      58.5     0.46      1014.8     3.0      NW   315   7.8     WNW     303     264       -74       1.7       1.7      51.9      9.14
   02/11/2020 01:50      57.6      55.8       15     10.2      0.00      7.54      58.4     0.46      1014.8     2.1     NNW   334   5.3      NW     313     264       -73       0.5       1.4      51.9      9.14
   02/11/2020 01:40      55.8      54.1       18     12.2      0.00      7.54      58.5     0.46      1014.8     1.7       N   358   4.1     NNW     338     264       -71       0.4       1.3      52.0      9.14
   02/11/2020 01:30      55.9      54.6       19     13.3      0.00      7.54      58.4     0.46      1014.8     0.7     WNW   302   2.9      NW     305     264       -72       0.3       1.3      52.2      9.14
   02/11/2020 01:20      56.8      55.8       18     12.8      0.00      7.54      58.4     0.46      1014.8     1.6       W   281   3.1       W     265     264       -72       0.7       1.2      52.4      9.14
   02/11/2020 01:10      57.0      55.4       17     12.2      0.00      7.54      58.4     0.46      1014.8     2.3       W   280   4.4       W     281     264       -72       1.2       1.1      52.5      9.14
   02/11/2020 01:00      55.2      54.1       19     12.8      0.00      7.54      58.3     0.46      1014.8     2.2     WSW   240   3.4     WSW     249     264       -70       1.1       0.9      52.7      9.14
   02/11/2020 00:50      56.4      54.6       18     12.9      0.00      7.54      58.3     0.46      1014.8     1.5     SSW   212   3.5      SW     216     264       -72       0.7       0.7      53.0      9.15
   02/11/2020 00:40      57.9      55.6       18     12.9      0.00      7.54      58.3     0.46      1014.7     1.3      SW   215   3.8      SW     217     264       -74       0.6       0.6      53.3      9.15
   02/11/2020 00:30      60.2      58.0       15     10.9      0.00      7.54      58.4     0.46      1014.7     2.5     WSW   241   3.9     WSW     243     264       -75       1.4       0.5      53.6      9.15
   02/11/2020 00:20      61.4      60.1       13     10.5      0.00      7.54      58.4     0.46      1014.7     1.2       W   276   3.4      NW     311     264       -78       0.6       0.2      53.9      9.15
   02/11/2020 00:10      62.0      61.3       13     10.2      0.00      7.54      58.4     0.46      1014.5     1.6      NW   306   3.4      NW     319     263       -80       0.8       0.1      54.2      9.15
   02/11/2020 00:00      62.2      61.7       13      9.8      0.00      7.54      58.3     0.46      1014.5     2.2      NW   312   5.7     WNW     288     263       -81       1.1      44.1      54.3      9.15
   02/10/2020 23:50      61.8      61.5       13     10.1      0.00      7.54      58.1     0.46      1014.5     2.4      NW   315   5.9       N       0     263       -82       1.2      43.9      54.2      9.15
   02/10/2020 23:40      62.0      61.5       13     10.3      0.00      7.54      58.1     0.46      1014.5     2.3     WNW   296   6.4     WNW     297     263       -83       1.8      43.7      54.4      9.15
   02/10/2020 23:30      62.6      62.0       13     10.2      0.00      7.54      58.1     0.46      1014.4     2.3      NW   314   4.9     NNW     327     263       -83       1.3      43.4      54.6      9.15
   02/10/2020 23:20      63.0      62.6       12      9.6      0.00      7.54      58.4     0.46      1014.4     4.0     WNW   300   8.5      NW     315     263       -84       2.1      43.2      55.0      9.16
   02/10/2020 23:10      63.4      62.7       12      9.7      0.00      7.54      58.5     0.46      1014.5     3.5      NW   305   8.7     WNW     299     263       -84       2.0      42.9      55.3      9.16
   02/10/2020 23:00      63.1      62.6       12     10.0      0.00      7.54      58.5     0.46      1014.5     4.0     WNW   291   8.5       W     264     263       -83       2.8      42.5      55.5      9.16
   02/10/2020 22:50      63.3      62.6       12     10.3      0.00      7.54      58.5     0.46      1014.3     3.7     WNW   296   8.0     WNW     286     263       -83       2.5      42.0      55.7      9.16
   02/10/2020 22:40      62.8      61.9       13     10.7      0.00      7.54      58.5     0.46      1014.2     3.3     WNW   289   5.8     NNW     328     264       -82       2.1      41.6      55.8      9.16
   02/10/2020 22:30      63.1      61.9       13     11.3      0.00      7.54      58.5     0.46      1014.2     3.7       W   261   8.4     WNW     295     264       -83       2.4      41.3      56.1      9.16
   02/10/2020 22:20      63.5      62.9       13     11.2      0.00      7.54      58.5     0.46      1014.2     4.5       W   272   8.8       W     276     264       -84       2.8      40.9      56.4      9.17
   02/10/2020 22:10      63.6      63.1       13     11.4      0.00      7.54      58.5     0.46      1014.2     3.3       W   274   7.3     WSW     248     264       -84       2.1      40.4      56.6      9.17
   02/10/2020 22:00      63.5      63.1       13     11.7      0.00      7.54      58.5     0.46      1014.0     4.0     WNW   285  11.9      NW     312     263       -84       2.1      40.1      56.9      9.17
   02/10/2020 21:50      63.4      63.1       13     12.3      0.00      7.54      58.5     0.46      1014.0     3.3     WNW   284   8.4     WNW     291     264       -84       2.3      39.7      57.1      9.17
   02/10/2020 21:40      63.3      62.8       14     12.9      0.00      7.54      58.5     0.46      1013.9     2.7     WNW   296   6.3     WNW     294     264       -84       1.9      39.4      57.3      9.17
   02/10/2020 21:30      63.2      62.3       14     13.7      0.00      7.54      58.7     0.46      1013.9     3.3      NW   306   9.5       W     278     264       -84       1.9      39.0      57.7      9.17
   02/10/2020 21:20      62.7      62.3       16     15.0      0.00      7.54      58.9     0.46      1013.8     2.3      NW   309   4.8      NW     323     264       -84       1.0      38.7      58.0      9.18
   02/10/2020 21:10      62.6      62.3       16     15.3      0.00      7.54      58.9     0.46      1013.6     2.8      NW   322   8.1     NNW     345     264       -84       1.2      38.5      58.3      9.18
   02/10/2020 21:00      62.6      62.2       16     16.1      0.00      7.54      58.8     0.46      1013.5     2.2      NW   310   5.4     NNW     328     264       -85       1.0      38.4      58.5      9.18
   02/10/2020 20:50      63.4      62.5       16     16.2      0.00      7.54      58.9     0.46      1013.4     3.1      NW   306   8.2       N     349     264       -85       1.6      38.2      58.8      9.18
   02/10/2020 20:40      63.5      63.0       16     15.9      0.00      7.54      58.9     0.46      1013.3     2.9      NW   315   7.0      NW     316     264       -85       1.4      37.9      59.0      9.18
   02/10/2020 20:30      63.3      62.5       16     16.3      0.00      7.54      58.4     0.46      1013.2     2.9      NW   319   7.0       N      10     264       -83       1.2      37.7      58.8      9.18
   02/10/2020 20:20      62.6      60.9       17     16.9      0.00      7.54      58.1     0.46      1013.2     2.9      NW   310   6.0      NW     316     264       -82       1.7      37.5      58.8      9.18
   02/10/2020 20:10      61.5      60.4       18     17.4      0.00      7.54      58.1     0.46      1013.1     3.1     WSW   253   6.2     WSW     253     264       -81       2.0      37.2      59.0      9.19
   02/10/2020 20:00      61.2      60.5       19     17.8      0.00      7.54      58.3     0.46      1013.2     4.1     WSW   242   5.9     WNW     297     264       -81       2.3      36.9      59.4      9.19
   02/10/2020 19:50      61.6      60.8       19     18.3      0.00      7.54      58.7     0.46      1013.2     4.6     WSW   237   7.8      SW     233     264       -82       2.7      36.5      60.2      9.19
   02/10/2020 19:40      62.0      61.4       19     18.7      0.00      7.54      58.7     0.46      1013.2     4.2     WSW   238   6.1     WSW     249     264       -82       2.6      36.0      60.6      9.19
   02/10/2020 19:30      62.2      61.7       19     19.0      0.00      7.54      58.7     0.46      1013.1     4.2     WSW   251   6.7       W     273     264       -83       2.5      35.6      60.9      9.19
   02/10/2020 19:20      62.1      61.6       19     19.3      0.00      7.54      58.2     0.46      1013.0     4.2     WSW   236   8.0     WSW     239     264       -82       2.5      35.2      60.9      9.19
   02/10/2020 19:10      62.5      61.8       19     19.0      0.00      7.54      58.1     0.46      1013.0     3.0      SW   219   6.7      SW     235     264       -80       1.8      34.8      60.9      9.20
   02/10/2020 19:00      62.6      62.1       18     18.5      0.00      7.54      58.1     0.46      1013.1     3.4      SW   222   5.0     WSW     246     264       -79       2.0      34.5      61.4      9.20
   02/10/2020 18:50      64.1      62.1       18     18.8      0.00      7.54      58.1     0.46      1013.1     3.2     SSW   213   4.7     SSW     209     264       -79       1.8      34.1      61.8      9.20
   02/10/2020 18:40      65.5      64.2       17     19.1      0.00      7.54      57.9     0.46      1013.1     1.9       W   266   4.3      NW     317     264       -83       1.3      33.9      62.2      9.20
   02/10/2020 18:30      66.2      65.4       18     20.7      0.00      7.54      57.9     0.46      1013.0     2.2      NW   324   4.8     NNE      33     264       -83       1.1      33.6      62.5      9.20
   02/10/2020 18:20      66.1      65.7       18     20.9      0.00      7.54      57.9     0.46      1012.9     2.1     NNE    30   4.5     ENE      73     264       -83       0.2      33.5      62.8      9.21
   02/10/2020 18:10      66.8      66.2       17     20.4      0.00      7.54      57.9     0.46      1012.9     2.1      NE    38   3.7       N       6     264       -85       0.3      33.4      63.1      9.21
   02/10/2020 18:00      67.3      66.7       16     19.7      0.00      7.54      57.9     0.46      1012.8     2.9     NNE    27   7.0       N       1     264       -87       0.8      33.4      63.4      9.21
   02/10/2020 17:50      67.5      66.8       16     19.3      0.00      7.54      57.8     0.46      1012.7     2.7     NNE    29   7.5       S     177     264       -87       0.7      33.3      63.7      9.21
   02/10/2020 17:40      68.4      67.4       15     18.7      0.00      7.54      57.8     0.46      1012.6     3.1     NNE    22   7.6     NNE      24     263       -88       0.9      33.1      64.1      9.21
   02/10/2020 17:30      68.5      68.1       15     18.2      0.00      7.54      57.8     0.46      1012.5     5.9     NNE    12  12.0     NNE      17     263       -85       1.7      33.0      64.4      9.21
   02/10/2020 17:20      68.8      68.2       15     18.8      0.00      7.54      57.7     0.46      1012.4     5.3     NNE    19  15.4      NE      35     264       -81       1.6      32.7      64.7      9.22
   02/10/2020 17:10      69.2      68.5       16     21.0      0.00      7.54      57.8     0.46      1012.3     3.5     NNE    28   7.8      NE      38     264       -76       1.1      32.4      65.1      9.22
   02/10/2020 17:00      69.5      69.0       16     21.5      0.00      7.54      57.8     0.46      1012.2     4.7     NNE    22  10.4     ENE      61     263       -54       1.2      32.3      65.3      9.22
   02/10/2020 16:50      69.9      69.2       17     23.4      0.00      7.54      57.7     0.46      1012.1     4.3       N     7  10.5      NW     323     264       -59       1.2      32.0      65.7      9.23
   02/10/2020 16:40      70.0      69.7       18     24.8      0.00      7.54      57.7     0.46      1012.1     3.4     NNE    19   7.0      NE      43     263       -17       0.9      31.9      65.9      9.23
   02/10/2020 16:30      69.9      69.6       18     24.4      0.00      7.54      57.7     0.46      1012.1     5.3       N     9  11.8     NNW     348     264        14       1.5      31.7      66.0      9.23
   02/10/2020 16:20      70.6      69.7       18     24.8      0.00      7.54      57.6     0.46      1012.1     4.9     NNE    12  10.8     ENE      58     264        37       1.5      31.5      66.0      9.23
   02/10/2020 16:10      70.6      70.1       18     24.4      0.00      7.54      57.6     0.46      1012.0     3.6     NNE    19   8.6       E      89     264        61       1.1      31.2      66.0      9.23
   02/10/2020 16:00      70.3      69.8       17     23.5      0.00      7.54      57.6     0.46      1011.9     5.7       N    10  13.9       N       7     264        87       1.4      31.0      66.2      9.24
   02/10/2020 15:50      70.4      70.1       17     23.3      0.00      7.54      57.5     0.46      1011.9     6.7     NNE    12  13.4      NW     316     264       111       2.0      30.8      66.1      9.24
   02/10/2020 15:40      70.4      70.1       17     22.8      0.00      7.54      57.5     0.46      1011.9     6.3     NNE    23  10.0      NE      45     263       127       1.8      30.5      66.1      9.24
   02/10/2020 15:30      70.4      69.9       16     22.6      0.00      7.54      57.5     0.46      1011.9     6.0     NNE    20  12.1       N       7     263       151       1.9      30.2      66.0      9.24
   02/10/2020 15:20      71.2      70.3       16     22.8      0.00      7.54      57.5     0.46      1012.0     6.8     NNE    19  12.7     WNW     296     263       170       2.0      29.8      65.8      9.25
   02/10/2020 15:10      71.3      70.7       16     23.0      0.00      7.54      57.4     0.46      1011.9     4.5     NNE    16   9.6       N     351     263       188       1.6      29.5      65.7      9.25
   02/10/2020 15:00      70.8      70.1       16     22.0      0.00      7.54      57.1     0.46      1011.8     5.1     NNE    16   8.1       N       2     262       211       1.3      29.3      65.1      9.25
   02/10/2020 14:50      70.3      69.6       16     21.7      0.00      7.54      57.0     0.46      1011.8     4.9     NNE    15  10.4     NNE      12     262       230       1.8      29.0      64.8      9.26
   02/10/2020 14:40      70.1      69.5       16     22.3      0.00      7.54      57.0     0.46      1011.9     6.3      NE    39   9.8      NE      40     262       253       2.1      28.7      64.6      9.26
   02/10/2020 14:30      69.8      69.3       16     22.0      0.00      7.54      56.9     0.46      1011.9     6.3      NE    45  13.0      NE      41     263       270       2.0      28.4      64.4      9.26
   02/10/2020 14:20      70.0      69.2       17     22.3      0.00      7.54      56.8     0.46      1012.0     6.0     NNE    30  11.5     NNE      18     262       286       2.2      28.0      64.0      9.26
   02/10/2020 14:10      69.5      68.6       16     21.6      0.00      7.54      56.9     0.46      1012.0     7.6     NNE    14  17.2      NE      45     263       302       2.3      27.7      63.7      9.27
   02/10/2020 14:00      69.7      69.0       16     21.1      0.00      7.54      56.8     0.46      1012.0     7.3     NNE    32  13.3     NNE      22     262       316       2.1      27.3      63.5      9.27
   02/10/2020 13:50      69.7      68.9       15     20.3      0.00      7.54      56.7     0.46      1012.0     6.8     NNE    29  11.3     NNW     343     263       326       2.2      27.0      63.2      9.27
   02/10/2020 13:40      69.7      67.8       15     19.8      0.00      7.54      56.8     0.46      1012.0     4.5     NNE    18  10.5      NE      37     262       338       1.8      26.6      62.8      9.27
   02/10/2020 13:30      68.2      67.8       15     18.7      0.00      7.54      56.7     0.45      1012.2     6.2     NNE    14  12.9      NE      46     263       354       1.8      26.3      62.4      9.27
   02/10/2020 13:20      68.0      67.7       15     18.5      0.00      7.54      56.7     0.45      1012.3     6.9     NNE    17  11.4       N      11     263       362       1.7      26.0      62.0      9.28
   02/10/2020 13:10      67.9      66.9       15     18.7      0.00      7.54      56.7     0.45      1012.4     6.9     NNE    17  14.1     NNW     328     262       373       1.9      25.7      61.7      9.28
   02/10/2020 13:00      67.4      67.0       16     18.8      0.00      7.54      56.7     0.45      1012.5     8.0     NNE    24  14.5     NNE      23     263       382       2.5      25.4      61.3      9.28
   02/10/2020 12:50      67.3      66.5       16     18.7      0.00      7.54      56.8     0.45      1012.5     7.6     NNE    25  16.2     NNE      29     263       390       2.6      25.0      60.8      9.28
   02/10/2020 12:40      67.4      65.9       16     18.8      0.00      7.54      56.8     0.45      1012.5     6.6      NE    34  10.7     NNE      21     263       397       2.3      24.5      60.4      9.29
   02/10/2020 12:30      66.5      65.4       16     18.7      0.00      7.54      56.7     0.45      1012.5     9.5      NE    46  20.1      NE      43     263       406       3.1      24.1      59.8      9.29
   02/10/2020 12:20      66.4      65.9       16     18.8      0.00      7.54      56.8     0.45      1012.5     7.7      NE    36  13.9     NNE      32     263       409       2.5      23.6      59.4      9.29
   02/10/2020 12:10      66.4      65.4       17     19.2      0.00      7.54      56.9     0.45      1012.6     8.0     NNE    29  14.7      NE      56     263       411       2.7      23.2      58.8      9.29
   02/10/2020 12:00      65.9      65.3       17     18.9      0.00      7.54      56.9     0.45      1012.7     8.7      NE    39  15.6     NNE      27     263       411       2.9      22.8      58.1      9.29
   02/10/2020 11:50      65.8      65.0       17     19.2      0.00      7.54      56.9     0.45      1012.7     8.0     NNE    31  15.6       W     267     263       408       3.0      22.3      57.7      9.29
   02/10/2020 11:40      65.9      64.9       17     19.2      0.00      7.54      56.9     0.45      1012.8     7.3     NNE    23  13.7       N      10     263       402       2.6      21.8      57.1      9.30
   02/10/2020 11:30      65.4      64.8       17     19.3      0.00      7.54      56.8     0.45      1012.9     7.7     NNE    23  15.9     NNE      25     263       398       3.0      21.3      56.5      9.30
   02/10/2020 11:20      65.2      64.4       17     19.3      0.00      7.54      56.9     0.45      1012.8     7.9     NNE    19  12.7     NNE      17     263       394       2.7      20.8      55.7      9.30
   02/10/2020 11:10      64.8      64.3       17     19.0      0.00      7.54      56.9     0.45      1012.9     8.9     NNE    15  15.3     NNW     348     263       388       3.0      20.4      55.1      9.30
   02/10/2020 11:00      64.9      64.2       17     18.4      0.00      7.54      56.6     0.45      1013.1     7.3     NNE    27  15.1      NW     325     263       380       2.5      19.9      54.3      9.31
   02/10/2020 10:50      64.6      63.7       17     18.0      0.00      7.54      56.3     0.45      1013.2     6.8     NNE    21  11.1     NNW     339     263       370       2.4      19.5      53.4      9.31
   02/10/2020 10:40      64.0      63.2       17     17.6      0.00      7.54      56.3     0.45      1013.0     8.5     NNE    22  14.4     NNW     334     263       367       3.0      19.1      52.8      9.31
   02/10/2020 10:30      63.4      62.9       17     17.3      0.00      7.54      56.3     0.45      1012.9     8.3     NNE    16  16.3       N     350     263       351       2.9      18.6      52.3      9.31
   02/10/2020 10:20      63.4      62.1       17     17.2      0.00      7.54      56.3     0.45      1013.1     6.2     NNE    17  12.8     NNE      17     263       335       2.2      18.1      51.8      9.31
   02/10/2020 10:10      62.5      61.9       17     16.9      0.00      7.54      56.4     0.45      1013.3     7.6     NNE    23  16.0     NNE      31     263       310       2.6      17.7      51.3      9.31
   02/10/2020 10:00      62.3      61.2       17     17.1      0.00      7.54      56.7     0.45      1013.5     6.0     NNE    12  12.2      NE      44     263       328       2.1      17.3      51.1      9.31
   02/10/2020 09:50      61.3      59.7       19     17.9      0.00      7.54      57.1     0.45      1013.5     5.5     NNE    20  13.1      NE      40     264       195       1.7      17.0      51.0      9.32
   02/10/2020 09:40      61.0      59.6       20     18.8      0.00      7.54      57.2     0.45      1013.3     5.9     NNE    26  12.6     NNW     346     264        12       1.7      16.7      50.7      9.32
   02/10/2020 09:30      61.2      60.8       20     19.3      0.00      7.54      57.2     0.45      1013.2     7.4     NNE    13  13.9     NNE      14     263       237       2.3      16.4      50.5      9.32
   02/10/2020 09:20      61.0      60.3       20     19.3      0.00      7.54      57.2     0.45      1013.1     6.9     NNE    21  13.7      NE      34     264       258       2.3      16.0      50.1      9.32
   02/10/2020 09:10      60.4      59.2       19     17.2      0.00      7.54      57.1     0.45      1013.0     7.7     NNE    21  17.6       N       0     264       324       2.5      15.6      49.7      9.32
   02/10/2020 09:00      60.0      59.0       18     16.0      0.00      7.54      57.0     0.45      1013.0     6.6     NNE    14  13.8     NNE      29     264       135       2.0      15.2      49.0      9.32
   02/10/2020 08:50      60.0      59.2       18     16.2      0.00      7.54      56.9     0.46      1012.8     7.0       N     4  13.1       N      10     264       183       2.0      14.9      48.8      9.32
   02/10/2020 08:40      59.5      58.9       18     15.7      0.00      7.54      56.9     0.46      1012.7     7.5     NNE    16  12.5       N       4     264       157       2.5      14.5      48.5      9.32
   02/10/2020 08:30      59.1      58.6       18     16.0      0.00      7.54      57.0     0.46      1012.7     6.1       N     7  12.7       N       8     264       139       1.8      14.1      48.4      9.33
   02/10/2020 08:20      58.7      58.4       19     16.0      0.00      7.54      56.9     0.46      1012.7     7.2     NNE    13  12.9       N       4     264       119       1.6      13.8      48.3      9.33
   02/10/2020 08:10      58.5      57.9       19     16.3      0.00      7.54      57.0     0.46      1012.6     7.0     NNE    12  12.0       N       3     265        78       2.3      13.5      48.2      9.33
   02/10/2020 08:00      58.1      57.6       20     16.6      0.00      7.54      56.9     0.46      1012.5     6.4     NNE    20  18.8       N       2     265        22       2.1      13.2      48.1      9.33
   02/10/2020 07:50      57.8      57.0       21     17.3      0.00      7.54      57.0     0.46      1012.5     4.2       N    11  11.7     NNE      32     265        44       0.9      12.8      48.1      9.33
   02/10/2020 07:40      57.1      56.5       21     17.8      0.00      7.54      57.0     0.46      1012.4     4.8     NNE    20  13.9     NNE      14     265       -44       1.6      12.7      47.9      9.33
   02/10/2020 07:30      56.7      56.0       22     17.6      0.00      7.54      57.0     0.46      1012.2     5.7     NNE    16  13.9     ENE      57     265       -51       2.0      12.4      48.1      9.33
   02/10/2020 07:20      56.2      55.5       22     17.9      0.00      7.54      57.2     0.46      1012.1     6.8     NNE    13  15.3       N     354     265       -58       2.3      12.1      48.3      9.33
   02/10/2020 07:10      55.7      55.4       23     18.1      0.00      7.54      57.2     0.46      1012.1     4.5     NNE    20  10.1     NNW     348     266       -64       1.3      11.7      48.4      9.33
   02/10/2020 07:00      56.2      55.5       22     17.8      0.00      7.54      57.1     0.46      1012.1     6.2     NNE    22  16.0       N       0     265       -68       1.7      11.5      48.3      9.33
   02/10/2020 06:50      56.0      55.5       22     17.2      0.00      7.54      57.0     0.46      1012.1     7.0     NNE    27  15.2       N       7     265       -71       2.5      11.2      48.3      9.34
   02/10/2020 06:40      55.7      55.4       21     16.4      0.00      7.54      57.0     0.46      1012.1     6.0     NNE    22  13.9       N     352     265       -74       1.9      10.8      48.4      9.34
   02/10/2020 06:30      55.7      55.3       21     16.6      0.00      7.54      57.1     0.46      1012.0     5.4     NNE    14  11.1     NNE      19     266       -75       1.7      10.4      48.5      9.34
   02/10/2020 06:20      55.7      55.2       22     17.6      0.00      7.54      57.4     0.46      1012.1     6.0       N    10  11.6       N     354     266       -76       1.7      10.2      49.0      9.34
   02/10/2020 06:10      55.8      55.3       23     17.9      0.00      7.54      57.4     0.46      1012.3     5.3     NNE    12  11.6     NNE      29     266       -75       1.5       9.9      49.0      9.34
   02/10/2020 06:00      55.8      55.5       22     17.3      0.00      7.54      57.4     0.46      1012.2     6.0     NNE    13  12.9     NNW     341     266       -74       1.6       9.6      49.1      9.34
   02/10/2020 05:50      55.9      55.5       22     17.1      0.00      7.54      57.2     0.46      1012.1     5.0     NNE    14  12.8     NNE      27     266       -67       1.6       9.4      49.0      9.34
   02/10/2020 05:40      55.9      55.5       21     16.9      0.00      7.54      57.1     0.46      1012.1     5.6     NNE    13  10.3     NNW     346     266       -68       1.7       9.1      49.0      9.34
   02/10/2020 05:30      56.1      55.6       21     17.0      0.00      7.54      57.1     0.46      1012.0     5.4       N     9  11.6       N       5     266       -72       1.7       8.8      49.1      9.35
   02/10/2020 05:20      56.3      55.9       21     16.9      0.00      7.54      57.2     0.46      1011.8     5.6     NNE    14  10.4     NNE      33     266       -65       1.4       8.5      49.1      9.35
   02/10/2020 05:10      56.5      56.1       21     16.8      0.00      7.54      57.3     0.46      1011.7     7.9     NNE    14  13.9       W     265     266       -69       2.1       8.3      49.4      9.35
   02/10/2020 05:00      56.4      55.7       22     18.1      0.00      7.54      57.3     0.46      1011.7     6.6       N     9  11.5      NW     316     266       -56       1.9       7.9      49.5      9.35
   02/10/2020 04:50      56.0      55.5       25     20.4      0.00      7.54      57.1     0.46      1011.6     4.7     NNE    18  10.3     NNE      26     266       -49       1.2       7.6      49.4      9.35
   02/10/2020 04:40      55.8      55.4       27     22.1      0.00      7.54      57.1     0.46      1011.5     5.6       N     6  15.3     NNE      17     266       -43       1.5       7.4      49.4      9.35
   02/10/2020 04:30      55.6      55.3       29     23.4      0.00      7.54      57.2     0.46      1011.5     5.7       N     8   9.1       N     351     266       -35       1.4       7.2      49.7      9.35
   02/10/2020 04:20      55.6      55.4       29     23.6      0.00      7.54      57.1     0.46      1011.5     5.9       N     9  14.3     NNE      20     266       -39       1.7       7.0      49.7      9.35
   02/10/2020 04:10      55.7      55.4       28     23.0      0.00      7.54      57.4     0.46      1011.6     5.8     NNE    23  12.0     NNE      26     266       -42       1.7       6.7      49.9      9.35
   02/10/2020 04:00      56.0      55.4       28     22.8      0.00      7.54      57.4     0.46      1011.5     6.2       N     7  12.9     NNE      25     266       -41       1.7       6.4      50.0      9.35
   02/10/2020 03:50      56.2      55.8       27     23.0      0.00      7.54      57.2     0.46      1011.4     6.3     NNE    12  12.7       N     350     266       -40       2.1       6.1      49.8      9.35
   02/10/2020 03:40      56.4      55.9       27     22.9      0.00      7.54      57.0     0.46      1011.2     7.5       N    10  13.9     ENE      63     266       -36       2.0       5.8      49.7      9.36
   02/10/2020 03:30      56.5      56.0       27     22.6      0.00      7.54      57.1     0.46      1011.1     7.5       N     9  14.5       N     354     266       -47       2.3       5.4      49.9      9.36
   02/10/2020 03:20      56.8      56.4       25     21.3      0.00      7.54      57.4     0.46      1011.1     6.7     NNE    26  13.4       N       0     266       -53       2.3       5.0      50.3      9.36
   02/10/2020 03:10      57.1      56.7       24     20.9      0.00      7.54      57.6     0.46      1011.1     7.9       N    10  14.7     NNW     336     266       -43       2.3       4.7      50.4      9.36
   02/10/2020 03:00      57.0      56.5       26     21.9      0.00      7.54      57.2     0.46      1011.1     8.0       N     5  17.1      NE      34     266       -37       2.2       4.3      50.3      9.36
   02/10/2020 02:50      56.8      56.4       27     23.0      0.00      7.54      57.3     0.46      1011.1     7.3     NNE    12  16.6     NNE      12     266       -37       2.4       3.9      50.3      9.36
   02/10/2020 02:40      56.5      55.5       30     24.9      0.00      7.54      57.3     0.46      1011.1     5.1     NNE    23  10.6       N       5     266       -42       1.7       3.5      50.4      9.36
   02/10/2020 02:30      56.0      55.5       32     26.5      0.00      7.54      57.3     0.46      1011.0     5.1       N     7  10.6       N       5     266       -44       1.2       3.2      50.5      9.36
   02/10/2020 02:20      56.3      55.9       31     25.9      0.00      7.54      57.0     0.46      1011.1     5.3       N     9  10.4     NNE      29     266       -37       1.3       3.0      50.1      9.36
   02/10/2020 02:10      56.2      55.9       31     25.6      0.00      7.54      56.9     0.46      1011.2     4.3     NNE    22   9.6     NNE      30     266       -34       1.2       2.8      50.1      9.37
   02/10/2020 02:00      56.2      55.8       31     25.4      0.00      7.54      57.1     0.46      1011.3     4.2     NNE    25   9.0     NNE      32     266       -40       1.4       2.6      50.3      9.37
   02/10/2020 01:50      56.0      55.6       31     25.9      0.00      7.54      57.2     0.46      1011.3     4.0     NNE    25   7.6      NE      53     266       -44       1.2       2.4      50.5      9.37
   02/10/2020 01:40      55.7      55.2       33     26.8      0.00      7.54      57.4     0.46      1011.2     5.1     NNE    17  10.6       N       0     266       -39       1.6       2.2      50.6      9.37
   02/10/2020 01:30      55.6      55.2       34     27.4      0.00      7.54      57.4     0.46      1011.3     3.1     NNE    24   6.0      NW     315     266       -34       1.2       1.9      50.8      9.37
   02/10/2020 01:20      55.7      55.4       33     27.1      0.00      7.54      57.3     0.46      1011.3     5.4     NNE    21  12.8       N       0     266       -35       1.6       1.7      50.7      9.37
   02/10/2020 01:10      56.6      55.6       31     25.8      0.00      7.54      57.4     0.46      1011.2     3.8     NNE    26  12.0       N       3     266       -31       1.4       1.5      50.9      9.37
   02/10/2020 01:00      56.8      56.4       29     24.7      0.00      7.54      57.4     0.46      1011.1     5.4     NNE    29  15.5     NNE      13     266       -30       1.9       1.2      51.0      9.37
   02/10/2020 00:50      56.7      56.5       29     24.3      0.00      7.54      57.4     0.46      1011.0     4.8     NNE    30   8.3     NNW     347     266       -30       1.5       0.9      51.1      9.37
   02/10/2020 00:40      56.7      56.2       29     24.2      0.00      7.54      57.4     0.46      1010.9     4.8     NNE    29   9.4     ENE      62     266       -33       1.6       0.7      51.0      9.37
   02/10/2020 00:30      56.7      56.2       29     24.2      0.00      7.54      57.5     0.46      1011.0     3.0      NE    41   7.2     ENE      65     266       -35       0.8       0.4      51.1      9.37
   02/10/2020 00:20      56.3      56.0       29     24.6      0.00      7.54      57.5     0.46      1010.9     2.7     NNE    31   7.4      NE      39     266       -31       0.8       0.3      51.2      9.37
   02/10/2020 00:10      56.4      55.9       29     24.6      0.00      7.54      57.4     0.46      1011.1     3.3     NNE    33   7.7       N     355     266       -30       0.7       0.1      51.4      9.37
   02/10/2020 00:00      56.2      55.7       30     24.8      0.00      7.54      57.4     0.46      1011.2     3.1     NNE    33   7.5     NNE      18     266       -32       0.9      15.9      51.4      9.37
   02/09/2020 23:50      56.2      55.6       30     25.1      0.00      7.54      57.4     0.46      1011.2     2.9     NNE    27   6.7      NW     322     266       -34       0.8      15.8      51.5      9.38
   02/09/2020 23:40      56.2      55.9       30     25.1      0.00      7.54      57.4     0.46      1011.5     4.0      NE    44   7.5     NNE      21     266       -35       0.9      15.7      51.6      9.38
   02/09/2020 23:30      56.2      55.8       31     25.5      0.00      7.54      57.5     0.46      1011.4     3.5      NE    35   7.6       N     351     266       -40       0.8      15.5      51.6      9.38
   02/09/2020 23:20      56.4      55.8       31     25.6      0.00      7.54      57.4     0.46      1011.4     3.3      NE    37   5.5      NE      43     266       -40       0.8      15.4      51.7      9.38
   02/09/2020 23:10      56.8      56.2       29     25.0      0.00      7.54      57.5     0.46      1011.3     4.8     NNE    32   8.6     ENE      63     266       -38       1.4      15.3      51.8      9.38
   02/09/2020 23:00      56.7      56.4       29     24.3      0.00      7.54      57.2     0.46      1011.3     6.5      NE    37  12.3      NE      54     266       -35       2.1      15.0      51.6      9.38
   02/09/2020 22:50      56.7      56.0       29     24.3      0.00      7.54      57.3     0.46      1011.2     5.9     NNE    29  14.1      NE      41     266       -34       1.7      14.7      51.6      9.38
   02/09/2020 22:40      56.2      55.5       30     25.0      0.00      7.54      57.2     0.46      1011.2     4.7     NNE    32  10.4     NNE      18     266       -33       1.3      14.4      51.7      9.38
   02/09/2020 22:30      55.8      55.4       32     25.9      0.00      7.54      57.2     0.46      1011.2     3.6     NNE    28   7.5     ENE      66     266       -32       1.0      14.2      51.8      9.38
   02/09/2020 22:20      55.8      55.5       32     25.9      0.00      7.54      57.2     0.46      1011.3     4.6      NE    38   9.0      NE      38     266       -27       1.4      14.0      51.9      9.38
   02/09/2020 22:10      56.2      55.6       31     25.4      0.00      7.54      57.2     0.46      1011.4     4.9     NNE    28  11.2       N     355     266       -25       1.6      13.8      52.0      9.38
   02/09/2020 22:00      56.4      56.0       29     24.4      0.00      7.54      57.3     0.46      1011.4     6.0      NE    36  13.1     NNE      13     266       -29       1.7      13.5      52.2      9.38
   02/09/2020 21:50      56.3      56.0       29     24.2      0.00      7.54      57.2     0.46      1011.4     3.7      NE    40   6.9     NNE      17     266       -33       1.0      13.2      52.2      9.38
   02/09/2020 21:40      56.5      56.2       28     23.9      0.00      7.54      57.3     0.46      1011.4     3.6     NNE    31   8.2      NE      44     266       -37       1.1      13.0      52.2      9.38
   02/09/2020 21:30      56.7      56.4       28     23.5      0.00      7.54      57.2     0.46      1011.3     4.1     NNE    32   9.1       N     352     266       -38       1.1      12.9      52.3      9.39
   02/09/2020 21:20      56.7      56.4       28     23.9      0.00      7.54      57.2     0.46      1011.3     3.5     NNE    22   7.6     ENE      64     268       -31       1.2      12.7      52.4      9.39
   02/09/2020 21:10      56.8      56.5       28     23.8      0.00      7.54      57.3     0.46      1011.3     3.7      NE    41   6.7      NE      36     266       -31       0.7      12.5      52.6      9.39
   02/09/2020 21:00      56.8      56.2       28     23.9      0.00      7.54      57.4     0.46      1011.2     4.7      NE    35   8.7      NE      40     266       -31       1.4      12.3      52.6      9.39
   02/09/2020 20:50      56.6      56.2       28     24.1      0.00      7.54      57.4     0.46      1011.0     3.3     NNE    25   8.5     NNE      13     267       -31       1.1      12.1      52.8      9.39
   02/09/2020 20:40      56.7      56.3       28     23.8      0.00      7.54      57.4     0.46      1010.9     3.3     NNE    25   7.8     NNE      18     267       -30       0.9      11.9      52.9      9.39
   02/09/2020 20:30      56.7      56.4       28     23.7      0.00      7.54      57.4     0.46      1010.8     4.0     NNE    24   6.7       N       9     268       -28       0.9      11.8      52.9      9.39
   02/09/2020 20:20      56.7      56.4       27     23.2      0.00      7.54      57.4     0.46      1010.7     3.9     NNE    26   6.5     NNE      13     267       -27       1.1      11.6      53.0      9.39
   02/09/2020 20:10      56.7      56.0       27     23.2      0.00      7.54      57.3     0.46      1010.6     4.0      NE    35   7.1       N       8     268       -28       0.9      11.5      53.1      9.39
   02/09/2020 20:00      56.3      56.0       28     23.9      0.00      7.54      57.3     0.46      1010.5     3.4      NE    35   8.8      NE      40     267       -33       1.0      11.3      53.2      9.39
   02/09/2020 19:50      56.2      55.4       30     24.6      0.00      7.54      57.4     0.46      1010.5     4.0     NNE    32   7.6      NE      56     268       -34       1.0      11.1      53.4      9.39
   02/09/2020 19:40      55.4      52.4       40     29.5      0.00      7.54      57.6     0.46      1010.5     3.3     NNE    28   6.2       N       8     268       -30       0.6      11.0      53.5      9.39
   02/09/2020 19:30      52.4      51.1       61     39.0      0.00      7.54      57.6     0.46      1010.5     0.6      NE    50   3.4       N     351     270       -32       0.3      10.9      53.6      9.39
   02/09/2020 19:20      51.3      50.8       72     42.2      0.00      7.54      57.7     0.46      1010.5     1.1     ESE   119   2.7      NE      39     270       -31       0.4      10.8      53.8      9.39
   02/09/2020 19:10      51.4      50.7       73     42.8      0.00      7.54      57.6     0.46      1010.4     0.7     SSE   148   2.2      SE     136     270       -29       0.2      10.8      53.8      9.39
   02/09/2020 19:00      51.7      51.1       73     43.1      0.00      7.54      57.5     0.46      1010.4     0.5     SSE   166   2.0     SSW     193     270       -28       0.3      10.7      53.9      9.39
   02/09/2020 18:50      51.8      51.5       73     43.4      0.00      7.54      57.6     0.46      1010.3     0.6     ESE   119   1.5      NE      50     270       -39       0.2      10.7      54.0      9.40
   02/09/2020 18:40      52.0      51.6       72     43.1      0.00      7.54      57.5     0.46      1010.2     1.4      SE   138   3.4       S     179     270       -35       0.5      10.6      54.0      9.40
   02/09/2020 18:30      52.0      51.4       73     43.2      0.00      7.54      57.3     0.46      1010.1     1.7      SE   128   3.7      SE     132     270       -30       0.7      10.6      54.0      9.40
   02/09/2020 18:20      51.6      51.3       75     43.8      0.00      7.54      57.2     0.46      1010.0     1.3      SE   127   2.7      SE     143     270       -28       0.2      10.4      54.1      9.40
   02/09/2020 18:10      51.6      51.1       75     43.6      0.00      7.54      57.3     0.46      1009.9     0.5     SSE   152   2.0       S     186     270       -28       0.2      10.4      54.3      9.40
   02/09/2020 18:00      52.0      51.5       74     43.8      0.00      7.54      57.2     0.46      1009.7     0.4     SSW   192   1.7     SSW     208     270       -32       0.0      10.4      54.4      9.40
   02/09/2020 17:50      52.2      51.7       74     43.8      0.00      7.54      57.3     0.46      1009.6     0.9      SE   142   1.8       N       0     270       -37       0.5      10.4      54.4      9.40
   02/09/2020 17:40      52.4      52.1       73     43.9      0.00      7.54      57.2     0.46      1009.6     0.9      SE   125   2.4      SE     138     270       -45       0.1      10.3      54.6      9.40
   02/09/2020 17:30      52.8      52.3       72     43.9      0.00      7.54      57.3     0.46      1009.6     1.7      SE   127   2.6      NE      55     270       -43       0.6      10.3      54.8      9.40
   02/09/2020 17:20      53.0      52.7       71     43.9      0.00      7.54      57.5     0.46      1009.6     0.2       E    85   1.1     ENE      68     270       -31       0.1      10.2      55.3      9.40
   02/09/2020 17:10      53.3      52.9       71     43.8      0.00      7.54      57.5     0.46      1009.6     0.9       E    95   2.2      NE      45     270       -25       0.5      10.2      55.5      9.40
   02/09/2020 17:00      53.3      52.9       71     43.8      0.00      7.54      57.5     0.46      1009.5     1.4       E    83   4.4      SE     142     273       -16       0.5      10.1      55.5      9.40
   02/09/2020 16:50      53.4      53.2       70     43.8      0.00      7.54      57.5     0.46      1009.6     1.9     ENE    72   4.3     ESE     111     269       -11       0.9      10.0      55.7      9.40
   02/09/2020 16:40      53.7      53.3       70     43.8      0.00      7.54      57.4     0.46      1009.5     1.2     ENE    77   3.7       E      84     269       -10       0.6       9.8      55.7      9.40
   02/09/2020 16:30      53.8      53.3       69     43.4      0.00      7.54      57.4     0.46      1009.4     1.9     ENE    77   3.6      NE      44     269         2       0.6       9.7      55.8      9.40
   02/09/2020 16:20      53.8      53.3       67     42.8      0.00      7.54      57.0     0.46      1009.4     1.8       E    83   5.2       E      85     269        11       0.8       9.7      55.4      9.40
   02/09/2020 16:10      53.9      53.5       64     41.7      0.00      7.54      57.0     0.46      1009.3     1.9       E    82   5.0     ESE     112     269        11       0.7       9.5      55.5      9.40
   02/09/2020 16:00      54.0      53.6       62     41.0      0.00      7.54      56.9     0.46      1009.3     2.3       E    95   6.4     ESE     109     269        26       1.1       9.4      55.4      9.40
   02/09/2020 15:50      54.1      53.7       61     40.7      0.00      7.54      56.8     0.46      1009.2     2.2     ENE    69   4.9     ESE     107     268        28       0.9       9.2      55.4      9.40
   02/09/2020 15:40      54.8      54.0       58     40.2      0.00      7.54      56.9     0.46      1009.1     2.5       E    79   5.4     ESE     114     268        21       1.0       9.1      55.6      9.41
   02/09/2020 15:30      55.1      54.6       57     39.6      0.00      7.54      56.8     0.46      1009.0     1.5      NE    55   3.0      SE     126     268        30       0.4       8.9      55.6      9.41
   02/09/2020 15:20      55.0      54.5       56     39.2      0.01      7.54      56.8     0.46      1008.9     1.2      NE    35   2.8     NNE      18     268        44       0.3       8.8      55.6      9.41
   02/09/2020 15:10      54.8      54.0       57     39.3      0.00      7.53      56.8     0.46      1008.9     1.0     NNE    30   2.8     NNE      19     268        61       0.3       8.8      55.5      9.41
   02/09/2020 15:00      54.4      53.9       57     39.3      0.00      7.53      56.8     0.46      1008.9     2.2     ENE    64   4.5     ENE      60     268        77       0.7       8.7      55.5      9.41
   02/09/2020 14:50      54.7      54.1       57     39.5      0.00      7.53      57.5     0.46      1009.0     2.0       E    82   4.1     ENE      68     268        89       1.1       8.6      56.2      9.41
   02/09/2020 14:40      54.9      54.5       55     38.7      0.00      7.53      57.5     0.46      1009.1     2.4     ENE    76   8.3     ESE     121     268        92       1.2       8.4      56.3      9.41
   02/09/2020 14:30      54.8      54.0       54     38.0      0.00      7.53      57.5     0.46      1009.1     1.9     ENE    76   4.1       E      87     268       101       0.8       8.2      56.2      9.41
   02/09/2020 14:20      55.3      54.1       52     37.7      0.00      7.53      57.7     0.46      1009.0     4.0       E    84   9.2       E      95     268       100       1.9       8.1      56.4      9.41
   02/09/2020 14:10      55.2      54.9       53     38.1      0.00      7.53      57.8     0.46      1008.9     2.3      NE    36   5.0     ENE      58     272        90       0.6       7.8      56.3      9.41
   02/09/2020 14:00      55.2      54.1       52     37.5      0.00      7.53      57.9     0.46      1008.9     1.2     ENE    59   3.5     NNE      33     268        67       0.4       7.7      56.2      9.41
   02/09/2020 13:50      54.3      53.5       55     38.0      0.00      7.53      57.9     0.46      1009.0     2.7       E    92   7.1      SE     131     268        70       1.4       7.6      56.3      9.41
   02/09/2020 13:40      53.8      53.4       58     39.1      0.00      7.53      57.9     0.46      1009.2     3.0     ESE   122   6.2       E      97     270        75       1.4       7.4      56.2      9.41
   02/09/2020 13:30      53.9      53.5       58     39.4      0.00      7.53      57.9     0.46      1009.3     4.1      SE   130   8.9      SE     126     269        80       2.0       7.1      56.1      9.41
   02/09/2020 13:20      53.9      53.4       58     39.4      0.00      7.53      57.9     0.46      1009.3     3.2     ESE   111   7.2      SE     140     269        94       1.7       6.8      56.1      9.41
   02/09/2020 13:10      53.9      53.6       60     40.0      0.00      7.53      57.9     0.46      1009.5     2.8     ESE   108   6.9      NE      37     269       113       1.6       6.5      56.0      9.41
   02/09/2020 13:00      54.2      53.6       62     41.1      0.00      7.53      57.8     0.46      1009.6     2.9     ESE   110  11.2      SE     132     269       123       1.7       6.2      55.9      9.41
   02/09/2020 12:50      54.5      53.8       63     41.8      0.00      7.53      57.8     0.46      1009.6     3.5     ESE   110   9.8     ESE     111     269        56       2.0       6.0      55.7      9.41
   02/09/2020 12:40      55.6      54.4       68     44.9      0.00      7.53      57.9     0.46      1009.7     4.1     ESE   111  10.3      SE     138     270        28       2.0       5.6      55.6      9.41
   02/09/2020 12:30      55.9      55.4       69     45.6      0.00      7.53      57.8     0.46      1009.7     2.9     ESE   116   7.2     SSE     162     270        73       1.5       5.3      55.5      9.41
   02/09/2020 12:20      56.1      54.8       71     46.0      0.00      7.53      57.8     0.46      1010.0     3.8      SE   135   7.4      SE     138     269       337       1.9       5.1      55.4      9.41
   02/09/2020 12:10      54.9      54.3       71     45.2      0.00      7.53      57.8     0.46      1010.2     1.6     ESE   118   4.0     SSE     165     270        81       0.6       4.8      55.1      9.41
   02/09/2020 12:00      54.8      54.4       70     44.8      0.00      7.53      57.8     0.46      1010.5     1.6       E    91   3.1       E      97     270        30       0.6       4.7      55.2      9.41
   02/09/2020 11:50      55.0      54.6       68     44.5      0.00      7.53      57.8     0.46      1010.6     1.1     ESE   104   3.0       E      82     270        61       0.7       4.6      55.1      9.41
   02/09/2020 11:40      54.9      54.5       68     44.4      0.00      7.53      57.8     0.46      1010.9     1.0     ENE    69   3.0      NE      45     270        70       0.4       4.4      55.1      9.41
   02/09/2020 11:30      54.9      54.6       69     44.7      0.00      7.53      57.8     0.46      1011.0     2.0      NE    51   5.7       E      99     270        80       0.6       4.4      54.9      9.41
   02/09/2020 11:20      55.3      54.7       67     44.2      0.00      7.53      57.8     0.46      1011.2     1.9     ENE    68   4.0     ESE     116     290        66       0.6       4.3      54.8      9.41
   02/09/2020 11:10      55.5      55.0       65     43.8      0.00      7.53      57.6     0.46      1011.2     1.9     ENE    74   6.8      SE     140     271        37       1.0       4.2      54.7      9.41
   02/09/2020 11:00      56.0      55.4       63     43.5      0.00      7.53      57.8     0.46      1011.3     1.9       E    87   4.8       E      94     277        19       0.8       4.0      54.7      9.41
   02/09/2020 10:50      56.4      55.7       62     43.0      0.00      7.53      57.7     0.46      1011.4     3.0      NE    49   6.0     ENE      60     276        58       0.9       3.9      54.6      9.41
   02/09/2020 10:40      56.4      55.9       63     43.9      0.00      7.53      57.7     0.46      1011.5     1.9     ENE    63   3.7      NE      43     270        99       0.6       3.7      54.5      9.41
   02/09/2020 10:30      56.0      55.4       65     44.1      0.00      7.53      57.6     0.46      1011.5     1.8      NE    52   4.3     ENE      61     269       121       0.5       3.6      54.3      9.41
   02/09/2020 10:20      55.6      55.1       65     44.0      0.00      7.53      57.7     0.46      1011.5     2.4      NE    48   4.2     ENE      62     270        85       0.5       3.5      54.0      9.41
   02/09/2020 10:10      55.2      54.7       67     44.3      0.00      7.53      57.7     0.46      1011.5     2.4     ENE    73   5.5       E      79     270        91       0.9       3.5      53.9      9.41
   02/09/2020 10:00      55.1      54.7       69     44.7      0.00      7.53      57.7     0.46      1011.5     1.4     ENE    74   4.1     ENE      73     270        55       0.5       3.3      53.7      9.41
   02/09/2020 09:50      55.3      54.7       68     44.8      0.00      7.53      57.7     0.46      1011.4     2.1     ENE    62   5.4     ESE     111     270        71       0.7       3.2      53.7      9.41
   02/09/2020 09:40      56.7      55.2       67     44.9      0.00      7.53      57.6     0.46      1011.5     2.8     ENE    71   6.2      NE      52     270        81       1.3       3.1      53.4      9.41
   02/09/2020 09:30      56.7      54.6       70     46.0      0.00      7.53      57.4     0.46      1011.4     1.9     ESE   116   5.9      SE     141     268       344       1.1       2.9      53.1      9.41
   02/09/2020 09:20      54.6      52.7       75     45.8      0.00      7.53      57.4     0.46      1011.4     1.2       E    90   4.7       E      97     285       207       0.8       2.7      52.7      9.41
   02/09/2020 09:10      52.9      52.5       77     45.5      0.00      7.53      57.4     0.46      1011.5     2.3       E    96   5.2       E      93     294        52       1.2       2.6      52.5      9.41
   02/09/2020 09:00      52.8      52.3       78     45.9      0.00      7.53      57.4     0.46      1011.7     1.4      NE    56   3.4      NE      55     298        38       0.6       2.4      52.5      9.41
   02/09/2020 08:50      52.7      52.3       79     46.1      0.00      7.53      57.4     0.46      1011.8     1.5     ENE    56   4.6      NE      37     301        46       0.5       2.3      52.4      9.41
   02/09/2020 08:40      52.4      51.8       80     46.1      0.00      7.53      57.4     0.46      1011.7     1.1     ENE    63   3.8     ENE      73     304        60       0.3       2.2      52.3      9.41
   02/09/2020 08:30      52.0      51.7       81     46.3      0.00      7.53      57.5     0.46      1011.6     2.0     ENE    61   4.0      NE      52     307        37       0.3       2.2      52.3      9.41
   02/09/2020 08:20      52.0      51.7       83     46.8      0.00      7.53      57.5     0.46      1011.6     1.6      NE    56   3.1      NE      41     309        39       0.4       2.1      52.2      9.41
   02/09/2020 08:10      51.9      51.3       85     47.3      0.00      7.53      57.5     0.46      1011.7     1.6      NE    56   3.8       E      83     311        61       0.4       2.1      52.2      9.41
   02/09/2020 08:00      51.4      51.0       86     47.2      0.00      7.53      57.5     0.46      1011.8     1.6      NE    48   3.4     ENE      58     316        39       0.0       2.0      52.2      9.41
   02/09/2020 07:50      51.1      50.8       87     47.2      0.00      7.53      57.5     0.46      1011.8     1.2     ENE    59   3.5      NE      42     320        33       0.0       2.0      52.1      9.41
   02/09/2020 07:40      50.9      50.7       87     47.2      0.00      7.53      57.5     0.46      1011.9     0.9     ENE    61   1.9       E      86     328        13       0.0       2.0      52.0      9.41
   02/09/2020 07:30      51.0      50.7       87     47.0      0.00      7.53      57.5     0.46      1011.9     1.5      NE    53   4.6     ENE      66     340         6       0.1       2.0      52.0      9.41
   02/09/2020 07:20      51.0      50.7       86     46.8      0.00      7.53      57.5     0.46      1011.9     1.5      NE    51   2.8     ENE      69     341         1       0.3       1.9      52.0      9.41
   02/09/2020 07:10      51.3      50.8       85     46.6      0.00      7.53      57.6     0.46      1011.9     1.6     ENE    59   3.1     ENE      63     318        -2       0.3       1.9      52.1      9.41
   02/09/2020 07:00      51.3      51.0       84     46.4      0.00      7.53      57.6     0.46      1011.9     1.7     ENE    71   4.1      NE      48     305        -4       0.5       1.8      52.1      9.41
   02/09/2020 06:50      51.4      51.1       84     46.5      0.00      7.53      57.6     0.46      1011.9     1.3     ENE    68   3.1      NE      35     313        -5       0.0       1.8      52.1      9.41
   02/09/2020 06:40      51.4      51.1       83     46.3      0.00      7.53      57.6     0.46      1012.0     1.3      NE    51   2.6      NE      34     324        -6       0.0       1.8      52.1      9.41
   02/09/2020 06:30      51.4      51.1       82     46.1      0.00      7.53      57.6     0.46      1011.9     1.1      NE    55   2.9     ENE      65     279        -7       0.2       1.7      52.2      9.41
   02/09/2020 06:20      51.5      51.2       81     45.8      0.00      7.53      57.6     0.46      1011.8     1.8      NE    47   3.2      NE      50     281        -8       0.0       1.7      52.2      9.41
   02/09/2020 06:10      51.5      51.3       79     45.3      0.00      7.53      57.7     0.46      1011.6     1.3      NE    52   4.2      SE     136     287        -8       0.2       1.7      52.2      9.41
   02/09/2020 06:00      51.8      51.5       78     44.9      0.00      7.53      57.7     0.46      1011.5     1.4     ENE    75   3.7     ENE      71     305        -9       0.5       1.7      52.3      9.41
   02/09/2020 05:50      51.9      51.5       76     44.3      0.00      7.53      57.7     0.46      1011.5     1.0     ENE    77   4.3      NE      55     272       -12       0.3       1.6      52.3      9.41
   02/09/2020 05:40      51.9      51.6       75     44.0      0.00      7.53      57.7     0.46      1011.4     1.2       E   100   3.6     ENE      76     271       -18       0.4       1.5      52.4      9.41
   02/09/2020 05:30      51.9      51.6       74     43.8      0.00      7.53      57.7     0.46      1011.6     1.0     ESE   115   2.4       S     176     271       -16       0.2       1.5      52.4      9.41
   02/09/2020 05:20      51.9      51.6       74     43.8      0.00      7.53      57.7     0.46      1011.8     0.3      SE   132   1.8       E      95     271       -19       0.0       1.4      52.5      9.41
   02/09/2020 05:10      51.9      51.7       75     44.3      0.00      7.53      57.8     0.46      1011.8     0.4     ESE   105   2.2      SE     133     271       -16       0.1       1.4      52.5      9.41
   02/09/2020 05:00      52.0      51.7       76     44.6      0.00      7.53      57.8     0.46      1011.7     0.2       E    91   1.6     ESE     112     271       -10       0.0       1.4      52.6      9.41
   02/09/2020 04:50      51.9      51.6       76     44.6      0.00      7.53      57.8     0.46      1011.6     1.8       E    92   5.4     ENE      73     271       -10       0.9       1.4      52.6      9.41
   02/09/2020 04:40      51.8      51.3       78     45.0      0.00      7.53      57.8     0.46      1011.5     1.7       E    89   5.2     ENE      63     271       -10       0.6       1.2      52.6      9.41
   02/09/2020 04:30      51.4      51.1       80     45.4      0.00      7.53      57.8     0.46      1011.5     0.9     ESE   106   2.6       E      82     271       -10       0.4       1.1      52.7      9.41
   02/09/2020 04:20      51.4      51.1       81     45.6      0.00      7.53      57.9     0.46      1011.5     0.3       E   101   1.5     ESE     121     273        -8       0.0       1.1      52.7      9.41
   02/09/2020 04:10      51.5      51.2       81     45.5      0.00      7.53      57.9     0.46      1011.4     0.3      NE    48   1.5      SE     128     271        -8       0.0       1.1      52.7      9.41
   02/09/2020 04:00      51.6      51.2       80     45.4      0.00      7.53      57.9     0.46      1011.3     0.4     ENE    62   1.2     ENE      58     271        -8       0.0       1.1      52.8      9.41
   02/09/2020 03:50      51.4      51.2       79     45.1      0.00      7.53      57.9     0.46      1011.4     0.7     ENE    59   2.5      NE      43     271        -8       0.0       1.0      52.8      9.41
   02/09/2020 03:40      51.5      51.2       78     44.8      0.00      7.53      58.0     0.46      1011.4     0.3     ENE    78   1.9     ENE      76     271        -9       0.0       1.0      52.8      9.41
   02/09/2020 03:30      51.5      51.2       77     44.5      0.00      7.53      58.0     0.46      1011.5     0.6     ENE    58   2.2       E      96     271        -9       0.0       1.0      52.8      9.41
   02/09/2020 03:20      51.6      51.3       77     44.4      0.00      7.53      57.7     0.46      1011.7     0.4      NE    56   1.2      NE      52     271        -9       0.0       1.0      52.6      9.41
   02/09/2020 03:10      51.5      51.1       77     44.5      0.00      7.53      57.7     0.46      1011.8     1.4     ESE   107   4.0       E      86     271       -10       0.7       1.0      52.5      9.41
   02/09/2020 03:00      51.4      51.1       78     44.8      0.00      7.53      57.6     0.46      1012.0     3.1     ESE   117   5.7      SE     130     276        -9       1.4       0.9      52.5      9.41
   02/09/2020 02:50      51.1      50.6       79     44.8      0.00      7.53      57.7     0.46      1012.2     3.2      SE   128   6.1     ESE     121     283        -7       1.4       0.7      52.5      9.41
   02/09/2020 02:40      50.6      49.5       83     45.0      0.00      7.53      57.7     0.46      1012.4     1.5      SE   126   5.3      SE     135     288        -6       0.4       0.5      52.5      9.41
   02/09/2020 02:30      49.5      48.8       86     45.0      0.00      7.53      57.7     0.46      1012.6     0.6      SE   137   4.0     ESE     105     292        -4       0.3       0.4      52.5      9.41
   02/09/2020 02:20      49.1      48.8       86     44.9      0.00      7.53      57.8     0.46      1012.7     0.0     ESE   112   0.9       E     101     294        -4       0.0       0.3      52.6      9.41
   02/09/2020 02:10      49.1      48.6       86     44.9      0.00      7.53      57.8     0.46      1012.9     0.1     SSE   154   1.1       S     174     300        -3       0.0       0.3      52.6      9.41
   02/09/2020 02:00      48.6      48.3       87     44.7      0.00      7.53      57.8     0.46      1013.0     0.3     SSE   164   0.9       S     176     307        -3       0.0       0.3      52.6      9.41
   02/09/2020 01:50      48.5      48.1       87     44.6      0.00      7.53      57.9     0.46      1013.1     0.5       S   181   1.8     SSW     195     314        -3       0.2       0.3      52.7      9.41
   02/09/2020 01:40      48.3      47.8       88     44.5      0.00      7.53      57.9     0.46      1013.3     0.2     SSE   153   0.9      SE     145     320        -3       0.0       0.3      52.7      9.41
   02/09/2020 01:30      48.3      47.8       88     44.6      0.00      7.53      57.9     0.46      1013.5     0.2       S   170   1.3       S     175     329        -3       0.0       0.3      52.7      9.41
   02/09/2020 01:20      48.0      47.4       89     44.7      0.00      7.53      57.8     0.46      1013.6     0.4       W   275   1.6       W     267     336        -2       0.0       0.3      52.5      9.41
   02/09/2020 01:10      47.5      46.4       90     44.3      0.00      7.53      57.6     0.46      1013.6     0.9     WSW   238   2.0      SW     219     342        -2       0.4       0.3      52.3      9.41
   02/09/2020 01:00      46.6      46.0       91     43.8      0.00      7.53      57.6     0.46      1013.5     0.5     SSE   162   1.3       S     190     349        -2       0.1       0.2      52.4      9.41
   02/09/2020 00:50      46.1      45.5       91     43.5      0.00      7.53      57.7     0.46      1013.4     0.4     SSE   168   1.4      SE     131     353        -1       0.1       0.2      52.5      9.41
   02/09/2020 00:40      45.6      44.5       92     42.8      0.00      7.53      57.6     0.46      1013.5     0.5     SSW   213   1.3       S     187     359        -0       0.2       0.2      52.5      9.42
   02/09/2020 00:30      44.6      44.0       92     42.0      0.00      7.53      57.7     0.46      1013.6     0.2     ENE    65   1.3       E      97     363         0       0.0       0.1      52.6      9.42
   02/09/2020 00:20      44.7      43.7       91     41.7      0.00      7.53      57.7     0.46      1013.6     0.6     NNE    18   1.9     WSW     243     367        -9       0.3       0.1      52.7      9.42
   02/09/2020 00:10      44.7      44.3       92     42.2      0.00      7.53      57.7     0.46      1013.6     1.0     SSW   194   2.6      SW     223     364       -21       0.4       0.0      52.9      9.42
   02/09/2020 00:00      44.7      43.6       91     41.7      0.00      7.53      57.7     0.46      1013.7     1.4       S   178   2.8      SW     223     362       -23       0.6      14.8      53.1      9.42
   02/08/2020 23:50      44.7      44.0       91     41.9      0.00      7.53      57.7     0.46      1013.7     0.2       S   183   1.1     SSE     164     358       -23       0.1      14.6      53.4      9.42
   02/08/2020 23:40      44.4      44.1       91     41.8      0.00      7.53      57.8     0.46      1013.7     1.0     SSE   149   2.1     SSE     157     355       -24       0.1      14.6      53.6      9.42
   02/08/2020 23:30      44.4      43.7       91     41.5      0.00      7.53      57.9     0.46      1013.7     0.2       S   175   0.9       S     179     350       -24       0.0      14.6      53.9      9.42
   02/08/2020 23:20      44.4      44.0       90     41.5      0.00      7.53      57.8     0.46      1013.7     1.3      SE   145   2.5      SE     138     344       -25       0.0      14.6      54.1      9.42
   02/08/2020 23:10      45.3      44.4       90     42.1      0.00      7.53      57.8     0.46      1013.8     1.3       S   172   2.2      SE     145     339       -25       0.4      14.6      54.4      9.42
   02/08/2020 23:00      45.6      45.0       90     42.4      0.00      7.53      57.8     0.46      1013.8     0.4       S   190   0.9     SSW     196     334       -26       0.1      14.5      54.7      9.42
   02/08/2020 22:50      45.6      45.0       90     42.4      0.00      7.53      57.8     0.46      1013.7     0.0       N     0   0.0       E      89     330       -28       0.0      14.5      55.0      9.42
   02/08/2020 22:40      46.1      45.3       89     42.7      0.00      7.53      57.8     0.46      1013.6     0.0      SE   145   0.8     SSE     148     327       -29       0.0      14.5      55.3      9.42
   02/08/2020 22:30      46.4      45.9       89     43.1      0.00      7.53      57.9     0.46      1013.7     0.4       S   182   1.4       S     185     322       -31       0.1      14.5      55.6      9.42
   02/08/2020 22:20      46.4      45.9       89     43.2      0.00      7.53      57.9     0.46      1013.7     0.3     SSE   166   1.1       S     172     316       -33       0.0      14.5      55.8      9.42
   02/08/2020 22:10      46.5      46.0       89     43.1      0.00      7.53      57.8     0.46      1013.8     0.5     SSE   163   1.2       S     173     311       -35       0.0      14.5      56.1      9.42
   02/08/2020 22:00      46.7      46.2       88     43.1      0.00      7.53      57.8     0.46      1013.8     0.3       S   171   1.1     SSE     156     305       -37       0.0      14.5      56.3      9.42
   02/08/2020 21:50      47.0      46.4       88     43.3      0.00      7.53      58.1     0.46      1013.9     0.9     SSE   160   2.4      SE     137     300       -40       0.3      14.4      56.9      9.42
   02/08/2020 21:40      47.0      46.5       88     43.3      0.00      7.53      58.3     0.46      1014.0     0.7     SSE   155   2.5      SE     140     296       -43       0.3      14.4      57.4      9.42
   02/08/2020 21:30      47.6      46.7       87     43.5      0.00      7.53      58.3     0.46      1014.0     0.7     SSE   152   1.3     SSE     148     291       -45       0.4      14.3      57.8      9.42
   02/08/2020 21:20      47.7      47.1       87     43.7      0.00      7.53      58.3     0.46      1014.0     0.6     SSE   163   1.4     SSE     150     286       -50       0.0      14.3      58.0      9.43
   02/08/2020 21:10      47.5      46.8       86     43.0      0.00      7.53      58.3     0.46      1014.0     0.4       S   176   1.4     SSE     161     278       -55       0.0      14.3      58.4      9.43
   02/08/2020 21:00      48.4      47.1       84     43.4      0.00      7.53      58.3     0.46      1014.0     0.8     SSE   161   1.7      SE     144     271       -57       0.0      14.3      58.6      9.43
   02/08/2020 20:50      48.9      48.3       84     43.7      0.00      7.53      58.3     0.46      1014.0     0.6       S   178   1.2      SW     224     264       -60       0.0      14.3      58.9      9.43
   02/08/2020 20:40      49.0      48.5       84     43.9      0.00      7.53      58.3     0.46      1013.8     0.6     SSW   193   1.7       S     183     263       -61       0.1      14.3      59.1      9.43
   02/08/2020 20:30      49.4      48.6       83     43.8      0.00      7.53      58.3     0.46      1013.8     1.4       S   175   2.4       S     182     263       -63       0.4      14.2      59.5      9.43
   02/08/2020 20:20      50.3      49.3       81     44.3      0.00      7.53      58.2     0.46      1014.1     0.5       S   171   1.3       S     175     264       -61       0.3      14.2      59.8      9.43
   02/08/2020 20:10      51.5      50.2       78     44.1      0.00      7.53      58.1     0.46      1014.0     0.6     SSW   199   1.8       S     189     266       -62       0.1      14.1      60.1      9.43
   02/08/2020 20:00      52.0      51.4       76     44.5      0.00      7.53      58.1     0.46      1014.0     0.6      SW   223   1.3      SW     226     271       -62       0.0      14.1      60.4      9.43
   02/08/2020 19:50      52.4      51.9       76     44.7      0.00      7.53      58.1     0.46      1014.0     0.6      SW   220   1.0      SW     226     270       -63       0.1      14.1      60.7      9.43
   02/08/2020 19:40      52.5      52.2       76     45.0      0.00      7.53      58.1     0.46      1014.0     0.6      SE   140   2.0      SE     143     270       -64       0.1      14.1      60.9      9.44
   02/08/2020 19:30      52.8      52.2       77     45.6      0.00      7.53      58.0     0.46      1014.0     0.0     ESE   111   1.1     ESE     117     270       -64       0.0      14.1      61.2      9.44
   02/08/2020 19:20      53.0      52.5       77     45.9      0.00      7.53      58.0     0.46      1014.0     0.1     SSW   209   1.1     SSW     195     270       -63       0.0      14.1      61.4      9.44
   02/08/2020 19:10      53.8      52.8       76     45.7      0.00      7.53      57.9     0.46      1013.9     0.1      NE    44   1.0      NE      35     270       -63       0.0      14.1      61.8      9.44
   02/08/2020 19:00      54.9      53.6       74     46.0      0.00      7.53      57.9     0.46      1013.8     0.2      SE   141   0.8     SSE     156     270       -64       0.0      14.0      61.9      9.44
   02/08/2020 18:50      55.5      54.7       73     46.8      0.00      7.53      57.8     0.46      1013.8     0.7     SSW   199   1.5      SW     216     269       -64       0.0      14.0      62.2      9.44
   02/08/2020 18:40      55.8      55.4       72     46.8      0.00      7.53      57.7     0.46      1013.8     1.0     SSW   201   2.0     SSW     192     269       -65       0.4      14.0      62.5      9.44
   02/08/2020 18:30      56.2      55.7       71     46.8      0.00      7.53      57.6     0.46      1013.7     1.8     SSW   195   2.9       S     176     269       -67       0.9      14.0      62.8      9.44
   02/08/2020 18:20      56.7      56.1       70     46.6      0.00      7.53      57.6     0.46      1013.7     2.0       S   181   3.0     SSE     167     268       -69       1.3      13.8      63.0      9.44
   02/08/2020 18:10      57.4      56.6       68     46.6      0.00      7.53      57.6     0.46      1013.6     2.4       S   178   4.2     SSE     161     268       -70       1.6      13.6      63.4      9.45
   02/08/2020 18:00      58.1      57.3       65     46.2      0.00      7.53      57.6     0.46      1013.6     2.5       S   181   4.0     SSW     195     268       -70       1.5      13.3      63.7      9.45
   02/08/2020 17:50      59.0      58.0       62     45.7      0.00      7.53      57.5     0.46      1013.5     2.5       S   187   5.0       S     190     268       -71       1.6      13.1      64.1      9.45
   02/08/2020 17:40      59.9      58.9       59     45.2      0.00      7.53      57.5     0.46      1013.5     2.5     SSW   196   4.3     SSW     202     267       -70       1.5      12.8      64.4      9.45
   02/08/2020 17:30      60.7      59.9       56     44.6      0.00      7.53      57.5     0.46      1013.6     2.2       S   188   4.3       S     182     267       -68       1.3      12.6      64.7      9.45
   02/08/2020 17:20      61.5      60.5       53     44.0      0.00      7.53      57.4     0.46      1013.5     2.2     SSW   193   3.5       S     189     267       -65       1.3      12.3      65.1      9.45
   02/08/2020 17:10      62.2      61.4       52     44.2      0.00      7.53      57.3     0.46      1013.4     2.2       S   183   4.3     SSE     167     266       -63       1.4      12.1      65.4      9.46
   02/08/2020 17:00      63.1      62.1       53     45.0      0.00      7.53      57.3     0.46      1013.4     2.9       S   188   6.4     SSW     195     266       -51       1.9      11.9      65.8      9.46
   02/08/2020 16:50      64.2      63.0       52     45.7      0.00      7.53      57.2     0.46      1013.4     2.8       S   179   6.5       S     181     266       -57       2.0      11.6      66.3      9.46
   02/08/2020 16:40      65.4      64.1       50     45.7      0.00      7.53      57.2     0.46      1013.4     3.0       S   186   5.6       S     171     266       -11       2.4      11.2      66.6      9.46
   02/08/2020 16:30      65.8      65.3       48     45.1      0.00      7.53      57.1     0.46      1013.4     2.6       S   171   5.6       S     180     266        14       2.0      10.8      66.7      9.47
   02/08/2020 16:20      66.3      65.5       46     44.5      0.00      7.53      57.0     0.46      1013.2     3.8       S   176   6.4       S     177     266        36       2.5      10.5      66.6      9.47
   02/08/2020 16:10      67.0      66.1       45     44.2      0.00      7.53      56.9     0.46      1013.1     4.6      SE   144   7.9      SE     136     266        60       1.9      10.1      66.6      9.47
   02/08/2020 16:00      68.7      66.9       43     44.8      0.00      7.53      56.9     0.46      1013.0     4.7      SE   145   7.5     SSE     158     266        86       2.1       9.8      66.4      9.47
   02/08/2020 15:50      69.0      68.4       42     45.0      0.00      7.53      56.9     0.46      1013.0     3.4     SSE   158   6.9     ESE     123     266       111       1.9       9.4      66.4      9.47
   02/08/2020 15:40      69.3      68.8       41     44.7      0.00      7.53      56.7     0.46      1012.9     3.9     SSE   164   6.1       S     170     266       135       2.6       9.1      66.3      9.47
   02/08/2020 15:30      69.9      69.2       40     44.0      0.00      7.53      56.6     0.46      1013.0     4.3     SSE   159   8.8      SE     129     266       160       2.5       8.7      65.9      9.48
   02/08/2020 15:20      69.7      69.3       39     43.5      0.00      7.53      56.6     0.46      1013.0     4.5     SSE   161   7.9     SSW     194     266       184       2.7       8.3      65.7      9.48
   02/08/2020 15:10      69.8      69.2       41     44.6      0.00      7.53      56.5     0.46      1013.1     4.6      SE   134   7.6      SE     126     265       204       2.4       7.8      65.3      9.48
   02/08/2020 15:00      70.1      69.5       40     44.5      0.00      7.53      56.5     0.46      1013.2     5.3     SSE   163   8.3      SE     139     264       222       3.2       7.4      65.1      9.48
   02/08/2020 14:50      71.8      69.8       39     44.4      0.00      7.53      56.3     0.46      1013.3     4.9     SSE   160   8.8       S     171     264       238       3.0       6.9      64.7      9.48
   02/08/2020 14:40      72.4      71.3       37     44.3      0.00      7.53      56.3     0.46      1013.4     3.1      SE   138   6.3      SE     133     264       255       1.7       6.4      64.2      9.48
   02/08/2020 14:30      72.9      71.5       36     43.5      0.00      7.53      56.1     0.46      1013.5     3.4      NE    54   6.9     ENE      61     264       267       1.3       6.1      63.7      9.48
   02/08/2020 14:20      73.1      72.7       35     43.5      0.00      7.53      56.1     0.46      1013.6     2.8      NE    50   5.6     NNE      20     264       281       1.0       5.9      63.2      9.48
   02/08/2020 14:10      74.0      72.6       34     43.1      0.00      7.53      56.0     0.46      1013.6     2.7      NE    50   5.9     NNE      30     264       295       1.1       5.7      62.7      9.49
   02/08/2020 14:00      74.1      72.9       31     40.9      0.00      7.53      56.0     0.46      1013.6     1.6     NNE    27   4.0     ENE      58     263       304       0.5       5.5      62.2      9.49
   02/08/2020 13:50      75.2      73.4       30     40.7      0.00      7.53      55.9     0.45      1013.7     2.0     ENE    77   5.1      SE     126     263       317       1.0       5.5      61.7      9.49
   02/08/2020 13:40      75.1      72.3       31     41.3      0.00      7.53      55.8     0.45      1013.7     0.7     WNW   303   3.9     WNW     300     264       331       0.9       5.3      61.0      9.49
   02/08/2020 13:30      72.8      71.6       32     40.5      0.00      7.53      55.7     0.45      1013.9     2.3     SSW   201   6.8       W     263     264       345       1.6       5.1      60.5      9.49
   02/08/2020 13:20      72.1      71.3       31     39.9      0.00      7.53      55.8     0.45      1014.3     2.3      SE   135   5.3     SSW     197     264       351       1.9       4.9      59.9      9.49
   02/08/2020 13:10      71.5      70.8       32     39.8      0.00      7.53      55.7     0.45      1014.4     2.9       W   271   4.8     WSW     251     264       363       2.4       4.6      59.3      9.49
   02/08/2020 13:00      71.4      70.4       32     39.4      0.00      7.53      55.7     0.45      1014.6     2.8     WSW   257   6.4     WSW     251     264       367       2.0       4.2      58.6      9.49
   02/08/2020 12:50      71.5      71.0       32     39.5      0.00      7.53      55.6     0.45      1014.9     2.0     WSW   253   4.3       W     270     264       375       1.7       3.8      58.0      9.49
   02/08/2020 12:40      71.3      70.1       32     39.5      0.00      7.53      55.6     0.45      1015.2     1.9       W   276   4.2     WSW     240     264       386       1.5       3.5      57.4      9.49
   02/08/2020 12:30      70.6      69.6       34     40.2      0.00      7.53      55.6     0.45      1015.4     2.2       W   265   5.4       W     264     264       391       1.6       3.3      56.8      9.49
   02/08/2020 12:20      70.2      69.0       35     40.3      0.00      7.53      55.6     0.45      1015.6     1.6      NW   316   4.7     WSW     254     265       391       1.4       3.0      56.1      9.49
   02/08/2020 12:10      69.3      68.2       35     40.0      0.00      7.53      55.6     0.45      1015.9     1.5      SW   230   4.1     WSW     251     265       397       1.3       2.8      55.5      9.49
   02/08/2020 12:00      68.5      67.7       37     40.8      0.00      7.53      55.6     0.45      1016.1     2.7      SW   236   5.7     WSW     247     266       395       2.1       2.6      54.8      9.49
   02/08/2020 11:50      68.5      68.0       36     40.3      0.00      7.53      55.6     0.45      1016.4     1.7       N   355   4.1      SW     218     265       386       1.1       2.2      54.2      9.49
   02/08/2020 11:40      68.1      67.4       37     40.4      0.00      7.53      55.6     0.45      1016.6     1.6       N     5   3.7       N       4     266       386       0.6       2.1      53.5      9.49
   02/08/2020 11:30      67.9      67.1       37     40.5      0.00      7.53      55.6     0.45      1016.8     1.7      NE    43   4.3       N       0     265       384       0.7       2.0      52.9      9.49
   02/08/2020 11:20      67.2      66.3       38     40.5      0.00      7.53      55.5     0.45      1017.0     1.5     ENE    59   3.8     ENE      69     265       379       0.8       1.8      52.2      9.50
   02/08/2020 11:10      66.7      65.5       40     41.1      0.00      7.53      55.6     0.45      1017.2     0.9       N     0   2.9     ESE     105     266       371       0.8       1.7      51.6      9.50
   02/08/2020 11:00      65.8      64.9       42     41.4      0.00      7.53      55.7     0.45      1017.5     1.2       N   356   3.5     NNE      13     266       363       0.6       1.6      51.0      9.50
   02/08/2020 10:50      65.0      64.4       42     41.4      0.00      7.53      55.7     0.45      1017.6     1.3     NNE    15   3.0     NNE      15     266       355       0.6       1.5      50.4      9.49
   02/08/2020 10:40      64.5      62.9       43     40.9      0.00      7.53      55.8     0.45      1017.7     1.3     ENE    77   3.1     NNE      31     266       347       0.7       1.4      49.8      9.49
   02/08/2020 10:30      63.0      62.1       45     41.1      0.00      7.53      55.8     0.45      1017.8     1.5     NNE    30   3.3      NE      50     266       335       0.5       1.3      49.2      9.49
   02/08/2020 10:20      62.6      62.1       46     41.2      0.00      7.53      55.9     0.45      1017.9     1.4     NNE    31   3.4      NE      38     266       322       0.4       1.2      48.8      9.49
   02/08/2020 10:10      62.2      60.9       47     41.0      0.00      7.53      55.8     0.45      1017.9     1.2      NE    51   2.4       N     355     266       310       0.5       1.1      48.3      9.50
   02/08/2020 10:00      61.2      60.4       48     41.0      0.00      7.53      55.9     0.45      1018.0     1.0      NE    40   3.1      NE      48     266       295       0.4       1.0      47.8      9.50
   02/08/2020 09:50      60.6      59.8       50     41.6      0.00      7.53      56.0     0.45      1018.0     1.3       E    82   3.0     ESE     122     266       282       0.9       1.0      47.5      9.50
   02/08/2020 09:40      60.5      59.5       52     42.4      0.00      7.53      56.0     0.45      1018.0     0.8     NNE    22   2.7      NE      37     266       267       0.2       0.8      47.0      9.50
   02/08/2020 09:30      59.6      57.9       54     42.2      0.00      7.53      56.1     0.45      1017.9     0.6     ENE    62   1.9     NNE      23     267       252       0.0       0.8      46.7      9.50
   02/08/2020 09:20      57.9      56.5       56     41.8      0.00      7.53      56.2     0.45      1018.0     0.8       E    85   2.0     NNE      30     267       235       0.3       0.8      46.4      9.50
   02/08/2020 09:10      56.8      55.0       60     42.2      0.00      7.53      56.2     0.45      1018.0     0.7     ENE    62   2.6     ENE      57     268       258       0.1       0.7      46.1      9.50
   02/08/2020 09:00      55.0      53.8       64     42.4      0.00      7.53      56.2     0.45      1018.0     0.8       N     6   2.3     NNE      19     273       255       0.0       0.7      45.8      9.50
   02/08/2020 08:50      54.1      53.0       66     42.7      0.00      7.53      56.3     0.45      1017.9     0.6       N     6   2.4     NNE      29     281       235       0.0       0.7      45.7      9.50
   02/08/2020 08:40      53.3      52.0       69     42.4      0.00      7.53      56.6     0.45      1017.8     0.6      NE    41   1.3      NE      50     292       209       0.1       0.7      45.7      9.49
   02/08/2020 08:30      52.0      49.8       74     42.9      0.00      7.53      56.6     0.45      1017.7     0.0      NE    43   0.9     NNE      28     331       186       0.0       0.6      45.5      9.50
   02/08/2020 08:20      49.8      48.1       81     43.0      0.00      7.53      56.7     0.45      1017.7     0.2     NNE    12   1.3       N       1     363       133       0.0       0.6      45.2      9.50
   02/08/2020 08:10      48.3      45.9       88     43.7      0.00      7.53      56.8     0.45      1017.7     0.0       N     0   0.0       E      91     380        86       0.0       0.6      45.0      9.50
   02/08/2020 08:00      46.1      44.9       91     42.9      0.00      7.53      56.8     0.45      1017.7     0.0      SE   137   0.8      SE     137     387        60       0.0       0.6      44.9      9.50
   02/08/2020 07:50      45.0      42.2       94     41.9      0.00      7.53      56.6     0.45      1017.7     0.0       N     0   0.0      SE     145     390        53       0.0       0.6      44.6      9.50
   02/08/2020 07:40      42.2      40.6       94     39.8      0.00      7.53      56.4     0.45      1017.7     0.0       N     0   0.0     ENE      63     391        15       0.0       0.6      44.4      9.50
   02/08/2020 07:30      40.6      39.9       94     38.4      0.00      7.53      56.4     0.45      1017.8     0.0       N     0   0.0      SE     140     391        11       0.0       0.6      44.4      9.50
   02/08/2020 07:20      40.1      39.3       94     38.1      0.00      7.53      56.4     0.45      1017.8     0.3      SE   140   1.3      SE     140     391         6       0.0       0.6      44.5      9.50
   02/08/2020 07:10      39.6      39.3       93     37.7      0.00      7.53      56.5     0.46      1017.8     0.4     SSE   156   1.0      SE     146     389        -0       0.0       0.6      44.5      9.50
   02/08/2020 07:00      39.6      39.3       93     37.6      0.00      7.53      56.5     0.45      1017.8     0.0       N     0   0.0     SSE     159     396        -6       0.0       0.6      44.6      9.50
   02/08/2020 06:50      39.9      39.3       93     37.8      0.00      7.53      56.5     0.45      1017.7     0.0     SSE   160   0.5     SSE     160     395       -11       0.0       0.6      44.8      9.50
   02/08/2020 06:40      40.0      39.7       93     38.0      0.00      7.53      56.6     0.45      1017.7     0.0       N     0   0.0     SSW     204     393       -13       0.0       0.6      45.0      9.50
   02/08/2020 06:30      40.3      39.7       93     38.2      0.00      7.53      56.6     0.45      1017.7     0.4     SSE   167   1.1     SSE     161     405       -13       0.0       0.6      45.2      9.50
   02/08/2020 06:20      40.0      39.6       93     37.9      0.00      7.53      56.6     0.45      1017.7     0.0       N     0   0.0     SSW     213     406       -14       0.0       0.6      45.4      9.50
   02/08/2020 06:10      40.5      39.9       93     38.2      0.00      7.53      56.6     0.46      1017.7     0.0     SSW   204   0.9     SSW     198     405       -14       0.0       0.6      45.5      9.50
   02/08/2020 06:00      40.5      40.0       93     38.3      0.00      7.53      56.7     0.45      1017.7     0.0     SSE   157   0.4     SSE     165     404       -14       0.0       0.6      45.7      9.50
   02/08/2020 05:50      40.4      40.0       93     38.3      0.00      7.53      56.8     0.46      1017.7     0.2     SSE   149   0.9     SSE     151     402       -15       0.0       0.6      45.8      9.50
   02/08/2020 05:40      40.6      40.1       93     38.5      0.00      7.53      56.8     0.46      1017.8     0.6     SSE   151   1.2      SE     145     401       -14       0.1       0.6      46.0      9.50
   02/08/2020 05:30      40.5      40.1       93     38.4      0.00      7.53      56.8     0.45      1017.8     0.7     SSE   155   1.3     SSE     164     399       -15       0.3       0.6      46.1      9.50
   02/08/2020 05:20      40.4      39.6       93     38.2      0.00      7.53      56.8     0.46      1017.8     1.3      SE   143   2.3     SSE     148     399       -16       0.4       0.5      46.3      9.50
   02/08/2020 05:10      40.0      39.5       93     37.8      0.00      7.53      57.0     0.46      1017.9     1.0     SSE   147   1.9      SE     143     397       -16       0.3       0.5      46.6      9.50
   02/08/2020 05:00      40.5      39.4       92     38.0      0.00      7.53      57.1     0.46      1017.9     0.5     SSE   161   1.1     SSE     149     394       -16       0.3       0.4      46.8      9.50
   02/08/2020 04:50      40.7      40.1       92     38.4      0.00      7.53      57.1     0.46      1017.9     0.0     SSE   148   0.6     SSE     164     401       -16       0.0       0.4      47.0      9.50
   02/08/2020 04:40      41.1      40.4       92     38.7      0.00      7.53      57.1     0.46      1017.9     0.0       N     0   0.0      NE      56     401       -16       0.0       0.4      47.2      9.50
   02/08/2020 04:30      41.4      41.0       93     39.2      0.00      7.53      57.2     0.46      1018.0     0.0       N     0   0.0      SE     146     397       -16       0.0       0.4      47.4      9.50
   02/08/2020 04:20      41.4      40.3       93     38.8      0.00      7.53      57.2     0.46      1018.0     0.4     SSE   153   1.1     SSE     147     395       -16       0.0       0.4      47.5      9.50
   02/08/2020 04:10      41.2      40.7       92     38.9      0.00      7.53      57.2     0.46      1018.1     0.6     SSE   154   1.3      SE     145     393       -16       0.2       0.4      47.7      9.50
   02/08/2020 04:00      41.2      40.3       92     38.8      0.00      7.53      57.3     0.46      1018.1     0.4     SSE   152   1.2     SSE     154     391       -17       0.0       0.3      47.8      9.51
   02/08/2020 03:50      41.2      40.3       92     38.5      0.00      7.53      57.3     0.46      1018.2     0.7     SSE   156   1.6     SSE     167     389       -17       0.5       0.3      48.1      9.51
   02/08/2020 03:40      41.7      41.2       92     39.2      0.00      7.53      57.4     0.46      1018.2     0.5     SSE   165   1.4     SSW     192     388       -17       0.3       0.3      48.4      9.51
   02/08/2020 03:30      41.9      41.5       92     39.4      0.00      7.53      57.4     0.46      1018.2     0.3     SSE   163   0.8     SSE     159     386       -17       0.1       0.2      48.6      9.51
   02/08/2020 03:20      42.0      41.5       92     39.5      0.00      7.53      57.4     0.46      1018.1     0.0       N     0   0.0     SSE     155     383       -18       0.0       0.2      48.9      9.51
   02/08/2020 03:10      41.9      41.2       91     39.0      0.00      7.53      57.4     0.46      1018.1     0.3     SSE   152   0.9     SSE     151     381       -18       0.0       0.2      49.0      9.51
   02/08/2020 03:00      42.3      41.7       91     39.6      0.00      7.53      57.5     0.46      1018.1     0.1     SSE   156   0.8     SSE     156     379       -18       0.0       0.2      49.3      9.51
   02/08/2020 02:50      42.3      42.0       91     39.6      0.00      7.53      57.5     0.46      1018.2     0.0     SSE   157   0.8     SSE     156     376       -19       0.0       0.2      49.5      9.51
   02/08/2020 02:40      42.5      42.1       91     39.6      0.00      7.53      57.5     0.46      1018.1     0.0       N     0   0.0       S     184     371       -19       0.0       0.2      49.7      9.51
   02/08/2020 02:30      42.5      41.8       90     39.5      0.00      7.53      57.6     0.46      1018.2     0.0     SSE   164   0.5     SSE     147     367       -20       0.0       0.2      49.9      9.51
   02/08/2020 02:20      43.0      42.0       90     39.8      0.00      7.53      57.6     0.46      1018.2     0.6     SSE   146   1.1      SE     146     364       -20       0.0       0.2      50.1      9.51
   02/08/2020 02:10      43.3      42.8       90     40.3      0.00      7.53      57.6     0.46      1018.2     0.3     SSE   164   0.8     SSE     155     366       -20       0.2       0.2      50.2      9.51
   02/08/2020 02:00      43.2      42.5       90     40.3      0.00      7.53      57.6     0.46      1018.3     0.4     SSE   149   1.2     SSE     159     358       -21       0.0       0.2      50.5      9.51
   02/08/2020 01:50      43.1      42.3       89     39.6      0.00      7.53      57.6     0.46      1018.2     0.6     SSE   156   1.1     SSE     163     356       -22       0.0       0.2      50.7      9.51
   02/08/2020 01:40      43.4      42.8       89     40.0      0.00      7.53      57.8     0.46      1018.2     0.8     SSE   159   1.2     SSE     165     351       -22       0.3       0.1      51.0      9.51
   02/08/2020 01:30      43.7      43.1       89     40.3      0.00      7.53      57.8     0.46      1018.3     0.2       S   177   1.0     SSE     153     347       -23       0.0       0.0      51.2      9.51
   02/08/2020 01:20      43.7      43.3       89     40.5      0.00      7.53      57.8     0.46      1018.3     0.2     SSE   158   1.2     SSE     146     344       -23       0.0       0.0      51.4      9.51
   02/08/2020 01:10      43.6      43.4       89     40.4      0.00      7.53      57.8     0.46      1018.2     0.0     SSE   146   1.0     SSE     146     342       -24       0.0       0.0      51.6      9.51
   02/08/2020 01:00      44.2      43.4       89     40.8      0.00      7.53      57.8     0.46      1018.2     0.3     SSE   151   1.0     SSE     157     336       -24       0.0       0.0      51.8      9.51
   02/08/2020 00:50      44.2      43.9       89     40.9      0.00      7.53      57.9     0.46      1018.1     0.6     SSE   162   1.2     SSE     155     332       -25       0.0       0.0      52.0      9.51
   02/08/2020 00:40      44.2      43.6       88     40.5      0.00      7.53      57.9     0.46      1018.2     0.5       S   182   1.2     SSW     192     327       -26       0.2       0.0      52.3      9.51
   02/08/2020 00:30      44.5      44.0       87     40.5      0.00      7.53      57.9     0.46      1018.2     0.2     SSE   159   0.7     SSE     168     323       -28       0.2       0.0      52.5      9.51
   02/08/2020 00:20      44.7      44.3       87     40.7      0.00      7.53      57.9     0.46      1018.2     0.4     SSE   168   1.0       S     177     318       -29       0.0       0.0      52.7      9.52
   02/08/2020 00:10      44.9      44.4       87     40.9      0.00      7.53      58.0     0.46      1018.2     0.0       S   169   1.1       S     177     315       -31       0.0       0.0      53.0      9.52
   02/08/2020 00:00      45.2      44.5       86     41.0      0.00      7.53      58.0     0.46      1018.3     0.4     SSE   154   0.9     SSE     159     310       -32       0.0       8.5      53.2      9.52
   02/07/2020 23:50      45.5      45.0       86     41.4      0.00      7.53      58.0     0.46      1018.3     0.0      SE   144   0.9      SE     144     307       -34       0.0       8.5      53.5      9.52
   02/07/2020 23:40      45.8      45.1       86     41.5      0.00      7.53      58.0     0.46      1018.4     0.8     SSE   149   1.6      SE     136     303       -35       0.3       8.5      53.6      9.52
   02/07/2020 23:30      46.0      45.3       86     41.5      0.00      7.53      58.0     0.46      1018.4     0.8     SSE   155   1.4     SSE     153     297       -36       0.2       8.4      53.9      9.52
   02/07/2020 23:20      46.1      45.8       86     41.8      0.00      7.53      58.0     0.46      1018.4     0.3     SSE   158   0.9     SSE     153     292       -39       0.0       8.4      54.2      9.52
   02/07/2020 23:10      46.1      45.6       85     41.5      0.00      7.53      58.0     0.46      1018.4     0.5     SSE   159   1.1     SSE     157     286       -42       0.0       8.4      54.4      9.52
   02/07/2020 23:00      46.6      45.6       84     41.5      0.00      7.53      58.0     0.46      1018.4     0.5     SSE   147   1.6     SSE     151     282       -44       0.2       8.4      54.6      9.52
   02/07/2020 22:50      47.0      46.4       84     41.9      0.00      7.53      58.0     0.46      1018.5     0.6     SSE   165   1.5     SSE     164     277       -46       0.1       8.3      54.9      9.52
   02/07/2020 22:40      46.6      46.3       83     41.6      0.00      7.53      58.1     0.46      1018.5     0.3       S   179   0.9       S     180     269       -49       0.0       8.3      55.2      9.52
   02/07/2020 22:30      47.1      46.5       81     41.4      0.00      7.53      58.1     0.46      1018.5     0.5       S   171   1.5     WSW     242     266       -51       0.0       8.3      55.4      9.52
   02/07/2020 22:20      47.7      47.0       82     42.3      0.00      7.53      58.1     0.46      1018.6     0.5       S   175   1.7     WSW     253     264       -50       0.0       8.3      55.7      9.52
   02/07/2020 22:10      48.0      47.6       82     42.4      0.00      7.53      58.0     0.46      1018.6     0.4     SSE   159   1.1     SSE     156     260       -52       0.0       8.3      55.9      9.53
   02/07/2020 22:00      48.0      47.8       81     42.5      0.00      7.53      58.0     0.46      1018.6     0.2     SSE   153   0.8     SSE     153     256       -54       0.0       8.3      56.1      9.53
   02/07/2020 21:50      48.5      47.8       81     42.5      0.00      7.53      58.1     0.46      1018.6     0.2     SSE   167   0.9     SSE     165     260       -55       0.0       8.3      56.4      9.53
   02/07/2020 21:40      48.6      48.1       80     42.4      0.00      7.53      58.0     0.46      1018.6     0.7     SSE   154   1.2      SE     142     262       -57       0.2       8.3      56.6      9.53
   02/07/2020 21:30      48.8      48.3       79     42.5      0.00      7.53      58.0     0.46      1018.5     0.8     SSE   168   1.6     SSW     199     266       -57       0.3       8.3      57.0      9.53
   02/07/2020 21:20      49.0      48.6       78     42.4      0.00      7.53      57.9     0.46      1018.4     0.3     SSE   158   0.9     SSE     158     268       -57       0.0       8.2      57.1      9.53
   02/07/2020 21:10      49.4      48.8       78     42.5      0.00      7.53      57.4     0.46      1018.4     0.6       S   169   1.0     SSW     204     270       -58       0.3       8.2      56.9      9.53
   02/07/2020 21:00      49.9      49.2       77     42.7      0.00      7.53      57.4     0.46      1018.4     0.7     SSE   161   1.4      SE     145     268       -58       0.2       8.2      57.1      9.53
   02/07/2020 20:50      50.0      49.7       76     42.4      0.00      7.53      57.4     0.46      1018.3     0.4       S   178   1.2       S     181     269       -59       0.0       8.2      57.4      9.53
   02/07/2020 20:40      50.5      49.7       76     42.7      0.00      7.53      57.4     0.46      1018.3     0.2     SSE   168   0.8       S     175     270       -60       0.0       8.1      57.7      9.53
   02/07/2020 20:30      51.0      50.3       75     43.1      0.00      7.53      57.3     0.46      1018.3     0.9      SE   144   2.2      SE     139     269       -60       0.3       8.1      57.9      9.53
   02/07/2020 20:20      51.1      50.4       74     43.0      0.00      7.53      57.3     0.46      1018.3     1.4       S   178   2.7     SSW     213     269       -60       0.3       8.1      58.2      9.54
   02/07/2020 20:10      51.9      51.0       74     43.4      0.00      7.53      57.3     0.46      1018.2     0.7       S   174   1.6     SSE     168     269       -60       0.2       8.0      58.4      9.54
   02/07/2020 20:00      52.0      51.7       72     43.3      0.00      7.53      57.2     0.46      1018.1     0.0      SE   134   0.6      SE     134     269       -61       0.0       8.0      58.7      9.54
   02/07/2020 19:50      52.7      51.7       72     43.3      0.00      7.53      57.2     0.46      1018.1     0.3      SE   146   1.1      SE     132     269       -62       0.1       8.0      59.0      9.54
   02/07/2020 19:40      53.1      52.4       70     43.4      0.00      7.53      57.2     0.46      1018.0     0.9     SSE   155   2.7     SSW     199     269       -62       0.4       8.0      59.2      9.54
   02/07/2020 19:30      53.5      52.2       71     43.8      0.00      7.53      57.2     0.46      1017.8     0.7       S   180   1.5     SSE     167     269       -62       0.4       7.9      59.5      9.54
   02/07/2020 19:20      53.5      53.1       71     44.0      0.00      7.53      57.1     0.46      1017.8     0.5     SSW   193   1.0      SW     224     269       -62       0.0       7.8      59.8      9.54
   02/07/2020 19:10      53.5      53.0       71     44.2      0.00      7.53      57.1     0.46      1017.7     0.4       S   182   1.7       S     181     269       -64       0.4       7.8      60.1      9.55
   02/07/2020 19:00      53.8      53.4       71     44.3      0.00      7.53      57.0     0.46      1017.7     0.2      SE   138   1.2      SE     139     268       -65       0.0       7.8      60.4      9.55
   02/07/2020 18:50      54.5      53.6       70     44.5      0.00      7.53      57.0     0.46      1017.6     0.5     SSE   164   1.1     SSE     162     268       -65       0.3       7.8      60.7      9.55
   02/07/2020 18:40      55.8      54.4       68     44.6      0.00      7.53      57.0     0.46      1017.5     0.5     SSE   158   1.8      SE     140     268       -66       0.1       7.7      60.9      9.55
   02/07/2020 18:30      57.1      55.7       65     45.0      0.00      7.53      56.9     0.46      1017.4     0.7     SSE   156   1.4     SSE     157     268       -67       0.3       7.7      61.3      9.55
   02/07/2020 18:20      57.7      57.0       62     44.6      0.00      7.53      56.8     0.46      1017.4     0.6       S   174   1.5       S     176     268       -68       0.3       7.7      61.6      9.55
   02/07/2020 18:10      58.6      57.6       61     44.6      0.00      7.53      56.8     0.46      1017.3     0.6     SSW   207   1.4     WSW     244     268       -69       0.4       7.6      61.8      9.55
   02/07/2020 18:00      59.7      58.5       59     44.7      0.00      7.53      56.7     0.46      1017.2     1.6     SSW   199   2.6      SW     228     268       -69       0.2       7.6      62.2      9.56
   02/07/2020 17:50      61.6      59.7       57     45.4      0.00      7.53      56.7     0.46      1017.1     0.6     SSW   192   2.3      SW     219     267       -71       0.4       7.5      62.5      9.56
   02/07/2020 17:40      62.2      61.4       55     45.5      0.00      7.53      56.6     0.46      1017.1     0.3       S   176   1.4       E      89     267       -71       0.0       7.5      62.7      9.56
   02/07/2020 17:30      63.5      62.0       53     45.5      0.00      7.53      56.5     0.46      1017.0     0.3     ESE   106   1.3      SE     139     267       -70       0.0       7.5      63.0      9.56
   02/07/2020 17:20      64.6      63.3       51     45.6      0.00      7.53      56.4     0.46      1017.0     0.7     SSW   206   1.9     SSW     206     266       -69       0.4       7.4      63.3      9.56
   02/07/2020 17:10      65.7      64.4       50     46.2      0.00      7.53      56.3     0.46      1017.0     1.7       S   184   2.6       S     185     266       -68       1.1       7.4      63.5      9.57
   02/07/2020 17:00      66.5      65.6       49     46.2      0.00      7.53      56.2     0.46      1016.9     2.1       S   182   3.1      SE     141     266       -58       1.4       7.2      63.9      9.57
   02/07/2020 16:50      67.6      66.5       47     46.4      0.00      7.53      56.1     0.46      1016.9     3.1     SSE   154   5.7      SE     132     266       -64       1.5       7.0      64.0      9.57
   02/07/2020 16:40      69.2      67.6       44     45.5      0.00      7.53      56.0     0.46      1016.8     2.7     ESE   119   5.2       S     187     266       -14       1.3       6.7      64.0      9.58
   02/07/2020 16:30      69.6      69.1       40     44.0      0.00      7.53      55.9     0.46      1016.7     1.6       E    85   3.7       E      91     265         9       0.6       6.5      63.8      9.58
   02/07/2020 16:20      69.8      69.3       39     43.7      0.00      7.53      55.8     0.46      1016.6     2.1     ENE    76   5.5      SE     126     265        33       0.6       6.4      63.8      9.58
   02/07/2020 16:10      70.7      69.4       38     43.3      0.00      7.53      55.7     0.46      1016.6     2.7     ENE    64   4.9     ESE     113     265        54       1.0       6.3      63.6      9.58
   02/07/2020 16:00      73.0      70.6       34     42.4      0.00      7.53      55.7     0.46      1016.5     2.2      NE    44   4.3      NE      34     264        74       0.6       6.1      63.3      9.58
   02/07/2020 15:50      72.9      72.5       30     39.2      0.00      7.53      55.6     0.46      1016.5     1.2       E    93   2.7      SE     127     264        95       0.8       6.0      63.1      9.58
   02/07/2020 15:40      73.1      72.6       28     37.7      0.00      7.53      55.5     0.46      1016.5     1.1     ENE    60   2.5       N       9     263       118       0.5       5.9      62.8      9.58
   02/07/2020 15:30      73.3      72.1       28     37.6      0.00      7.53      55.4     0.46      1016.6     1.6      NE    53   3.7      NE      48     264       141       0.5       5.8      62.6      9.58
   02/07/2020 15:20      74.0      73.3       27     37.9      0.00      7.53      55.3     0.46      1016.7     1.0     ENE    69   3.2     NNE      27     263       163       0.5       5.7      62.2      9.58
   02/07/2020 15:10      74.2      73.2       27     37.7      0.00      7.53      55.4     0.46      1016.7     1.1       E    97   2.5     ESE     106     263       185       0.9       5.6      62.0      9.59
   02/07/2020 15:00      74.2      73.0       28     38.0      0.00      7.53      55.3     0.45      1016.8     0.9      NW   313   2.9     WNW     300     263       203       0.5       5.5      61.6      9.59
   02/07/2020 14:50      73.7      72.4       27     37.5      0.00      7.53      55.3     0.45      1016.9     0.8     ESE   106   2.5      SE     132     263       223       0.7       5.4      61.2      9.59
   02/07/2020 14:40      72.9      72.2       28     37.4      0.00      7.53      55.2     0.45      1016.9     1.5      NE    51   3.5      NE      51     263       241       0.7       5.3      60.7      9.59
   02/07/2020 14:30      72.6      71.3       28     37.1      0.00      7.53      55.2     0.45      1017.0     0.9     ENE    59   2.5     NNE      30     263       259       0.8       5.2      60.3      9.59
   02/07/2020 14:20      73.2      72.0       28     37.6      0.00      7.53      55.0     0.45      1017.1     1.6      NW   309   3.9       N       0     263       276       1.1       5.0      59.6      9.59
   02/07/2020 14:10      72.9      71.3       28     37.3      0.00      7.53      55.1     0.45      1017.2     1.1       N     6   3.7     WSW     256     263       291       1.1       4.8      59.3      9.59
   02/07/2020 14:00      72.5      70.8       29     37.3      0.00      7.53      55.0     0.45      1017.3     0.8     NNE    12   2.9       N     351     263       304       0.6       4.7      58.9      9.59
   02/07/2020 13:50      71.3      70.3       29     36.8      0.00      7.53      55.0     0.45      1017.4     1.5     NNE    14   4.5       N     355     263       318       0.6       4.6      58.4      9.59
   02/07/2020 13:40      71.0      69.7       29     36.7      0.00      7.53      54.9     0.45      1017.5     1.4      NW   325   3.2      NW     316     263       331       1.1       4.5      57.8      9.59
   02/07/2020 13:30      70.2      69.1       29     36.1      0.00      7.53      55.0     0.45      1017.7     2.0      NE    38   4.4       E      79     263       342       1.0       4.3      57.3      9.60
   02/07/2020 13:20      69.7      69.1       29     36.1      0.00      7.53      54.9     0.45      1017.9     1.9     NNE    13   3.5      NE      46     263       352       0.8       4.1      56.8      9.60
   02/07/2020 13:00      69.2      68.3       29     35.4      0.00      7.53      54.9     0.45      1018.3     1.1     NNE    13   3.3      NW     323     263       369       0.7       3.8      55.6      9.60
   02/07/2020 12:50      68.7      68.2       30     35.4      0.00      7.53      55.0     0.45      1018.4     1.6     NNE    19   3.1     NNE      22     264       378       0.6       3.7      55.1      9.60
   02/07/2020 12:40      68.7      66.6       31     35.9      0.00      7.53      55.1     0.45      1018.6     1.1      NW   324   3.5      NE      38     264       384       0.9       3.6      54.6      9.60
   02/07/2020 12:30      67.5      66.5       31     35.6      0.00      7.53      55.0     0.45      1018.8     1.8      NW   318   4.3       N     354     264       389       1.1       3.5      54.0      9.60
   02/07/2020 12:20      67.4      66.2       32     35.8      0.00      7.53      55.0     0.45      1019.0     1.8      NW   304   4.7     WSW     242     264       392       1.5       3.3      53.3      9.60
   02/07/2020 12:10      66.3      65.4       33     35.8      0.00      7.53      55.2     0.45      1019.1     2.4     WSW   257   5.1       W     261     264       395       1.9       3.0      52.8      9.60
   02/07/2020 12:00      65.8      64.9       33     35.6      0.00      7.53      55.3     0.45      1019.2     1.8     WSW   242   4.6      SW     229     264       394       1.3       2.7      52.3      9.60
   02/07/2020 11:50      65.7      64.9       32     35.1      0.00      7.53      55.2     0.45      1019.4     1.7      NW   314   4.3       W     276     264       393       1.3       2.5      51.7      9.60
   02/07/2020 11:40      65.7      63.8       33     35.4      0.00      7.53      55.2     0.45      1019.5     1.1     NNW   335   3.1     NNE      28     264       390       0.6       2.3      51.1      9.61
   02/07/2020 11:30      64.6      64.0       34     35.3      0.00      7.53      55.2     0.45      1019.7     1.5      NW   321   3.2     NNE      26     264       385       1.1       2.2      50.4      9.61
   02/07/2020 11:20      64.4      62.7       35     35.6      0.00      7.53      55.2     0.45      1019.9     0.6     NNW   348   2.4      NE      54     264       379       0.5       2.0      49.7      9.61
   02/07/2020 11:10      63.1      62.4       36     35.1      0.00      7.53      55.2     0.45      1020.1     1.3     WSW   251   3.0      SW     225     265       374       1.1       1.9      49.1      9.61
   02/07/2020 11:00      62.6      62.0       36     35.3      0.00      7.53      55.2     0.45      1020.3     1.1     WNW   299   3.6      NW     305     264       365       0.9       1.7      48.4      9.61
   02/07/2020 10:50      62.2      60.8       37     35.0      0.00      7.53      55.1     0.45      1020.5     1.1      NW   305   2.5     NNE      18     264       357       1.0       1.6      47.8      9.61
   02/07/2020 10:40      61.3      59.9       38     35.0      0.00      7.53      55.2     0.45      1020.6     1.3       N     0   3.6     NNW     347     265       349       0.6       1.4      47.1      9.61
   02/07/2020 10:30      60.0      58.8       39     34.8      0.00      7.53      55.2     0.45      1020.7     1.3       N   359   3.3     NNW     340     265       339       0.7       1.3      46.6      9.61
   02/07/2020 10:20      59.1      58.5       40     34.8      0.00      7.53      55.1     0.45      1020.7     1.6     NNE    12   3.4       N       9     266       327       0.6       1.2      46.1      9.61
   02/07/2020 10:10      59.1      57.5       42     35.5      0.00      7.53      55.2     0.45      1020.7     0.8     NNE    23   1.9      NE      39     266       313       0.3       1.1      45.6      9.61
   02/07/2020 10:00      58.0      57.1       44     35.8      0.00      7.53      55.2     0.45      1020.7     0.9       N     2   3.7       N      10     266       300       0.5       1.1      45.1      9.61
   02/07/2020 09:50      57.1      55.7       46     35.9      0.00      7.53      55.3     0.45      1020.7     0.9     NNE    13   2.4     NNE      30     266       283       0.4       1.0      44.7      9.61
   02/07/2020 09:40      55.7      54.7       48     36.2      0.00      7.53      55.3     0.45      1020.6     0.9     NNW   328   2.4      NW     324     266       268       0.5       0.9      44.2      9.61
   02/07/2020 09:30      55.5      54.2       48     35.8      0.00      7.53      55.3     0.45      1020.5     0.9       N     2   2.9     NNE      33     266       251       0.5       0.8      43.9      9.61
   02/07/2020 09:20      54.5      53.9       50     35.9      0.00      7.53      55.3     0.45      1020.4     1.0     NNW   328   2.4     NNW     346     266       236       0.4       0.8      43.5      9.61
   02/07/2020 09:10      54.3      53.6       51     36.2      0.00      7.53      55.4     0.45      1020.3     0.6       N   349   1.8       N       7     266       221       0.1       0.7      43.3      9.61
   02/07/2020 09:00      53.7      52.9       52     36.3      0.00      7.53      55.4     0.45      1020.3     0.4     NNW   349   1.3     WNW     290     266       203       0.0       0.7      43.0      9.61
   02/07/2020 08:50      53.6      52.7       53     36.2      0.00      7.53      55.4     0.45      1020.3     0.2     NNW   332   0.7      NW     314     267       176       0.0       0.7      42.7      9.61
   02/07/2020 08:40      53.4      52.7       52     36.2      0.00      7.53      55.4     0.45      1020.2     0.0       N     0   0.0       E      94     276       195       0.0       0.7      42.5      9.61
   02/07/2020 08:30      52.8      50.1       56     36.2      0.00      7.53      55.5     0.45      1020.2     0.0     ENE    78   0.4       E      80     286       195       0.0       0.7      42.2      9.62
   02/07/2020 08:20      50.2      46.8       62     36.1      0.00      7.53      55.5     0.45      1020.1     0.0       N     0   0.0     NNE      15     324       183       0.0       0.7      42.0      9.62
   02/07/2020 08:10      46.8      45.1       67     35.9      0.00      7.53      55.6     0.45      1020.2     0.4      SW   235   1.1       W     272     354       101       0.0       0.7      41.8      9.62
   02/07/2020 08:00      45.2      43.0       75     36.8      0.00      7.53      55.6     0.45      1020.1     0.0     NNW   329   0.3     WNW     304     363        90       0.0       0.6      41.6      9.62
   02/07/2020 07:50      43.0      41.1       83     37.5      0.00      7.53      55.6     0.45      1020.0     0.2     NNE    17   1.2     NNE      23     367        50       0.0       0.6      41.5      9.62
   02/07/2020 07:40      40.9      38.1       89     36.6      0.00      7.53      55.6     0.45      1020.0     0.0       N     0   0.0       S     183     369         5       0.0       0.6      41.4      9.62
   02/07/2020 07:30      38.1      37.0       90     34.9      0.00      7.53      55.7     0.45      1019.9     0.0       N     0   0.0     SSE     161     369         3       0.0       0.6      41.4      9.62
   02/07/2020 07:20      37.0      36.4       90     34.1      0.00      7.53      55.7     0.45      1019.9     0.0       N     0   0.0     ENE      76     368        -1       0.0       0.6      41.5      9.62
   02/07/2020 07:10      37.1      36.6       90     34.3      0.00      7.53      55.8     0.45      1019.9     0.0       S   172   0.6       S     172     370        -6       0.0       0.6      41.6      9.62
   02/07/2020 07:00      36.6      35.9       90     33.7      0.00      7.53      55.9     0.45      1019.8     0.6     SSE   164   1.2       S     178     367       -11       0.0       0.6      41.7      9.62
   02/07/2020 06:50      36.8      36.3       90     33.9      0.00      7.53      55.9     0.45      1019.7     0.0      SE   129   0.9      SE     129     366       -15       0.0       0.6      41.9      9.62
   02/07/2020 06:40      37.2      36.6       90     34.1      0.00      7.53      55.9     0.45      1019.7     0.4     SSE   161   1.4       S     179     361       -18       0.1       0.6      42.0      9.62
   02/07/2020 06:30      36.8      36.0       90     33.8      0.00      7.53      55.9     0.45      1019.7     0.8     SSW   199   1.8      SW     219     358       -19       0.2       0.6      42.3      9.62
   02/07/2020 06:20      36.3      35.9       89     33.2      0.00      7.53      56.0     0.45      1019.7     0.0       N     0   0.0      NE      50     355       -19       0.1       0.6      42.4      9.63
   02/07/2020 06:10      36.8      36.2       89     33.7      0.00      7.53      56.1     0.45      1019.6     0.3      SE   132   0.9     SSE     162     353       -20       0.0       0.6      42.5      9.63
   02/07/2020 06:00      37.2      36.6       89     34.0      0.00      7.53      56.1     0.45      1019.7     0.9       S   172   1.8       S     190     349       -20       0.4       0.5      42.8      9.63
   02/07/2020 05:50      37.3      36.8       89     34.1      0.00      7.53      56.1     0.45      1019.7     0.0       N     0   0.0      SE     130     346       -20       0.0       0.5      43.0      9.63
   02/07/2020 05:40      37.4      37.0       89     34.2      0.00      7.53      56.1     0.45      1019.6     0.0       N     0   0.0      SE     130     343       -21       0.0       0.5      43.1      9.63
   02/07/2020 05:30      37.8      37.4       89     34.6      0.00      7.53      56.2     0.45      1019.7     0.3     SSE   156   1.3       S     185     340       -21       0.0       0.5      43.3      9.63
   02/07/2020 05:20      38.0      37.1       89     34.4      0.00      7.53      56.1     0.45      1019.6     0.2     SSE   151   1.0      SE     143     337       -22       0.0       0.5      43.5      9.63
   02/07/2020 05:10      38.1      37.6       89     34.8      0.00      7.53      56.2     0.45      1019.5     0.2     SSE   154   0.9     SSE     151     334       -22       0.0       0.5      43.6      9.63
   02/07/2020 05:00      38.2      37.9       89     35.0      0.00      7.53      56.2     0.45      1019.4     0.2     SSE   147   1.0     SSE     151     331       -23       0.0       0.5      43.8      9.63
   02/07/2020 04:50      38.1      37.8       89     34.9      0.00      7.53      56.3     0.45      1019.4     0.6     SSE   159   1.2     SSE     151     329       -23       0.0       0.5      43.9      9.63
   02/07/2020 04:40      38.2      37.8       88     34.7      0.00      7.53      56.3     0.45      1019.4     0.3     SSE   150   1.0     SSE     147     325       -24       0.0       0.5      44.1      9.63
   02/07/2020 04:30      38.9      37.9       88     35.0      0.00      7.53      56.3     0.45      1019.4     0.7     SSE   163   1.6       S     191     322       -24       0.2       0.5      44.3      9.63
   02/07/2020 04:20      38.7      38.2       88     35.2      0.00      7.53      56.3     0.45      1019.3     0.7       S   190   1.7     SSW     201     320       -24       0.2       0.4      44.5      9.63
   02/07/2020 04:10      38.2      37.7       87     34.6      0.00      7.53      56.3     0.45      1019.2     0.2     SSW   196   0.7       S     189     317       -26       0.0       0.4      44.7      9.63
   02/07/2020 04:00      38.5      38.1       88     35.0      0.00      7.53      56.4     0.45      1019.2     0.8       E   100   1.7       S     187     315       -26       0.2       0.4      44.8      9.63
   02/07/2020 03:50      38.7      38.3       87     34.9      0.00      7.53      56.4     0.45      1019.2     0.8       S   175   2.2       S     183     312       -27       0.5       0.4      45.0      9.64
   02/07/2020 03:40      39.2      38.4       88     35.5      0.00      7.53      56.4     0.46      1019.2     1.0       S   188   1.8     SSW     200     309       -27       0.4       0.3      45.2      9.64
   02/07/2020 03:30      38.5      38.3       88     35.2      0.00      7.53      56.4     0.46      1019.0     0.0     SSE   166   1.1       S     171     308       -30       0.0       0.2      45.4      9.64
   02/07/2020 03:20      38.9      38.4       87     35.1      0.00      7.53      56.5     0.46      1019.0     0.0      SE   138   0.4      SE     138     305       -31       0.0       0.2      45.6      9.64
   02/07/2020 03:10      39.2      38.7       88     35.5      0.00      7.53      56.5     0.46      1019.0     0.7     SSE   158   1.9      SE     133     301       -31       0.0       0.2      45.8      9.64
   02/07/2020 03:00      39.0      38.5       87     35.1      0.00      7.53      56.5     0.46      1019.0     0.0     SSW   192   0.8     SSW     209     299       -33       0.0       0.2      46.0      9.64
   02/07/2020 02:50      39.1      38.7       87     35.4      0.00      7.53      56.5     0.46      1019.2     0.2       S   175   1.0     SSE     167     295       -35       0.0       0.2      46.2      9.64
   02/07/2020 02:40      39.1      38.7       85     35.0      0.00      7.53      56.5     0.46      1019.2     0.1     SSE   158   0.8       S     170     292       -38       0.0       0.2      46.4      9.64
   02/07/2020 02:30      39.7      39.0       85     35.1      0.00      7.53      56.6     0.46      1019.3     0.3      SE   125   1.5     ENE      60     288       -38       0.1       0.2      46.6      9.64
   02/07/2020 02:20      40.4      39.7       85     35.7      0.00      7.53      56.6     0.46      1019.3     0.2       S   172   1.2     SSE     147     284       -38       0.0       0.1      46.8      9.64
   02/07/2020 02:10      40.3      39.7       85     35.9      0.00      7.53      56.7     0.46      1019.3     0.7     SSW   208   2.0     SSW     208     280       -38       0.0       0.1      47.1      9.64
   02/07/2020 02:00      40.4      40.1       85     36.1      0.00      7.53      56.8     0.46      1019.3     0.1     SSW   199   1.0     SSW     199     278       -40       0.0       0.1      47.3      9.64
   02/07/2020 01:50      40.6      40.3       85     36.1      0.00      7.53      56.8     0.46      1019.4     0.0      SE   135   0.4      SE     135     275       -43       0.0       0.1      47.5      9.64
   02/07/2020 01:40      40.8      40.4       85     36.3      0.00      7.53      56.8     0.46      1019.4     0.0     SSE   162   0.2     SSE     162     270       -44       0.0       0.1      47.7      9.64
   02/07/2020 01:30      40.8      40.2       84     36.0      0.00      7.53      56.8     0.46      1019.5     0.7     SSE   161   1.6      SE     141     266       -47       0.2       0.1      47.9      9.64
   02/07/2020 01:20      40.9      40.5       84     36.2      0.00      7.53      56.9     0.46      1019.5     0.5       S   171   1.9       S     187     264       -48       0.0       0.1      48.1      9.64
   02/07/2020 01:10      40.6      40.3       84     36.0      0.00      7.53      56.9     0.46      1019.5     0.0       S   183   0.8     SSW     194     263       -49       0.0       0.1      48.4      9.65
   02/07/2020 01:00      41.2      40.4       83     36.0      0.00      7.53      56.9     0.46      1019.5     0.4     SSE   166   1.2       S     177     262       -51       0.2       0.1      48.6      9.65
   02/07/2020 00:50      41.5      40.9       82     36.3      0.00      7.53      56.9     0.46      1019.5     0.0       N     0   0.0     SSE     161     261       -52       0.1       0.0      48.8      9.65
   02/07/2020 00:40      41.5      40.8       82     36.0      0.00      7.53      56.9     0.46      1019.7     0.1     SSE   161   0.6     SSE     153     260       -53       0.0       0.0      49.0      9.65
   02/07/2020 00:30      41.8      41.2       81     36.0      0.00      7.53      57.0     0.46      1019.7     0.7     SSE   164   1.6     SSW     210     262       -54       0.2       0.0      49.1      9.65
   02/07/2020 00:20      42.4      41.7       81     36.5      0.00      7.53      57.0     0.46      1019.8     0.4     SSE   164   1.1     SSW     207     264       -53       0.0       0.0      49.4      9.65
   02/07/2020 00:10      42.4      42.1       80     36.4      0.00      7.53      57.0     0.46      1019.9     0.6       S   181   1.7       S     190     265       -54       0.0       0.0      49.5      9.65
   02/07/2020 00:00      42.9      42.2       78     36.3      0.00      7.53      57.0     0.46      1019.9     0.0       S   185   0.4       S     185     270       -55       0.0      27.4      49.8      9.65
   02/06/2020 23:50      43.3      42.8       77     36.4      0.00      7.53      57.0     0.46      1020.0     0.2       S   190   0.8     SSW     206     271       -55       0.0      27.4      50.0      9.65
   02/06/2020 23:40      43.5      43.0       78     36.8      0.00      7.53      57.0     0.46      1020.0     0.3       S   177   0.8       S     186     271       -54       0.0      27.4      50.3      9.65
   02/06/2020 23:30      43.2      42.9       78     36.7      0.00      7.53      57.1     0.46      1020.0     0.0     SSW   204   0.7      SW     232     271       -55       0.0      27.4      50.5      9.65
   02/06/2020 23:20      43.7      43.0       77     36.6      0.00      7.53      57.0     0.46      1020.1     0.0      SE   133   0.3      SE     133     271       -56       0.0      27.4      50.7      9.65
   02/06/2020 23:10      44.3      43.5       76     36.8      0.00      7.53      57.0     0.46      1020.2     0.6     SSE   161   1.2       S     179     271       -56       0.2      27.4      50.9      9.66
   02/06/2020 23:00      44.3      44.0       75     36.9      0.00      7.53      56.9     0.46      1020.2     0.4       S   184   1.8       S     190     271       -57       0.4      27.4      51.0      9.66
   02/06/2020 22:50      44.3      43.6       76     36.8      0.00      7.53      57.0     0.46      1020.2     0.5       S   189   1.2     SSW     208     271       -56       0.3      27.3      51.4      9.66
   02/06/2020 22:40      44.6      43.7       74     36.5      0.00      7.53      56.9     0.46      1020.1     0.0      SE   125   1.1      SE     130     270       -58       0.1      27.3      51.5      9.66
   02/06/2020 22:30      45.2      44.4       73     36.9      0.00      7.53      56.7     0.46      1020.1     0.8     SSE   146   1.4      SE     135     270       -58       0.3      27.3      51.5      9.66
   02/06/2020 22:20      46.1      45.1       72     36.9      0.00      7.53      56.8     0.46      1020.1     0.5      SE   144   1.2     SSE     149     270       -58       0.0      27.2      51.7      9.66
   02/06/2020 22:10      46.1      45.7       71     37.2      0.00      7.53      56.7     0.46      1020.2     0.2       S   184   1.3     SSW     195     269       -57       0.0      27.2      52.0      9.66
   02/06/2020 22:00      47.4      45.6       69     36.8      0.00      7.53      56.8     0.46      1020.3     0.5     SSE   149   1.0     SSE     167     269       -59       0.0      27.2      52.2      9.66
   02/06/2020 21:50      47.8      47.2       67     37.0      0.00      7.53      56.7     0.46      1020.3     0.6       S   188   1.6     SSW     194     269       -58       0.1      27.2      52.4      9.66
   02/06/2020 21:40      47.5      46.8       68     37.1      0.00      7.53      56.8     0.46      1020.2     0.8     SSW   204   1.8     SSW     195     269       -58       0.0      27.2      52.7      9.66
   02/06/2020 21:30      47.2      46.8       69     37.2      0.00      7.53      56.7     0.46      1020.1     0.1      SW   220   1.0      SW     219     269       -59       0.2      27.1      52.9      9.66
   02/06/2020 21:20      47.5      47.0       68     37.1      0.00      7.53      57.1     0.46      1020.1     0.4       S   175   1.3       S     185     269       -60       0.3      27.1      53.5      9.66
   02/06/2020 21:10      47.6      47.0       68     37.2      0.00      7.53      56.9     0.46      1020.0     0.9       S   186   1.9     SSW     195     269       -60       0.6      27.1      53.5      9.67
   02/06/2020 21:00      49.2      47.6       65     37.1      0.00      7.53      56.8     0.46      1020.0     0.3      SE   141   0.9     SSE     156     269       -62       0.2      27.0      53.8      9.67
   02/06/2020 20:50      50.9      49.0       61     37.0      0.00      7.53      56.8     0.46      1019.9     0.4       S   179   2.1     WSW     243     268       -63       0.0      26.9      54.0      9.67
   02/06/2020 20:40      51.3      50.7       59     37.3      0.00      7.53      56.8     0.46      1019.9     1.0      SW   233   2.6      NW     318     268       -64       0.2      26.9      54.2      9.67
   02/06/2020 20:30      51.4      51.0       59     37.4      0.00      7.53      57.0     0.46      1019.9     2.4      SW   228   5.4      SW     229     268       -64       1.4      26.9      54.6      9.67
   02/06/2020 20:20      51.2      49.6       61     37.5      0.00      7.53      56.9     0.46      1019.8     2.1      SW   216   4.9     SSW     214     268       -63       1.2      26.7      54.8      9.67
   02/06/2020 20:10      49.7      48.4       67     38.2      0.00      7.53      57.3     0.46      1019.6     0.6       S   182   1.9     SSW     197     269       -61       0.1      26.5      55.5      9.67
   02/06/2020 20:00      49.3      48.6       67     38.3      0.00      7.53      57.4     0.46      1019.5     0.4      SE   132   2.4     NNE      21     269       -62       0.1      26.4      55.7      9.67
   02/06/2020 19:50      49.3      48.5       68     38.7      0.00      7.53      57.4     0.46      1019.5     0.4     SSE   165   1.3       S     188     269       -61       0.1      26.4      55.9      9.67
   02/06/2020 19:40      49.6      49.0       67     38.7      0.00      7.53      57.1     0.46      1019.4     0.4     SSE   168   1.3       S     171     269       -62       0.2      26.4      56.1      9.67
   02/06/2020 19:30      49.9      49.3       67     39.2      0.00      7.53      56.6     0.46      1019.3     0.6     SSE   160   1.2     SSE     155     268       -63       0.4      26.4      55.9      9.67
   02/06/2020 19:20      50.9      49.9       65     39.2      0.00      7.53      56.8     0.46      1019.2     1.0     SSE   161   1.9     SSE     169     268       -63       0.4      26.3      56.1      9.68
   02/06/2020 19:10      51.0      50.5       65     39.6      0.00      7.53      56.8     0.46      1019.2     1.0       S   182   2.3      SW     232     268       -63       0.5      26.2      56.4      9.68
   02/06/2020 19:00      51.9      51.0       63     39.5      0.00      7.53      56.7     0.46      1019.0     1.5       S   185   2.6     SSW     203     268       -63       1.0      26.1      56.8      9.68
   02/06/2020 18:50      52.5      51.8       62     39.4      0.00      7.53      56.7     0.46      1018.9     1.3       S   171   2.1     SSE     166     268       -64       0.8      26.0      57.0      9.68
   02/06/2020 18:40      53.2      52.4       59     39.0      0.00      7.53      56.6     0.46      1018.9     1.4     SSW   198   2.0       S     191     267       -63       0.4      25.9      57.3      9.68
   02/06/2020 18:30      53.9      52.9       58     38.8      0.00      7.53      56.6     0.46      1018.9     1.0     SSW   193   1.7       S     189     267       -64       0.0      25.8      57.6      9.68
   02/06/2020 18:20      53.9      53.3       57     38.8      0.00      7.53      56.5     0.46      1018.8     0.9     SSW   211   1.9      SW     218     267       -64       0.1      25.8      57.8      9.69
   02/06/2020 18:10      53.8      53.5       57     38.7      0.00      7.53      56.5     0.46      1018.7     0.6     SSW   207   1.2      SW     221     267       -65       0.2      25.8      58.1      9.69
   02/06/2020 18:00      55.3      53.7       55     38.7      0.00      7.53      56.4     0.46      1018.6     0.8       S   187   1.6     SSW     207     267       -67       0.6      25.7      58.3      9.69
   02/06/2020 17:50      56.2      55.3       53     38.8      0.00      7.53      56.4     0.46      1018.5     0.9       S   191   1.6       S     181     267       -68       0.7      25.6      58.6      9.69
   02/06/2020 17:40      57.2      56.2       51     38.9      0.00      7.53      56.3     0.46      1018.4     1.2     SSW   199   1.8     SSW     207     266       -69       1.1      25.5      59.0      9.69
   02/06/2020 17:30      57.9      57.3       49     38.9      0.00      7.53      56.3     0.46      1018.3     1.8       S   186   3.9       S     173     266       -69       1.1      25.3      59.2      9.70
   02/06/2020 17:20      58.2      57.6       49     38.7      0.00      7.53      56.2     0.46      1018.1     2.1     SSW   196   4.0       S     187     266       -67       1.2      25.1      59.5      9.70
   02/06/2020 17:10      58.9      58.1       47     38.6      0.00      7.53      56.1     0.46      1018.1     2.6       S   189   4.7     SSW     201     266       -65       1.6      24.9      59.8      9.70
   02/06/2020 17:00      59.4      58.8       46     38.5      0.00      7.53      56.1     0.46      1018.0     2.4       S   180   5.7     SSW     201     266       -59       1.8      24.6      60.1      9.71
   02/06/2020 16:50      60.1      59.3       45     38.3      0.00      7.53      56.0     0.46      1018.0     2.9       S   177   5.4     SSE     166     266       -59       2.3      24.3      60.5      9.71
   02/06/2020 16:40      60.9      60.1       44     38.4      0.00      7.53      56.0     0.46      1017.9     3.1       S   186   4.9     SSW     208     265       -16       2.3      23.9      60.9      9.71
   02/06/2020 16:30      61.0      60.5       43     38.2      0.00      7.53      55.9     0.46      1017.8     4.0       S   175   6.4      SE     146     265        13       2.7      23.6      61.0      9.71
   02/06/2020 16:20      61.8      61.1       42     38.1      0.00      7.53      55.9     0.46      1017.8     3.9       S   169   7.7     ESE     122     265        36       2.1      23.1      61.2      9.72
   02/06/2020 16:10      62.1      61.5       41     37.7      0.00      7.53      55.7     0.46      1017.8     3.4     SSE   163   7.2       S     179     265        60       2.3      22.8      61.1      9.72
   02/06/2020 16:00      62.2      61.6       40     37.4      0.00      7.53      55.5     0.46      1017.8     3.8     SSE   163   6.0       S     182     265        85       2.4      22.4      60.8      9.72
   02/06/2020 15:50      62.8      61.8       39     37.3      0.00      7.53      55.3     0.46      1017.8     4.3     SSE   167   7.2       S     179     265       109       2.7      21.9      60.7      9.73
   02/06/2020 15:40      63.1      62.6       38     37.1      0.00      7.53      55.4     0.46      1017.8     4.3       S   186   8.5       S     184     264       133       3.1      21.5      60.6      9.73
   02/06/2020 15:30      64.7      63.0       36     36.8      0.00      7.53      55.2     0.46      1017.7     5.1       S   179   8.4       S     177     264       155       3.5      21.0      60.5      9.73
   02/06/2020 15:20      65.0      64.3       35     36.4      0.00      7.53      55.2     0.46      1017.7     3.8     SSE   158   6.6     SSW     209     264       176       2.0      20.4      60.1      9.74
   02/06/2020 15:10      65.2      64.7       35     36.4      0.00      7.53      55.1     0.46      1017.7     3.3     SSE   163   5.8      SE     132     264       196       2.0      20.1      59.9      9.74
   02/06/2020 15:00      66.9      64.8       32     35.0      0.00      7.53      55.1     0.45      1017.8     3.7     SSE   148   6.1      SE     135     263       213       2.1      19.7      59.6      9.74
   02/06/2020 14:50      67.4      66.7       26     31.0      0.00      7.53      55.1     0.45      1017.9     1.9       E    96   5.3      SE     135     263       225       1.0      19.4      59.3      9.75
   02/06/2020 14:40      67.0      66.0       27     31.1      0.00      7.53      55.0     0.45      1017.9     2.1      SW   233   4.8      SW     231     263       244       1.7      19.2      58.9      9.75
   02/06/2020 14:30      66.5      66.0       26     30.7      0.00      7.53      55.0     0.45      1018.0     2.4     SSW   213   4.3     SSW     204     263       260       1.8      18.9      58.6      9.75
   02/06/2020 14:20      66.8      65.9       26     30.4      0.00      7.53      55.1     0.45      1018.1     2.0     SSE   155   4.3     SSE     166     263       275       1.4      18.6      58.4      9.76
   02/06/2020 14:10      66.7      65.7       26     30.4      0.00      7.53      54.9     0.45      1018.2     2.4     SSE   161   4.9      SE     136     263       291       1.8      18.4      57.9      9.76
   02/06/2020 14:00      66.5      65.5       27     30.8      0.00      7.53      55.0     0.45      1018.3     2.1      SW   224   5.3       W     266     263       304       1.5      18.1      57.3      9.77
   02/06/2020 13:50      66.0      65.3       27     30.4      0.00      7.53      55.0     0.45      1018.4     2.5     WSW   244   4.9     WSW     246     263       319       2.0      17.8      56.9      9.77
   02/06/2020 13:40      65.6      64.9       27     30.1      0.00      7.53      55.0     0.45      1018.5     2.7      SW   234   5.0      SW     224     263       331       2.1      17.5      56.4      9.77
   02/06/2020 13:30      66.5      65.1       26     30.1      0.00      7.53      54.9     0.45      1018.6     2.3     SSW   212   4.2     WSW     243     263       340       1.6      17.1      56.0      9.77
   02/06/2020 13:20      66.6      65.7       25     29.9      0.00      7.53      54.9     0.45      1018.8     1.4       W   275   3.9     WSW     249     263       349       1.1      16.9      55.6      9.78
   02/06/2020 13:10      66.4      63.5       25     28.6      0.00      7.53      54.8     0.45      1019.1     1.1       E    83   4.2       E      91     263       359       0.9      16.7      55.1      9.79
   02/06/2020 13:00      65.1      63.6       26     29.0      0.00      7.53      54.7     0.45      1019.4     2.5     WNW   284   4.4      NE      43     263       367       1.8      16.5      54.6      9.79
   02/06/2020 12:50      65.1      63.2       27     29.7      0.00      7.53      54.8     0.45      1019.6     1.3     NNW   332   3.5      SW     222     263       373       0.7      16.2      54.1      9.80
   02/06/2020 12:40      63.4      62.4       28     28.9      0.00      7.53      54.8     0.45      1019.9     2.3     WSW   242   4.7      SW     221     263       382       1.9      16.1      53.6      9.81
   02/06/2020 12:30      63.5      62.5       28     29.4      0.00      7.53      54.9     0.45      1020.1     2.7      SW   228   4.3      SW     220     264       387       2.0      15.8      53.1      9.81
   02/06/2020 12:20      63.9      62.8       28     29.2      0.00      7.53      54.9     0.45      1020.3     1.9       W   263   5.0      SW     225     263       388       1.3      15.5      52.5      9.82
   02/06/2020 12:10      62.9      62.3       28     29.1      0.00      7.53      54.9     0.45      1020.6     1.5     WSW   244   3.9      SW     225     263       391       1.3      15.3      52.0      9.83
   02/06/2020 12:00      63.0      62.1       28     29.1      0.00      7.53      54.8     0.45      1020.9     1.5       W   275   4.2       W     280     263       390       1.5      15.0      51.5      9.84
   02/06/2020 11:50      62.8      61.5       27     27.8      0.00      7.53      54.8     0.45      1021.1     1.2      NW   324   3.4      NW     310     263       388       0.7      14.8      50.9      9.86
   02/06/2020 11:40      61.8      60.5       27     27.1      0.00      7.53      54.9     0.45      1021.2     1.2       E    81   2.3       S     172     264       385       0.8      14.7      50.4      9.87
   02/06/2020 11:30      61.0      60.4       29     28.2      0.00      7.53      54.9     0.45      1021.2     1.7      NE    37   3.1       N      11     264       380       0.9      14.5      49.8      9.88
   02/06/2020 11:20      61.3      60.7       30     29.4      0.00      7.53      54.9     0.45      1021.4     1.4     NNW   343   3.5     NNE      26     264       375       0.7      14.4      49.2      9.89
   02/06/2020 11:10      61.1      59.7       32     30.5      0.00      7.53      54.8     0.45      1021.7     0.9     NNW   329   2.9      NW     306     264       369       0.7      14.3      48.7      9.91
   02/06/2020 11:00      60.0      59.0       34     30.9      0.00      7.53      54.8     0.45      1021.8     1.0     WNW   302   3.1     WNW     290     264       364       0.8      14.1      48.3      9.92
   02/06/2020 10:50      59.3      58.4       35     31.2      0.00      7.53      54.9     0.45      1021.9     1.1      NW   317   2.9     NNW     330     264       354       0.7      14.0      47.8      9.94
   02/06/2020 10:40      58.8      58.0       36     31.5      0.00      7.53      54.9     0.45      1022.1     1.4       N   356   2.7       N       0     264       346       0.6      13.9      47.2      9.96
   02/06/2020 10:30      58.6      57.3       36     31.3      0.00      7.53      55.0     0.45      1022.1     0.7       N   354   2.6     ENE      57     264       336       0.5      13.8      46.6      9.98
   02/06/2020 10:20      57.5      56.5       37     31.0      0.00      7.53      54.9     0.45      1022.2     1.1     ESE   103   2.8      SE     136     264       324       0.7      13.7      44.9     10.02
   02/06/2020 10:10      57.4      55.6       38     31.2      0.00      7.53      55.3     0.45      1022.3     1.0     ENE    63   3.2       E      98     264       313       0.6      13.6      43.5      9.48
   02/06/2020 10:00      55.6      55.1       39     31.1      0.00      7.53      55.1     0.45      1022.3     0.2      NW   317   0.7     WNW     303     264       305       0.8      13.5      43.4      9.48
   02/05/2020 17:10      56.3      55.5       34     28.4      0.00      7.53      56.2     0.46      1019.9     1.9      SE   144   4.3      SE     144     264       -65       0.4      13.5      57.1      9.54
   02/05/2020 17:00      57.2      56.2       34     28.8      0.00      7.53      56.1     0.46      1019.9     2.3       S   173   4.5     WSW     243     264       -61       1.5      13.5      57.4      9.54
   02/05/2020 16:50      57.9      56.9       34     29.3      0.00      7.53      56.1     0.46      1019.8     1.9       S   173   4.3      SE     130     264       -57       1.2      13.2      57.8      9.54
   02/05/2020 16:30      59.3      58.3       34     30.4      0.00      7.53      55.8     0.46      1019.5     3.6       S   172   6.3     ESE     124     264        16       2.5      14.2      57.8      9.55
   02/05/2020 16:20      59.6      59.3       34     31.4      0.00      7.53      55.7     0.46      1019.5     3.2     SSE   154   5.6      SE     135     264        39       2.1      13.7      57.8      9.55
   02/05/2020 16:10      60.3      59.2       35     32.0      0.00      7.53      55.7     0.46      1019.5     3.9       S   173   5.8       S     177     264        63       2.7      13.4      57.7      9.55
   02/05/2020 16:00      61.3      60.2       36     33.3      0.00      7.53      55.6     0.46      1019.5     3.1     SSE   161   5.8       S     189     264        82       2.2      12.9      57.5      9.55
   02/05/2020 15:50      61.3      60.5       35     33.1      0.00      7.53      55.4     0.46      1019.5     2.9       S   176   5.1      SW     228     264       106       2.1      12.6      57.3      9.55
   02/05/2020 15:40      61.1      60.5       35     33.0      0.00      7.53      55.4     0.46      1019.5     3.5       S   188   5.7     SSW     196     263       131       2.6      12.2      57.1      9.56
   02/05/2020 15:30      61.7      60.9       34     33.1      0.00      7.53      55.3     0.46      1019.5     3.7     SSE   163   7.5       S     177     263       156       2.4      11.8      56.9      9.56
   02/05/2020 15:20      62.8      61.7       32     31.9      0.00      7.53      55.2     0.46      1019.4     3.6       S   178   7.3       S     181     263       174       2.6      11.4      56.5      9.56
   02/05/2020 15:10      63.0      62.3       31     31.2      0.00      7.53      55.1     0.46      1019.5     2.1     SSE   153   5.9      SE     139     262       197       1.3      11.0      56.1      9.56
   02/05/2020 15:00      63.5      62.4       30     30.9      0.00      7.53      55.3     0.46      1019.5     2.3      SE   132   6.6     ESE     109     262       213       1.3      10.7      56.0      9.56
   02/05/2020 14:50      63.8      62.9       25     26.5      0.00      7.53      55.5     0.46      1019.5     2.5     ENE    63   6.8     SSE     156     261       243       1.3      10.5      55.8      9.56
   02/05/2020 14:40      64.8      63.2       20     22.4      0.00      7.53      55.5     0.46      1019.5     2.3       E    81   4.0      SE     137     261       233       1.2      10.3      55.5      9.56
   02/05/2020 14:30      64.6      63.3       18     19.4      0.00      7.53      55.4     0.46      1019.5     1.3     ENE    62   3.4      NE      47     261       229       0.6      10.1      55.0      9.57
   02/05/2020 14:20      64.6      63.5       18     19.0      0.00      7.53      55.4     0.46      1019.5     2.7     ENE    70   5.1       E      90     261       247       1.1      10.0      54.6      9.57
   02/05/2020 14:10      65.0      64.4       16     18.0      0.00      7.53      55.4     0.46      1019.7     1.6       E    91   3.6      SE     134     261       262       1.1       9.8      54.3      9.57
   02/05/2020 14:00      64.7      64.1       16     16.9      0.00      7.53      55.3     0.46      1019.8     1.8     ENE    59   5.0       N      10     261       270       1.1       9.6      53.8      9.57
   02/05/2020 13:50      64.6      63.3       15     15.5      0.00      7.53      55.3     0.46      1019.9     1.5     ENE    70   3.9     ENE      61     261       288       0.9       9.4      53.4      9.57
   02/05/2020 13:40      64.7      63.4       15     15.0      0.00      7.53      55.3     0.45      1020.0     2.2     ENE    58   5.7       E      81     261       274       1.0       9.3      52.9      9.57
   02/05/2020 13:30      64.6      63.6       13     11.7      0.00      7.53      55.3     0.45      1020.2     1.7      NE    53   4.3     ENE      73     261       306       1.0       9.1      52.4      9.57
   02/05/2020 13:20      64.6      63.6       12     10.3      0.00      7.53      55.3     0.45      1020.3     1.5       E    95   3.4       N       3     261       333       1.1       9.0      51.9      9.57
   02/05/2020 13:10      63.7      62.9       12     10.5      0.00      7.53      55.3     0.45      1020.5     2.2      NE    48   4.7      NE      56     261       333       1.1       8.8      51.4      9.57
   02/05/2020 13:00      64.0      62.8       12      9.7      0.00      7.53      55.1     0.45      1020.7     2.2     ENE    74   5.1     ENE      66     261       357       1.4       8.6      50.8      9.58
   02/05/2020 12:50      63.6      62.7       12      9.8      0.00      7.53      55.2     0.45      1020.9     1.9      NE    38   4.5     ESE     113     261       374       1.1       8.4      50.2      9.58
   02/05/2020 12:40      62.8      61.8       12      9.5      0.00      7.53      55.1     0.45      1021.1     1.5       N     3   3.1       N       0     261       370       1.0       8.2      49.7      9.58
   02/05/2020 12:30      62.7      61.5       12      9.8      0.00      7.53      55.1     0.45      1021.3     2.0     ENE    56   4.4     ESE     123     261       351       1.0       8.0      49.1      9.58
   02/05/2020 12:20      62.0      60.6       12      9.0      0.00      7.53      54.9     0.45      1021.5     1.9     NNE    24   5.3      NE      36     261       398       0.9       7.8      48.0      9.58
   02/05/2020 12:10      61.9      60.3       12      8.6      0.00      7.53      54.8     0.45      1021.8     2.3     NNE    24   4.6     NNE      14     261       360       0.8       7.7      47.5      9.58
   02/05/2020 12:00      61.9      60.3       13      9.0      0.00      7.53      54.8     0.45      1022.1     1.5     NNE    31   3.2     ENE      58     261       321       0.8       7.6      46.9      9.58
   02/05/2020 11:50      60.5      59.8       12      8.0      0.00      7.53      54.8     0.45      1022.2     2.2      NE    39   4.7     NNE      31     261       354       1.1       7.4      46.3      9.58
   02/05/2020 11:40      60.3      59.6       12      7.1      0.00      7.53      54.8     0.45      1022.4     1.8     NNE    14   5.2       N      10     261       370       0.6       7.2      45.7      9.58
   02/05/2020 11:30      60.1      58.9       12      6.5      0.00      7.53      55.1     0.45      1022.7     1.3     NNE    22   3.0     NNW     348     261       364       0.7       7.1      45.4      9.58
   02/05/2020 11:20      59.0      58.5       13      7.5      0.00      7.53      54.9     0.45      1022.8     1.6       N     6   4.1     ENE      59     261       346       0.6       7.0      44.6      9.58
   02/05/2020 11:10      58.8      58.1       13      7.5      0.00      7.53      54.6     0.45      1022.9     1.6       N     5   3.9       N      10     261       358       0.3       6.9      44.0      9.58
   02/05/2020 11:00      59.2      58.3       13      8.7      0.00      7.53      55.2     0.45      1023.0     1.6     NNE    24   4.2     ENE      69     262       332       0.5       6.9      43.6      9.58
   02/05/2020 10:50      58.6      57.5       13      7.9      0.00      7.53      55.2     0.45      1023.2     1.5     NNE    19   3.1     NNE      23     261       343       0.6       6.8      43.1      9.59
   02/05/2020 10:40      57.8      57.0       13      6.9      0.00      7.53      55.2     0.45      1023.2     2.1     ENE    56   4.0      NE      49     262       308       0.8       6.7      42.6      9.59
   02/05/2020 10:30      58.0      57.4       13      6.8      0.00      7.53      55.3     0.45      1023.1     1.6      NE    49   3.4      NE      45     262       199       0.5       6.5      42.4      9.59
   02/05/2020 10:20      58.3      57.5       12      6.0      0.00      7.53      54.9     0.45      1023.1     1.5     NNE    18   3.6      NE      46     262       281       0.3       6.5      41.6      9.59
   02/05/2020 10:10      58.1      57.5       12      5.0      0.00      7.53      55.0     0.45      1023.2     1.2     ENE    62   3.7      SE     140     261       294       0.7       6.4      41.5      9.59
   02/05/2020 10:00      57.7      56.5       13      5.6      0.00      7.53      55.2     0.45      1023.3     1.5       E    83   3.0     ESE     106     262       286       0.8       6.3      41.5      9.59
   02/05/2020 09:50      56.8      56.3       14      7.3      0.00      7.53      55.3     0.45      1023.2     1.4     NNE    12   3.0     NNE      23     262       248       0.3       6.2      41.3      9.59
   02/05/2020 09:40      56.4      54.6       15      8.2      0.00      7.53      54.8     0.45      1023.0     1.3      SW   230   3.2      SW     222     262       250       1.0       6.1      40.6      9.59
   02/05/2020 09:30      54.8      53.4       15      7.1      0.00      7.53      54.9     0.45      1023.1     1.9     WSW   238   4.2      SW     225     262       222       1.4       5.9      40.4      9.59
   02/05/2020 09:20      53.5      52.9       16      7.7      0.00      7.53      55.0     0.45      1023.1     2.5      SW   221   5.7     SSW     198     262       194       1.7       5.7      40.2      9.59
   02/05/2020 09:10      53.0      52.1       17      9.6      0.00      7.53      55.3     0.45      1023.2     2.2     WSW   254   4.6     WSW     245     262       181       1.3       5.4      40.6      9.59
   02/05/2020 09:00      52.1      50.9       18      9.3      0.00      7.53      55.2     0.45      1023.2     2.9     WSW   247   5.3     WSW     241     263       170       1.9       5.2      40.3      9.59
   02/05/2020 08:50      51.1      50.5       19     10.3      0.00      7.53      55.5     0.45      1023.1     3.0     WSW   255   5.6       W     267     263       147       2.2       4.9      40.2      9.59
   02/05/2020 08:40      50.6      49.4       20     10.1      0.00      7.53      55.2     0.45      1023.1     2.2       W   267   5.0     WSW     242     262       152       1.2       4.5      39.5      9.59
   02/05/2020 08:30      49.4      46.8       23     12.0      0.00      7.53      55.5     0.45      1023.2     2.5     WSW   242   5.6       W     274     263       144       1.5       4.3      39.5      9.59
   02/05/2020 08:20      47.0      44.1       29     15.1      0.00      7.53      55.5     0.45      1023.3     0.6      NE    44   2.2     NNE      30     264       121       0.0       4.1      39.3      9.60
   02/05/2020 08:10      44.2      41.7       32     14.9      0.00      7.53      55.7     0.45      1023.3     0.3     WNW   295   1.5     WNW     295     265        69       0.0       4.1      39.1      9.60
   02/05/2020 08:00      41.6      39.3       35     15.2      0.00      7.53      55.8     0.45      1023.2     0.0     WNW   282   0.9       W     271     265        68       0.0       4.1      39.1      9.60
   02/05/2020 07:50      39.3      35.7       40     15.3      0.00      7.53      55.7     0.45      1023.2     0.1      SE   145   0.8       S     179     265         4       0.0       4.1      38.9      9.60
   02/05/2020 07:40      35.7      34.2       44     15.0      0.00      7.53      55.8     0.45      1023.1     0.7     SSE   162   1.9     SSE     147     266       -23       0.0       4.1      38.8      9.60
   02/05/2020 07:30      34.7      33.8       42     13.5      0.00      7.53      55.8     0.45      1023.1     0.6      SE   128   2.2     WSW     239     266       -29       0.1       4.1      38.8      9.60
   02/05/2020 07:20      34.0      33.3       43     13.2      0.00      7.53      55.9     0.45      1023.0     0.4      SW   229   2.2     WSW     238     266       -36       0.3       4.0      38.7      9.60
   02/05/2020 07:10      33.4      32.2       44     13.2      0.00      7.53      55.9     0.45      1022.8     1.1     WSW   240   5.2      SW     229     266       -43       0.7       4.0      38.7      9.60
   02/05/2020 07:00      33.2      32.3       43     12.7      0.00      7.53      56.0     0.45      1022.7     0.6       E    95   1.9      SE     134     266       -52       0.3       3.9      38.7      9.60
   02/05/2020 06:50      34.0      33.0       41     12.3      0.00      7.53      56.0     0.45      1022.5     0.3     NNW   331   1.2       E      83     266       -56       0.2       3.8      38.7      9.60
   02/05/2020 06:40      34.0      32.7       40     11.4      0.00      7.53      56.0     0.45      1022.4     1.3     SSW   198   2.8     SSW     213     266       -57       0.4       3.8      38.8      9.60
   02/05/2020 06:30      33.3      32.6       40     11.5      0.00      7.53      56.0     0.46      1022.7     0.5     SSE   167   1.4       S     177     266       -59       0.3       3.7      38.8      9.60
   02/05/2020 06:20      34.0      33.2       39     11.3      0.00      7.53      56.1     0.45      1022.7     0.6      SE   140   1.7       S     177     265       -59       0.3       3.7      38.9      9.60
   02/05/2020 06:10      34.1      33.7       39     11.4      0.00      7.53      56.0     0.45      1022.5     0.3      SE   134   1.3     SSW     202     265       -58       0.0       3.6      38.7      9.60
   02/05/2020 06:00      34.5      33.9       37     10.5      0.00      7.53      56.1     0.46      1022.3     0.3     SSE   154   1.4     SSW     202     265       -59       0.2       3.6      38.9      9.60
   02/05/2020 05:50      34.8      34.1       38     11.5      0.00      7.53      56.0     0.46      1022.3     0.0       W   277   0.7       W     276     265       -60       0.0       3.6      38.8      9.60
   02/05/2020 05:40      35.5      34.7       37     11.2      0.00      7.53      56.1     0.46      1022.2     0.7     ESE   122   1.6      SE     131     265       -60       0.0       3.6      38.9      9.60
   02/05/2020 05:30      35.0      34.6       37     11.2      0.00      7.53      56.0     0.46      1022.2     0.5       S   169   1.1       S     181     265       -60       0.1       3.6      38.8      9.60
   02/05/2020 05:20      35.7      35.0       36     11.0      0.00      7.53      56.2     0.46      1022.1     0.5     SSE   148   1.4       S     188     265       -60       0.2       3.5      38.9      9.60
   02/05/2020 05:10      35.6      35.2       37     11.5      0.00      7.53      56.1     0.46      1022.1     0.8     SSE   150   2.4      SE     141     265       -59       0.0       3.5      38.8      9.60
   02/05/2020 05:00      36.3      35.2       34     10.3      0.00      7.53      56.1     0.46      1022.0     0.6      SE   141   1.6      SE     140     265       -60       0.0       3.5      39.1      9.60
   02/05/2020 04:50      36.7      36.0       31      9.1      0.00      7.53      56.1     0.46      1022.0     0.3     SSE   159   1.1     SSE     148     265       -60       0.0       3.5      39.0      9.61
   02/05/2020 04:40      37.0      36.3       32      9.6      0.00      7.53      56.3     0.46      1022.0     0.2     SSW   208   1.2       S     189     265       -61       0.0       3.5      39.1      9.61
   02/05/2020 04:30      38.0      36.7       31      9.5      0.00      7.53      56.4     0.46      1022.0     0.8     SSE   151   1.8       S     171     265       -62       0.3       3.5      38.6      9.61
   02/05/2020 04:20      38.4      37.5       29      8.7      0.00      7.53      56.3     0.46      1022.0     1.2     SSE   157   2.3      SE     143     265       -64       0.8       3.4      38.9      9.61
   02/05/2020 04:10      37.8      37.5       30      8.7      0.00      7.53      56.3     0.46      1021.9     0.9     SSE   149   1.8       S     177     265       -62       0.3       3.3      39.2      9.61
   02/05/2020 04:00      38.6      37.5       28      8.2      0.00      7.53      56.5     0.46      1022.0     2.1     SSE   154   3.5      SE     144     265       -61       0.9       3.2      39.0      9.61
   02/05/2020 03:50      38.8      38.1       26      6.9      0.00      7.53      56.5     0.46      1022.2     1.3       S   172   2.7      SE     144     265       -61       0.4       3.1      39.1      9.61
   02/05/2020 03:40      39.5      37.5       26      6.7      0.00      7.53      56.5     0.46      1022.2     2.0       S   173   4.6       S     185     264       -65       1.1       3.0      39.2      9.61
   02/05/2020 03:30      39.1      37.7       26      6.7      0.00      7.53      56.2     0.46      1022.1     1.3       S   171   4.0     SSW     195     265       -66       1.1       2.9      39.2      9.61
   02/05/2020 03:20      38.9      38.3       26      6.9      0.00      7.53      56.7     0.46      1022.2     1.1     SSE   156   2.8      SE     139     264       -66       0.6       2.7      39.6      9.61
   02/05/2020 03:10      38.4      37.5       27      7.1      0.00      7.53      56.8     0.46      1022.2     1.4     SSE   156   2.8     SSE     156     264       -66       0.6       2.6      39.8      9.61
   02/05/2020 03:00      38.6      37.4       28      7.5      0.00      7.53      56.7     0.46      1022.3     0.8      SE   146   2.3     SSE     158     264       -68       0.4       2.5      39.8      9.61
   02/05/2020 02:50      40.0      38.7       24      6.1      0.00      7.53      56.6     0.46      1022.4     1.1     SSE   151   2.8     SSE     147     263       -70       0.4       2.4      40.0      9.61
   02/05/2020 02:40      42.4      40.0       21      4.4      0.00      7.53      56.5     0.46      1022.6     2.1     SSE   157   4.0      SE     143     264       -68       0.9       2.3      40.2      9.62
   02/05/2020 02:30      43.1      41.7       18      2.0      0.00      7.53      56.4     0.46      1022.7     2.1     SSW   205   3.2     SSW     193     264       -68       1.3       2.2      40.3      9.62
   02/05/2020 02:20      44.1      42.2       18      2.3      0.00      7.53      56.6     0.46      1022.7     2.2       S   190   4.4      SW     225     263       -71       1.2       2.0      40.6      9.62
   02/05/2020 02:10      44.5      43.7       17      1.9      0.00      7.53      56.9     0.46      1022.6     2.6       W   270   5.1     WNW     299     263       -71       1.3       1.8      40.9      9.62
   02/05/2020 02:00      45.2      43.6       16      1.0      0.00      7.53      56.8     0.46      1022.4     1.3       N   357   3.9      NE      34     263       -71       0.1       1.5      41.2      9.62
   02/05/2020 01:50      47.1      45.1       14     -0.7      0.00      7.53      57.0     0.46      1022.6     0.3       W   277   2.0     WNW     290     263       -72       0.2       1.5      41.3      9.62
   02/05/2020 01:40      47.1      46.2       14     -0.4      0.00      7.53      56.8     0.46      1022.8     1.9      NW   315   3.7      NW     323     263       -73       0.7       1.5      41.3      9.62
   02/05/2020 01:30      46.9      45.0       14     -0.5      0.00      7.53      56.8     0.46      1022.9     1.4     NNW   335   4.3      NE      54     263       -73       0.4       1.4      41.3      9.62
   02/05/2020 01:20      47.0      44.3       14     -0.2      0.00      7.53      56.7     0.46      1023.0     2.8      NW   308   9.6     WSW     240     263       -73       1.4       1.3      41.4      9.63
   02/05/2020 01:10      44.5      42.6       16      0.3      0.00      7.53      57.0     0.46      1022.9     2.5     SSW   199   5.4     SSW     207     263       -71       1.7       1.1      41.5      9.63
   02/05/2020 01:00      42.8      41.4       18      2.1      0.00      7.53      56.9     0.46      1022.4     2.8       S   177   4.9       S     182     263       -71       1.9       0.8      41.7      9.63
   02/05/2020 00:50      45.5      42.2       15     -0.5      0.00      7.53      56.8     0.46      1022.2     0.7     WSW   237   2.4     SSW     204     263       -71       0.4       0.5      42.1      9.63
   02/05/2020 00:40      45.4      43.6       14     -1.5      0.00      7.53      56.8     0.46      1022.4     1.9     WNW   285   3.6       W     281     263       -71       0.6       0.4      42.2      9.63
   02/05/2020 00:30      44.2      43.1       15     -1.3      0.00      7.53      57.1     0.46      1022.7     2.1      SW   228   3.6      SW     235     263       -70       1.4       0.3      42.5      9.63
   02/05/2020 00:20      45.6      44.1       15     -0.8      0.00      7.53      57.1     0.46      1023.1     0.9     WNW   291   2.5      SW     229     263       -73       0.4       0.0      42.8      9.64
   02/05/2020 00:10      46.9      45.6       13     -2.3      0.00      7.53      57.1     0.46      1023.2     0.8       N     5   2.1     NNE      25     263       -75       0.0       0.0      43.0      9.64
   02/05/2020 00:00      46.4      42.6       15     -1.2      0.00      7.53      57.2     0.46      1023.1     1.7       W   273   5.6     WSW     254     263       -75       1.2      33.6      43.2      9.64
   02/04/2020 23:50      44.8      43.0       15     -0.6      0.00      7.53      57.1     0.46      1023.0     2.3     SSW   206   4.3      SW     236     263       -75       1.5      33.5      43.4      9.64
   02/04/2020 23:40      47.0      44.6       13     -2.1      0.00      7.53      57.1     0.46      1023.0     1.4     SSW   212   3.3      SW     218     263       -76       0.9      33.2      43.8      9.64
   02/04/2020 23:30      49.3      47.0       11     -3.4      0.00      7.53      57.2     0.46      1022.9     1.4     NNW   334   3.0      NW     304     263       -78       0.5      33.1      43.9      9.64
   02/04/2020 23:20      50.0      49.4       10     -5.6      0.00      7.53      57.2     0.46      1022.9     2.0     ENE    67   5.7     ESE     116     262       -81       0.9      33.0      44.0      9.65
   02/04/2020 23:10      50.0      49.3        9     -6.0      0.00      7.53      57.4     0.46      1022.7     2.3       W   265   5.1       W     272     263       -81       1.3      32.8      44.4      9.65
   02/04/2020 23:00      49.9      47.6        9     -6.4      0.00      7.53      57.2     0.46      1022.6     4.7     WSW   251   9.0       W     266     262       -80       3.5      32.6      44.1      9.65
   02/04/2020 22:50      47.9      46.0       11     -5.7      0.00      7.53      57.3     0.46      1022.6     4.0     SSW   204   6.4     WSW     250     263       -77       2.6      32.0      44.5      9.65
   02/04/2020 22:40      47.2      45.8       11     -5.2      0.00      7.53      57.3     0.46      1022.6     1.4     SSE   158   3.7     SSE     147     262       -80       0.7      31.6      44.8      9.66
   02/04/2020 22:30      48.8      47.0       10     -6.2      0.00      7.53      57.4     0.46      1022.3     2.9     SSE   161   4.7     NNE      31     262       -83       2.1      31.5      45.1      9.66
   02/04/2020 22:20      48.8      48.3        9     -6.9      0.00      7.53      57.4     0.46      1021.8     3.8     NNE    20   7.3     ENE      66     262       -83       1.4      31.1      45.4      9.66
   02/04/2020 22:10      48.9      48.4        9     -7.1      0.00      7.53      57.3     0.46      1021.7     4.5       N     9   7.3     NNE      19     262       -83       1.2      30.9      45.6      9.66
   02/04/2020 22:00      48.5      48.0        9     -7.1      0.00      7.53      57.5     0.46      1021.8     3.5       N   358   7.4     NNE      28     262       -83       0.8      30.7      45.9      9.66
   02/04/2020 21:50      48.6      48.1        9     -7.9      0.00      7.53      57.4     0.46      1021.9     2.8     NNW   347   5.4      NW     316     262       -84       0.6      30.6      45.9      9.67
   02/04/2020 21:40      48.9      48.3        9     -8.5      0.00      7.53      57.4     0.46      1022.0     2.6     NNW   340   4.8     NNW     331     262       -84       0.8      30.4      46.2      9.67
   02/04/2020 21:30      48.9      48.5        8     -9.1      0.00      7.53      57.4     0.46      1022.1     3.1     NNW   342   7.1     NNW     338     262       -85       1.0      30.3      46.5      9.67
   02/04/2020 21:20      48.9      48.5        8     -9.1      0.00      7.53      57.5     0.46      1022.2     2.8     NNW   343   6.4      NW     320     262       -85       0.7      30.2      46.8      9.67
   02/04/2020 21:10      48.7      48.2        8     -9.0      0.00      7.53      57.5     0.46      1022.2     3.0     NNW   330   6.4       N     350     262       -85       0.9      30.1      46.9      9.68
   02/04/2020 21:00      48.6      48.3        9     -8.6      0.00      7.53      57.5     0.46      1022.2     2.2     NNW   334   4.6     WSW     254     262       -85       0.9      29.9      47.3      9.68
   02/04/2020 20:50      48.5      48.1        9     -8.5      0.00      7.53      57.4     0.46      1022.1     2.8      NW   317   6.5     WNW     302     262       -85       0.6      29.8      47.3      9.68
   02/04/2020 20:40      48.3      47.8        9     -8.0      0.00      7.53      57.4     0.46      1022.1     2.4     NNW   327   5.0     WNW     299     262       -84       1.0      29.7      47.5      9.69
   02/04/2020 20:30      48.0      47.7        9     -7.5      0.00      7.53      57.4     0.46      1022.0     1.8      NW   322   4.1       N     350     263       -83       0.4      29.5      47.9      9.69
   02/04/2020 20:20      48.1      47.6        9     -7.4      0.00      7.53      57.6     0.46      1021.8     1.6      NW   312   3.3       W     266     262       -83       0.4      29.4      48.1      9.69
   02/04/2020 20:10      48.1      47.8        9     -7.2      0.00      7.53      57.4     0.46      1021.8     1.2     WNW   294   3.7     NNW     338     263       -83       0.6      29.4      48.3      9.69
   02/04/2020 20:00      48.0      47.0       10     -7.0      0.00      7.53      57.3     0.46      1021.8     1.5     WNW   288   3.4       N     351     263       -83       0.8      29.3      48.8      9.69
   02/04/2020 19:50      47.1      46.4       11     -5.3      0.00      7.53      57.6     0.46      1021.8     1.6       W   272   3.3     WSW     250     263       -82       0.6      29.1      48.8      9.70
   02/04/2020 19:40      48.1      46.9       10     -5.9      0.00      7.53      57.5     0.46      1021.7     2.0     WSW   255   3.6       W     264     262       -83       1.3      29.0      49.1      9.70
   02/04/2020 19:30      49.7      47.6       10     -6.2      0.00      7.53      57.4     0.46      1021.5     2.5     WSW   251   3.8      SW     223     263       -84       1.6      28.8      49.5      9.70
   02/04/2020 19:20      49.9      49.3        8     -8.4      0.00      7.53      57.5     0.46      1021.4     1.7     WNW   282   4.6     WNW     289     262       -87       1.1      28.6      49.9      9.71
   02/04/2020 19:10      49.8      49.4        9     -7.6      0.00      7.53      57.4     0.46      1021.4     1.6     WNW   303   3.8     NNW     331     262       -87       0.8      28.4      49.9      9.71
   02/04/2020 19:00      50.0      49.4        8     -8.4      0.00      7.53      57.1     0.46      1021.4     2.9       W   267   4.7       W     271     262       -87       1.8      28.2      50.2      9.71
   02/04/2020 18:50      50.0      49.2        9     -7.8      0.00      7.53      57.1     0.46      1021.3     1.7       W   271   3.6       W     263     262       -88       1.0      27.9      50.2      9.72
   02/04/2020 18:40      50.7      49.7        9     -7.2      0.00      7.53      57.2     0.46      1021.0     1.6       W   277   3.7     WNW     304     262       -88       1.0      27.8      50.8      9.72
   02/04/2020 18:30      51.3      50.6        8     -8.7      0.00      7.53      57.1     0.46      1021.0     1.5     WNW   288   3.4     WSW     255     262       -90       0.9      27.6      51.6      9.72
   02/04/2020 18:20      51.6      51.0        8     -9.3      0.00      7.53      57.2     0.46      1020.9     2.7     WNW   302   6.6     ESE     108     262       -91       1.6      27.5      51.6      9.73
   02/04/2020 18:10      51.8      51.1        7     -9.3      0.00      7.53      57.4     0.46      1020.8     2.0     WNW   292   5.4     WSW     259     262       -92       1.6      27.2      51.7      9.73
   02/04/2020 18:00      51.9      51.5        7     -9.3      0.00      7.53      57.3     0.46      1020.8     2.2      NW   319   5.8     WSW     256     262       -93       1.3      26.9      52.1      9.74
   02/04/2020 17:50      52.1      51.7        7     -9.3      0.00      7.53      57.3     0.46      1020.5     2.7      NW   310   6.8      NW     322     262       -94       1.4      26.7      52.4      9.74
   02/04/2020 17:40      52.2      51.7        8     -8.7      0.00      7.53      57.1     0.46      1020.4     2.1      NW   324   7.7      NE      34     262       -92       0.8      26.5      52.8      9.75
   02/04/2020 17:30      52.7      52.0        8     -8.2      0.00      7.53      57.4     0.46      1020.3     2.0     NNW   329   3.9     NNE      32     262       -90       0.7      26.3      53.1      9.75
   02/04/2020 17:20      53.0      52.5        7     -8.8      0.00      7.53      57.2     0.46      1020.2     2.5     NNW   338   5.6     WNW     286     262       -88       0.6      26.2      53.5      9.76
   02/04/2020 17:10      53.5      52.8        7     -9.5      0.00      7.53      57.2     0.46      1020.2     2.8      NW   324   6.0       W     281     262       -85       0.9      26.1      53.6      9.77
   02/04/2020 17:00      53.8      53.4        7    -10.0      0.00      7.53      57.1     0.46      1020.2     3.4       N   349   7.2     NNE      15     262       -68       1.1      25.9      54.0      9.78
   02/04/2020 16:50      54.0      53.4        7     -9.4      0.00      7.53      57.1     0.46      1020.1     3.0     NNW   330   6.4       N     350     262       -70       1.2      25.8      54.3      9.79
   02/04/2020 16:40      54.1      53.8        7    -10.2      0.00      7.53      57.2     0.46      1020.2     3.8     NNW   346   8.9     WSW     244     262       -59       1.2      25.6      54.8      9.80
   02/04/2020 16:30      54.3      53.8        7     -8.8      0.00      7.53      56.9     0.46      1020.2     3.5     NNW   341   8.5      NW     309     262       -66       1.0      25.4      55.1      9.81
   02/04/2020 16:20      54.7      54.0        7     -9.3      0.00      7.53      56.9     0.46      1020.1     3.1     NNW   334   5.7      NE      40     262       -62       0.8      25.2      55.2      9.82
   02/04/2020 16:10      55.1      54.6        6     -9.8      0.00      7.53      57.0     0.46      1020.0     4.4       N   355   7.9      NW     324     262       -53       1.2      25.1      55.8      9.84
   02/04/2020 16:00      55.5      55.0        6    -10.7      0.00      7.53      56.7     0.46      1020.0     5.7       N   357  10.0       N       0     262         6       1.3      24.9      55.6      9.85
   02/04/2020 15:50      56.3      55.2        6    -10.5      0.00      7.53      56.9     0.46      1020.1     5.7       N   358  12.8     NNE      14     262        33       1.7      24.7      56.2      9.87
   02/04/2020 15:40      56.5      55.7        6    -10.3      0.00      7.53      56.8     0.46      1020.1     5.7       N   357  10.8     WNW     303     262        99       1.4      24.4      56.4      9.88
   02/04/2020 15:30      56.6      56.0        6    -10.2      0.00      7.53      57.0     0.46      1020.1     7.3       N     9  12.7     NNE      29     262       144       2.2      24.1      56.8      9.90
   02/04/2020 15:20      56.7      56.3        6     -9.7      0.00      7.53      56.8     0.46      1019.9     5.8       N     4  13.9     NNE      13     262       173       1.7      23.8      56.5      9.93
   02/04/2020 15:10      56.9      56.4        6     -9.5      0.00      7.53      56.3     0.46      1019.9     5.4       N   352   9.6       N       6     261       194       1.4      23.5      56.0      9.96
   02/04/2020 15:00      57.0      56.1        6     -9.6      0.00      7.53      56.9     0.46      1020.0     5.8       N   356  14.8       N       0     261       217       1.9      23.3      56.6      9.03
   02/04/2020 14:50      56.8      56.0        6     -9.3      0.00      7.53      56.9     0.46      1020.0     7.2       N     8  13.5       N       8     261       240       2.3      22.9      56.4      9.03
   02/04/2020 14:40      57.2      56.4        6     -8.8      0.00      7.53      56.7     0.46      1020.0     5.9       N   359  13.8       N       9     261       247       1.9      22.6      55.8      9.03
   02/04/2020 14:30      57.5      56.7        6     -8.8      0.00      7.53      56.5     0.46      1020.0     4.8       N     0   9.3      NE      34     261       267       1.5      22.2      55.5      9.03
   02/04/2020 14:20      57.9      56.9        7     -7.8      0.00      7.53      56.4     0.46      1020.0     5.4       N     2  13.3      NW     306     260       282       1.7      22.0      55.3      9.04
   02/04/2020 14:10      57.7      56.4        6     -9.1      0.00      7.53      56.4     0.46      1020.1     5.1       N     7  12.9     NNW     338     261       300       1.6      21.7      55.0      9.04
   02/04/2020 14:00      57.0      56.4        6     -8.7      0.00      7.53      56.4     0.46      1020.1     6.4       N   353  13.3     NNW     340     261       314       1.8      21.4      54.6      9.04
   02/04/2020 13:50      57.0      56.5        6     -8.7      0.00      7.53      56.4     0.46      1020.2     5.5       N   351  11.4     WNW     286     261       326       1.6      21.1      54.1      9.04
   02/04/2020 13:40      58.6      57.1        6     -7.9      0.00      7.53      56.6     0.46      1020.1     4.5       N    10  10.6       N       1     261       334       1.3      20.9      54.2      9.05
   02/04/2020 13:30      57.6      56.5        6     -9.3      0.00      7.53      56.4     0.46      1020.1     5.6       N     2  14.3     NNE      26     261       350       1.5      20.6      53.6      9.05
   02/04/2020 13:20      57.5      56.5        6     -9.2      0.00      7.53      56.5     0.46      1020.1     7.0       N     3  16.6      NE      43     261       360       1.9      20.4      53.4      9.05
   02/04/2020 13:10      57.6      56.6        6     -8.6      0.00      7.53      56.3     0.46      1020.3     6.2       N    11  14.0     NNE      14     261       370       2.2      20.1      52.7      9.05
   02/04/2020 13:00      58.0      56.5        6     -8.0      0.00      7.53      56.4     0.46      1020.3     4.8     NNE    15  11.3       N      11     261       376       1.8      19.7      52.2      9.05
   02/04/2020 12:50      56.7      56.1        6    -10.5      0.00      7.53      56.4     0.46      1020.4     6.6     NNE    19  13.4       N     351     261       387       2.3      19.4      51.8      9.05
   02/04/2020 12:40      56.9      56.2        6     -9.1      0.00      7.53      56.4     0.46      1020.4     7.0     NNE    21  13.0       N       3     261       392       2.6      19.0      51.4      9.05
   02/04/2020 12:30      57.2      56.0        6     -9.7      0.00      7.53      56.4     0.46      1020.5     6.1       N     7  10.8     NNE      30     261       396       2.2      18.6      50.8      9.06
   02/04/2020 12:20      56.8      55.9        6     -9.7      0.00      7.53      56.3     0.46      1020.6     7.2       N     9  12.5     NNW     333     262       399       2.2      18.2      50.1      9.06
   02/04/2020 12:10      56.9      55.5        7     -7.4      0.00      7.53      56.2     0.46      1020.7     5.8     NNE    12  13.0     NNW     343     261       400       1.5      17.9      49.4      9.06
   02/04/2020 12:00      56.3      55.3        7     -8.0      0.00      7.53      56.5     0.46      1020.7     6.9       N     5  13.9       N       6     262       402       2.1      17.6      49.3      9.06
   02/04/2020 11:50      55.6      54.8        7     -6.8      0.00      7.53      56.5     0.46      1021.0     7.0       N     2  12.1     WNW     299     262       399       1.8      17.2      48.5      9.06
   02/04/2020 11:40      55.6      54.4        8     -5.6      0.00      7.53      56.5     0.46      1021.1     6.3       N     9  16.2     WSW     258     262       396       1.8      16.9      47.9      9.07
   02/04/2020 11:30      55.5      54.4        8     -6.0      0.00      7.53      56.2     0.46      1021.1     6.5       N     7  13.9       N      11     262       391       1.8      16.6      47.1      9.07
   02/04/2020 11:20      55.3      54.3        7     -6.8      0.00      7.53      56.4     0.46      1021.2     7.0       N     9  15.1     NNE      33     262       385       2.2      16.3      46.8      9.07
   02/04/2020 11:10      55.0      53.4        8     -5.8      0.00      7.53      56.5     0.46      1021.3     6.3       N     8  10.8     NNW     343     261       378       2.3      16.0      46.1      9.07
   02/04/2020 11:00      54.1      53.4        8     -6.4      0.00      7.53      56.5     0.46      1021.4     8.4     NNE    12  15.4       N      11     262       372       2.3      15.6      45.7      9.07
   02/04/2020 10:50      53.7      53.1        8     -5.8      0.00      7.53      56.5     0.46      1021.5     7.3       N     2  15.8       N     351     262       363       2.0      15.2      45.1      9.07
   02/04/2020 10:40      53.4      52.9        8     -5.6      0.00      7.53      56.5     0.46      1021.4     8.1       N     7  16.4      NW     307     262       352       2.8      14.9      44.4      9.07
   02/04/2020 10:30      53.3      52.3        9     -4.2      0.00      7.53      56.6     0.46      1021.5     7.0     NNE    15  12.2     NNE      29     262       338       2.4      14.4      44.1      9.07
   02/04/2020 10:20      52.6      52.0        9     -4.5      0.00      7.53      56.8     0.46      1021.7     8.2       N     4  14.0     NNE      19     262       326       2.2      14.0      43.5      9.08
   02/04/2020 10:10      52.9      52.0       10     -3.0      0.00      7.53      56.8     0.46      1021.8     6.2       N     7  11.9     WSW     242     262       309       1.4      13.6      43.0      9.08
   02/04/2020 10:00      51.9      51.3       10     -3.9      0.00      7.53      56.6     0.46      1021.6     6.9       N    10  14.9      NE      36     262       295       1.8      13.4      42.4      9.08
   02/04/2020 09:50      51.4      50.8       10     -3.3      0.00      7.53      56.6     0.46      1021.5     6.4       N     0  13.4     NNE      18     262       278       1.7      13.1      42.0      9.08
   02/04/2020 09:40      51.0      50.1       11     -2.4      0.00      7.53      56.9     0.46      1021.6     6.1       N     7  13.7       N       4     262       260       1.5      12.8      41.8      9.08
   02/04/2020 09:30      50.5      49.9       11     -1.9      0.00      7.53      56.8     0.46      1021.6     6.7       N     4  13.3       N       2     262       243       1.7      12.6      41.2      9.08
   02/04/2020 09:20      50.0      49.0       12     -1.8      0.00      7.53      57.0     0.46      1021.7     6.3       N    10  12.3      NE      37     262       225       1.5      12.3      40.9      9.08
   02/04/2020 09:10      49.4      48.8       12     -1.9      0.00      7.53      56.9     0.46      1021.8     6.8       N     5  15.1     NNE      18     262       207       2.0      12.1      40.7      9.08
   02/04/2020 09:00      49.1      48.1       12     -1.3      0.00      7.53      57.0     0.46      1021.8     4.7       N   357  11.4       N     355     262       187       1.2      11.7      40.7      9.08
   02/04/2020 08:50      48.2      47.8       12     -1.9      0.00      7.53      57.0     0.46      1021.6     6.1       N   360  12.8     NNE      16     262       168       1.7      11.5      40.4      9.09
   02/04/2020 08:40      48.0      47.4       12     -2.0      0.00      7.53      57.0     0.46      1021.7     5.7       N     0  14.2     NNE      23     262       147       1.6      11.2      40.0      9.09
   02/04/2020 08:30      47.5      46.9       13     -1.8      0.00      7.53      57.1     0.46      1021.5     4.5     NNW   347  10.1       W     277     262       126       1.7      11.0      40.1      9.09
   02/04/2020 08:20      47.2      46.4       13     -2.3      0.00      7.53      57.1     0.46      1021.6     4.7     NNW   344  13.9       N       0     262       107       1.6      10.7      40.0      9.09
   02/04/2020 08:10      46.5      45.9       13     -2.5      0.00      7.53      57.1     0.46      1021.7     5.3     NNE    12   9.5       N       8     263        39       1.4      10.4      39.8      9.09
   02/04/2020 08:00      46.1      45.6       13     -2.9      0.00      7.53      56.9     0.46      1021.5     5.8       N   356  11.0     NNE      13     263        43       1.6      10.2      39.4      9.09
   02/04/2020 07:50      45.6      45.0       13     -2.9      0.00      7.53      57.0     0.46      1021.4     4.1       N     2   8.5      NE      37     263       -37       1.0       9.9      39.2      9.09
   02/04/2020 07:40      45.2      44.5       13     -3.3      0.00      7.53      57.3     0.46      1021.3     5.0     NNW   340  13.3      SW     235     263       -67       1.4       9.7      39.5      9.09
   02/04/2020 07:30      44.5      44.2       13     -3.6      0.00      7.53      57.1     0.46      1021.2     5.5       N   353   9.9     NNE      24     263       -68       1.6       9.5      39.5      9.09
   02/04/2020 07:20      44.5      44.0       13     -4.0      0.00      7.53      57.4     0.46      1021.1     4.9       N   357   9.8       N       5     263       -72       1.5       9.2      39.2      9.09
   02/04/2020 07:10      44.4      44.0       13     -4.3      0.00      7.53      57.3     0.46      1021.0     5.7       N     2  10.3     NNE      28     263       -77       1.5       9.0      39.2      9.09
   02/04/2020 07:00      44.4      44.0       12     -4.6      0.00      7.53      57.3     0.46      1020.8     5.0       N   359  17.6     NNE      12     263       -81       1.6       8.7      39.4      9.09
   02/04/2020 06:50      44.4      44.0       12     -4.9      0.00      7.53      57.4     0.46      1020.7     3.7       N     4   9.2       N       6     264       -84       1.4       8.5      39.3      9.09
   02/04/2020 06:40      44.4      43.9       12     -5.3      0.00      7.53      57.4     0.46      1020.7     3.9       N     3  11.5     WNW     290     263       -85       1.1       8.3      39.3      9.10
   02/04/2020 06:30      44.2      43.8       12     -5.3      0.00      7.53      57.6     0.46      1020.7     4.7       N     4  11.0     NNE      19     263       -87       1.2       8.1      39.4      9.10
   02/04/2020 06:20      44.3      43.5       12     -5.0      0.00      7.53      57.6     0.46      1020.7     3.9       N     9   8.6     NNE      20     263       -87       1.2       7.9      39.5      9.10
   02/04/2020 06:10      44.2      44.0       12     -5.5      0.00      7.53      57.6     0.46      1020.6     5.4       N     6  11.1     NNE      26     263       -88       1.8       7.7      39.5      9.10
   02/04/2020 06:00      44.5      44.0       12     -5.4      0.00      7.53      57.6     0.46      1020.5     5.9     NNE    12  11.1     NNE      18     263       -88       1.5       7.4      39.5      9.10
   02/04/2020 05:50      44.6      44.1       12     -5.6      0.00      7.53      57.6     0.46      1020.5     4.9     NNE    21  11.7       N      10     263       -88       1.2       7.1      39.5      9.10
   02/04/2020 05:40      44.7      44.3       12     -5.8      0.00      7.53      57.8     0.46      1020.3     5.3     NNE    14  10.9      NE      51     263       -88       1.6       6.9      39.6      9.10
   02/04/2020 05:30      44.7      44.4       12     -5.6      0.00      7.53      57.9     0.46      1020.2     5.7       N     8  13.0      NW     320     263       -88       1.6       6.7      39.7      9.10
   02/04/2020 05:20      44.9      44.5       12     -5.4      0.00      7.53      57.6     0.46      1020.1     5.2       N     9  12.1     NNE      22     263       -88       1.3       6.4      39.6      9.10
   02/04/2020 05:10      45.1      44.6       12     -5.4      0.00      7.53      57.8     0.46      1019.9     5.3       N     7   9.2     NNW     336     263       -88       1.7       6.2      39.5      9.10
   02/04/2020 05:00      45.3      45.0       11     -5.7      0.00      7.53      57.9     0.46      1019.6     6.0       N     4  13.6      NW     310     263       -89       1.8       5.9      39.7      9.10
   02/04/2020 04:50      45.3      44.8       11     -5.6      0.00      7.53      57.9     0.46      1019.4     7.3       N     5  12.8     NNW     331     263       -88       2.2       5.6      39.9      9.10
   02/04/2020 04:40      45.3      45.0       12     -5.4      0.00      7.53      57.9     0.46      1019.3     5.9       N     8  16.5     NNE      21     263       -88       1.6       5.2      40.0      9.10
   02/04/2020 04:30      45.5      44.9       12     -4.8      0.00      7.53      57.9     0.46      1019.2     5.6     NNE    12  12.3       N       3     263       -88       1.5       5.0      40.1      9.11
   02/04/2020 04:20      45.6      45.0       12     -4.7      0.00      7.53      58.0     0.46      1019.2     5.0     NNE    14  10.6     NNE      31     263       -88       1.5       4.7      40.2      9.11
   02/04/2020 04:10      45.5      45.0       12     -4.3      0.00      7.53      58.0     0.46      1019.1     6.0       N     5  14.9     NNE      22     263       -88       2.1       4.5      40.4      9.11
   02/04/2020 04:00      45.5      45.1       12     -4.3      0.00      7.53      58.0     0.46      1019.0     4.6       N   355   7.8       N     354     263       -87       1.2       4.1      40.5      9.11
   02/04/2020 03:50      45.7      45.2       12     -4.2      0.00      7.53      58.1     0.46      1019.0     3.9       N   359   8.3     WNW     296     263       -87       1.1       3.9      40.8      9.11
   02/04/2020 03:40      45.9      45.3       12     -4.3      0.00      7.53      58.1     0.46      1018.9     4.4       N     0  10.2       N     349     263       -88       1.2       3.7      40.8      9.11
   02/04/2020 03:30      46.0      45.6       12     -4.4      0.00      7.53      58.2     0.46      1018.9     5.1       N     4  10.7       N       6     263       -88       1.1       3.5      41.0      9.11
   02/04/2020 03:20      46.0      45.6       12     -4.5      0.00      7.53      58.0     0.46      1018.9     5.6       N     4  12.3     NNW     338     263       -88       1.5       3.4      40.9      9.11
   02/04/2020 03:10      45.9      45.5       12     -3.8      0.00      7.53      58.4     0.46      1018.9     4.5       N     5   8.2       N     355     263       -88       1.1       3.1      41.3      9.11
   02/04/2020 03:00      46.1      45.5       12     -3.9      0.00      7.53      58.2     0.46      1018.9     5.6       N     3  10.6      NE      42     263       -87       1.3       2.9      41.3      9.11
   02/04/2020 02:50      45.8      45.5       12     -3.3      0.00      7.53      58.2     0.46      1018.9     4.9       N     5   9.2      NW     314     264       -87       1.0       2.7      41.4      9.11
   02/04/2020 02:40      45.8      45.4       13     -2.7      0.00      7.53      58.3     0.47      1018.9     4.3       N     0   9.0       N       0     263       -86       1.0       2.5      41.5      9.11
   02/04/2020 02:30      46.0      45.4       13     -2.3      0.00      7.53      58.4     0.46      1018.9     3.1       N   352   7.0     NNE      32     264       -86       0.7       2.4      41.7      9.12
   02/04/2020 02:20      46.2      45.8       13     -2.9      0.00      7.53      58.3     0.46      1018.9     4.8       N     2  10.4      NE      36     263       -86       0.9       2.3      41.8      9.12
   02/04/2020 02:10      46.1      45.6       13     -2.7      0.00      7.53      58.5     0.47      1018.8     4.0       N     7   8.0      NE      38     263       -85       0.7       2.1      41.8      9.12
   02/04/2020 02:00      46.2      45.7       13     -2.1      0.00      7.53      58.4     0.47      1018.9     2.8       N   351   6.1     NNE      29     263       -86       0.5       2.0      41.9      9.12
   02/04/2020 01:50      46.0      45.5       13     -2.0      0.00      7.53      58.5     0.47      1018.9     2.7     NNW   330   8.4     NNW     335     263       -85       1.2       1.9      42.4      9.12
   02/04/2020 01:40      46.1      45.6       13     -1.8      0.00      7.53      58.6     0.47      1018.8     2.2     NNW   344   4.6     NNW     338     264       -85       0.4       1.7      42.5      9.12
   02/04/2020 01:30      46.2      45.8       13     -1.8      0.00      7.53      58.8     0.47      1018.7     2.7       N   357   6.7       N       4     264       -86       0.6       1.6      42.6      9.12
   02/04/2020 01:20      46.5      45.9       13     -1.9      0.00      7.53      58.7     0.47      1018.4     2.2       N   358   5.6     NNW     341     264       -87       0.5       1.5      42.8      9.12
   02/04/2020 01:10      46.9      46.3       13     -2.2      0.00      7.53      58.6     0.47      1018.3     3.7       N   359   8.5       N       5     263       -88       0.9       1.5      43.0      9.12
   02/04/2020 01:00      47.1      46.8       12     -3.0      0.00      7.53      58.6     0.47      1018.2     5.5       N   357  10.0     NNE      15     264       -88       1.6       1.3      43.3      9.12
   02/04/2020 00:50      47.4      46.9       12     -3.2      0.00      7.53      58.7     0.47      1018.3     4.7     NNE    14  11.4     NNW     330     263       -88       1.3       1.0      43.4      9.12
   02/04/2020 00:40      47.8      47.2       11     -3.8      0.00      7.53      58.8     0.47      1018.4     4.3       N   359  10.2     NNE      25     263       -88       1.2       0.8      43.6      9.12
   02/04/2020 00:30      48.1      47.6       11     -4.7      0.00      7.53      58.8     0.47      1018.4     5.1     NNE    13   9.5     NNE      31     263       -88       1.2       0.6      43.7      9.12
   02/04/2020 00:20      48.2      47.8       10     -5.1      0.00      7.53      58.9     0.47      1018.3     5.4       N     4  10.5       N      10     263       -88       1.3       0.4      43.9      9.12
   02/04/2020 00:10      48.0      47.6       11     -4.0      0.00      7.53      59.0     0.47      1018.2     4.4     NNE    13   9.0     NNW     339     264       -88       1.1       0.2      44.2      9.12
   02/04/2020 00:00      48.1      47.7       11     -3.7      0.00      7.53      58.9     0.47      1018.0     4.3       N     6   8.9     NNE      31     263       -87       0.9      36.8      44.3      9.13
   02/03/2020 23:50      48.3      47.8       11     -3.9      0.00      7.53      59.1     0.47      1017.8     5.2       N     6  12.1       N       5     264       -87       1.1      36.6      44.6      9.13
   02/03/2020 23:40      48.5      48.1       11     -4.1      0.00      7.53      59.0     0.47      1017.7     4.6       N     4   7.6     NNE      19     264       -87       1.0      36.5      44.7      9.13
   02/03/2020 23:30      48.4      47.8       11     -3.4      0.00      7.53      59.0     0.47      1017.6     4.8       N     8  11.6       N       6     264       -86       1.1      36.3      44.8      9.13
   02/03/2020 23:20      47.9      47.5       12     -2.0      0.00      7.53      59.0     0.47      1017.5     4.3       N     2   9.4     NNE      24     264       -86       0.7      36.1      45.0      9.13
   02/03/2020 23:10      48.0      47.4       13     -1.6      0.00      7.53      59.0     0.47      1017.3     3.7       N     8   7.5       N       5     264       -85       0.6      36.0      45.1      9.13
   02/03/2020 23:00      47.7      47.2       13     -0.9      0.00      7.53      59.0     0.47      1017.3     3.2       N     1   7.2     NNE      14     264       -84       0.4      35.9      45.2      9.13
   02/03/2020 22:50      47.9      47.5       13     -0.7      0.00      7.53      59.1     0.47      1017.1     3.4       N     6   8.4     NNE      29     264       -85       0.5      35.9      45.5      9.13
   02/03/2020 22:40      47.7      47.4       13     -0.0      0.00      7.53      59.2     0.47      1017.1     2.9       N     5   6.8       N       3     264       -85       0.6      35.8      45.8      9.13
   02/03/2020 22:30      48.1      47.5       14      0.4      0.00      7.53      59.2     0.47      1016.9     3.0       N     7   7.0       N     349     264       -85       0.5      35.7      45.9      9.13
   02/03/2020 22:20      48.1      47.6       14      0.9      0.00      7.53      58.9     0.47      1016.8     4.3       N     4   8.3       N     351     264       -84       0.8      35.6      45.9      9.13
   02/03/2020 22:10      47.8      47.3       16      2.9      0.00      7.53      59.2     0.47      1016.7     3.2     NNE    12   7.3      NW     326     264       -84       0.6      35.5      46.3      9.13
   02/03/2020 22:00      47.5      47.1       17      4.7      0.00      7.53      59.2     0.47      1016.8     2.7       N     5   8.7       N      11     264       -84       0.3      35.4      46.5      9.13
   02/03/2020 21:50      47.5      47.1       18      5.8      0.00      7.53      59.2     0.47      1016.8     2.2       N     0   4.8     NNE      18     264       -84       0.6      35.3      46.7      9.13
   02/03/2020 21:40      47.2      46.6       20      8.5      0.00      7.53      59.1     0.47      1016.8     2.4     NNW   342   6.3     NNW     339     264       -83       0.6      35.2      46.8      9.14
   02/03/2020 21:30      47.4      46.9       21      9.2      0.00      7.53      59.3     0.47      1016.8     2.3     NNW   345   6.0     NNE      24     264       -83       0.5      35.1      47.1      9.13
   02/03/2020 21:20      47.2      46.5       23     10.8      0.00      7.53      59.4     0.47      1016.6     1.9      NW   325   5.2     NNE      19     264       -83       0.7      35.0      47.5      9.14
   02/03/2020 21:10      47.6      47.0       23     11.3      0.00      7.53      59.3     0.47      1016.5     2.2     NNW   332   5.6     NNW     340     264       -83       0.7      34.9      47.7      9.14
   02/03/2020 21:00      47.4      46.7       24     11.7      0.00      7.53      59.3     0.47      1016.5     3.0       N   350   7.8       N       5     264       -83       1.0      34.8      47.8      9.14
   02/03/2020 20:50      46.9      46.5       25     12.5      0.00      7.53      59.6     0.47      1016.5     2.1      NW   322   5.3      NW     309     264       -82       0.9      34.6      48.4      9.14
   02/03/2020 20:40      46.9      46.5       25     12.9      0.00      7.53      59.3     0.47      1016.3     1.8      NW   323   4.6     SSW     211     264       -82       0.5      34.5      48.2      9.14
   02/03/2020 20:30      46.8      46.3       26     13.3      0.00      7.53      59.3     0.47      1016.1     1.8     NNW   328   3.9      NW     315     264       -82       0.5      34.4      48.5      9.14
   02/03/2020 20:20      46.6      46.3       26     13.7      0.00      7.53      59.6     0.47      1016.0     1.3      NW   315   3.8     WSW     258     264       -82       0.7      34.3      49.0      9.14
   02/03/2020 20:10      46.8      46.4       26     13.7      0.00      7.53      59.5     0.47      1015.9     1.7      NW   317   3.3     NNW     330     264       -83       0.7      34.2      49.1      9.14
   02/03/2020 20:00      46.9      46.4       26     13.7      0.00      7.53      59.4     0.47      1015.7     1.9     NNW   331   4.7     NNW     335     264       -84       0.6      34.1      49.1      9.14
   02/03/2020 19:50      47.0      46.6       26     13.7      0.00      7.53      59.5     0.47      1015.7     2.0     NNW   343   5.1     NNE      27     264       -84       0.7      34.0      49.6      9.14
   02/03/2020 19:40      47.1      46.7       26     13.5      0.00      7.53      59.3     0.47      1015.7     1.9     NNW   338   6.6       N       0     264       -84       0.5      33.9      49.6      9.14
   02/03/2020 19:30      47.0      46.8       25     13.3      0.00      7.53      59.4     0.47      1015.6     2.1       N   353   6.4     NNE      20     264       -85       0.9      33.8      49.9      9.14
   02/03/2020 19:20      47.4      46.9       25     12.9      0.00      7.53      59.5     0.47      1015.6     1.2     NNW   347   3.7     NNE      27     264       -86       0.4      33.6      50.2      9.15
   02/03/2020 19:10      47.5      47.2       24     12.7      0.00      7.53      59.4     0.47      1015.5     2.4     NNW   333   6.9       S     173     264       -86       0.8      33.5      50.4      9.15
   02/03/2020 19:00      48.0      47.4       24     12.3      0.00      7.53      59.5     0.47      1015.4     2.7     NNW   339   6.6     NNW     327     264       -87       0.8      33.4      50.7      9.15
   02/03/2020 18:50      48.0      47.8       23     11.7      0.00      7.53      59.2     0.47      1015.3     4.1     NNW   342   8.9     NNE      15     264       -87       1.3      33.3      51.0      9.15
   02/03/2020 18:40      48.1      47.7       22     11.0      0.00      7.53      59.4     0.47      1015.1     3.7       N   349   7.6       N     355     264       -88       1.3      33.1      51.5      9.15
   02/03/2020 18:30      48.4      47.8       21      9.8      0.00      7.53      59.2     0.47      1014.9     3.4     NNW   342   9.5     SSE     153     264       -89       1.3      32.8      51.8      9.15
   02/03/2020 18:20      48.7      48.1       20      8.8      0.00      7.53      59.5     0.47      1014.8     3.5     NNW   339   8.5       N     349     264       -90       1.4      32.6      52.0      9.15
   02/03/2020 18:10      48.9      48.6       19      8.3      0.00      7.53      59.1     0.47      1014.6     4.5       N   349   8.9       N       0     264       -90       1.4      32.4      52.4      9.16
   02/03/2020 18:00      49.2      48.8       19      8.2      0.00      7.53      59.0     0.47      1014.6     4.2     NNW   338   8.5      NW     326     264       -90       1.5      32.1      52.8      9.16
   02/03/2020 17:50      49.5      49.0       19      9.0      0.00      7.53      59.0     0.47      1014.5     3.6     NNW   333   6.8     NNW     346     264       -90       0.9      31.9      53.0      9.16
   02/03/2020 17:40      49.7      49.3       20      9.5      0.00      7.53      59.2     0.47      1014.3     4.7     NNW   345   9.1     NNE      17     264       -90       1.4      31.8      53.5      9.16
   02/03/2020 17:30      50.0      49.5       20     10.0      0.00      7.53      59.2     0.47      1014.2     3.7      NW   325   8.1       N     353     264       -88       1.5      31.5      53.9      9.16
   02/03/2020 17:20      50.5      49.9       20     10.3      0.00      7.53      59.4     0.47      1014.0     4.1     NNW   335   8.1     WNW     302     264       -85       1.8      31.3      54.2      9.17
   02/03/2020 17:10      50.9      50.2       20     10.4      0.00      7.53      59.2     0.47      1014.0     4.7     NNW   333  10.2     NNW     332     264       -81       1.8      31.0      54.8      9.17
   02/03/2020 17:00      51.5      50.7       19     10.2      0.00      7.53      59.2     0.47      1013.9     4.6     NNW   337  10.0      NW     305     264       -77       1.6      30.7      55.1      9.17
   02/03/2020 16:50      52.1      51.3       18      9.7      0.00      7.53      59.3     0.47      1013.9     4.4      NW   320   8.9       W     273     264       -73       2.0      30.4      55.7      9.17
   02/03/2020 16:40      52.5      52.0       18      9.7      0.00      7.53      58.9     0.47      1013.7     4.4     NNW   328   7.7     NNW     336     264       -23       1.6      30.1      56.2      9.18
   02/03/2020 16:30      52.9      52.3       18      9.7      0.00      7.53      59.0     0.47      1013.6     4.7     NNW   334  10.0     NNW     345     263        -0       1.8      29.8      56.2      9.18
   02/03/2020 16:20      53.3      52.8       17      9.4      0.00      7.53      59.0     0.47      1013.6     4.4      NW   323   8.9       N       2     263        23       2.5      29.5      56.5      9.18
   02/03/2020 16:10      53.4      52.9       17      9.3      0.00      7.53      59.1     0.47      1013.6     5.1     NNW   333  10.3     NNW     347     263        48       2.1      29.1      56.6      9.18
   02/03/2020 16:00      53.9      53.3       17      9.6      0.00      7.53      58.9     0.47      1013.5     5.0      NW   321   9.9     NNW     331     263        74       2.6      28.7      56.7      9.19
   02/03/2020 15:50      54.0      53.6       16      9.3      0.00      7.53      58.9     0.47      1013.4     4.8      NW   322   9.3      NW     315     264        99       2.5      28.3      56.8      9.19
   02/03/2020 15:40      55.0      54.0       16      9.4      0.00      7.53      59.0     0.47      1013.4     4.8     NNW   326  11.4      NW     314     263       124       2.8      27.9      56.8      9.19
   02/03/2020 15:30      55.3      54.6       16      9.1      0.00      7.53      58.8     0.47      1013.3     4.1      NW   320   8.6      NW     322     263       148       2.2      27.4      56.8      9.19
   02/03/2020 15:20      55.1      54.5       16      9.8      0.00      7.53      58.9     0.47      1013.3     4.0      NW   319  10.2      NE      50     263       172       2.0      27.1      57.0      9.19
   02/03/2020 15:10      55.2      54.6       16      9.5      0.00      7.53      59.0     0.47      1013.2     5.2      NW   307  12.0       W     262     263       194       3.4      26.7      57.0      9.20
   02/03/2020 15:00      55.0      54.5       16      9.8      0.00      7.53      58.8     0.47      1013.2     5.0      NW   322  11.7      NW     314     262       215       2.6      26.1      56.6      9.20
   02/03/2020 14:50      55.5      54.5       16     10.1      0.00      7.53      58.8     0.47      1013.1     4.4      NW   319  10.7      NW     316     262       233       2.5      25.7      56.7      9.20
   02/03/2020 14:40      54.9      54.2       17     10.1      0.00      7.53      58.7     0.47      1013.1     5.4      NW   324  11.4     NNE      13     262       253       2.6      25.3      56.4      9.20
   02/03/2020 14:30      55.6      54.6       17     10.7      0.00      7.53      58.7     0.47      1013.0     5.6     NNW   327  12.0     SSE     160     263       271       2.8      24.9      56.1      9.21
   02/03/2020 14:20      55.6      55.1       17     11.8      0.00      7.53      58.6     0.47      1013.1     4.7      NW   313  10.7       W     279     263       287       3.1      24.4      55.9      9.21
   02/03/2020 14:10      55.7      55.0       18     12.2      0.00      7.53      58.6     0.47      1013.1     5.1      NW   320   9.7     NNW     338     262       303       2.4      23.9      55.7      9.21
   02/03/2020 14:00      55.7      55.1       18     12.8      0.00      7.53      58.6     0.47      1013.2     4.5      NW   321   9.2       N       0     263       316       2.3      23.5      55.2      9.21
   02/03/2020 13:50      56.0      55.3       18     12.7      0.00      7.53      58.6     0.47      1013.3     4.0     NNW   334   7.9     NNE      21     263       327       1.5      23.1      55.0      9.21
   02/03/2020 13:40      55.8      54.8       18     12.9      0.00      7.53      58.6     0.47      1013.3     4.1      NW   305   9.0     WNW     296     263       342       2.3      22.9      54.8      9.22
   02/03/2020 13:30      55.3      54.7       19     13.3      0.00      7.53      58.6     0.47      1013.4     4.5      NW   325   8.9     WNW     291     263       355       2.7      22.5      54.5      9.22
   02/03/2020 13:20      55.5      54.9       19     13.9      0.00      7.53      58.6     0.47      1013.5     4.7      NW   325  10.1       N       0     263       363       2.3      22.0      54.3      9.22
   02/03/2020 13:10      55.1      54.5       20     14.9      0.00      7.53      58.6     0.47      1013.6     4.7     NNW   346  10.7       N       7     263       381       2.0      21.6      53.9      9.22
   02/03/2020 13:00      54.8      54.0       22     16.1      0.00      7.53      58.6     0.47      1013.8     4.9      NW   317  13.1     NNW     331     263       407       3.1      21.3      53.5      9.22
   02/03/2020 12:50      54.5      53.3       23     17.0      0.00      7.53      58.5     0.47      1014.0     3.5      NW   326   6.5       W     272     264       306       1.5      20.8      53.1      9.22
   02/03/2020 12:40      53.4      52.6       24     17.5      0.00      7.53      58.4     0.47      1014.3     4.1     NNW   337  11.1     NNW     327     264       249       1.1      20.6      52.8      9.22
   02/03/2020 12:30      54.0      52.7       24     17.9      0.00      7.53      58.7     0.47      1014.5     3.7     NNW   329   7.9       N     354     264       183       1.7      20.4      53.0      9.23
   02/03/2020 12:20      54.3      52.9       24     18.1      0.00      7.53      58.4     0.47      1014.6     4.1      NW   317  10.5      NW     314     263       315       2.7      20.1      52.2      9.23
   02/03/2020 12:10      53.7      52.6       25     18.2      0.00      7.53      58.6     0.47      1014.9     4.5     NNW   329  10.8     WNW     293     264       408       2.0      19.6      51.7      9.23
   02/03/2020 12:00      53.7      52.9       25     18.5      0.00      7.53      58.6     0.47      1015.0     4.8      NW   309  12.4       N     350     264       375       2.6      19.3      51.3      9.23
   02/03/2020 11:50      53.6      52.9       25     18.7      0.00      7.53      58.6     0.47      1015.2     4.2     NNW   328  11.9     WNW     303     264       416       2.2      18.9      50.7      9.23
   02/03/2020 11:40      53.4      52.8       26     19.2      0.00      7.53      58.6     0.47      1015.4     4.3     NNW   329  10.8     NNW     336     264       404       1.9      18.5      50.1      9.23
   02/03/2020 11:30      53.4      52.5       27     19.8      0.00      7.53      58.8     0.47      1015.6     3.8     NNW   328   8.0     NNW     332     264       394       1.5      18.2      49.8      9.23
   02/03/2020 11:20      53.3      52.1       27     19.8      0.00      7.53      59.0     0.47      1015.6     4.4       N   350   8.5       N       9     264       372       1.6      17.9      49.5      9.23
   02/03/2020 11:10      53.1      52.1       28     20.3      0.00      7.53      58.6     0.47      1015.7     3.5     NNW   345   7.1      NW     321     264       380       1.5      17.6      48.4      9.23
   02/03/2020 11:00      52.1      51.5       28     20.1      0.00      7.53      58.7     0.47      1015.8     4.7       N   350  11.7     NNW     335     264       352       1.6      17.4      47.8      9.23
   02/03/2020 10:50      52.3      51.2       29     20.6      0.00      7.53      58.6     0.47      1015.8     4.1     NNW   340   8.5     NNE      18     264       358       1.7      17.1      47.2      9.24
   02/03/2020 10:40      52.3      51.0       29     20.7      0.00      7.53      59.0     0.47      1015.7     4.2       N   355  12.1      NE      55     264       347       1.5      16.8      47.1      9.24
   02/03/2020 10:30      51.4      50.5       30     20.5      0.00      7.53      58.8     0.47      1015.6     4.1     NNW   344  10.0       N     353     264       336       1.4      16.6      46.4      9.24
   02/03/2020 10:20      51.5      50.5       30     20.8      0.00      7.53      58.9     0.47      1015.8     4.2     NNW   331  11.7       N       0     264       323       2.1      16.4      46.0      9.24
   02/03/2020 10:10      51.4      50.1       32     21.7      0.00      7.53      58.9     0.47      1015.7     2.7     NNW   328   7.7       N       3     264       307       1.3      16.0      45.5      9.24
   02/03/2020 10:00      50.3      49.3       32     21.2      0.00      7.53      58.9     0.47      1015.6     3.0     NNW   348   8.5     NNW     334     264       293       1.0      15.8      45.2      9.24
   02/03/2020 09:50      49.4      48.8       33     21.4      0.00      7.53      59.1     0.47      1015.7     3.4     NNW   331   8.7      NW     320     264       279       1.9      15.6      44.9      9.24
   02/03/2020 09:40      49.1      47.1       35     21.6      0.00      7.53      59.1     0.47      1015.8     2.4     NNW   341   6.7     WNW     283     264       266       1.2      15.3      44.5      9.24
   02/03/2020 09:30      47.2      45.8       37     21.4      0.00      7.53      59.0     0.47      1015.8     2.2     NNW   346   6.6     NNW     333     265       117       0.8      15.1      44.3      9.24
   02/03/2020 09:20      46.1      45.6       37     21.2      0.00      7.53      59.1     0.47      1015.8     3.7     NNW   339   6.2      NW     314     266        54       1.4      14.9      44.2      9.24
   02/03/2020 09:10      46.2      45.9       37     21.4      0.00      7.53      59.0     0.47      1015.7     2.6       N   353   6.8     NNW     344     266        55       0.9      14.7      44.2      9.24
   02/03/2020 09:00      46.1      45.5       38     21.3      0.00      7.53      59.2     0.47      1015.6     2.5     NNW   341   7.4     NNW     328     266        51       0.8      14.6      44.3      9.24
   02/03/2020 08:50      45.7      45.3       38     21.2      0.00      7.53      59.4     0.47      1015.4     3.2     NNW   337   6.9       W     278     266        60       1.0      14.4      44.3      9.24
   02/03/2020 08:40      45.7      45.0       39     21.4      0.00      7.53      59.5     0.47      1015.3     2.8       N   353   7.0     NNW     346     266        49       0.9      14.3      44.4      9.24
   02/03/2020 08:30      45.3      44.9       39     21.3      0.00      7.53      59.4     0.47      1015.0     3.8     NNW   340   9.4     NNW     334     266        38       1.3      14.1      44.1      9.24
   02/03/2020 08:20      45.0      44.6       39     21.3      0.00      7.53      59.4     0.47      1015.1     4.2     NNW   341  12.2      NW     326     266        40       1.3      13.9      44.0      9.24
   02/03/2020 08:10      44.8      44.4       39     21.3      0.00      7.53      59.4     0.47      1015.1     4.5     NNW   343   9.1     NNE      20     266        24       1.4      13.7      44.1      9.25
   02/03/2020 08:00      44.7      44.2       40     21.4      0.00      7.53      59.5     0.47      1014.9     4.1     NNW   329   9.9     NNW     340     266        10       1.5      13.4      44.1      9.25
   02/03/2020 07:50      44.6      44.1       40     21.5      0.00      7.53      59.5     0.47      1014.9     3.9     NNW   341   9.4      NW     304     266       -14       1.4      13.2      44.0      9.25
   02/03/2020 07:40      44.4      44.0       40     21.6      0.00      7.53      59.3     0.47      1014.9     3.4     NNW   336  10.5      NW     307     266       -19       1.5      13.0      43.9      9.25
   02/03/2020 07:30      44.2      43.9       41     21.8      0.00      7.53      59.6     0.47      1014.9     3.4     NNW   330   7.2      NW     321     266       -26       1.3      12.7      44.0      9.25
   02/03/2020 07:20      44.0      43.7       41     21.7      0.00      7.53      59.4     0.47      1015.0     3.8     NNW   333   6.4       N     352     266       -37       1.5      12.5      44.0      9.25
   02/03/2020 07:10      44.0      43.6       41     21.5      0.00      7.53      59.6     0.47      1015.1     3.9     NNW   338   8.4     NNE      24     266       -51       1.6      12.2      44.0      9.25
   02/03/2020 07:00      44.0      43.5       41     21.4      0.00      7.53      59.9     0.47      1015.0     4.3     NNW   328  11.8       N     354     266       -66       1.9      12.0      44.3      9.25
   02/03/2020 06:50      43.9      43.5       40     21.2      0.00      7.53      59.7     0.47      1015.0     3.7     NNW   339   8.8     NNW     336     266       -71       1.2      11.7      44.4      9.25
   02/03/2020 06:40      44.0      43.6       40     21.2      0.00      7.53      59.7     0.47      1014.9     4.1     NNW   337  12.6      NW     306     266       -77       1.5      11.4      44.5      9.25
   02/03/2020 06:30      44.0      43.6       41     21.4      0.00      7.53      59.8     0.47      1014.9     4.4     NNW   347  10.4       N      10     266       -79       1.4      11.2      44.7      9.25
   02/03/2020 06:20      44.3      43.8       40     21.5      0.00      7.53      59.9     0.47      1014.9     4.6     NNW   341  12.9     NNE      16     266       -80       1.5      11.0      45.1      9.25
   02/03/2020 06:10      44.3      43.9       40     21.4      0.00      7.53      59.8     0.47      1014.8     6.4       N   360  14.0       N       5     266       -81       1.6      10.7      45.1      9.25
   02/03/2020 06:00      44.4      44.0       40     21.3      0.00      7.53      59.9     0.47      1014.3     5.0       N   357  11.3       N      11     266       -82       1.5      10.4      45.4      9.25
   02/03/2020 05:50      44.6      44.0       39     21.2      0.00      7.53      59.7     0.47      1014.3     4.4      NW   325   9.8     WNW     288     266       -82       1.7      10.2      45.6      9.26
   02/03/2020 05:40      45.3      44.4       38     20.6      0.00      7.53      60.0     0.47      1014.2     4.7      NW   326  11.4     NNW     333     266       -82       1.7       9.9      45.9      9.26
   02/03/2020 05:30      45.5      44.9       36     20.0      0.00      7.53      60.0     0.47      1014.1     4.7     NNW   331   9.9       S     177     266       -82       1.7       9.6      46.1      9.26
   02/03/2020 05:20      45.6      45.0       36     19.6      0.00      7.53      60.1     0.47      1014.0     5.0     NNW   348  11.3     NNE      19     266       -82       1.8       9.4      46.3      9.26
   02/03/2020 05:10      45.2      45.0       37     20.3      0.00      7.53      59.9     0.47      1013.9     5.0       N     5  12.9     NNE      31     266       -82       1.3       9.1      46.5      9.26
   02/03/2020 05:00      45.6      45.1       37     20.4      0.00      7.53      59.9     0.47      1013.8     6.8       N     7  13.3     NNW     346     266       -82       1.7       8.8      46.8      9.26
   02/03/2020 04:50      45.8      45.3       36     20.3      0.00      7.53      60.2     0.47      1013.7     7.2       N     7  11.9     NNW     346     266       -82       1.5       8.6      47.0      9.26
   02/03/2020 04:40      46.1      45.6       35     19.9      0.00      7.53      60.3     0.47      1013.6     6.5       N    10  15.2     NNE      18     266       -82       2.1       8.3      47.1      9.26
   02/03/2020 04:30      46.1      45.8       35     19.8      0.00      7.53      60.1     0.47      1013.5     6.3       N   360  13.9     NNW     338     266       -82       2.0       8.0      47.4      9.26
   02/03/2020 04:20      46.5      45.9       34     19.2      0.00      7.53      60.2     0.47      1013.2     6.2       N   360  15.7       N       6     266       -83       1.9       7.6      47.7      9.26
   02/03/2020 04:10      46.6      46.2       32     18.5      0.00      7.53      60.3     0.47      1012.9     7.1       N   359  15.4       N      11     266       -83       2.0       7.3      48.1      9.27
   02/03/2020 04:00      46.9      46.5       31     17.6      0.00      7.53      60.3     0.47      1012.9     5.7       N   356  12.6     NNE      15     266       -83       2.0       7.0      48.3      9.27
   02/03/2020 03:50      47.0      46.6       29     16.5      0.00      7.53      60.4     0.47      1012.7     3.1       N     0  10.4     NNW     327     266       -82       0.9       6.7      48.3      9.27
   02/03/2020 03:40      47.3      46.5       30     16.9      0.00      7.53      60.3     0.47      1012.7     2.7     NNE    17   7.1       N      11     266       -83       1.2       6.5      48.7      9.27
   02/03/2020 03:30      47.2      46.9       30     17.0      0.00      7.53      60.5     0.47      1012.4     2.9      NE    40   7.3     NNE      26     266       -83       1.3       6.3      48.9      9.27
   02/03/2020 03:20      47.4      46.9       30     17.4      0.00      7.53      60.5     0.47      1012.3     5.4       N   358  11.4       N      10     266       -85       1.7       6.1      49.1      9.27
   02/03/2020 03:10      47.6      47.2       29     17.0      0.00      7.53      60.5     0.47      1012.3     5.2       N     6  12.6     NNE      14     266       -85       2.2       5.8      49.5      9.27
   02/03/2020 03:00      47.5      47.1       30     17.6      0.00      7.53      60.5     0.47      1012.3     5.8       N    10  13.3     NNE      28     266       -85       2.1       5.5      49.8      9.27
   02/03/2020 02:50      47.5      47.0       32     18.9      0.00      7.53      60.4     0.47      1012.5     4.7       N     4  11.5     NNW     327     266       -85       1.5       5.1      50.2      9.27
   02/03/2020 02:40      47.7      47.4       32     19.3      0.00      7.53      60.4     0.47      1012.6     5.3       N     6  11.7     NNE      12     266       -84       1.8       4.9      50.4      9.27
   02/03/2020 02:30      47.8      47.5       32     19.4      0.00      7.53      60.5     0.47      1012.5     6.4       N   356  12.4     WSW     258     266       -84       1.9       4.6      50.7      9.27
   02/03/2020 02:20      48.0      47.6       32     19.5      0.00      7.53      60.5     0.47      1012.4     6.0       N   358  15.9       N       2     266       -84       2.0       4.3      50.8      9.28
   02/03/2020 02:10      48.1      47.8       32     19.7      0.00      7.53      60.6     0.47      1012.5     5.9       N   359  10.5      NW     309     266       -84       1.7       3.9      51.3      9.28
   02/03/2020 02:00      48.2      47.8       33     20.2      0.00      7.53      60.6     0.47      1012.5     6.5       N     2  15.5     NNE      32     266       -83       2.2       3.6      51.6      9.28
   02/03/2020 01:50      48.4      47.8       34     21.1      0.00      7.53      60.9     0.47      1012.6     4.5     NNW   347  10.3       N     350     266       -83       1.9       3.3      52.2      9.28
   02/03/2020 01:40      48.6      48.3       34     21.1      0.00      7.53      60.7     0.47      1012.7     7.6       N     7  15.7     WNW     302     266       -83       2.7       2.9      52.4      9.28
   02/03/2020 01:30      49.0      48.4       33     20.6      0.00      7.53      60.7     0.47      1012.6     4.9       N   354  17.0     WSW     243     266       -83       1.6       2.5      52.7      9.28
   02/03/2020 01:20      49.1      48.7       31     19.9      0.00      7.53      60.8     0.47      1012.6     5.2       N   353  12.1     NNW     332     266       -81       2.2       2.2      53.2      9.28
   02/03/2020 01:10      49.5      48.9       29     18.7      0.00      7.53      60.9     0.47      1012.5     4.7       N   357  11.2       N     354     266       -81       1.4       1.9      53.6      9.28
   02/03/2020 01:00      49.7      49.3       28     18.1      0.00      7.53      60.8     0.47      1012.3     6.3       N   360  14.9       N      10     266       -81       1.9       1.6      53.7      9.29
   02/03/2020 00:50      49.8      49.5       28     18.1      0.00      7.53      60.8     0.47      1012.3     5.8       N     4  13.9     NNE      33     265       -81       2.3       1.3      54.1      9.29
   02/03/2020 00:40      50.0      49.6       28     18.1      0.00      7.53      61.0     0.47      1012.5     4.4     NNE    15  15.9      NE      36     266       -80       1.5       0.9      54.6      9.29
   02/03/2020 00:30      50.2      49.7       28     17.8      0.00      7.53      61.1     0.47      1012.4     3.7     NNE    14   9.3      NE      34     266       -80       1.2       0.7      55.1      9.29
   02/03/2020 00:20      50.8      50.1       26     17.1      0.00      7.53      60.7     0.47      1012.6     3.8       N     6  10.0     NNW     348     265       -73       1.4       0.5      55.1      9.29
   02/03/2020 00:10      51.1      50.6       24     15.5      0.00      7.53      61.1     0.47      1012.6     3.2       N   351   7.4       N       0     265       -44       1.6       0.3      55.7      9.29
   02/03/2020 00:00      51.5      51.0       23     14.3      0.00      7.53      61.2     0.47      1012.6     1.0       N   352   5.8      NE      39     265       -39       0.4      17.7      55.9      9.29
   02/02/2020 23:50      52.0      51.3       21     13.4      0.00      7.53      61.0     0.47      1012.6     2.1     NNW   335   5.9       N       8     265       -42       1.0      17.6      55.9      9.29
   02/02/2020 23:40      52.1      51.6       21     13.6      0.00      7.53      60.9     0.47      1012.6     2.4     NNW   344  10.5       N       3     265       -43       0.6      17.5      56.1      9.29
   02/02/2020 23:30      52.3      51.8       22     14.6      0.00      7.53      61.2     0.47      1012.5     1.1     NNW   329   3.7       N     355     265       -38       0.4      17.4      56.5      9.29
   02/02/2020 23:20      52.4      52.0       22     14.8      0.00      7.53      61.1     0.47      1012.3     3.4       N     6   8.8     NNW     331     266       -54       0.8      17.3      56.6      9.30
   02/02/2020 23:10      52.7      52.2       23     15.3      0.00      7.53      61.2     0.47      1012.3     3.8       N     3   6.2       N      10     266       -49       1.1      17.2      57.1      9.30
   02/02/2020 23:00      52.9      52.5       23     16.3      0.00      7.53      60.9     0.47      1012.3     1.9       N   350   5.2     NNE      14     266       -37       0.5      17.0      57.3      9.30
   02/02/2020 22:50      52.9      52.5       24     16.6      0.00      7.53      61.0     0.47      1012.3     2.0       N   352   6.0     NNE      23     266       -25       0.4      16.9      57.5      9.30
   02/02/2020 22:40      53.0      52.5       24     17.4      0.00      7.53      60.9     0.47      1012.2     2.0       N   358   5.4       N       4     266       -52       0.6      16.9      57.6      9.30
   02/02/2020 22:30      53.0      52.7       26     18.6      0.00      7.53      60.7     0.47      1012.1     2.2       N     4   5.5     NNW     328     266       -75       0.6      16.7      57.7      9.30
   02/02/2020 22:20      53.3      52.7       28     20.4      0.00      7.53      60.9     0.47      1012.0     1.5       N   357   4.1       N       7     266       -75       0.2      16.6      58.2      9.30
   02/02/2020 22:10      53.6      53.0       28     21.4      0.00      7.53      60.9     0.47      1011.9     1.6       N     2   4.8      NE      37     266       -76       0.4      16.6      58.5      9.30
   02/02/2020 22:00      54.1      53.6       29     22.0      0.00      7.53      60.8     0.47      1011.9     2.3       N   356   4.8      NE      38     266       -76       0.6      16.5      58.8      9.31
   02/02/2020 21:50      54.8      54.0       30     23.8      0.00      7.53      60.9     0.47      1011.7     3.6       N     5   9.3     NNE      24     266       -75       0.9      16.4      59.1      9.31
   02/02/2020 21:40      55.0      54.5       34     26.8      0.00      7.53      60.7     0.47      1011.6     3.8       N    11   8.6      NW     317     267       -72       1.2      16.3      59.3      9.31
   02/02/2020 21:30      54.9      54.6       41     31.2      0.00      7.53      60.7     0.47      1011.5     2.3       N   360  10.0       N      11     268       -69       0.8      16.1      59.6      9.31
   02/02/2020 21:20      55.1      54.7       54     38.3      0.00      7.53      60.7     0.47      1011.3     2.2     NNW   347   5.3     WNW     286     268       -70       0.8      16.0      59.8      9.31
   02/02/2020 21:10      55.3      54.9       58     40.4      0.00      7.53      60.7     0.47      1011.2     1.9       N     4   5.5     NNE      22     269       -70       0.6      15.8      60.1      9.31
   02/02/2020 21:00      54.9      53.5       58     39.7      0.00      7.53      60.7     0.47      1011.2     2.3     NNE    32   6.2      NE      46     269       -70       0.8      15.7      60.3      9.31
   02/02/2020 20:50      53.8      53.0       78     46.8      0.00      7.53      60.7     0.47      1011.2     2.0       E    92   5.2     ENE      60     270       -70       1.2      15.6      60.7      9.31
   02/02/2020 20:40      53.3      52.7       84     48.4      0.00      7.53      60.7     0.47      1011.5     1.5       E    82   3.3      NE      55     272       -65       0.5      15.4      60.9      9.31
   02/02/2020 20:30      53.4      53.1       84     48.6      0.00      7.53      60.7     0.47      1011.4     0.7       E    87   2.1     ENE      67     263       -64       0.1      15.3      61.1      9.32
   02/02/2020 20:20      53.8      53.3       84     48.8      0.00      7.53      60.7     0.47      1011.3     1.1       E    97   2.7     ENE      73     264       -66       0.2      15.3      61.3      9.32
   02/02/2020 20:10      54.0      53.5       83     48.9      0.00      7.53      60.8     0.47      1011.4     0.4     ENE    71   2.2     ENE      67     264       -65       0.2      15.3      61.7      9.32
   02/02/2020 20:00      54.3      53.8       83     49.0      0.00      7.53      61.5     0.47      1011.5     0.9       E    85   2.6       E      98     271       -67       0.4      15.2      62.5      9.32
   02/02/2020 19:50      54.8      54.2       82     49.1      0.00      7.53      61.5     0.47      1011.7     1.6       E    92   3.9     ESE     112     271       -59       0.8      15.2      62.6      9.32
   02/02/2020 19:40      54.9      54.6       82     49.3      0.00      7.53      61.4     0.47      1011.9     2.0      NE    55   3.6     ENE      61     270       -33       0.4      15.0      62.9      9.32
   02/02/2020 19:30      55.0      54.6       82     49.4      0.00      7.53      61.3     0.47      1011.8     1.8      NE    52   3.7     ENE      69     270       -30       0.6      14.9      63.1      9.32
   02/02/2020 19:20      54.9      54.4       83     49.5      0.00      7.53      61.3     0.47      1011.9     1.9      NE    44   3.9     ENE      67     270       -10       0.4      14.8      63.3      9.32
   02/02/2020 19:10      54.8      54.4       83     49.6      0.00      7.53      61.0     0.47      1011.6     1.3      NE    51   2.5      NE      44     270       -26       0.1      14.8      63.2      9.32
   02/02/2020 19:00      54.7      54.2       83     49.4      0.00      7.53      60.4     0.47      1011.5     0.8      NE    54   2.2      NE      43     270       -45       0.2      14.8      62.9      9.32
   02/02/2020 18:50      55.2      54.6       82     49.5      0.00      7.53      60.8     0.47      1011.5     1.0     ENE    58   2.5     NNE      20     270       -66       0.2      14.7      63.4      9.32
   02/02/2020 18:40      55.6      55.0       81     49.5      0.00      7.53      60.8     0.47      1011.4     1.5      NE    46   3.0     NNE      23     270       -69       0.1      14.7      63.8      9.32
   02/02/2020 18:30      56.4      55.5       79     49.4      0.00      7.53      60.9     0.47      1011.3     1.7      NE    48   3.3     NNE      26     270       -70       0.2      14.7      64.0      9.32
   02/02/2020 18:20      57.2      56.4       75     49.1      0.00      7.53      60.8     0.47      1011.1     1.3      NE    49   4.4       E      87     269       -69       0.3      14.6      64.4      9.33
   02/02/2020 18:10      58.1      57.1       73     49.0      0.00      7.53      60.8     0.47      1011.0     0.9     SSE   164   3.8      SE     143     268       -70       0.3      14.6      64.5      9.33
   02/02/2020 18:00      58.3      57.9       73     49.4      0.00      7.53      60.7     0.47      1010.9     2.7      SE   145   5.5     SSW     192     268       -71       1.6      14.6      64.9      9.33
   02/02/2020 17:50      58.3      58.0       73     49.4      0.00      7.53      60.6     0.47      1011.0     2.6       S   181   5.4       S     191     268       -71       1.5      14.3      65.2      9.33
   02/02/2020 17:40      59.4      58.3       71     49.4      0.00      7.53      60.5     0.47      1010.9     2.9     SSW   211   3.8      SW     216     268       -72       1.6      14.0      65.4      9.33
   02/02/2020 17:30      60.5      59.1       68     49.4      0.00      7.53      60.2     0.47      1010.7     3.1       S   190   5.2       S     174     268       -71       2.1      13.8      65.6      9.34
   02/02/2020 17:20      61.4      60.5       66     49.6      0.00      7.53      60.9     0.47      1010.7     1.0       E    98   3.4     SSW     200     268       -68       0.5      13.4      66.4      9.34
   02/02/2020 17:10      61.9      61.3       64     49.4      0.00      7.53      60.4     0.47      1010.4     1.8       E    99   3.4     SSE     158     267       -65       0.7      13.3      66.3      9.34
   02/02/2020 17:00      62.4      61.8       63     49.4      0.00      7.53      60.3     0.47      1010.6     1.1      SE   127   2.7     SSE     147     267       -61       0.4      13.2      66.6      9.34
   02/02/2020 16:50      63.0      62.0       62     49.3      0.00      7.53      60.3     0.47      1010.8     3.0     SSE   164   6.0     SSW     193     266       -56       1.8      13.2      67.0      9.34
   02/02/2020 16:40      63.6      62.8       61     49.6      0.00      7.53      60.0     0.47      1010.7     3.2     SSE   159   5.2       S     181     266       -16       2.2      12.8      67.2      9.34
   02/02/2020 16:30      65.5      63.2       60     49.8      0.00      7.53      59.9     0.47      1011.0     4.4       S   181   8.7       S     175     266         1       3.2      12.5      67.4      9.35
   02/02/2020 16:20      66.2      65.4       55     49.1      0.00      7.53      59.9     0.47      1011.2     3.3       S   171   5.9     SSW     197     266        32       2.6      11.9      67.5      9.35
   02/02/2020 16:10      66.7      65.8       53     48.4      0.00      7.53      59.9     0.47      1011.2     3.5       S   176   6.0      SW     216     266        49       2.6      11.5      67.6      9.35
   02/02/2020 16:00      68.2      66.6       48     47.0      0.00      7.53      59.8     0.47      1011.2     4.0       S   182   6.9     SSW     199     266        68       3.0      11.1      67.6      9.35
   02/02/2020 15:50      68.3      67.6       44     45.1      0.00      7.53      59.8     0.47      1011.3     3.2     SSE   150   7.0      SE     141     266        89       2.0      10.6      67.5      9.36
   02/02/2020 15:40      68.9      67.9       40     43.3      0.00      7.53      59.8     0.47      1011.4     3.8      SE   139   7.6     SSE     165     265       115       2.1      10.3      67.4      9.36
   02/02/2020 15:30      69.3      68.7       38     42.3      0.00      7.53      59.7     0.47      1011.3     3.0     SSE   149   7.1     SSE     167     264       136       1.9       9.9      67.3      9.36
   02/02/2020 15:20      69.4      68.7       39     43.4      0.00      7.53      59.7     0.47      1011.5     2.5     ESE   123   5.2      SE     141     264       161       1.5       9.6      67.1      9.36
   02/02/2020 15:10      69.0      68.5       41     44.1      0.00      7.53      59.7     0.47      1011.5     2.8      SE   141   5.3       S     188     264       174       1.7       9.3      67.0      9.36
   02/02/2020 15:00      68.7      68.0       42     44.4      0.00      7.53      59.6     0.47      1011.5     4.0       E    95  10.7      SE     134     264       211       2.1       9.1      66.8      9.37
   02/02/2020 14:50      69.7      68.3       42     45.1      0.00      7.53      59.7     0.47      1011.8     2.8      SE   130   7.6      SE     131     263       225       1.9       8.7      66.6      9.37
   02/02/2020 14:40      69.5      68.6       42     44.9      0.00      7.53      59.6     0.47      1012.2     2.4     ESE   106   5.0     ESE     105     264       157       1.4       8.4      66.3      9.37
   02/02/2020 14:30      69.5      67.9       43     45.3      0.00      7.53      59.6     0.47      1012.3     4.2      SE   142   8.8     ESE     117     264       260       2.3       8.2      66.1      9.37
   02/02/2020 14:20      69.9      69.1       41     45.0      0.00      7.53      59.5     0.47      1012.3     3.9      SE   125   7.1      SE     126     263       253       2.1       7.8      65.8      9.37
   02/02/2020 14:10      70.5      69.0       39     43.8      0.00      7.53      59.5     0.47      1012.4     3.7     ESE   117   9.0      SE     128     264       284       2.1       7.4      65.5      9.37
   02/02/2020 14:00      70.8      69.0       37     42.5      0.00      7.53      59.3     0.47      1012.4     4.5      SE   136   7.8      SE     133     263       254       2.6       7.1      65.2      9.37
   02/02/2020 13:50      70.4      69.3       36     41.7      0.00      7.53      59.3     0.47      1012.5     3.5      SE   128   7.1     ESE     124     264       232       2.0       6.6      64.9      9.37
   02/02/2020 13:40      71.4      70.1       36     42.5      0.00      7.53      59.3     0.47      1012.6     3.0       E    95   6.1      NE      51     264       155       1.6       6.3      64.6      9.38
   02/02/2020 13:30      71.9      71.3       35     42.8      0.00      7.53      59.2     0.47      1012.7     3.4     ESE   104   7.0      SE     126     263       289       2.0       6.0      64.3      9.38
   02/02/2020 13:20      72.3      71.3       34     41.7      0.00      7.53      59.2     0.47      1012.9     4.0     ESE   111   7.8      SE     137     263       375       2.7       5.7      63.7      9.38
   02/02/2020 13:10      72.3      71.4       33     41.2      0.00      7.53      59.2     0.47      1013.2     4.0     ESE   119   9.7     SSE     147     263       358       2.2       5.2      63.2      9.38
   02/02/2020 13:00      71.8      70.5       31     39.4      0.00      7.53      59.2     0.47      1013.4     4.4       E    87   9.2     ENE      69     263       363       2.1       4.9      62.7      9.38
   02/02/2020 12:50      72.4      71.7       30     39.2      0.00      7.53      59.1     0.47      1013.5     3.7     ESE   102   6.4     ESE     117     263       343       2.2       4.5      62.1      9.38
   02/02/2020 12:40      73.0      71.6       31     40.3      0.00      7.53      59.1     0.47      1013.7     3.6     ESE   108   6.7      SE     144     263       368       2.2       4.1      61.5      9.38
   02/02/2020 12:30      73.2      72.1       30     39.5      0.00      7.53      59.1     0.47      1013.9     3.5      SE   132   6.3     ESE     103     263       376       2.1       3.8      61.0      9.39
   02/02/2020 12:20      72.9      71.8       29     38.1      0.00      7.53      59.0     0.47      1014.0     3.8     ESE   113   9.8      SE     126     263       377       2.4       3.4      60.2      9.39
   02/02/2020 12:10      73.2      72.3       30     39.4      0.00      7.53      59.0     0.47      1014.4     2.5       E    82   5.3      SE     128     263       369       1.4       3.0      59.6      9.39
   02/02/2020 12:00      72.4      71.9       30     38.8      0.00      7.53      59.0     0.47      1014.6     2.9      NE    51   6.1     ENE      71     263       366       1.0       2.8      58.9      9.39
   02/02/2020 11:50      72.5      71.8       29     37.8      0.00      7.53      59.0     0.47      1014.7     2.9     ENE    69   6.5       E      88     263       365       1.5       2.6      58.3      9.39
   02/02/2020 11:40      72.4      71.7       28     36.9      0.00      7.53      59.0     0.47      1014.8     3.3     ENE    78   6.6      NE      50     263       366       1.4       2.4      57.6      9.39
   02/02/2020 11:30      72.9      72.3       27     36.6      0.00      7.53      59.0     0.47      1015.1     3.0       E    86   7.1     ESE     111     263       364       1.8       2.1      57.0      9.39
   02/02/2020 11:20      72.6      72.3       26     35.4      0.00      7.53      58.9     0.47      1015.3     2.7     ENE    59   4.9     ENE      65     263       362       1.2       1.8      56.3      9.39
   02/02/2020 11:10      72.4      71.3       25     34.1      0.00      7.53      59.0     0.47      1015.3     3.0     ENE    59   6.3      NE      47     263       358       1.1       1.6      55.6      9.39
   02/02/2020 11:00      72.2      71.4       25     34.3      0.00      7.53      59.0     0.47      1015.4     2.8     ENE    63   5.1     ENE      57     263       349       1.0       1.5      55.0      9.39
   02/02/2020 10:50      71.6      71.0       26     34.9      0.00      7.53      59.0     0.47      1015.5     2.6     ENE    62   4.6      NE      48     263       338       1.0       1.3      54.3      9.39
   02/02/2020 10:40      71.2      70.4       28     35.7      0.00      7.53      59.0     0.47      1015.6     2.2     ENE    63   4.1     ESE     106     263       331       1.0       1.1      53.7      9.39
   02/02/2020 10:30      71.1      70.1       27     35.0      0.00      7.53      59.1     0.47      1015.8     1.3      NE    55   2.8     NNE      31     264       321       0.3       1.0      53.1      9.39
   02/02/2020 10:20      70.1      69.0       28     35.1      0.00      7.53      59.3     0.47      1015.9     1.1      NE    43   2.5     NNE      28     263       308       0.3       0.9      52.6      9.39
   02/02/2020 10:10      69.0      68.2       28     34.7      0.00      7.53      59.2     0.47      1016.0     0.8       N    11   2.9     NNE      31     263       295       0.2       0.9      52.0      9.39
   02/02/2020 10:00      68.4      67.8       29     34.7      0.00      7.53      59.3     0.47      1016.0     0.9      NE    37   2.1      NE      37     264       280       0.2       0.8      51.6      9.39
   02/02/2020 09:50      68.5      67.5       30     35.4      0.00      7.53      59.4     0.47      1016.1     0.6       N     6   2.1     NNE      12     264       264       0.1       0.8      51.1      9.39
   02/02/2020 09:40      68.0      66.8       30     35.0      0.00      7.53      59.0     0.47      1016.1     0.3       N   358   1.7     NNE      25     264       250       0.0       0.8      50.4      9.39
   02/02/2020 09:30      67.4      66.2       32     35.9      0.00      7.53      59.0     0.47      1016.2     0.5     NNW   330   1.9      NW     318     264       238       0.2       0.8      50.0      9.39
   02/02/2020 09:20      66.3      63.6       35     36.7      0.00      7.53      59.1     0.47      1016.4     0.1       N   351   1.0     NNE      13     264       223       0.0       0.8      49.7      9.39
   02/02/2020 09:10      63.8      62.6       38     37.4      0.00      7.53      59.1     0.47      1016.4     0.8     NNE    21   1.8     NNE      29     264       207       0.1       0.7      49.4      9.39
   02/02/2020 09:00      62.7      61.4       41     37.8      0.00      7.53      59.6     0.47      1016.3     0.4      NE    34   1.3     NNE      29     264       190       0.1       0.7      49.4      9.39
   02/02/2020 08:50      61.5      60.5       43     38.4      0.00      7.53      59.6     0.47      1016.3     0.6      NE    50   1.5      NE      42     265       172       0.2       0.7      49.2      9.39
   02/02/2020 08:40      61.2      59.5       43     38.1      0.00      7.53      59.5     0.47      1016.3     0.3      NE    38   1.1     NNE      28     266       155       0.0       0.7      48.9      9.39
   02/02/2020 08:30      59.5      56.6       47     38.1      0.00      7.53      59.4     0.47      1016.2     0.0       E    84   0.8       E      94     266       136       0.0       0.7      48.6      9.39
   02/02/2020 08:20      56.5      53.6       52     37.8      0.00      7.53      59.9     0.47      1016.2     0.1     ENE    64   0.9     ENE      65     267       105       0.0       0.7      48.7      9.39
   02/02/2020 08:10      53.7      52.3       55     37.3      0.00      7.53      59.6     0.47      1016.1     0.4      SE   146   1.2      SE     140     269        36       0.0       0.7      48.4      9.39
   02/02/2020 08:00      53.1      49.6       57     36.5      0.00      7.53      59.7     0.47      1016.2     0.0     SSE   150   0.5     SSE     151     269        68       0.0       0.7      48.3      9.39
   02/02/2020 07:50      49.5      47.8       62     36.0      0.00      7.53      59.7     0.47      1016.2     0.2      SE   133   1.2      SE     146     269       -34       0.0       0.7      48.1      9.39
   02/02/2020 07:40      47.7      44.9       67     36.0      0.00      7.53      60.0     0.47      1016.3     0.0     SSE   156   0.7       S     176     269       -37       0.0       0.7      48.3      9.39
   02/02/2020 07:30      44.9      44.0       71     35.4      0.00      7.53      59.9     0.47      1016.3     0.4      SE   130   1.7      SE     142     269       -38       0.0       0.7      48.3      9.39
   02/02/2020 07:20      44.2      43.5       72     35.4      0.00      7.53      60.1     0.47      1016.3     0.1     SSW   202   0.8     WNW     296     269       -42       0.0       0.6      48.5      9.39
   02/02/2020 07:10      43.7      43.0       73     35.2      0.00      7.53      59.8     0.47      1016.2     1.0      SE   145   1.8      SE     142     269       -46       0.2       0.6      48.3      9.39
   02/02/2020 07:00      43.5      42.8       72     34.6      0.00      7.53      60.0     0.47      1016.3     0.8     SSE   153   1.4      SE     137     269       -50       0.4       0.6      48.6      9.39
   02/02/2020 06:50      43.6      43.2       70     34.5      0.00      7.53      60.2     0.47      1016.3     0.3       S   178   1.2       S     188     269       -52       0.0       0.5      48.8      9.39
   02/02/2020 06:40      43.9      43.3       70     34.5      0.00      7.53      59.9     0.47      1016.2     0.2     WSW   250   1.3       S     188     269       -54       0.0       0.5      48.9      9.39
   02/02/2020 06:30      43.8      43.1       71     34.5      0.00      7.53      60.3     0.47      1016.1     0.6       S   183   1.5      SE     145     269       -54       0.2       0.5      49.1      9.39
   02/02/2020 06:20      43.8      43.1       71     34.7      0.00      7.53      60.1     0.47      1016.2     0.7       S   176   1.2       S     191     269       -54       0.0       0.5      49.3      9.39
   02/02/2020 06:10      44.0      43.1       70     34.7      0.00      7.53      60.1     0.47      1016.1     0.3      SE   140   1.1      SE     143     269       -55       0.0       0.5      49.5      9.39
   02/02/2020 06:00      44.2      43.7       70     34.9      0.00      7.53      60.0     0.47      1016.1     0.0       N     0   0.0      NE      50     269       -55       0.0       0.5      49.6      9.39
   02/02/2020 05:50      44.4      44.0       70     35.0      0.00      7.53      60.1     0.47      1016.0     0.0       N     0   0.0       S     184     269       -54       0.0       0.5      49.8      9.39
   02/02/2020 05:40      44.7      44.0       70     35.1      0.00      7.53      60.2     0.47      1016.0     0.7     SSE   167   1.4     SSE     162     269       -54       0.0       0.5      50.1      9.40
   02/02/2020 05:30      44.3      43.7       71     35.0      0.00      7.53      60.2     0.47      1016.0     0.6       S   169   1.1     SSE     147     269       -55       0.0       0.5      50.3      9.40
   02/02/2020 05:20      45.0      44.2       68     34.5      0.00      7.53      60.4     0.47      1016.0     0.3     SSE   147   0.9      SE     142     269       -56       0.0       0.5      50.6      9.40
   02/02/2020 05:10      45.0      44.6       67     34.7      0.00      7.53      60.5     0.47      1015.9     0.1      SE   145   0.7      SE     144     269       -56       0.0       0.5      50.8      9.40
   02/02/2020 05:00      45.0      44.5       67     34.6      0.00      7.53      60.5     0.47      1016.0     0.1       S   174   0.9       S     190     269       -57       0.0       0.5      51.0      9.40
   02/02/2020 04:50      45.1      44.5       67     34.7      0.00      7.53      60.6     0.47      1016.0     0.0       N     0   0.0      SE     136     269       -57       0.0       0.5      51.3      9.40
   02/02/2020 04:40      45.2      44.9       68     35.2      0.00      7.53      60.5     0.47      1015.9     0.2      SE   136   0.9      SE     140     269       -57       0.0       0.5      51.5      9.40
   02/02/2020 04:30      45.1      44.7       68     34.9      0.00      7.53      60.6     0.47      1016.1     0.5     SSE   164   1.1     SSE     156     269       -57       0.2       0.5      51.7      9.40
   02/02/2020 04:20      46.3      45.0       65     34.8      0.00      7.53      60.9     0.47      1016.2     0.5     SSE   169   1.5     SSE     153     269       -57       0.3       0.4      52.1      9.40
   02/02/2020 04:10      46.2      45.8       66     35.3      0.00      7.53      60.8     0.47      1016.3     0.0       S   175   0.5       S     175     269       -56       0.0       0.4      52.2      9.40
   02/02/2020 04:00      46.7      46.0       65     35.1      0.00      7.53      60.9     0.47      1016.2     0.1      SE   144   0.7      SE     144     269       -57       0.0       0.4      52.5      9.40
   02/02/2020 03:50      46.7      46.3       65     35.2      0.00      7.53      60.8     0.47      1016.3     0.5     SSE   148   1.5      SE     139     269       -55       0.0       0.4      52.7      9.40
   02/02/2020 03:40      46.5      46.0       65     34.9      0.00      7.53      60.6     0.47      1016.4     0.0      SE   142   0.5      SE     142     268       -56       0.0       0.4      52.6      9.40
   02/02/2020 03:30      46.4      45.7       66     35.5      0.00      7.53      60.9     0.47      1016.5     0.4     SSE   157   0.9     SSE     158     268       -57       0.2       0.4      53.1      9.40
   02/02/2020 03:20      47.0      45.8       64     35.2      0.00      7.53      61.0     0.47      1016.6     1.2     SSE   147   2.3     SSE     150     268       -57       0.3       0.3      53.3      9.40
   02/02/2020 03:10      47.2      46.8       63     35.2      0.00      7.53      60.6     0.47      1016.7     0.1      SE   144   0.9      SE     143     268       -57       0.0       0.3      53.3      9.40
   02/02/2020 03:00      47.3      46.8       64     35.6      0.00      7.53      60.7     0.47      1016.9     0.3       W   277   1.3       S     182     268       -57       0.1       0.3      53.4      9.40
   02/02/2020 02:50      47.4      46.8       64     35.6      0.00      7.53      60.8     0.47      1017.1     1.2     SSE   148   2.2      SE     143     268       -57       0.3       0.3      53.8      9.40
   02/02/2020 02:40      47.7      47.1       64     35.8      0.00      7.53      61.0     0.47      1017.2     0.4       S   179   1.3     SSE     168     268       -57       0.0       0.2      54.2      9.41
   02/02/2020 02:30      47.9      47.1       64     36.1      0.00      7.53      61.0     0.47      1017.4     0.4     SSE   166   1.1     SSE     164     268       -57       0.0       0.2      54.4      9.41
   02/02/2020 02:20      47.8      47.2       64     36.0      0.00      7.53      60.9     0.47      1017.4     0.2     SSE   153   0.9       S     176     268       -57       0.0       0.2      54.6      9.41
   02/02/2020 02:10      48.6      47.6       61     35.6      0.00      7.53      61.1     0.47      1017.6     0.5       S   180   1.7      SE     138     268       -57       0.0       0.2      54.8      9.41
   02/02/2020 02:00      48.9      48.3       61     36.0      0.00      7.53      60.9     0.47      1017.6     0.1       S   181   0.7      SW     224     268       -58       0.0       0.2      55.0      9.41
   02/02/2020 01:50      49.2      48.6       61     36.0      0.00      7.53      61.0     0.47      1017.6     0.2       S   186   1.1       S     171     267       -58       0.0       0.2      55.3      9.41
   02/02/2020 01:40      49.3      48.8       61     36.3      0.00      7.53      61.4     0.47      1017.7     0.4     SSE   155   1.1      SE     145     267       -58       0.0       0.2      55.8      9.41
   02/02/2020 01:30      48.9      48.3       62     36.3      0.00      7.53      61.4     0.47      1017.9     0.8     SSE   154   1.7      SE     144     267       -58       0.2       0.2      56.0      9.41
   02/02/2020 01:20      50.2      48.8       59     36.0      0.00      7.53      61.3     0.47      1018.1     1.1     SSE   147   1.7      SE     138     267       -59       0.2       0.2      56.2      9.41
   02/02/2020 01:10      50.0      49.3       59     35.9      0.00      7.53      61.1     0.47      1018.2     0.3       W   267   1.1     SSE     159     267       -58       0.0       0.1      56.3      9.41
   02/02/2020 01:00      50.1      49.3       59     36.1      0.00      7.53      61.1     0.47      1018.3     1.1     SSE   160   2.1      SE     142     267       -59       0.3       0.1      56.4      9.41
   02/02/2020 00:50      50.0      49.5       60     36.2      0.00      7.53      61.3     0.47      1018.4     0.2     SSW   210   1.2      SW     232     267       -59       0.0       0.0      56.8      9.41
   02/02/2020 00:40      50.3      49.7       58     36.0      0.00      7.53      61.4     0.47      1018.6     0.5     SSE   148   1.3      SE     136     267       -59       0.2       0.0      57.1      9.41
   02/02/2020 00:30      51.1      50.2       56     35.8      0.00      7.53      61.3     0.47      1018.7     0.9     SSE   159   2.5      SE     142     267       -58       0.0       0.0      57.3      9.41
   02/02/2020 00:20      51.1      50.5       57     36.0      0.00      7.53      61.3     0.47      1018.8     0.2     SSE   147   1.0      SE     145     267       -59       0.0       0.0      57.5      9.41
   02/02/2020 00:10      51.1      50.6       57     36.0      0.00      7.53      61.3     0.47      1018.9     0.1       E    93   1.0       E      98     267       -59       0.0       0.0      57.8      9.41
   02/02/2020 00:00      52.0      50.6       55     35.9      0.00      7.53      61.8     0.47      1019.0     0.7     SSE   161   1.2      SE     141     267       -59       0.3      11.0      58.4      9.41
   02/01/2020 23:50      52.2      51.4       54     36.0      0.00      7.53      61.8     0.47      1019.2     0.8       S   179   1.7      SW     226     267       -59       0.3      11.0      58.6      9.42
   02/01/2020 23:40      52.4      51.8       54     35.8      0.00      7.53      61.8     0.47      1019.2     1.1      SW   229   2.3     WSW     255     267       -58       0.0      10.9      58.9      9.42
   02/01/2020 23:30      52.4      51.9       54     36.0      0.00      7.53      61.8     0.47      1019.2     0.0      SW   218   0.2      SW     218     266       -60       0.0      10.9      59.1      9.42
   02/01/2020 23:20      53.0      52.1       53     36.0      0.00      7.53      61.8     0.47      1019.2     0.2     ESE   107   1.1       E      93     267       -60       0.0      10.9      59.4      9.42
   02/01/2020 23:10      52.8      52.1       54     36.4      0.00      7.53      61.8     0.47      1019.3     0.0     WSW   237   0.7     SSW     207     266       -59       0.2      10.9      59.7      9.42
   02/01/2020 23:00      54.4      52.6       52     36.2      0.00      7.53      61.8     0.48      1019.4     0.7      SE   142   1.4      SE     136     266       -60       0.0      10.9      60.0      9.42
   02/01/2020 22:50      54.8      54.2       49     35.9      0.00      7.53      61.9     0.48      1019.4     0.1     SSE   166   0.9       S     172     266       -60       0.0      10.9      60.2      9.42
   02/01/2020 22:40      54.8      54.4       50     36.1      0.00      7.53      61.8     0.48      1019.5     0.0     SSE   155   0.7     SSE     156     266       -60       0.0      10.9      60.5      9.42
   02/01/2020 22:30      54.8      54.0       50     36.2      0.00      7.53      61.8     0.47      1019.6     0.3     SSE   163   1.3       S     181     266       -60       0.1      10.9      60.8      9.42
   02/01/2020 22:20      55.1      54.6       49     35.9      0.00      7.53      61.8     0.48      1019.7     0.2      SE   144   1.0      SE     138     266       -60       0.0      10.8      61.0      9.43
   02/01/2020 22:10      54.8      54.5       50     36.6      0.00      7.53      61.8     0.48      1019.7     0.7     SSE   153   1.5     SSE     150     266       -60       0.5      10.8      61.2      9.43
   02/01/2020 22:00      55.6      54.6       49     36.2      0.00      7.53      61.8     0.47      1019.7     0.9     SSE   157   1.4     SSE     148     266       -59       0.4      10.8      61.5      9.43
   02/01/2020 21:50      55.7      55.4       48     36.2      0.00      7.53      61.9     0.48      1019.9     0.3     SSE   158   0.9     SSE     163     266       -60       0.0      10.7      61.9      9.43
   02/01/2020 21:40      56.1      55.5       47     36.1      0.00      7.53      61.8     0.48      1020.0     0.3       S   177   1.0     SSE     148     266       -61       0.0      10.7      62.2      9.43
   02/01/2020 21:30      56.5      55.9       47     36.3      0.00      7.53      61.8     0.48      1020.1     0.7     SSE   158   1.2     SSE     147     266       -61       0.0      10.7      62.5      9.43
   02/01/2020 21:20      56.9      56.2       46     35.9      0.00      7.53      60.9     0.48      1020.2     0.3      SE   142   1.1      SE     135     266       -62       0.0      10.7      62.0      9.43
   02/01/2020 21:10      57.3      56.8       47     36.8      0.00      7.53      60.9     0.48      1020.1     0.7     SSE   156   1.3     SSE     153     266       -62       0.1      10.7      62.4      9.43
   02/01/2020 21:00      57.5      57.0       46     36.8      0.00      7.53      60.9     0.48      1020.0     0.5     SSE   163   1.3     SSE     169     266       -63       0.2      10.7      62.6      9.43
   02/01/2020 20:50      58.2      57.3       44     36.2      0.00      7.53      61.0     0.47      1020.1     0.4     SSE   160   1.0     SSE     152     266       -64       0.0      10.6      63.0      9.43
   02/01/2020 20:40      59.0      58.0       43     36.2      0.00      7.53      60.9     0.48      1020.2     0.2       S   188   1.0     SSE     156     266       -64       0.2      10.6      63.3      9.44
   02/01/2020 20:30      59.2      58.5       42     36.0      0.00      7.53      61.0     0.48      1020.2     0.0     SSW   212   0.6     SSW     213     266       -65       0.0      10.6      63.8      9.44
   02/01/2020 20:20      59.9      59.0       44     37.2      0.00      7.53      61.2     0.48      1020.1     0.5       S   182   1.2       S     183     266       -66       0.0      10.6      64.3      9.44
   02/01/2020 20:10      60.4      59.8       42     37.0      0.00      7.53      61.2     0.48      1020.1     1.1     SSE   152   1.8     SSE     156     265       -68       0.8      10.6      64.6      9.44
   02/01/2020 20:00      61.0      60.3       41     36.8      0.00      7.53      61.2     0.48      1020.2     1.6      SE   145   2.1      SE     145     265       -68       0.8      10.4      64.8      9.44
   02/01/2020 19:50      60.9      60.2       41     36.8      0.00      7.53      61.1     0.48      1020.2     1.2     SSE   157   1.9     SSE     155     265       -68       0.7      10.3      65.1      9.44
   02/01/2020 19:40      61.7      60.9       39     36.2      0.00      7.53      61.0     0.48      1020.2     0.9     SSE   158   1.5     SSE     147     265       -68       0.5      10.2      65.4      9.44
   02/01/2020 19:30      62.9      61.5       38     36.0      0.00      7.53      61.0     0.48      1020.2     1.1     SSE   163   1.6       S     171     265       -68       0.4      10.1      65.8      9.45
   02/01/2020 19:20      64.0      62.8       35     35.6      0.00      7.53      61.0     0.48      1020.2     0.9     SSE   162   1.5      SE     143     264       -69       0.4      10.0      66.0      9.45
   02/01/2020 19:10      65.5      63.7       34     35.7      0.00      7.53      60.9     0.48      1020.1     1.3     SSE   160   2.2       S     170     264       -70       0.9      10.0      66.3      9.45
   02/01/2020 19:00      66.4      65.3       32     34.8      0.00      7.53      61.0     0.47      1020.0     1.1     SSE   167   1.6       S     181     264       -71       1.2       9.8      66.7      9.45
   02/01/2020 18:50      67.1      66.3       30     34.5      0.00      7.53      60.9     0.48      1020.0     0.8       S   179   1.6       S     176     264       -71       0.6       9.6      67.0      9.45
   02/01/2020 18:40      68.8      66.8       30     34.7      0.00      7.53      60.9     0.47      1020.0     1.1       S   170   2.3     SSW     204     264       -73       1.1       9.5      67.4      9.45
   02/01/2020 18:30      69.5      67.9       28     34.1      0.00      7.53      60.8     0.47      1020.0     1.4     SSW   207   3.1     WSW     241     264       -73       0.4       9.3      67.7      9.45
   02/01/2020 18:20      69.5      68.3       28     34.6      0.00      7.53      60.8     0.47      1020.0     0.7      SW   228   1.7       S     175     264       -76       0.3       9.3      68.0      9.46
   02/01/2020 18:10      69.1      67.3       28     34.5      0.00      7.53      60.7     0.47      1019.9     1.5     SSW   205   3.0     WSW     239     264       -75       0.8       9.2      68.2      9.46
   02/01/2020 18:00      68.5      66.9       30     34.8      0.00      7.53      60.7     0.47      1020.0     2.5      SW   220   4.1      SW     218     263       -75       0.9       9.1      68.6      9.46
   02/01/2020 17:50      71.2      68.4       28     35.1      0.00      7.53      60.7     0.47      1019.9     1.1     SSE   166   1.8       S     185     263       -79       0.5       8.9      69.0      9.46
   02/01/2020 17:40      75.8      71.2       24     34.1      0.00      7.53      60.6     0.47      1019.8     1.7     SSW   202   2.7     SSW     206     263       -80       0.6       8.8      69.5      9.47
   02/01/2020 17:30      77.5      75.8       20     33.0      0.00      7.53      60.5     0.47      1019.8     0.9      NW   314   2.5      NW     314     262       -84       0.4       8.7      69.8      9.47
   02/01/2020 17:20      78.2      77.4       19     32.8      0.00      7.53      60.4     0.47      1019.8     1.3     NNW   336   4.3     WNW     287     262       -84       0.2       8.7      70.0      9.47
   02/01/2020 17:10      79.1      78.1       19     32.8      0.00      7.53      60.3     0.47      1019.8     1.5     NNW   333   3.6     NNE      32     263       -82       0.5       8.6      70.4      9.47
   02/01/2020 17:00      79.9      79.0       18     32.2      0.00      7.53      60.2     0.47      1019.8     2.6       N   355   7.6     NNW     337     262       -80       0.6       8.6      70.6      9.48
   02/01/2020 16:50      80.7      79.8       17     31.7      0.00      7.53      60.1     0.47      1019.8     2.2       N     0   6.3       N     354     262       -78       0.1       8.4      70.8      9.48
   02/01/2020 16:40      81.6      80.7       17     31.6      0.00      7.53      60.1     0.47      1019.9     3.2       N   357   6.0      NE      39     262       -29       0.3       8.4      70.9      9.48
   02/01/2020 16:30      82.2      81.4       16     31.5      0.00      7.53      60.1     0.47      1020.0     2.2       N   358   4.5       N       0     262       -17       0.2       8.4      71.0      9.48
   02/01/2020 16:20      82.7      81.9       15     30.5      0.00      7.53      60.2     0.47      1020.0     2.7     NNE    16   6.5     NNE      12     262         4       0.4       8.3      71.1      9.49
   02/01/2020 16:10      83.0      82.5       15     30.1      0.00      7.53      60.2     0.47      1020.0     2.9     NNE    11   6.2     NNE      15     262        28       0.6       8.3      71.0      9.49
   02/01/2020 16:00      83.6      82.8       15     30.2      0.00      7.53      60.0     0.47      1020.1     3.2     NNE    12   6.1     NNE      25     262        51       0.6       8.2      70.9      9.49
   02/01/2020 15:50      83.6      83.3       14     30.2      0.00      7.53      60.1     0.47      1020.2     2.7       N     9   5.7       N       0     262        74       0.8       8.1      70.8      9.49
   02/01/2020 15:40      84.0      83.4       14     29.8      0.00      7.53      60.0     0.47      1020.3     3.0       N   359   5.8       N       0     262        98       0.6       7.9      70.6      9.50
   02/01/2020 15:30      84.5      83.6       14     30.0      0.00      7.53      60.0     0.47      1020.4     2.9       N   349   5.7      NE      41     262       122       0.5       7.8      70.3      9.50
   02/01/2020 15:20      84.7      84.3       14     30.1      0.00      7.53      58.9     0.47      1020.5     2.2     NNE    12   5.7     NNW     336     262       143       0.9       7.7      69.3      9.50
   02/01/2020 15:10      85.4      84.4       14     29.6      0.00      7.53      59.0     0.47      1020.5     2.3       N     2   5.9      NE      40     261       163       0.5       7.6      69.0      9.50
   02/01/2020 15:00      85.2      84.6       14     29.8      0.00      7.53      59.0     0.47      1020.6     1.8       N     3   4.4      NW     310     261       182       1.0       7.5      68.6      9.50
   02/01/2020 14:50      85.3      84.4       14     29.6      0.00      7.53      59.3     0.47      1020.6     1.8       N   349   5.5       N      11     261       200       0.7       7.3      68.7      9.51
   02/01/2020 14:40      85.2      84.3       14     29.3      0.00      7.53      59.3     0.47      1020.8     2.5       N     6   5.1     NNE      11     261       218       0.7       7.2      68.2      9.51
   02/01/2020 14:30      85.1      84.1       14     29.5      0.00      7.53      59.1     0.47      1020.9     1.9     NNW   341   4.3       W     262     261       235       1.1       7.1      67.8      9.51
   02/01/2020 14:20      85.5      84.1       13     29.1      0.00      7.53      59.1     0.47      1020.9     2.5     NNE    17   5.1     NNW     349     261       250       1.0       6.9      67.3      9.51
   02/01/2020 14:10      85.6      84.4       13     29.1      0.00      7.53      59.0     0.47      1021.1     2.0       N     4   4.3     NNE      12     261       265       0.7       6.7      66.8      9.51
   02/01/2020 14:00      85.3      84.7       13     29.3      0.00      7.53      58.9     0.47      1021.2     1.7     NNW   336   4.9     WNW     288     261       280       1.3       6.6      66.2      9.51
   02/01/2020 13:50      86.2      84.7       13     28.8      0.00      7.53      59.0     0.47      1021.4     1.9     ENE    67   4.4      NE      40     261       292       0.9       6.4      65.7      9.51
   02/01/2020 13:40      85.8      84.5       13     29.0      0.00      7.53      58.4     0.47      1021.5     0.9     NNW   341   2.6       N       0     261       302       0.9       6.3      64.7      9.52
   02/01/2020 13:30      85.0      83.6       13     28.9      0.00      7.53      58.5     0.47      1021.7     1.3      NE    38   3.2       N     355     261       314       0.7       6.1      64.3      9.52
   02/01/2020 13:20      84.1      83.3       13     27.9      0.00      7.53      58.6     0.47      1021.7     1.8      NE    49   3.6       N     354     261       324       0.9       6.0      63.8      9.52
   02/01/2020 13:10      84.2      83.3       13     28.2      0.00      7.53      58.7     0.47      1021.9     2.4      NE    37   5.6     NNE      18     261       332       0.8       5.8      63.3      9.52
   02/01/2020 13:00      84.0      82.5       13     28.3      0.00      7.53      58.7     0.47      1022.0     1.5      NE    39   3.4     NNE      27     261       342       0.7       5.7      62.7      9.52
   02/01/2020 12:50      83.1      82.3       14     28.1      0.00      7.53      58.7     0.47      1022.3     2.6     NNE    31   6.1     ENE      70     261       350       1.2       5.6      62.2      9.52
   02/01/2020 12:40      82.6      81.8       14     27.6      0.00      7.53      58.6     0.47      1022.5     2.9     NNE    28   6.8      NE      48     261       356       1.3       5.4      61.5      9.52
   02/01/2020 12:30      83.1      81.8       13     27.6      0.00      7.53      58.6     0.47      1022.7     3.4     NNE    18   7.5      NE      36     261       360       1.2       5.2      60.8      9.52
   02/01/2020 12:20      82.6      81.8       14     28.6      0.00      7.53      58.5     0.47      1022.9     2.6     NNE    16   5.8      NW     319     262       363       0.7       5.0      60.2      9.52
   02/01/2020 12:10      81.8      81.1       15     28.6      0.00      7.53      58.6     0.47      1023.1     2.8     NNE    20   5.7      NE      45     262       366       0.9       4.8      59.4      9.52
   02/01/2020 12:00      81.6      80.8       15     28.8      0.00      7.53      58.6     0.47      1023.3     3.4       N    10   6.7     NNE      20     262       366       0.7       4.7      58.8      9.52
   02/01/2020 11:50      81.5      80.8       15     29.3      0.00      7.53      58.7     0.47      1023.4     2.4       N     3   4.8     NNE      30     262       365       0.8       4.6      58.1      9.52
   02/01/2020 11:40      81.4      80.1       15     29.7      0.00      7.53      58.7     0.47      1023.6     1.9       N   354   6.0     NNE      21     262       362       0.8       4.4      57.5      9.52
   02/01/2020 11:30      80.1      79.3       16     28.8      0.00      7.53      58.7     0.47      1023.9     2.3     NNE    16   5.5     NNE      17     262       359       0.7       4.3      56.9      9.52
   02/01/2020 11:20      79.8      79.2       16     28.8      0.00      7.53      58.7     0.47      1024.1     3.3       N    10   6.6      NE      34     262       355       1.0       4.2      56.3      9.52
   02/01/2020 11:10      79.7      79.2       16     29.2      0.00      7.53      58.8     0.47      1024.2     2.4       N     7   5.1     NNW     345     262       348       0.8       4.0      55.5      9.52
   02/01/2020 11:00      79.3      77.8       17     30.3      0.00      7.53      58.8     0.47      1024.4     1.5     WNW   294   4.1     WNW     294     262       342       0.7       3.9      54.8      9.52
   02/01/2020 10:50      78.6      78.0       17     30.2      0.00      7.53      58.7     0.47      1024.6     2.6     WNW   285   5.5       W     273     262       335       1.9       3.8      54.1      9.52
   02/01/2020 10:40      78.5      77.6       18     31.0      0.00      7.53      58.7     0.47      1024.8     1.5      NW   306   4.2       W     271     262       325       1.0       3.4      53.4      9.53
   02/01/2020 10:30      77.6      76.4       18     30.7      0.00      7.53      58.7     0.47      1024.9     1.3     NNW   335   3.6     WNW     297     262       315       0.6       3.3      52.8      9.53
   02/01/2020 10:20      77.2      76.0       19     30.8      0.00      7.53      58.8     0.47      1025.0     1.3     NNW   348   3.5       N      10     262       302       0.4       3.2      52.3      9.53
   02/01/2020 10:10      76.5      75.6       19     31.2      0.00      7.53      58.8     0.47      1025.1     0.9     NNW   349   2.9     WNW     292     262       290       0.3       3.1      51.8      9.53
   02/01/2020 10:00      75.8      74.1       20     31.4      0.00      7.53      58.9     0.47      1025.0     0.6       N     8   2.1     NNE      22     262       277       0.4       3.1      51.3      9.53
   02/01/2020 09:50      74.0      72.3       23     32.9      0.00      7.53      58.9     0.47      1025.0     0.8     NNW   329   2.5      NE      39     263       263       0.4       3.0      50.8      9.53
   02/01/2020 09:40      72.5      69.8       31     38.9      0.00      7.53      59.0     0.47      1025.1     0.8     NNE    32   3.2     NNE      22     263       250       0.5       2.9      50.3      9.53
   02/01/2020 09:30      69.8      68.5       34     39.4      0.00      7.53      59.0     0.47      1025.1     0.9     NNE    25   2.6       W     267     264       235       0.2       2.8      50.0      9.53
   02/01/2020 09:20      68.9      66.5       36     39.8      0.00      7.53      59.1     0.47      1025.2     0.1       N   359   1.2       N       0     264       219       0.0       2.8      49.5      9.53
   02/01/2020 09:10      66.5      63.9       38     39.0      0.00      7.53      59.1     0.47      1025.4     0.3       N     9   0.9       N       9     264       204       0.0       2.8      49.3      9.53
   02/01/2020 09:00      64.3      62.5       38     37.7      0.00      7.53      59.1     0.47      1025.4     0.7      NE    44   1.7     NNE      19     264       187       0.0       2.8      49.0      9.53
   02/01/2020 08:50      62.9      61.1       38     36.6      0.00      7.53      59.1     0.47      1025.4     0.8      SE   133   1.9      SE     136     264       170       0.4       2.8      48.8      9.53
   02/01/2020 08:40      60.9      57.8       42     36.0      0.00      7.53      59.3     0.47      1025.5     0.2     NNE    25   1.7     NNE      29     264       151       0.1       2.7      48.6      9.53
   02/01/2020 08:30      57.8      56.6       43     35.0      0.00      7.53      59.3     0.47      1025.5     0.8       N    10   1.9     NNE      20     264       134       0.0       2.7      48.4      9.53
   02/01/2020 08:20      57.4      56.7       43     34.6      0.00      7.53      59.1     0.47      1025.4     0.4       E    83   1.1      NE      56     265       107       0.0       2.7      48.1      9.53
   02/01/2020 08:10      57.1      53.7       43     33.6      0.00      7.53      59.5     0.47      1025.3     0.0       N     0   0.0     ENE      71     266        48       0.0       2.7      48.0      9.53
   02/01/2020 08:00      53.7      51.0       49     33.7      0.00      7.53      59.4     0.47      1025.4     0.4      NE    51   2.2     NNE      33     266        49       0.0       2.7      47.8      9.53
   02/01/2020 07:50      51.3      48.9       53     33.2      0.00      7.53      59.5     0.47      1025.4     0.6     SSW   204   1.9     SSW     212     267       -38       0.3       2.7      47.8      9.53
   02/01/2020 07:40      49.4      46.7       55     32.9      0.00      7.53      59.4     0.47      1025.4     0.8     ENE    67   2.2      SE     139     267       -36       0.0       2.6      47.7      9.53
   02/01/2020 07:30      46.6      44.9       59     32.0      0.00      7.53      59.5     0.47      1025.4     0.6       S   179   1.7      SE     140     267       -37       0.4       2.6      47.8      9.53
   02/01/2020 07:20      45.3      44.9       60     31.9      0.00      7.53      59.5     0.47      1025.4     0.5      NE    39   1.4      SE     131     267       -42       0.0       2.6      47.8      9.53
   02/01/2020 07:10      45.6      44.6       58     31.2      0.00      7.53      59.5     0.47      1025.4     1.1     SSE   164   2.8     SSW     210     267       -46       0.5       2.6      47.9      9.53
   02/01/2020 07:00      45.2      44.4       59     31.6      0.00      7.53      59.6     0.47      1025.3     0.9       E    95   2.5       N     350     267       -49       0.3       2.5      48.1      9.54
   02/01/2020 06:50      45.5      44.9       57     30.8      0.00      7.53      59.7     0.47      1025.3     0.8     SSE   149   1.5       S     179     267       -52       0.0       2.4      48.3      9.54
   02/01/2020 06:40      45.1      44.6       56     30.1      0.00      7.53      59.9     0.47      1025.3     0.6       S   180   1.8     SSW     193     267       -53       0.2       2.4      48.5      9.54
   02/01/2020 06:30      45.3      44.6       57     30.5      0.00      7.53      59.8     0.47      1025.2     0.2     SSE   163   0.9       S     181     267       -54       0.0       2.4      48.6      9.54
   02/01/2020 06:20      45.6      45.0       55     30.3      0.00      7.53      60.0     0.47      1025.1     0.4     SSE   160   1.2       S     169     267       -55       0.0       2.4      49.0      9.54
   02/01/2020 06:10      45.6      45.3       55     30.4      0.00      7.53      60.1     0.47      1025.0     0.0     NNE    17   0.7     NNW     343     267       -55       0.0       2.3      49.2      9.54
   02/01/2020 06:00      46.3      45.5       54     30.0      0.00      7.53      59.9     0.47      1024.9     0.5     SSE   156   1.6       S     185     266       -54       0.1       2.3      49.2      9.54
   02/01/2020 05:50      46.3      45.9       52     29.5      0.00      7.53      59.9     0.47      1024.9     0.4     SSW   191   1.6     SSW     206     266       -55       0.3       2.3      49.3      9.54
   02/01/2020 05:40      46.6      46.1       53     30.1      0.00      7.53      60.3     0.47      1024.8     0.4       E    87   1.7     SSE     157     266       -55       0.3       2.3      49.8      9.54
   02/01/2020 05:30      46.6      46.1       54     30.4      0.00      7.53      59.9     0.47      1024.7     0.4       S   171   1.6       S     179     266       -55       0.3       2.2      49.7      9.54
   02/01/2020 05:20      46.5      45.8       54     30.3      0.00      7.53      60.0     0.47      1024.6     0.7     SSE   164   1.3     SSE     167     266       -55       0.0       2.2      49.8      9.55
   02/01/2020 05:10      46.6      46.1       52     29.7      0.00      7.53      59.9     0.47      1024.6     1.0     SSE   164   2.4     SSW     195     266       -56       0.6       2.1      50.0      9.55
   02/01/2020 05:00      47.8      46.6       49     29.3      0.00      7.53      60.0     0.47      1024.6     0.7      SE   146   2.3       S     179     266       -56       0.4       2.0      50.2      9.55
   02/01/2020 04:50      47.9      47.2       49     29.2      0.00      7.53      60.3     0.47      1024.7     0.6       S   181   1.7       S     172     266       -57       0.5       2.0      50.7      9.55
   02/01/2020 04:40      48.2      47.3       49     29.4      0.00      7.53      60.1     0.47      1024.7     0.7     SSE   163   1.9       S     179     266       -57       0.5       1.9      50.7      9.55
   02/01/2020 04:30      48.3      47.8       48     29.4      0.00      7.53      60.1     0.47      1024.7     1.6       S   179   3.4     SSE     154     266       -58       1.1       1.8      50.9      9.55
   02/01/2020 04:20      48.9      48.2       46     28.6      0.00      7.53      60.0     0.47      1024.7     0.6       S   181   4.1       N     349     266       -57       0.4       1.6      51.0      9.55
   02/01/2020 04:10      49.4      48.8       44     28.4      0.00      7.53      60.1     0.47      1024.7     0.0     SSE   159   0.7     SSE     153     266       -57       0.0       1.6      51.3      9.55
   02/01/2020 04:00      49.9      48.8       43     28.2      0.00      7.53      60.2     0.47      1024.7     0.8     SSE   153   2.4     SSE     153     266       -57       0.6       1.6      51.5      9.55
   02/01/2020 03:50      49.3      48.8       44     28.0      0.00      7.53      60.1     0.47      1024.7     1.1     SSW   208   2.6     SSE     164     266       -57       0.6       1.5      51.6      9.56
   02/01/2020 03:40      48.9      48.2       45     28.3      0.00      7.53      60.0     0.47      1024.7     1.0      SW   229   3.0     SSE     156     266       -57       0.6       1.4      51.7      9.56
   02/01/2020 03:30      48.9      48.3       45     28.3      0.00      7.53      60.3     0.47      1024.6     0.1      NW   306   1.2       N     355     266       -57       0.1       1.3      52.2      9.56
   02/01/2020 03:20      49.5      48.8       44     28.0      0.00      7.53      60.3     0.47      1024.6     0.6     SSE   151   1.9       S     184     266       -58       0.4       1.2      52.3      9.56
   02/01/2020 03:10      50.5      49.4       43     28.2      0.00      7.53      60.3     0.47      1024.6     0.4     NNW   334   2.2     NNE      17     266       -58       0.2       1.2      52.5      9.56
   02/01/2020 03:00      51.1      50.3       41     28.0      0.00      7.53      60.4     0.47      1024.6     0.7     ESE   114   2.3     SSE     147     266       -57       0.1       1.1      52.8      9.56
   02/01/2020 02:50      51.4      50.5       42     28.4      0.00      7.53      60.5     0.47      1024.5     0.7     SSE   153   1.6     SSE     157     266       -57       0.2       1.1      53.1      9.56
   02/01/2020 02:40      51.4      51.1       40     27.7      0.00      7.53      60.5     0.47      1024.5     0.8     SSE   164   2.4       S     184     266       -57       0.4       1.1      53.2      9.56
   02/01/2020 02:30      51.8      50.9       41     28.3      0.00      7.53      60.6     0.47      1024.5     1.0     SSE   154   1.9     SSE     166     266       -57       0.2       1.0      53.6      9.57
   02/01/2020 02:20      51.9      50.8       39     27.3      0.00      7.53      60.3     0.47      1024.5     2.0     SSW   205   3.7      SW     221     266       -56       0.7       1.0      53.5      9.57
   02/01/2020 02:10      51.7      50.6       40     27.8      0.00      7.53      60.5     0.47      1024.5     0.5       S   191   2.0     SSW     200     266       -58       0.2       0.9      53.9      9.57
   02/01/2020 02:00      52.7      51.7       38     27.7      0.00      7.53      60.6     0.47      1024.4     0.2     SSE   164   1.0       S     185     266       -58       0.1       0.8      54.2      9.57
   02/01/2020 01:50      52.9      52.4       37     27.1      0.00      7.53      60.3     0.47      1024.4     0.5     SSE   164   1.4     SSE     169     266       -57       0.0       0.8      54.1      9.57
   02/01/2020 01:40      53.0      52.6       37     27.0      0.00      7.53      60.3     0.47      1024.4     0.4     SSE   168   1.3     SSE     150     265       -57       0.2       0.8      54.3      9.57
   02/01/2020 01:30      53.9      52.9       36     27.4      0.00      7.53      60.3     0.47      1024.3     0.5     SSE   165   1.9      SE     138     266       -58       0.3       0.8      54.5      9.57
   02/01/2020 01:20      53.9      53.3       36     27.1      0.00      7.53      60.5     0.47      1024.3     1.3     SSE   158   2.4     SSE     150     265       -58       0.8       0.7      54.8      9.58
   02/01/2020 01:10      54.0      53.6       35     26.9      0.00      7.53      60.9     0.47      1024.2     0.6     SSE   165   2.2     SSE     165     265       -58       0.3       0.6      55.5      9.58
   02/01/2020 01:00      54.1      53.5       36     27.6      0.00      7.53      60.9     0.47      1024.3     1.1     SSE   156   2.7      SE     146     265       -59       0.5       0.6      55.7      9.58
   02/01/2020 00:50      54.8      53.6       36     27.9      0.00      7.53      60.9     0.47      1024.3     0.9      SE   140   2.3      SE     141     265       -60       0.4       0.5      55.9      9.58
   02/01/2020 00:40      55.7      54.4       34     27.0      0.00      7.53      61.0     0.47      1024.4     0.9      SE   138   1.9      SE     129     265       -60       0.2       0.4      56.1      9.58
   02/01/2020 00:30      55.3      54.2       34     27.2      0.00      7.53      60.9     0.47      1024.6     1.3     SSE   168   3.0       S     174     265       -59       0.9       0.4      56.3      9.58
   02/01/2020 00:20      54.6      53.7       36     27.9      0.00      7.53      60.3     0.47      1024.6     1.4     SSE   168   3.0     ESE     120     266       -60       0.6       0.2      55.9      9.58
   02/01/2020 00:10      55.3      54.5       36     28.1      0.00      7.53      60.3     0.47      1024.7     1.4     SSE   150   2.5     SSE     169     265       -61       0.7       0.1      56.1      9.59
   02/01/2020 00:00      54.8      54.5       36     28.6      0.00      7.53      60.4     0.47      1024.8     1.4     SSE   153   2.3      SE     136     266       -61       0.9      16.5      56.3      9.59


Back to data home page